<?xml version="1.0" encoding="UTF-8" standalone="no" ?>
<gpx xmlns="http://www.topografix.com/GPX/1/1" xmlns:xsi="http://www.w3.org/2001/XMLSchema-instance" xsi:schemaLocation="http://www.topografix.com/GPX/1/1 http://www.topografix.com/GPX/1/1/gpx.xsd" version="1.1" creator="VisuGPX - https://www.visugpx.com">
  <metadata>
    <name>22 km chemin des Dames - Berry le Bac</name>
    <desc><![CDATA[22km Chemin des Dames (Après la grotte du dragon) - Berry Le Bac]]></desc>
  </metadata>
  <trk>
    <name><![CDATA[29-AVR-17 05:47:02 PM]]></name>
    <trkseg>
      <trkpt lat="49.44101" lon="3.73787">
        <ele>157.79</ele>
        <time>2017-04-29T07:01:07Z</time>
      </trkpt>
      <trkpt lat="49.44105" lon="3.73787">
        <ele>156.35</ele>
        <time>2017-04-29T07:01:20Z</time>
      </trkpt>
      <trkpt lat="49.44105" lon="3.73787">
        <ele>160.2</ele>
        <time>2017-04-29T07:01:21Z</time>
      </trkpt>
      <trkpt lat="49.44105" lon="3.73787">
        <ele>159.72</ele>
        <time>2017-04-29T07:01:30Z</time>
      </trkpt>
      <trkpt lat="49.44106" lon="3.73786">
        <ele>160.68</ele>
        <time>2017-04-29T07:01:38Z</time>
      </trkpt>
      <trkpt lat="49.44109" lon="3.73786">
        <ele>160.68</ele>
        <time>2017-04-29T07:01:49Z</time>
      </trkpt>
      <trkpt lat="49.44111" lon="3.73787">
        <ele>160.68</ele>
        <time>2017-04-29T07:02:05Z</time>
      </trkpt>
      <trkpt lat="49.4411" lon="3.73784">
        <ele>160.68</ele>
        <time>2017-04-29T07:02:15Z</time>
      </trkpt>
      <trkpt lat="49.44108" lon="3.73785">
        <ele>160.68</ele>
        <time>2017-04-29T07:02:27Z</time>
      </trkpt>
      <trkpt lat="49.44107" lon="3.73784">
        <ele>161.64</ele>
        <time>2017-04-29T07:02:34Z</time>
      </trkpt>
      <trkpt lat="49.44108" lon="3.73788">
        <ele>161.16</ele>
        <time>2017-04-29T07:02:39Z</time>
      </trkpt>
      <trkpt lat="49.44108" lon="3.73788">
        <ele>160.68</ele>
        <time>2017-04-29T07:02:54Z</time>
      </trkpt>
      <trkpt lat="49.44108" lon="3.73789">
        <ele>161.64</ele>
        <time>2017-04-29T07:02:59Z</time>
      </trkpt>
      <trkpt lat="49.44108" lon="3.73789">
        <ele>161.64</ele>
        <time>2017-04-29T07:03:00Z</time>
      </trkpt>
      <trkpt lat="49.44109" lon="3.7379">
        <ele>161.64</ele>
        <time>2017-04-29T07:03:04Z</time>
      </trkpt>
      <trkpt lat="49.4411" lon="3.7379">
        <ele>161.64</ele>
        <time>2017-04-29T07:03:11Z</time>
      </trkpt>
      <trkpt lat="49.44112" lon="3.7379">
        <ele>161.64</ele>
        <time>2017-04-29T07:03:18Z</time>
      </trkpt>
      <trkpt lat="49.44112" lon="3.7379">
        <ele>161.64</ele>
        <time>2017-04-29T07:03:19Z</time>
      </trkpt>
      <trkpt lat="49.44114" lon="3.73798">
        <ele>161.64</ele>
        <time>2017-04-29T07:03:24Z</time>
      </trkpt>
      <trkpt lat="49.44115" lon="3.738">
        <ele>161.16</ele>
        <time>2017-04-29T07:03:25Z</time>
      </trkpt>
      <trkpt lat="49.44111" lon="3.73808">
        <ele>161.16</ele>
        <time>2017-04-29T07:03:32Z</time>
      </trkpt>
      <trkpt lat="49.44106" lon="3.73807">
        <ele>161.64</ele>
        <time>2017-04-29T07:03:38Z</time>
      </trkpt>
      <trkpt lat="49.44098" lon="3.73802">
        <ele>162.12</ele>
        <time>2017-04-29T07:03:46Z</time>
      </trkpt>
      <trkpt lat="49.44092" lon="3.73795">
        <ele>162.12</ele>
        <time>2017-04-29T07:03:54Z</time>
      </trkpt>
      <trkpt lat="49.44092" lon="3.73795">
        <ele>162.12</ele>
        <time>2017-04-29T07:03:57Z</time>
      </trkpt>
      <trkpt lat="49.44092" lon="3.73794">
        <ele>162.6</ele>
        <time>2017-04-29T07:04:03Z</time>
      </trkpt>
      <trkpt lat="49.44092" lon="3.73794">
        <ele>162.6</ele>
        <time>2017-04-29T07:04:14Z</time>
      </trkpt>
      <trkpt lat="49.44097" lon="3.738">
        <ele>162.6</ele>
        <time>2017-04-29T07:04:20Z</time>
      </trkpt>
      <trkpt lat="49.44102" lon="3.73803">
        <ele>162.12</ele>
        <time>2017-04-29T07:04:27Z</time>
      </trkpt>
      <trkpt lat="49.44109" lon="3.73807">
        <ele>161.64</ele>
        <time>2017-04-29T07:04:35Z</time>
      </trkpt>
      <trkpt lat="49.44111" lon="3.73808">
        <ele>161.64</ele>
        <time>2017-04-29T07:04:42Z</time>
      </trkpt>
      <trkpt lat="49.44112" lon="3.73807">
        <ele>161.64</ele>
        <time>2017-04-29T07:04:50Z</time>
      </trkpt>
      <trkpt lat="49.44113" lon="3.73808">
        <ele>161.64</ele>
        <time>2017-04-29T07:05:01Z</time>
      </trkpt>
      <trkpt lat="49.44114" lon="3.73808">
        <ele>162.12</ele>
        <time>2017-04-29T07:05:13Z</time>
      </trkpt>
      <trkpt lat="49.44114" lon="3.73809">
        <ele>162.12</ele>
        <time>2017-04-29T07:05:20Z</time>
      </trkpt>
      <trkpt lat="49.44114" lon="3.73808">
        <ele>162.12</ele>
        <time>2017-04-29T07:05:30Z</time>
      </trkpt>
      <trkpt lat="49.44114" lon="3.73809">
        <ele>162.12</ele>
        <time>2017-04-29T07:05:38Z</time>
      </trkpt>
      <trkpt lat="49.44114" lon="3.73809">
        <ele>162.12</ele>
        <time>2017-04-29T07:05:46Z</time>
      </trkpt>
      <trkpt lat="49.44114" lon="3.73809">
        <ele>162.12</ele>
        <time>2017-04-29T07:05:54Z</time>
      </trkpt>
      <trkpt lat="49.44114" lon="3.73809">
        <ele>162.12</ele>
        <time>2017-04-29T07:06:03Z</time>
      </trkpt>
      <trkpt lat="49.44115" lon="3.73809">
        <ele>162.12</ele>
        <time>2017-04-29T07:06:11Z</time>
      </trkpt>
      <trkpt lat="49.44116" lon="3.7381">
        <ele>162.12</ele>
        <time>2017-04-29T07:06:17Z</time>
      </trkpt>
      <trkpt lat="49.44116" lon="3.7381">
        <ele>162.12</ele>
        <time>2017-04-29T07:06:24Z</time>
      </trkpt>
      <trkpt lat="49.44116" lon="3.7381">
        <ele>162.12</ele>
        <time>2017-04-29T07:06:31Z</time>
      </trkpt>
      <trkpt lat="49.44116" lon="3.73811">
        <ele>162.12</ele>
        <time>2017-04-29T07:06:39Z</time>
      </trkpt>
      <trkpt lat="49.44117" lon="3.7381">
        <ele>162.6</ele>
        <time>2017-04-29T07:06:46Z</time>
      </trkpt>
      <trkpt lat="49.44117" lon="3.73811">
        <ele>162.6</ele>
        <time>2017-04-29T07:06:57Z</time>
      </trkpt>
      <trkpt lat="49.44117" lon="3.73811">
        <ele>162.6</ele>
        <time>2017-04-29T07:07:07Z</time>
      </trkpt>
      <trkpt lat="49.44117" lon="3.73811">
        <ele>162.6</ele>
        <time>2017-04-29T07:07:18Z</time>
      </trkpt>
      <trkpt lat="49.44116" lon="3.73811">
        <ele>162.6</ele>
        <time>2017-04-29T07:07:31Z</time>
      </trkpt>
      <trkpt lat="49.44116" lon="3.73811">
        <ele>162.6</ele>
        <time>2017-04-29T07:07:41Z</time>
      </trkpt>
      <trkpt lat="49.44116" lon="3.73811">
        <ele>162.6</ele>
        <time>2017-04-29T07:07:58Z</time>
      </trkpt>
      <trkpt lat="49.44116" lon="3.7381">
        <ele>162.6</ele>
        <time>2017-04-29T07:08:06Z</time>
      </trkpt>
      <trkpt lat="49.44117" lon="3.73808">
        <ele>162.6</ele>
        <time>2017-04-29T07:08:14Z</time>
      </trkpt>
      <trkpt lat="49.44115" lon="3.7381">
        <ele>162.6</ele>
        <time>2017-04-29T07:08:20Z</time>
      </trkpt>
      <trkpt lat="49.44115" lon="3.7381">
        <ele>162.6</ele>
        <time>2017-04-29T07:08:29Z</time>
      </trkpt>
      <trkpt lat="49.44115" lon="3.7381">
        <ele>163.08</ele>
        <time>2017-04-29T07:08:40Z</time>
      </trkpt>
      <trkpt lat="49.44116" lon="3.73811">
        <ele>163.08</ele>
        <time>2017-04-29T07:08:53Z</time>
      </trkpt>
      <trkpt lat="49.44116" lon="3.73812">
        <ele>162.6</ele>
        <time>2017-04-29T07:09:07Z</time>
      </trkpt>
      <trkpt lat="49.44117" lon="3.73812">
        <ele>162.6</ele>
        <time>2017-04-29T07:09:22Z</time>
      </trkpt>
      <trkpt lat="49.44116" lon="3.73811">
        <ele>163.08</ele>
        <time>2017-04-29T07:09:39Z</time>
      </trkpt>
      <trkpt lat="49.44116" lon="3.73811">
        <ele>163.08</ele>
        <time>2017-04-29T07:09:54Z</time>
      </trkpt>
      <trkpt lat="49.44116" lon="3.73812">
        <ele>163.08</ele>
        <time>2017-04-29T07:10:09Z</time>
      </trkpt>
      <trkpt lat="49.44116" lon="3.73812">
        <ele>163.08</ele>
        <time>2017-04-29T07:10:24Z</time>
      </trkpt>
      <trkpt lat="49.44115" lon="3.73812">
        <ele>163.08</ele>
        <time>2017-04-29T07:10:38Z</time>
      </trkpt>
      <trkpt lat="49.44115" lon="3.73812">
        <ele>163.56</ele>
        <time>2017-04-29T07:10:55Z</time>
      </trkpt>
      <trkpt lat="49.44115" lon="3.73812">
        <ele>163.56</ele>
        <time>2017-04-29T07:11:09Z</time>
      </trkpt>
      <trkpt lat="49.44114" lon="3.73812">
        <ele>163.56</ele>
        <time>2017-04-29T07:11:11Z</time>
      </trkpt>
      <trkpt lat="49.44113" lon="3.73813">
        <ele>163.56</ele>
        <time>2017-04-29T07:11:13Z</time>
      </trkpt>
      <trkpt lat="49.44111" lon="3.73812">
        <ele>163.56</ele>
        <time>2017-04-29T07:11:15Z</time>
      </trkpt>
      <trkpt lat="49.44104" lon="3.73808">
        <ele>164.04</ele>
        <time>2017-04-29T07:11:23Z</time>
      </trkpt>
      <trkpt lat="49.44099" lon="3.73805">
        <ele>164.52</ele>
        <time>2017-04-29T07:11:30Z</time>
      </trkpt>
      <trkpt lat="49.44095" lon="3.73802">
        <ele>164.52</ele>
        <time>2017-04-29T07:11:37Z</time>
      </trkpt>
      <trkpt lat="49.44095" lon="3.738">
        <ele>164.52</ele>
        <time>2017-04-29T07:11:44Z</time>
      </trkpt>
      <trkpt lat="49.44094" lon="3.73801">
        <ele>164.52</ele>
        <time>2017-04-29T07:11:56Z</time>
      </trkpt>
      <trkpt lat="49.44094" lon="3.73801">
        <ele>164.52</ele>
        <time>2017-04-29T07:12:09Z</time>
      </trkpt>
      <trkpt lat="49.44094" lon="3.73801">
        <ele>165</ele>
        <time>2017-04-29T07:12:22Z</time>
      </trkpt>
      <trkpt lat="49.44094" lon="3.73801">
        <ele>165</ele>
        <time>2017-04-29T07:12:33Z</time>
      </trkpt>
      <trkpt lat="49.44094" lon="3.738">
        <ele>165</ele>
        <time>2017-04-29T07:12:40Z</time>
      </trkpt>
      <trkpt lat="49.44094" lon="3.73799">
        <ele>165</ele>
        <time>2017-04-29T07:12:50Z</time>
      </trkpt>
      <trkpt lat="49.44094" lon="3.73799">
        <ele>165</ele>
        <time>2017-04-29T07:13:04Z</time>
      </trkpt>
      <trkpt lat="49.44094" lon="3.73799">
        <ele>165</ele>
        <time>2017-04-29T07:13:16Z</time>
      </trkpt>
      <trkpt lat="49.44094" lon="3.73798">
        <ele>165.48</ele>
        <time>2017-04-29T07:13:32Z</time>
      </trkpt>
      <trkpt lat="49.44093" lon="3.73799">
        <ele>165.48</ele>
        <time>2017-04-29T07:13:41Z</time>
      </trkpt>
      <trkpt lat="49.44093" lon="3.73799">
        <ele>165.48</ele>
        <time>2017-04-29T07:13:48Z</time>
      </trkpt>
      <trkpt lat="49.44093" lon="3.73799">
        <ele>165.48</ele>
        <time>2017-04-29T07:14:00Z</time>
      </trkpt>
      <trkpt lat="49.44093" lon="3.73798">
        <ele>165.48</ele>
        <time>2017-04-29T07:14:10Z</time>
      </trkpt>
      <trkpt lat="49.44093" lon="3.73798">
        <ele>165.48</ele>
        <time>2017-04-29T07:14:21Z</time>
      </trkpt>
      <trkpt lat="49.44093" lon="3.73798">
        <ele>165.96</ele>
        <time>2017-04-29T07:14:35Z</time>
      </trkpt>
      <trkpt lat="49.44094" lon="3.73799">
        <ele>165.96</ele>
        <time>2017-04-29T07:14:45Z</time>
      </trkpt>
      <trkpt lat="49.44094" lon="3.73799">
        <ele>166.45</ele>
        <time>2017-04-29T07:14:53Z</time>
      </trkpt>
      <trkpt lat="49.44094" lon="3.73799">
        <ele>165.96</ele>
        <time>2017-04-29T07:15:00Z</time>
      </trkpt>
      <trkpt lat="49.44094" lon="3.738">
        <ele>165.96</ele>
        <time>2017-04-29T07:15:09Z</time>
      </trkpt>
      <trkpt lat="49.44094" lon="3.73802">
        <ele>165.96</ele>
        <time>2017-04-29T07:15:16Z</time>
      </trkpt>
      <trkpt lat="49.44093" lon="3.73802">
        <ele>165.96</ele>
        <time>2017-04-29T07:15:24Z</time>
      </trkpt>
      <trkpt lat="49.44094" lon="3.73803">
        <ele>165.96</ele>
        <time>2017-04-29T07:15:33Z</time>
      </trkpt>
      <trkpt lat="49.44094" lon="3.73804">
        <ele>165.96</ele>
        <time>2017-04-29T07:15:40Z</time>
      </trkpt>
      <trkpt lat="49.44096" lon="3.73805">
        <ele>165.96</ele>
        <time>2017-04-29T07:15:43Z</time>
      </trkpt>
      <trkpt lat="49.44099" lon="3.73807">
        <ele>165.96</ele>
        <time>2017-04-29T07:15:46Z</time>
      </trkpt>
      <trkpt lat="49.44101" lon="3.73808">
        <ele>165.96</ele>
        <time>2017-04-29T07:15:49Z</time>
      </trkpt>
      <trkpt lat="49.44107" lon="3.73811">
        <ele>165.48</ele>
        <time>2017-04-29T07:15:55Z</time>
      </trkpt>
      <trkpt lat="49.44115" lon="3.73815">
        <ele>165</ele>
        <time>2017-04-29T07:16:03Z</time>
      </trkpt>
      <trkpt lat="49.44124" lon="3.73821">
        <ele>165</ele>
        <time>2017-04-29T07:16:12Z</time>
      </trkpt>
      <trkpt lat="49.44132" lon="3.73826">
        <ele>164.04</ele>
        <time>2017-04-29T07:16:19Z</time>
      </trkpt>
      <trkpt lat="49.44136" lon="3.73829">
        <ele>164.04</ele>
        <time>2017-04-29T07:16:23Z</time>
      </trkpt>
      <trkpt lat="49.44145" lon="3.73836">
        <ele>163.56</ele>
        <time>2017-04-29T07:16:31Z</time>
      </trkpt>
      <trkpt lat="49.44154" lon="3.73842">
        <ele>163.08</ele>
        <time>2017-04-29T07:16:39Z</time>
      </trkpt>
      <trkpt lat="49.44155" lon="3.73842">
        <ele>163.08</ele>
        <time>2017-04-29T07:16:40Z</time>
      </trkpt>
      <trkpt lat="49.44163" lon="3.73847">
        <ele>162.6</ele>
        <time>2017-04-29T07:16:47Z</time>
      </trkpt>
      <trkpt lat="49.44171" lon="3.73851">
        <ele>161.64</ele>
        <time>2017-04-29T07:16:55Z</time>
      </trkpt>
      <trkpt lat="49.4418" lon="3.73854">
        <ele>161.16</ele>
        <time>2017-04-29T07:17:03Z</time>
      </trkpt>
      <trkpt lat="49.44189" lon="3.73854">
        <ele>160.68</ele>
        <time>2017-04-29T07:17:11Z</time>
      </trkpt>
      <trkpt lat="49.44198" lon="3.73853">
        <ele>159.72</ele>
        <time>2017-04-29T07:17:19Z</time>
      </trkpt>
      <trkpt lat="49.44207" lon="3.73853">
        <ele>159.24</ele>
        <time>2017-04-29T07:17:27Z</time>
      </trkpt>
      <trkpt lat="49.44215" lon="3.73855">
        <ele>158.27</ele>
        <time>2017-04-29T07:17:35Z</time>
      </trkpt>
      <trkpt lat="49.44222" lon="3.73854">
        <ele>157.79</ele>
        <time>2017-04-29T07:17:41Z</time>
      </trkpt>
      <trkpt lat="49.44229" lon="3.73854">
        <ele>157.31</ele>
        <time>2017-04-29T07:17:48Z</time>
      </trkpt>
      <trkpt lat="49.44237" lon="3.73854">
        <ele>156.83</ele>
        <time>2017-04-29T07:17:55Z</time>
      </trkpt>
      <trkpt lat="49.44248" lon="3.7385">
        <ele>156.35</ele>
        <time>2017-04-29T07:18:04Z</time>
      </trkpt>
      <trkpt lat="49.44249" lon="3.7385">
        <ele>156.35</ele>
        <time>2017-04-29T07:18:05Z</time>
      </trkpt>
      <trkpt lat="49.44252" lon="3.7385">
        <ele>155.87</ele>
        <time>2017-04-29T07:18:08Z</time>
      </trkpt>
      <trkpt lat="49.44258" lon="3.73847">
        <ele>155.39</ele>
        <time>2017-04-29T07:18:15Z</time>
      </trkpt>
      <trkpt lat="49.4426" lon="3.73847">
        <ele>155.39</ele>
        <time>2017-04-29T07:18:17Z</time>
      </trkpt>
      <trkpt lat="49.44268" lon="3.73844">
        <ele>154.91</ele>
        <time>2017-04-29T07:18:25Z</time>
      </trkpt>
      <trkpt lat="49.44269" lon="3.73843">
        <ele>154.43</ele>
        <time>2017-04-29T07:18:26Z</time>
      </trkpt>
      <trkpt lat="49.44275" lon="3.7384">
        <ele>154.43</ele>
        <time>2017-04-29T07:18:31Z</time>
      </trkpt>
      <trkpt lat="49.44284" lon="3.73838">
        <ele>153.95</ele>
        <time>2017-04-29T07:18:38Z</time>
      </trkpt>
      <trkpt lat="49.4429" lon="3.73833">
        <ele>152.99</ele>
        <time>2017-04-29T07:18:45Z</time>
      </trkpt>
      <trkpt lat="49.44291" lon="3.73831">
        <ele>152.99</ele>
        <time>2017-04-29T07:18:47Z</time>
      </trkpt>
      <trkpt lat="49.44301" lon="3.73823">
        <ele>152.51</ele>
        <time>2017-04-29T07:18:55Z</time>
      </trkpt>
      <trkpt lat="49.44311" lon="3.73818">
        <ele>152.03</ele>
        <time>2017-04-29T07:19:03Z</time>
      </trkpt>
      <trkpt lat="49.44319" lon="3.73814">
        <ele>151.54</ele>
        <time>2017-04-29T07:19:10Z</time>
      </trkpt>
      <trkpt lat="49.44321" lon="3.73813">
        <ele>151.06</ele>
        <time>2017-04-29T07:19:13Z</time>
      </trkpt>
      <trkpt lat="49.4433" lon="3.73808">
        <ele>150.58</ele>
        <time>2017-04-29T07:19:21Z</time>
      </trkpt>
      <trkpt lat="49.44338" lon="3.73807">
        <ele>150.1</ele>
        <time>2017-04-29T07:19:28Z</time>
      </trkpt>
      <trkpt lat="49.44345" lon="3.73806">
        <ele>149.62</ele>
        <time>2017-04-29T07:19:35Z</time>
      </trkpt>
      <trkpt lat="49.44352" lon="3.73802">
        <ele>149.14</ele>
        <time>2017-04-29T07:19:42Z</time>
      </trkpt>
      <trkpt lat="49.44354" lon="3.73801">
        <ele>148.66</ele>
        <time>2017-04-29T07:19:44Z</time>
      </trkpt>
      <trkpt lat="49.44364" lon="3.73799">
        <ele>148.18</ele>
        <time>2017-04-29T07:19:52Z</time>
      </trkpt>
      <trkpt lat="49.4437" lon="3.73802">
        <ele>147.7</ele>
        <time>2017-04-29T07:19:59Z</time>
      </trkpt>
      <trkpt lat="49.44375" lon="3.73802">
        <ele>147.22</ele>
        <time>2017-04-29T07:20:03Z</time>
      </trkpt>
      <trkpt lat="49.44383" lon="3.73804">
        <ele>147.22</ele>
        <time>2017-04-29T07:20:10Z</time>
      </trkpt>
      <trkpt lat="49.44389" lon="3.73805">
        <ele>146.74</ele>
        <time>2017-04-29T07:20:15Z</time>
      </trkpt>
      <trkpt lat="49.44397" lon="3.73806">
        <ele>146.26</ele>
        <time>2017-04-29T07:20:22Z</time>
      </trkpt>
      <trkpt lat="49.44403" lon="3.73805">
        <ele>146.26</ele>
        <time>2017-04-29T07:20:27Z</time>
      </trkpt>
      <trkpt lat="49.44414" lon="3.73807">
        <ele>145.78</ele>
        <time>2017-04-29T07:20:36Z</time>
      </trkpt>
      <trkpt lat="49.44421" lon="3.73809">
        <ele>145.3</ele>
        <time>2017-04-29T07:20:42Z</time>
      </trkpt>
      <trkpt lat="49.44426" lon="3.73807">
        <ele>145.3</ele>
        <time>2017-04-29T07:20:48Z</time>
      </trkpt>
      <trkpt lat="49.44427" lon="3.73806">
        <ele>145.3</ele>
        <time>2017-04-29T07:20:49Z</time>
      </trkpt>
      <trkpt lat="49.44431" lon="3.73807">
        <ele>145.78</ele>
        <time>2017-04-29T07:20:54Z</time>
      </trkpt>
      <trkpt lat="49.44436" lon="3.73807">
        <ele>144.82</ele>
        <time>2017-04-29T07:20:57Z</time>
      </trkpt>
      <trkpt lat="49.44449" lon="3.73809">
        <ele>144.34</ele>
        <time>2017-04-29T07:21:05Z</time>
      </trkpt>
      <trkpt lat="49.44458" lon="3.73805">
        <ele>144.34</ele>
        <time>2017-04-29T07:21:12Z</time>
      </trkpt>
      <trkpt lat="49.44465" lon="3.73802">
        <ele>143.85</ele>
        <time>2017-04-29T07:21:18Z</time>
      </trkpt>
      <trkpt lat="49.44477" lon="3.73799">
        <ele>143.37</ele>
        <time>2017-04-29T07:21:27Z</time>
      </trkpt>
      <trkpt lat="49.44485" lon="3.73795">
        <ele>142.89</ele>
        <time>2017-04-29T07:21:35Z</time>
      </trkpt>
      <trkpt lat="49.445" lon="3.73795">
        <ele>142.41</ele>
        <time>2017-04-29T07:21:44Z</time>
      </trkpt>
      <trkpt lat="49.44509" lon="3.73801">
        <ele>141.93</ele>
        <time>2017-04-29T07:21:51Z</time>
      </trkpt>
      <trkpt lat="49.44516" lon="3.73801">
        <ele>141.45</ele>
        <time>2017-04-29T07:21:58Z</time>
      </trkpt>
      <trkpt lat="49.44521" lon="3.738">
        <ele>140.97</ele>
        <time>2017-04-29T07:22:04Z</time>
      </trkpt>
      <trkpt lat="49.44526" lon="3.73799">
        <ele>140.49</ele>
        <time>2017-04-29T07:22:09Z</time>
      </trkpt>
      <trkpt lat="49.44536" lon="3.73803">
        <ele>140.01</ele>
        <time>2017-04-29T07:22:17Z</time>
      </trkpt>
      <trkpt lat="49.44543" lon="3.73804">
        <ele>139.53</ele>
        <time>2017-04-29T07:22:22Z</time>
      </trkpt>
      <trkpt lat="49.44546" lon="3.73806">
        <ele>139.53</ele>
        <time>2017-04-29T07:22:26Z</time>
      </trkpt>
      <trkpt lat="49.44553" lon="3.73813">
        <ele>139.05</ele>
        <time>2017-04-29T07:22:34Z</time>
      </trkpt>
      <trkpt lat="49.44556" lon="3.73815">
        <ele>138.57</ele>
        <time>2017-04-29T07:22:37Z</time>
      </trkpt>
      <trkpt lat="49.44564" lon="3.7382">
        <ele>138.09</ele>
        <time>2017-04-29T07:22:45Z</time>
      </trkpt>
      <trkpt lat="49.44569" lon="3.7382">
        <ele>138.09</ele>
        <time>2017-04-29T07:22:48Z</time>
      </trkpt>
      <trkpt lat="49.44573" lon="3.73823">
        <ele>137.61</ele>
        <time>2017-04-29T07:22:52Z</time>
      </trkpt>
      <trkpt lat="49.44586" lon="3.73821">
        <ele>137.61</ele>
        <time>2017-04-29T07:22:59Z</time>
      </trkpt>
      <trkpt lat="49.44591" lon="3.7382">
        <ele>137.13</ele>
        <time>2017-04-29T07:23:02Z</time>
      </trkpt>
      <trkpt lat="49.44594" lon="3.7382">
        <ele>137.13</ele>
        <time>2017-04-29T07:23:04Z</time>
      </trkpt>
      <trkpt lat="49.44603" lon="3.73824">
        <ele>136.64</ele>
        <time>2017-04-29T07:23:12Z</time>
      </trkpt>
      <trkpt lat="49.4461" lon="3.73827">
        <ele>136.64</ele>
        <time>2017-04-29T07:23:19Z</time>
      </trkpt>
      <trkpt lat="49.44615" lon="3.73827">
        <ele>136.16</ele>
        <time>2017-04-29T07:23:25Z</time>
      </trkpt>
      <trkpt lat="49.4462" lon="3.73825">
        <ele>136.16</ele>
        <time>2017-04-29T07:23:30Z</time>
      </trkpt>
      <trkpt lat="49.44627" lon="3.73822">
        <ele>136.16</ele>
        <time>2017-04-29T07:23:35Z</time>
      </trkpt>
      <trkpt lat="49.44636" lon="3.73819">
        <ele>135.2</ele>
        <time>2017-04-29T07:23:43Z</time>
      </trkpt>
      <trkpt lat="49.44641" lon="3.73818">
        <ele>135.2</ele>
        <time>2017-04-29T07:23:47Z</time>
      </trkpt>
      <trkpt lat="49.44648" lon="3.73813">
        <ele>135.2</ele>
        <time>2017-04-29T07:23:52Z</time>
      </trkpt>
      <trkpt lat="49.44654" lon="3.73812">
        <ele>134.72</ele>
        <time>2017-04-29T07:23:56Z</time>
      </trkpt>
      <trkpt lat="49.44661" lon="3.73815">
        <ele>134.72</ele>
        <time>2017-04-29T07:24:02Z</time>
      </trkpt>
      <trkpt lat="49.44668" lon="3.73815">
        <ele>134.72</ele>
        <time>2017-04-29T07:24:07Z</time>
      </trkpt>
      <trkpt lat="49.44682" lon="3.73812">
        <ele>134.72</ele>
        <time>2017-04-29T07:24:15Z</time>
      </trkpt>
      <trkpt lat="49.44692" lon="3.73813">
        <ele>134.24</ele>
        <time>2017-04-29T07:24:23Z</time>
      </trkpt>
      <trkpt lat="49.44699" lon="3.73815">
        <ele>133.76</ele>
        <time>2017-04-29T07:24:29Z</time>
      </trkpt>
      <trkpt lat="49.44705" lon="3.73819">
        <ele>133.76</ele>
        <time>2017-04-29T07:24:34Z</time>
      </trkpt>
      <trkpt lat="49.44715" lon="3.73821">
        <ele>133.28</ele>
        <time>2017-04-29T07:24:42Z</time>
      </trkpt>
      <trkpt lat="49.44722" lon="3.73829">
        <ele>132.8</ele>
        <time>2017-04-29T07:24:50Z</time>
      </trkpt>
      <trkpt lat="49.44726" lon="3.73833">
        <ele>132.8</ele>
        <time>2017-04-29T07:24:55Z</time>
      </trkpt>
      <trkpt lat="49.44737" lon="3.73841">
        <ele>132.32</ele>
        <time>2017-04-29T07:25:05Z</time>
      </trkpt>
      <trkpt lat="49.44747" lon="3.73848">
        <ele>132.32</ele>
        <time>2017-04-29T07:25:14Z</time>
      </trkpt>
      <trkpt lat="49.44751" lon="3.73848">
        <ele>131.84</ele>
        <time>2017-04-29T07:25:18Z</time>
      </trkpt>
      <trkpt lat="49.44758" lon="3.73862">
        <ele>131.36</ele>
        <time>2017-04-29T07:25:27Z</time>
      </trkpt>
      <trkpt lat="49.44759" lon="3.73867">
        <ele>131.84</ele>
        <time>2017-04-29T07:25:32Z</time>
      </trkpt>
      <trkpt lat="49.4476" lon="3.73872">
        <ele>131.84</ele>
        <time>2017-04-29T07:25:38Z</time>
      </trkpt>
      <trkpt lat="49.44761" lon="3.73875">
        <ele>131.36</ele>
        <time>2017-04-29T07:25:43Z</time>
      </trkpt>
      <trkpt lat="49.44762" lon="3.73878">
        <ele>131.36</ele>
        <time>2017-04-29T07:25:45Z</time>
      </trkpt>
      <trkpt lat="49.44766" lon="3.73892">
        <ele>130.88</ele>
        <time>2017-04-29T07:25:54Z</time>
      </trkpt>
      <trkpt lat="49.44771" lon="3.73905">
        <ele>130.4</ele>
        <time>2017-04-29T07:26:02Z</time>
      </trkpt>
      <trkpt lat="49.44771" lon="3.73907">
        <ele>130.4</ele>
        <time>2017-04-29T07:26:03Z</time>
      </trkpt>
      <trkpt lat="49.44772" lon="3.73915">
        <ele>129.92</ele>
        <time>2017-04-29T07:26:07Z</time>
      </trkpt>
      <trkpt lat="49.44773" lon="3.73919">
        <ele>129.92</ele>
        <time>2017-04-29T07:26:09Z</time>
      </trkpt>
      <trkpt lat="49.44777" lon="3.73937">
        <ele>128.95</ele>
        <time>2017-04-29T07:26:19Z</time>
      </trkpt>
      <trkpt lat="49.44778" lon="3.73941">
        <ele>128.95</ele>
        <time>2017-04-29T07:26:21Z</time>
      </trkpt>
      <trkpt lat="49.44778" lon="3.73955">
        <ele>128.47</ele>
        <time>2017-04-29T07:26:28Z</time>
      </trkpt>
      <trkpt lat="49.44779" lon="3.73969">
        <ele>128.47</ele>
        <time>2017-04-29T07:26:36Z</time>
      </trkpt>
      <trkpt lat="49.44779" lon="3.73974">
        <ele>127.99</ele>
        <time>2017-04-29T07:26:40Z</time>
      </trkpt>
      <trkpt lat="49.4478" lon="3.7398">
        <ele>127.99</ele>
        <time>2017-04-29T07:26:43Z</time>
      </trkpt>
      <trkpt lat="49.4478" lon="3.73983">
        <ele>127.99</ele>
        <time>2017-04-29T07:26:45Z</time>
      </trkpt>
      <trkpt lat="49.44779" lon="3.73996">
        <ele>127.03</ele>
        <time>2017-04-29T07:26:52Z</time>
      </trkpt>
      <trkpt lat="49.44781" lon="3.74008">
        <ele>127.03</ele>
        <time>2017-04-29T07:26:59Z</time>
      </trkpt>
      <trkpt lat="49.44779" lon="3.7402">
        <ele>126.55</ele>
        <time>2017-04-29T07:27:06Z</time>
      </trkpt>
      <trkpt lat="49.44777" lon="3.74025">
        <ele>126.55</ele>
        <time>2017-04-29T07:27:14Z</time>
      </trkpt>
      <trkpt lat="49.44776" lon="3.74028">
        <ele>126.55</ele>
        <time>2017-04-29T07:27:24Z</time>
      </trkpt>
      <trkpt lat="49.44777" lon="3.7403">
        <ele>127.03</ele>
        <time>2017-04-29T07:27:33Z</time>
      </trkpt>
      <trkpt lat="49.44778" lon="3.74031">
        <ele>127.03</ele>
        <time>2017-04-29T07:27:40Z</time>
      </trkpt>
      <trkpt lat="49.44778" lon="3.74036">
        <ele>127.03</ele>
        <time>2017-04-29T07:27:53Z</time>
      </trkpt>
      <trkpt lat="49.44778" lon="3.74039">
        <ele>127.51</ele>
        <time>2017-04-29T07:28:06Z</time>
      </trkpt>
      <trkpt lat="49.44778" lon="3.7404">
        <ele>127.51</ele>
        <time>2017-04-29T07:28:16Z</time>
      </trkpt>
      <trkpt lat="49.4478" lon="3.74041">
        <ele>127.99</ele>
        <time>2017-04-29T07:28:23Z</time>
      </trkpt>
      <trkpt lat="49.44782" lon="3.74041">
        <ele>127.99</ele>
        <time>2017-04-29T07:28:34Z</time>
      </trkpt>
      <trkpt lat="49.44783" lon="3.74042">
        <ele>127.99</ele>
        <time>2017-04-29T07:28:43Z</time>
      </trkpt>
      <trkpt lat="49.44783" lon="3.7404">
        <ele>127.99</ele>
        <time>2017-04-29T07:28:52Z</time>
      </trkpt>
      <trkpt lat="49.44784" lon="3.7404">
        <ele>127.99</ele>
        <time>2017-04-29T07:29:01Z</time>
      </trkpt>
      <trkpt lat="49.44785" lon="3.7404">
        <ele>127.99</ele>
        <time>2017-04-29T07:29:14Z</time>
      </trkpt>
      <trkpt lat="49.44785" lon="3.74039">
        <ele>128.47</ele>
        <time>2017-04-29T07:29:32Z</time>
      </trkpt>
      <trkpt lat="49.44786" lon="3.7404">
        <ele>128.47</ele>
        <time>2017-04-29T07:29:47Z</time>
      </trkpt>
      <trkpt lat="49.44786" lon="3.7404">
        <ele>128.47</ele>
        <time>2017-04-29T07:30:00Z</time>
      </trkpt>
      <trkpt lat="49.44787" lon="3.74039">
        <ele>128.47</ele>
        <time>2017-04-29T07:30:17Z</time>
      </trkpt>
      <trkpt lat="49.44788" lon="3.74038">
        <ele>128.47</ele>
        <time>2017-04-29T07:30:33Z</time>
      </trkpt>
      <trkpt lat="49.44788" lon="3.74038">
        <ele>128.47</ele>
        <time>2017-04-29T07:30:47Z</time>
      </trkpt>
      <trkpt lat="49.44788" lon="3.74039">
        <ele>127.99</ele>
        <time>2017-04-29T07:30:53Z</time>
      </trkpt>
      <trkpt lat="49.44788" lon="3.7404">
        <ele>127.99</ele>
        <time>2017-04-29T07:31:04Z</time>
      </trkpt>
      <trkpt lat="49.44787" lon="3.7404">
        <ele>127.99</ele>
        <time>2017-04-29T07:31:13Z</time>
      </trkpt>
      <trkpt lat="49.44785" lon="3.74041">
        <ele>127.99</ele>
        <time>2017-04-29T07:31:27Z</time>
      </trkpt>
      <trkpt lat="49.44785" lon="3.74042">
        <ele>127.99</ele>
        <time>2017-04-29T07:31:40Z</time>
      </trkpt>
      <trkpt lat="49.44785" lon="3.74042">
        <ele>127.99</ele>
        <time>2017-04-29T07:31:54Z</time>
      </trkpt>
      <trkpt lat="49.44789" lon="3.74043">
        <ele>128.47</ele>
        <time>2017-04-29T07:32:02Z</time>
      </trkpt>
      <trkpt lat="49.44791" lon="3.74044">
        <ele>128.47</ele>
        <time>2017-04-29T07:32:07Z</time>
      </trkpt>
      <trkpt lat="49.44797" lon="3.74049">
        <ele>128.47</ele>
        <time>2017-04-29T07:32:15Z</time>
      </trkpt>
      <trkpt lat="49.44798" lon="3.74049">
        <ele>127.99</ele>
        <time>2017-04-29T07:32:16Z</time>
      </trkpt>
      <trkpt lat="49.44803" lon="3.74052">
        <ele>127.99</ele>
        <time>2017-04-29T07:32:22Z</time>
      </trkpt>
      <trkpt lat="49.44808" lon="3.74055">
        <ele>127.99</ele>
        <time>2017-04-29T07:32:26Z</time>
      </trkpt>
      <trkpt lat="49.44816" lon="3.74062">
        <ele>127.51</ele>
        <time>2017-04-29T07:32:34Z</time>
      </trkpt>
      <trkpt lat="49.44821" lon="3.74064">
        <ele>127.51</ele>
        <time>2017-04-29T07:32:38Z</time>
      </trkpt>
      <trkpt lat="49.44826" lon="3.74067">
        <ele>127.03</ele>
        <time>2017-04-29T07:32:42Z</time>
      </trkpt>
      <trkpt lat="49.44835" lon="3.74068">
        <ele>126.55</ele>
        <time>2017-04-29T07:32:51Z</time>
      </trkpt>
      <trkpt lat="49.44839" lon="3.74069">
        <ele>126.07</ele>
        <time>2017-04-29T07:32:56Z</time>
      </trkpt>
      <trkpt lat="49.44843" lon="3.74073">
        <ele>125.59</ele>
        <time>2017-04-29T07:33:02Z</time>
      </trkpt>
      <trkpt lat="49.44848" lon="3.74077">
        <ele>125.11</ele>
        <time>2017-04-29T07:33:05Z</time>
      </trkpt>
      <trkpt lat="49.44858" lon="3.74084">
        <ele>123.67</ele>
        <time>2017-04-29T07:33:14Z</time>
      </trkpt>
      <trkpt lat="49.44861" lon="3.74086">
        <ele>123.67</ele>
        <time>2017-04-29T07:33:18Z</time>
      </trkpt>
      <trkpt lat="49.44868" lon="3.74091">
        <ele>122.71</ele>
        <time>2017-04-29T07:33:25Z</time>
      </trkpt>
      <trkpt lat="49.44875" lon="3.74094">
        <ele>122.22</ele>
        <time>2017-04-29T07:33:31Z</time>
      </trkpt>
      <trkpt lat="49.44881" lon="3.74098">
        <ele>121.26</ele>
        <time>2017-04-29T07:33:38Z</time>
      </trkpt>
      <trkpt lat="49.4489" lon="3.74095">
        <ele>121.26</ele>
        <time>2017-04-29T07:33:44Z</time>
      </trkpt>
      <trkpt lat="49.44895" lon="3.74098">
        <ele>120.78</ele>
        <time>2017-04-29T07:33:51Z</time>
      </trkpt>
      <trkpt lat="49.44899" lon="3.74101">
        <ele>120.3</ele>
        <time>2017-04-29T07:33:56Z</time>
      </trkpt>
      <trkpt lat="49.44904" lon="3.74103">
        <ele>119.82</ele>
        <time>2017-04-29T07:34:01Z</time>
      </trkpt>
      <trkpt lat="49.44905" lon="3.74104">
        <ele>119.34</ele>
        <time>2017-04-29T07:34:02Z</time>
      </trkpt>
      <trkpt lat="49.44912" lon="3.74113">
        <ele>118.86</ele>
        <time>2017-04-29T07:34:09Z</time>
      </trkpt>
      <trkpt lat="49.4492" lon="3.74122">
        <ele>118.38</ele>
        <time>2017-04-29T07:34:16Z</time>
      </trkpt>
      <trkpt lat="49.44929" lon="3.74129">
        <ele>117.9</ele>
        <time>2017-04-29T07:34:23Z</time>
      </trkpt>
      <trkpt lat="49.44934" lon="3.7413">
        <ele>116.94</ele>
        <time>2017-04-29T07:34:30Z</time>
      </trkpt>
      <trkpt lat="49.44935" lon="3.74131">
        <ele>116.94</ele>
        <time>2017-04-29T07:34:31Z</time>
      </trkpt>
      <trkpt lat="49.44943" lon="3.74134">
        <ele>115.98</ele>
        <time>2017-04-29T07:34:38Z</time>
      </trkpt>
      <trkpt lat="49.44949" lon="3.74132">
        <ele>115.5</ele>
        <time>2017-04-29T07:34:45Z</time>
      </trkpt>
      <trkpt lat="49.4496" lon="3.7413">
        <ele>114.53</ele>
        <time>2017-04-29T07:34:53Z</time>
      </trkpt>
      <trkpt lat="49.44967" lon="3.74138">
        <ele>114.05</ele>
        <time>2017-04-29T07:34:59Z</time>
      </trkpt>
      <trkpt lat="49.44974" lon="3.74147">
        <ele>113.57</ele>
        <time>2017-04-29T07:35:06Z</time>
      </trkpt>
      <trkpt lat="49.4498" lon="3.74152">
        <ele>112.61</ele>
        <time>2017-04-29T07:35:12Z</time>
      </trkpt>
      <trkpt lat="49.44988" lon="3.74158">
        <ele>111.65</ele>
        <time>2017-04-29T07:35:19Z</time>
      </trkpt>
      <trkpt lat="49.44991" lon="3.7416">
        <ele>111.65</ele>
        <time>2017-04-29T07:35:22Z</time>
      </trkpt>
      <trkpt lat="49.44997" lon="3.74165">
        <ele>110.69</ele>
        <time>2017-04-29T07:35:28Z</time>
      </trkpt>
      <trkpt lat="49.45005" lon="3.7417">
        <ele>110.21</ele>
        <time>2017-04-29T07:35:35Z</time>
      </trkpt>
      <trkpt lat="49.45013" lon="3.74173">
        <ele>108.77</ele>
        <time>2017-04-29T07:35:43Z</time>
      </trkpt>
      <trkpt lat="49.45019" lon="3.74177">
        <ele>108.29</ele>
        <time>2017-04-29T07:35:49Z</time>
      </trkpt>
      <trkpt lat="49.45027" lon="3.74184">
        <ele>107.32</ele>
        <time>2017-04-29T07:35:58Z</time>
      </trkpt>
      <trkpt lat="49.4503" lon="3.74187">
        <ele>106.84</ele>
        <time>2017-04-29T07:36:01Z</time>
      </trkpt>
      <trkpt lat="49.45038" lon="3.74197">
        <ele>105.88</ele>
        <time>2017-04-29T07:36:09Z</time>
      </trkpt>
      <trkpt lat="49.45041" lon="3.74201">
        <ele>105.88</ele>
        <time>2017-04-29T07:36:12Z</time>
      </trkpt>
      <trkpt lat="49.45048" lon="3.74207">
        <ele>105.4</ele>
        <time>2017-04-29T07:36:20Z</time>
      </trkpt>
      <trkpt lat="49.45056" lon="3.74215">
        <ele>104.44</ele>
        <time>2017-04-29T07:36:28Z</time>
      </trkpt>
      <trkpt lat="49.45058" lon="3.74217">
        <ele>104.44</ele>
        <time>2017-04-29T07:36:30Z</time>
      </trkpt>
      <trkpt lat="49.4506" lon="3.74218">
        <ele>104.44</ele>
        <time>2017-04-29T07:36:32Z</time>
      </trkpt>
      <trkpt lat="49.45062" lon="3.7422">
        <ele>104.44</ele>
        <time>2017-04-29T07:36:34Z</time>
      </trkpt>
      <trkpt lat="49.4507" lon="3.74226">
        <ele>103.48</ele>
        <time>2017-04-29T07:36:43Z</time>
      </trkpt>
      <trkpt lat="49.45071" lon="3.74227">
        <ele>103</ele>
        <time>2017-04-29T07:36:48Z</time>
      </trkpt>
      <trkpt lat="49.45073" lon="3.74229">
        <ele>103</ele>
        <time>2017-04-29T07:36:50Z</time>
      </trkpt>
      <trkpt lat="49.45079" lon="3.74228">
        <ele>103.48</ele>
        <time>2017-04-29T07:36:56Z</time>
      </trkpt>
      <trkpt lat="49.45088" lon="3.74235">
        <ele>102.52</ele>
        <time>2017-04-29T07:37:03Z</time>
      </trkpt>
      <trkpt lat="49.45095" lon="3.74235">
        <ele>102.04</ele>
        <time>2017-04-29T07:37:09Z</time>
      </trkpt>
      <trkpt lat="49.45097" lon="3.74238">
        <ele>102.04</ele>
        <time>2017-04-29T07:37:11Z</time>
      </trkpt>
      <trkpt lat="49.45105" lon="3.74241">
        <ele>101.56</ele>
        <time>2017-04-29T07:37:18Z</time>
      </trkpt>
      <trkpt lat="49.45113" lon="3.74248">
        <ele>101.08</ele>
        <time>2017-04-29T07:37:26Z</time>
      </trkpt>
      <trkpt lat="49.4512" lon="3.74255">
        <ele>100.6</ele>
        <time>2017-04-29T07:37:32Z</time>
      </trkpt>
      <trkpt lat="49.45126" lon="3.74261">
        <ele>100.6</ele>
        <time>2017-04-29T07:37:38Z</time>
      </trkpt>
      <trkpt lat="49.4513" lon="3.74265">
        <ele>100.11</ele>
        <time>2017-04-29T07:37:42Z</time>
      </trkpt>
      <trkpt lat="49.45137" lon="3.74271">
        <ele>100.11</ele>
        <time>2017-04-29T07:37:49Z</time>
      </trkpt>
      <trkpt lat="49.45141" lon="3.74278">
        <ele>99.63</ele>
        <time>2017-04-29T07:37:54Z</time>
      </trkpt>
      <trkpt lat="49.45142" lon="3.74279">
        <ele>99.63</ele>
        <time>2017-04-29T07:37:55Z</time>
      </trkpt>
      <trkpt lat="49.45152" lon="3.74289">
        <ele>99.63</ele>
        <time>2017-04-29T07:38:03Z</time>
      </trkpt>
      <trkpt lat="49.45153" lon="3.7429">
        <ele>99.63</ele>
        <time>2017-04-29T07:38:04Z</time>
      </trkpt>
      <trkpt lat="49.45158" lon="3.74292">
        <ele>99.15</ele>
        <time>2017-04-29T07:38:08Z</time>
      </trkpt>
      <trkpt lat="49.45163" lon="3.74295">
        <ele>99.15</ele>
        <time>2017-04-29T07:38:13Z</time>
      </trkpt>
      <trkpt lat="49.45166" lon="3.74299">
        <ele>99.15</ele>
        <time>2017-04-29T07:38:20Z</time>
      </trkpt>
      <trkpt lat="49.45173" lon="3.74303">
        <ele>99.15</ele>
        <time>2017-04-29T07:38:27Z</time>
      </trkpt>
      <trkpt lat="49.45177" lon="3.74304">
        <ele>99.15</ele>
        <time>2017-04-29T07:38:30Z</time>
      </trkpt>
      <trkpt lat="49.45186" lon="3.74304">
        <ele>99.15</ele>
        <time>2017-04-29T07:38:38Z</time>
      </trkpt>
      <trkpt lat="49.45191" lon="3.74304">
        <ele>99.15</ele>
        <time>2017-04-29T07:38:42Z</time>
      </trkpt>
      <trkpt lat="49.452" lon="3.74305">
        <ele>99.15</ele>
        <time>2017-04-29T07:38:51Z</time>
      </trkpt>
      <trkpt lat="49.45209" lon="3.7431">
        <ele>99.63</ele>
        <time>2017-04-29T07:38:58Z</time>
      </trkpt>
      <trkpt lat="49.45218" lon="3.74308">
        <ele>99.63</ele>
        <time>2017-04-29T07:39:06Z</time>
      </trkpt>
      <trkpt lat="49.45224" lon="3.74307">
        <ele>99.63</ele>
        <time>2017-04-29T07:39:12Z</time>
      </trkpt>
      <trkpt lat="49.45229" lon="3.74307">
        <ele>99.63</ele>
        <time>2017-04-29T07:39:16Z</time>
      </trkpt>
      <trkpt lat="49.45242" lon="3.74304">
        <ele>99.63</ele>
        <time>2017-04-29T07:39:24Z</time>
      </trkpt>
      <trkpt lat="49.45251" lon="3.74309">
        <ele>99.63</ele>
        <time>2017-04-29T07:39:31Z</time>
      </trkpt>
      <trkpt lat="49.45261" lon="3.74314">
        <ele>99.63</ele>
        <time>2017-04-29T07:39:39Z</time>
      </trkpt>
      <trkpt lat="49.45266" lon="3.74318">
        <ele>99.63</ele>
        <time>2017-04-29T07:39:44Z</time>
      </trkpt>
      <trkpt lat="49.45272" lon="3.74322">
        <ele>99.63</ele>
        <time>2017-04-29T07:39:48Z</time>
      </trkpt>
      <trkpt lat="49.45282" lon="3.7433">
        <ele>99.63</ele>
        <time>2017-04-29T07:39:55Z</time>
      </trkpt>
      <trkpt lat="49.45286" lon="3.74343">
        <ele>99.63</ele>
        <time>2017-04-29T07:40:02Z</time>
      </trkpt>
      <trkpt lat="49.45288" lon="3.74353">
        <ele>99.63</ele>
        <time>2017-04-29T07:40:10Z</time>
      </trkpt>
      <trkpt lat="49.45289" lon="3.74352">
        <ele>99.63</ele>
        <time>2017-04-29T07:40:21Z</time>
      </trkpt>
      <trkpt lat="49.45289" lon="3.74352">
        <ele>99.63</ele>
        <time>2017-04-29T07:40:32Z</time>
      </trkpt>
      <trkpt lat="49.4529" lon="3.74354">
        <ele>99.63</ele>
        <time>2017-04-29T07:40:40Z</time>
      </trkpt>
      <trkpt lat="49.45293" lon="3.74361">
        <ele>99.15</ele>
        <time>2017-04-29T07:40:48Z</time>
      </trkpt>
      <trkpt lat="49.45293" lon="3.7436">
        <ele>99.15</ele>
        <time>2017-04-29T07:40:59Z</time>
      </trkpt>
      <trkpt lat="49.45293" lon="3.74359">
        <ele>99.15</ele>
        <time>2017-04-29T07:41:11Z</time>
      </trkpt>
      <trkpt lat="49.45293" lon="3.74361">
        <ele>99.63</ele>
        <time>2017-04-29T07:41:16Z</time>
      </trkpt>
      <trkpt lat="49.45293" lon="3.74361">
        <ele>99.63</ele>
        <time>2017-04-29T07:41:17Z</time>
      </trkpt>
      <trkpt lat="49.45293" lon="3.74368">
        <ele>99.63</ele>
        <time>2017-04-29T07:41:23Z</time>
      </trkpt>
      <trkpt lat="49.45293" lon="3.74373">
        <ele>99.15</ele>
        <time>2017-04-29T07:41:29Z</time>
      </trkpt>
      <trkpt lat="49.45294" lon="3.74376">
        <ele>99.15</ele>
        <time>2017-04-29T07:41:42Z</time>
      </trkpt>
      <trkpt lat="49.45295" lon="3.74378">
        <ele>98.67</ele>
        <time>2017-04-29T07:41:49Z</time>
      </trkpt>
      <trkpt lat="49.45294" lon="3.74376">
        <ele>99.15</ele>
        <time>2017-04-29T07:42:00Z</time>
      </trkpt>
      <trkpt lat="49.45295" lon="3.74374">
        <ele>98.67</ele>
        <time>2017-04-29T07:42:06Z</time>
      </trkpt>
      <trkpt lat="49.45295" lon="3.74374">
        <ele>98.19</ele>
        <time>2017-04-29T07:42:12Z</time>
      </trkpt>
      <trkpt lat="49.45294" lon="3.74372">
        <ele>98.67</ele>
        <time>2017-04-29T07:42:18Z</time>
      </trkpt>
      <trkpt lat="49.45293" lon="3.74374">
        <ele>98.67</ele>
        <time>2017-04-29T07:42:30Z</time>
      </trkpt>
      <trkpt lat="49.45293" lon="3.74374">
        <ele>98.67</ele>
        <time>2017-04-29T07:42:34Z</time>
      </trkpt>
      <trkpt lat="49.45294" lon="3.74379">
        <ele>98.19</ele>
        <time>2017-04-29T07:42:39Z</time>
      </trkpt>
      <trkpt lat="49.45295" lon="3.74382">
        <ele>98.19</ele>
        <time>2017-04-29T07:42:41Z</time>
      </trkpt>
      <trkpt lat="49.45301" lon="3.74396">
        <ele>98.19</ele>
        <time>2017-04-29T07:42:48Z</time>
      </trkpt>
      <trkpt lat="49.45302" lon="3.74403">
        <ele>97.71</ele>
        <time>2017-04-29T07:42:53Z</time>
      </trkpt>
      <trkpt lat="49.45301" lon="3.74404">
        <ele>98.19</ele>
        <time>2017-04-29T07:42:55Z</time>
      </trkpt>
      <trkpt lat="49.45303" lon="3.74415">
        <ele>98.19</ele>
        <time>2017-04-29T07:43:02Z</time>
      </trkpt>
      <trkpt lat="49.45304" lon="3.74426">
        <ele>98.19</ele>
        <time>2017-04-29T07:43:09Z</time>
      </trkpt>
      <trkpt lat="49.45305" lon="3.74435">
        <ele>98.67</ele>
        <time>2017-04-29T07:43:14Z</time>
      </trkpt>
      <trkpt lat="49.45307" lon="3.74439">
        <ele>98.19</ele>
        <time>2017-04-29T07:43:18Z</time>
      </trkpt>
      <trkpt lat="49.45307" lon="3.74444">
        <ele>98.19</ele>
        <time>2017-04-29T07:43:23Z</time>
      </trkpt>
      <trkpt lat="49.4531" lon="3.74449">
        <ele>98.19</ele>
        <time>2017-04-29T07:43:26Z</time>
      </trkpt>
      <trkpt lat="49.45312" lon="3.74456">
        <ele>98.19</ele>
        <time>2017-04-29T07:43:33Z</time>
      </trkpt>
      <trkpt lat="49.45314" lon="3.7446">
        <ele>98.19</ele>
        <time>2017-04-29T07:43:39Z</time>
      </trkpt>
      <trkpt lat="49.45315" lon="3.74461">
        <ele>98.19</ele>
        <time>2017-04-29T07:43:40Z</time>
      </trkpt>
      <trkpt lat="49.45317" lon="3.74467">
        <ele>98.19</ele>
        <time>2017-04-29T07:43:44Z</time>
      </trkpt>
      <trkpt lat="49.45317" lon="3.74471">
        <ele>98.19</ele>
        <time>2017-04-29T07:43:49Z</time>
      </trkpt>
      <trkpt lat="49.45317" lon="3.74471">
        <ele>98.19</ele>
        <time>2017-04-29T07:43:54Z</time>
      </trkpt>
      <trkpt lat="49.45318" lon="3.74476">
        <ele>98.19</ele>
        <time>2017-04-29T07:43:57Z</time>
      </trkpt>
      <trkpt lat="49.4532" lon="3.74482">
        <ele>98.19</ele>
        <time>2017-04-29T07:44:04Z</time>
      </trkpt>
      <trkpt lat="49.45321" lon="3.74488">
        <ele>98.19</ele>
        <time>2017-04-29T07:44:09Z</time>
      </trkpt>
      <trkpt lat="49.45323" lon="3.74496">
        <ele>98.19</ele>
        <time>2017-04-29T07:44:14Z</time>
      </trkpt>
      <trkpt lat="49.45327" lon="3.74505">
        <ele>98.19</ele>
        <time>2017-04-29T07:44:21Z</time>
      </trkpt>
      <trkpt lat="49.45327" lon="3.7451">
        <ele>97.71</ele>
        <time>2017-04-29T07:44:28Z</time>
      </trkpt>
      <trkpt lat="49.45327" lon="3.74513">
        <ele>98.19</ele>
        <time>2017-04-29T07:44:33Z</time>
      </trkpt>
      <trkpt lat="49.45326" lon="3.7452">
        <ele>98.19</ele>
        <time>2017-04-29T07:44:37Z</time>
      </trkpt>
      <trkpt lat="49.4532" lon="3.74532">
        <ele>98.19</ele>
        <time>2017-04-29T07:44:45Z</time>
      </trkpt>
      <trkpt lat="49.45319" lon="3.74533">
        <ele>98.67</ele>
        <time>2017-04-29T07:44:46Z</time>
      </trkpt>
      <trkpt lat="49.45307" lon="3.7454">
        <ele>99.15</ele>
        <time>2017-04-29T07:44:56Z</time>
      </trkpt>
      <trkpt lat="49.453" lon="3.74545">
        <ele>98.19</ele>
        <time>2017-04-29T07:45:03Z</time>
      </trkpt>
      <trkpt lat="49.45296" lon="3.74554">
        <ele>98.19</ele>
        <time>2017-04-29T07:45:10Z</time>
      </trkpt>
      <trkpt lat="49.45295" lon="3.74555">
        <ele>98.19</ele>
        <time>2017-04-29T07:45:11Z</time>
      </trkpt>
      <trkpt lat="49.45293" lon="3.74561">
        <ele>97.71</ele>
        <time>2017-04-29T07:45:18Z</time>
      </trkpt>
      <trkpt lat="49.4529" lon="3.74562">
        <ele>97.71</ele>
        <time>2017-04-29T07:45:24Z</time>
      </trkpt>
      <trkpt lat="49.45288" lon="3.7456">
        <ele>97.71</ele>
        <time>2017-04-29T07:45:36Z</time>
      </trkpt>
      <trkpt lat="49.45283" lon="3.74559">
        <ele>97.71</ele>
        <time>2017-04-29T07:45:41Z</time>
      </trkpt>
      <trkpt lat="49.4528" lon="3.74558">
        <ele>97.71</ele>
        <time>2017-04-29T07:45:44Z</time>
      </trkpt>
      <trkpt lat="49.45272" lon="3.74555">
        <ele>97.23</ele>
        <time>2017-04-29T07:45:52Z</time>
      </trkpt>
      <trkpt lat="49.45271" lon="3.74555">
        <ele>97.23</ele>
        <time>2017-04-29T07:45:53Z</time>
      </trkpt>
      <trkpt lat="49.45266" lon="3.74554">
        <ele>97.23</ele>
        <time>2017-04-29T07:46:00Z</time>
      </trkpt>
      <trkpt lat="49.45265" lon="3.74554">
        <ele>97.23</ele>
        <time>2017-04-29T07:46:07Z</time>
      </trkpt>
      <trkpt lat="49.45265" lon="3.74554">
        <ele>97.23</ele>
        <time>2017-04-29T07:46:11Z</time>
      </trkpt>
      <trkpt lat="49.45265" lon="3.74558">
        <ele>97.23</ele>
        <time>2017-04-29T07:46:14Z</time>
      </trkpt>
      <trkpt lat="49.45263" lon="3.74565">
        <ele>97.23</ele>
        <time>2017-04-29T07:46:19Z</time>
      </trkpt>
      <trkpt lat="49.45264" lon="3.74567">
        <ele>97.23</ele>
        <time>2017-04-29T07:46:21Z</time>
      </trkpt>
      <trkpt lat="49.45262" lon="3.74569">
        <ele>97.23</ele>
        <time>2017-04-29T07:46:26Z</time>
      </trkpt>
      <trkpt lat="49.4526" lon="3.74581">
        <ele>96.75</ele>
        <time>2017-04-29T07:46:32Z</time>
      </trkpt>
      <trkpt lat="49.45261" lon="3.74586">
        <ele>97.23</ele>
        <time>2017-04-29T07:46:36Z</time>
      </trkpt>
      <trkpt lat="49.4526" lon="3.74594">
        <ele>96.75</ele>
        <time>2017-04-29T07:46:42Z</time>
      </trkpt>
      <trkpt lat="49.4526" lon="3.74595">
        <ele>97.23</ele>
        <time>2017-04-29T07:46:53Z</time>
      </trkpt>
      <trkpt lat="49.45263" lon="3.74596">
        <ele>97.23</ele>
        <time>2017-04-29T07:47:00Z</time>
      </trkpt>
      <trkpt lat="49.45263" lon="3.74597">
        <ele>97.23</ele>
        <time>2017-04-29T07:47:01Z</time>
      </trkpt>
      <trkpt lat="49.45261" lon="3.74612">
        <ele>97.23</ele>
        <time>2017-04-29T07:47:10Z</time>
      </trkpt>
      <trkpt lat="49.4526" lon="3.74617">
        <ele>97.23</ele>
        <time>2017-04-29T07:47:14Z</time>
      </trkpt>
      <trkpt lat="49.4526" lon="3.74623">
        <ele>96.75</ele>
        <time>2017-04-29T07:47:20Z</time>
      </trkpt>
      <trkpt lat="49.4526" lon="3.74624">
        <ele>96.75</ele>
        <time>2017-04-29T07:47:22Z</time>
      </trkpt>
      <trkpt lat="49.45261" lon="3.74631">
        <ele>96.75</ele>
        <time>2017-04-29T07:47:28Z</time>
      </trkpt>
      <trkpt lat="49.4526" lon="3.7463">
        <ele>96.75</ele>
        <time>2017-04-29T07:47:36Z</time>
      </trkpt>
      <trkpt lat="49.4526" lon="3.7463">
        <ele>96.75</ele>
        <time>2017-04-29T07:47:37Z</time>
      </trkpt>
      <trkpt lat="49.45263" lon="3.74635">
        <ele>97.23</ele>
        <time>2017-04-29T07:47:44Z</time>
      </trkpt>
      <trkpt lat="49.45263" lon="3.74637">
        <ele>96.75</ele>
        <time>2017-04-29T07:47:55Z</time>
      </trkpt>
      <trkpt lat="49.45263" lon="3.74637">
        <ele>96.27</ele>
        <time>2017-04-29T07:48:04Z</time>
      </trkpt>
      <trkpt lat="49.45263" lon="3.74637">
        <ele>96.27</ele>
        <time>2017-04-29T07:48:11Z</time>
      </trkpt>
      <trkpt lat="49.45267" lon="3.74635">
        <ele>96.75</ele>
        <time>2017-04-29T07:48:19Z</time>
      </trkpt>
      <trkpt lat="49.45269" lon="3.74634">
        <ele>96.27</ele>
        <time>2017-04-29T07:48:25Z</time>
      </trkpt>
      <trkpt lat="49.45274" lon="3.74627">
        <ele>96.75</ele>
        <time>2017-04-29T07:48:33Z</time>
      </trkpt>
      <trkpt lat="49.45275" lon="3.74624">
        <ele>96.27</ele>
        <time>2017-04-29T07:48:36Z</time>
      </trkpt>
      <trkpt lat="49.4528" lon="3.7461">
        <ele>96.27</ele>
        <time>2017-04-29T07:48:45Z</time>
      </trkpt>
      <trkpt lat="49.45281" lon="3.74606">
        <ele>96.27</ele>
        <time>2017-04-29T07:48:47Z</time>
      </trkpt>
      <trkpt lat="49.45281" lon="3.74602">
        <ele>96.75</ele>
        <time>2017-04-29T07:48:50Z</time>
      </trkpt>
      <trkpt lat="49.45289" lon="3.74602">
        <ele>97.23</ele>
        <time>2017-04-29T07:48:57Z</time>
      </trkpt>
      <trkpt lat="49.45294" lon="3.74603">
        <ele>97.23</ele>
        <time>2017-04-29T07:49:03Z</time>
      </trkpt>
      <trkpt lat="49.453" lon="3.74597">
        <ele>96.75</ele>
        <time>2017-04-29T07:49:11Z</time>
      </trkpt>
      <trkpt lat="49.45304" lon="3.74592">
        <ele>97.23</ele>
        <time>2017-04-29T07:49:18Z</time>
      </trkpt>
      <trkpt lat="49.45308" lon="3.7459">
        <ele>97.23</ele>
        <time>2017-04-29T07:49:24Z</time>
      </trkpt>
      <trkpt lat="49.4531" lon="3.74586">
        <ele>96.75</ele>
        <time>2017-04-29T07:49:30Z</time>
      </trkpt>
      <trkpt lat="49.45311" lon="3.74584">
        <ele>97.23</ele>
        <time>2017-04-29T07:49:36Z</time>
      </trkpt>
      <trkpt lat="49.45311" lon="3.74583">
        <ele>97.23</ele>
        <time>2017-04-29T07:49:41Z</time>
      </trkpt>
      <trkpt lat="49.45312" lon="3.74579">
        <ele>97.23</ele>
        <time>2017-04-29T07:49:48Z</time>
      </trkpt>
      <trkpt lat="49.45313" lon="3.74574">
        <ele>97.23</ele>
        <time>2017-04-29T07:49:52Z</time>
      </trkpt>
      <trkpt lat="49.45315" lon="3.74568">
        <ele>97.23</ele>
        <time>2017-04-29T07:49:58Z</time>
      </trkpt>
      <trkpt lat="49.45315" lon="3.7456">
        <ele>96.75</ele>
        <time>2017-04-29T07:50:06Z</time>
      </trkpt>
      <trkpt lat="49.45317" lon="3.74558">
        <ele>96.75</ele>
        <time>2017-04-29T07:50:12Z</time>
      </trkpt>
      <trkpt lat="49.45317" lon="3.74555">
        <ele>96.75</ele>
        <time>2017-04-29T07:50:20Z</time>
      </trkpt>
      <trkpt lat="49.45317" lon="3.74552">
        <ele>96.75</ele>
        <time>2017-04-29T07:50:26Z</time>
      </trkpt>
      <trkpt lat="49.45318" lon="3.74551">
        <ele>96.75</ele>
        <time>2017-04-29T07:50:39Z</time>
      </trkpt>
      <trkpt lat="49.45318" lon="3.74552">
        <ele>96.75</ele>
        <time>2017-04-29T07:50:47Z</time>
      </trkpt>
      <trkpt lat="49.45318" lon="3.74552">
        <ele>96.27</ele>
        <time>2017-04-29T07:50:58Z</time>
      </trkpt>
      <trkpt lat="49.45318" lon="3.74551">
        <ele>96.27</ele>
        <time>2017-04-29T07:51:11Z</time>
      </trkpt>
      <trkpt lat="49.45317" lon="3.74552">
        <ele>96.75</ele>
        <time>2017-04-29T07:51:22Z</time>
      </trkpt>
      <trkpt lat="49.45318" lon="3.74553">
        <ele>96.27</ele>
        <time>2017-04-29T07:51:36Z</time>
      </trkpt>
      <trkpt lat="49.45318" lon="3.74552">
        <ele>96.27</ele>
        <time>2017-04-29T07:51:51Z</time>
      </trkpt>
      <trkpt lat="49.45318" lon="3.74552">
        <ele>96.27</ele>
        <time>2017-04-29T07:52:08Z</time>
      </trkpt>
      <trkpt lat="49.45318" lon="3.74552">
        <ele>96.27</ele>
        <time>2017-04-29T07:52:22Z</time>
      </trkpt>
      <trkpt lat="49.45318" lon="3.74552">
        <ele>95.79</ele>
        <time>2017-04-29T07:52:36Z</time>
      </trkpt>
      <trkpt lat="49.45318" lon="3.74552">
        <ele>96.27</ele>
        <time>2017-04-29T07:52:49Z</time>
      </trkpt>
      <trkpt lat="49.45318" lon="3.74551">
        <ele>96.27</ele>
        <time>2017-04-29T07:53:01Z</time>
      </trkpt>
      <trkpt lat="49.45318" lon="3.74552">
        <ele>96.27</ele>
        <time>2017-04-29T07:53:14Z</time>
      </trkpt>
      <trkpt lat="49.45318" lon="3.74552">
        <ele>95.79</ele>
        <time>2017-04-29T07:53:28Z</time>
      </trkpt>
      <trkpt lat="49.45318" lon="3.74552">
        <ele>95.79</ele>
        <time>2017-04-29T07:53:39Z</time>
      </trkpt>
      <trkpt lat="49.45318" lon="3.74553">
        <ele>95.79</ele>
        <time>2017-04-29T07:53:48Z</time>
      </trkpt>
      <trkpt lat="49.45319" lon="3.74553">
        <ele>95.79</ele>
        <time>2017-04-29T07:53:59Z</time>
      </trkpt>
      <trkpt lat="49.45318" lon="3.74553">
        <ele>95.31</ele>
        <time>2017-04-29T07:54:10Z</time>
      </trkpt>
      <trkpt lat="49.45319" lon="3.74553">
        <ele>95.31</ele>
        <time>2017-04-29T07:54:23Z</time>
      </trkpt>
      <trkpt lat="49.45319" lon="3.74553">
        <ele>95.31</ele>
        <time>2017-04-29T07:54:31Z</time>
      </trkpt>
      <trkpt lat="49.45319" lon="3.74554">
        <ele>95.31</ele>
        <time>2017-04-29T07:54:46Z</time>
      </trkpt>
      <trkpt lat="49.4532" lon="3.74555">
        <ele>95.31</ele>
        <time>2017-04-29T07:55:02Z</time>
      </trkpt>
      <trkpt lat="49.45319" lon="3.74554">
        <ele>95.31</ele>
        <time>2017-04-29T07:55:19Z</time>
      </trkpt>
      <trkpt lat="49.45319" lon="3.74554">
        <ele>94.83</ele>
        <time>2017-04-29T07:55:33Z</time>
      </trkpt>
      <trkpt lat="49.45319" lon="3.74553">
        <ele>94.83</ele>
        <time>2017-04-29T07:55:48Z</time>
      </trkpt>
      <trkpt lat="49.45319" lon="3.74553">
        <ele>94.83</ele>
        <time>2017-04-29T07:56:05Z</time>
      </trkpt>
      <trkpt lat="49.45319" lon="3.74553">
        <ele>94.83</ele>
        <time>2017-04-29T07:56:16Z</time>
      </trkpt>
      <trkpt lat="49.45318" lon="3.74557">
        <ele>95.31</ele>
        <time>2017-04-29T07:56:23Z</time>
      </trkpt>
      <trkpt lat="49.45318" lon="3.74557">
        <ele>94.83</ele>
        <time>2017-04-29T07:56:31Z</time>
      </trkpt>
      <trkpt lat="49.4532" lon="3.74555">
        <ele>94.83</ele>
        <time>2017-04-29T07:56:36Z</time>
      </trkpt>
      <trkpt lat="49.45321" lon="3.74553">
        <ele>94.83</ele>
        <time>2017-04-29T07:56:38Z</time>
      </trkpt>
      <trkpt lat="49.45323" lon="3.74551">
        <ele>94.83</ele>
        <time>2017-04-29T07:56:40Z</time>
      </trkpt>
      <trkpt lat="49.45327" lon="3.74545">
        <ele>94.83</ele>
        <time>2017-04-29T07:56:47Z</time>
      </trkpt>
      <trkpt lat="49.45332" lon="3.74538">
        <ele>94.83</ele>
        <time>2017-04-29T07:56:55Z</time>
      </trkpt>
      <trkpt lat="49.45336" lon="3.74535">
        <ele>94.35</ele>
        <time>2017-04-29T07:57:01Z</time>
      </trkpt>
      <trkpt lat="49.45338" lon="3.74533">
        <ele>94.35</ele>
        <time>2017-04-29T07:57:03Z</time>
      </trkpt>
      <trkpt lat="49.45346" lon="3.74526">
        <ele>94.35</ele>
        <time>2017-04-29T07:57:13Z</time>
      </trkpt>
      <trkpt lat="49.45348" lon="3.74522">
        <ele>94.35</ele>
        <time>2017-04-29T07:57:18Z</time>
      </trkpt>
      <trkpt lat="49.45353" lon="3.74515">
        <ele>94.35</ele>
        <time>2017-04-29T07:57:27Z</time>
      </trkpt>
      <trkpt lat="49.4536" lon="3.74515">
        <ele>93.87</ele>
        <time>2017-04-29T07:57:35Z</time>
      </trkpt>
      <trkpt lat="49.45361" lon="3.74512">
        <ele>94.35</ele>
        <time>2017-04-29T07:57:41Z</time>
      </trkpt>
      <trkpt lat="49.45362" lon="3.74511">
        <ele>94.35</ele>
        <time>2017-04-29T07:57:46Z</time>
      </trkpt>
      <trkpt lat="49.45366" lon="3.74509">
        <ele>94.35</ele>
        <time>2017-04-29T07:57:50Z</time>
      </trkpt>
      <trkpt lat="49.45369" lon="3.74509">
        <ele>94.35</ele>
        <time>2017-04-29T07:57:59Z</time>
      </trkpt>
      <trkpt lat="49.45374" lon="3.74509">
        <ele>93.87</ele>
        <time>2017-04-29T07:58:05Z</time>
      </trkpt>
      <trkpt lat="49.45379" lon="3.74507">
        <ele>94.35</ele>
        <time>2017-04-29T07:58:13Z</time>
      </trkpt>
      <trkpt lat="49.45385" lon="3.74503">
        <ele>93.87</ele>
        <time>2017-04-29T07:58:21Z</time>
      </trkpt>
      <trkpt lat="49.45386" lon="3.74504">
        <ele>93.87</ele>
        <time>2017-04-29T07:58:25Z</time>
      </trkpt>
      <trkpt lat="49.45389" lon="3.74506">
        <ele>93.87</ele>
        <time>2017-04-29T07:58:32Z</time>
      </trkpt>
      <trkpt lat="49.4539" lon="3.74507">
        <ele>93.87</ele>
        <time>2017-04-29T07:58:39Z</time>
      </trkpt>
      <trkpt lat="49.45392" lon="3.745">
        <ele>93.87</ele>
        <time>2017-04-29T07:58:46Z</time>
      </trkpt>
      <trkpt lat="49.45394" lon="3.74493">
        <ele>93.39</ele>
        <time>2017-04-29T07:58:52Z</time>
      </trkpt>
      <trkpt lat="49.45395" lon="3.74488">
        <ele>93.39</ele>
        <time>2017-04-29T07:58:56Z</time>
      </trkpt>
      <trkpt lat="49.45397" lon="3.74478">
        <ele>92.9</ele>
        <time>2017-04-29T07:59:04Z</time>
      </trkpt>
      <trkpt lat="49.45399" lon="3.74465">
        <ele>92.9</ele>
        <time>2017-04-29T07:59:12Z</time>
      </trkpt>
      <trkpt lat="49.45402" lon="3.74454">
        <ele>92.42</ele>
        <time>2017-04-29T07:59:19Z</time>
      </trkpt>
      <trkpt lat="49.45403" lon="3.74446">
        <ele>92.42</ele>
        <time>2017-04-29T07:59:25Z</time>
      </trkpt>
      <trkpt lat="49.45406" lon="3.74437">
        <ele>92.42</ele>
        <time>2017-04-29T07:59:32Z</time>
      </trkpt>
      <trkpt lat="49.45407" lon="3.74428">
        <ele>92.42</ele>
        <time>2017-04-29T07:59:38Z</time>
      </trkpt>
      <trkpt lat="49.45408" lon="3.7442">
        <ele>91.94</ele>
        <time>2017-04-29T07:59:43Z</time>
      </trkpt>
      <trkpt lat="49.4541" lon="3.74416">
        <ele>91.94</ele>
        <time>2017-04-29T07:59:46Z</time>
      </trkpt>
      <trkpt lat="49.4541" lon="3.74413">
        <ele>91.94</ele>
        <time>2017-04-29T07:59:48Z</time>
      </trkpt>
      <trkpt lat="49.45412" lon="3.74409">
        <ele>91.94</ele>
        <time>2017-04-29T07:59:51Z</time>
      </trkpt>
      <trkpt lat="49.45412" lon="3.74402">
        <ele>91.94</ele>
        <time>2017-04-29T07:59:57Z</time>
      </trkpt>
      <trkpt lat="49.45414" lon="3.74393">
        <ele>91.94</ele>
        <time>2017-04-29T08:00:04Z</time>
      </trkpt>
      <trkpt lat="49.45413" lon="3.74388">
        <ele>91.94</ele>
        <time>2017-04-29T08:00:07Z</time>
      </trkpt>
      <trkpt lat="49.45416" lon="3.74384">
        <ele>91.94</ele>
        <time>2017-04-29T08:00:12Z</time>
      </trkpt>
      <trkpt lat="49.45417" lon="3.74384">
        <ele>92.42</ele>
        <time>2017-04-29T08:00:13Z</time>
      </trkpt>
      <trkpt lat="49.45418" lon="3.74383">
        <ele>91.94</ele>
        <time>2017-04-29T08:00:15Z</time>
      </trkpt>
      <trkpt lat="49.45426" lon="3.74385">
        <ele>91.94</ele>
        <time>2017-04-29T08:00:24Z</time>
      </trkpt>
      <trkpt lat="49.45427" lon="3.74385">
        <ele>91.94</ele>
        <time>2017-04-29T08:00:26Z</time>
      </trkpt>
      <trkpt lat="49.45434" lon="3.74385">
        <ele>91.94</ele>
        <time>2017-04-29T08:00:34Z</time>
      </trkpt>
      <trkpt lat="49.45443" lon="3.74386">
        <ele>91.94</ele>
        <time>2017-04-29T08:00:44Z</time>
      </trkpt>
      <trkpt lat="49.45449" lon="3.74387">
        <ele>91.94</ele>
        <time>2017-04-29T08:00:52Z</time>
      </trkpt>
      <trkpt lat="49.45455" lon="3.74388">
        <ele>91.94</ele>
        <time>2017-04-29T08:00:59Z</time>
      </trkpt>
      <trkpt lat="49.45456" lon="3.7439">
        <ele>91.94</ele>
        <time>2017-04-29T08:01:10Z</time>
      </trkpt>
      <trkpt lat="49.45455" lon="3.74391">
        <ele>91.94</ele>
        <time>2017-04-29T08:01:19Z</time>
      </trkpt>
      <trkpt lat="49.45456" lon="3.74392">
        <ele>92.42</ele>
        <time>2017-04-29T08:01:31Z</time>
      </trkpt>
      <trkpt lat="49.45456" lon="3.74391">
        <ele>92.42</ele>
        <time>2017-04-29T08:01:38Z</time>
      </trkpt>
      <trkpt lat="49.45456" lon="3.74391">
        <ele>92.42</ele>
        <time>2017-04-29T08:01:45Z</time>
      </trkpt>
      <trkpt lat="49.45457" lon="3.7439">
        <ele>92.42</ele>
        <time>2017-04-29T08:01:58Z</time>
      </trkpt>
      <trkpt lat="49.45457" lon="3.7439">
        <ele>92.42</ele>
        <time>2017-04-29T08:02:12Z</time>
      </trkpt>
      <trkpt lat="49.45456" lon="3.74391">
        <ele>92.42</ele>
        <time>2017-04-29T08:02:22Z</time>
      </trkpt>
      <trkpt lat="49.45456" lon="3.74391">
        <ele>92.9</ele>
        <time>2017-04-29T08:02:37Z</time>
      </trkpt>
      <trkpt lat="49.45457" lon="3.74391">
        <ele>92.42</ele>
        <time>2017-04-29T08:02:43Z</time>
      </trkpt>
      <trkpt lat="49.45461" lon="3.74391">
        <ele>93.39</ele>
        <time>2017-04-29T08:02:56Z</time>
      </trkpt>
      <trkpt lat="49.45461" lon="3.74391">
        <ele>92.42</ele>
        <time>2017-04-29T08:03:11Z</time>
      </trkpt>
      <trkpt lat="49.4546" lon="3.74391">
        <ele>92.42</ele>
        <time>2017-04-29T08:03:33Z</time>
      </trkpt>
      <trkpt lat="49.4546" lon="3.74391">
        <ele>92.9</ele>
        <time>2017-04-29T08:03:50Z</time>
      </trkpt>
      <trkpt lat="49.4546" lon="3.74391">
        <ele>92.9</ele>
        <time>2017-04-29T08:04:08Z</time>
      </trkpt>
      <trkpt lat="49.45461" lon="3.74391">
        <ele>92.42</ele>
        <time>2017-04-29T08:04:25Z</time>
      </trkpt>
      <trkpt lat="49.45462" lon="3.74392">
        <ele>92.9</ele>
        <time>2017-04-29T08:04:39Z</time>
      </trkpt>
      <trkpt lat="49.45461" lon="3.74392">
        <ele>92.9</ele>
        <time>2017-04-29T08:04:59Z</time>
      </trkpt>
      <trkpt lat="49.45461" lon="3.74392">
        <ele>92.9</ele>
        <time>2017-04-29T08:05:14Z</time>
      </trkpt>
      <trkpt lat="49.4546" lon="3.74392">
        <ele>92.9</ele>
        <time>2017-04-29T08:05:29Z</time>
      </trkpt>
      <trkpt lat="49.45459" lon="3.74392">
        <ele>92.9</ele>
        <time>2017-04-29T08:05:50Z</time>
      </trkpt>
      <trkpt lat="49.45458" lon="3.74391">
        <ele>92.9</ele>
        <time>2017-04-29T08:06:08Z</time>
      </trkpt>
      <trkpt lat="49.45457" lon="3.74391">
        <ele>92.9</ele>
        <time>2017-04-29T08:06:17Z</time>
      </trkpt>
      <trkpt lat="49.45457" lon="3.7439">
        <ele>92.9</ele>
        <time>2017-04-29T08:06:26Z</time>
      </trkpt>
      <trkpt lat="49.45456" lon="3.7439">
        <ele>92.9</ele>
        <time>2017-04-29T08:06:37Z</time>
      </trkpt>
      <trkpt lat="49.45459" lon="3.7439">
        <ele>92.9</ele>
        <time>2017-04-29T08:06:45Z</time>
      </trkpt>
      <trkpt lat="49.45465" lon="3.74391">
        <ele>92.9</ele>
        <time>2017-04-29T08:06:53Z</time>
      </trkpt>
      <trkpt lat="49.45465" lon="3.74391">
        <ele>92.9</ele>
        <time>2017-04-29T08:06:54Z</time>
      </trkpt>
      <trkpt lat="49.45473" lon="3.74391">
        <ele>92.9</ele>
        <time>2017-04-29T08:07:03Z</time>
      </trkpt>
      <trkpt lat="49.45474" lon="3.7439">
        <ele>93.39</ele>
        <time>2017-04-29T08:07:04Z</time>
      </trkpt>
      <trkpt lat="49.45477" lon="3.7439">
        <ele>92.9</ele>
        <time>2017-04-29T08:07:07Z</time>
      </trkpt>
      <trkpt lat="49.45484" lon="3.7439">
        <ele>93.39</ele>
        <time>2017-04-29T08:07:14Z</time>
      </trkpt>
      <trkpt lat="49.45493" lon="3.74391">
        <ele>93.39</ele>
        <time>2017-04-29T08:07:22Z</time>
      </trkpt>
      <trkpt lat="49.45502" lon="3.74393">
        <ele>93.39</ele>
        <time>2017-04-29T08:07:31Z</time>
      </trkpt>
      <trkpt lat="49.45512" lon="3.74395">
        <ele>93.87</ele>
        <time>2017-04-29T08:07:40Z</time>
      </trkpt>
      <trkpt lat="49.45519" lon="3.74396">
        <ele>93.87</ele>
        <time>2017-04-29T08:07:48Z</time>
      </trkpt>
      <trkpt lat="49.45525" lon="3.74399">
        <ele>94.35</ele>
        <time>2017-04-29T08:07:53Z</time>
      </trkpt>
      <trkpt lat="49.45533" lon="3.74401">
        <ele>94.35</ele>
        <time>2017-04-29T08:08:00Z</time>
      </trkpt>
      <trkpt lat="49.45534" lon="3.74402">
        <ele>94.35</ele>
        <time>2017-04-29T08:08:01Z</time>
      </trkpt>
      <trkpt lat="49.45541" lon="3.74401">
        <ele>94.83</ele>
        <time>2017-04-29T08:08:09Z</time>
      </trkpt>
      <trkpt lat="49.45549" lon="3.74399">
        <ele>94.83</ele>
        <time>2017-04-29T08:08:15Z</time>
      </trkpt>
      <trkpt lat="49.45558" lon="3.744">
        <ele>95.31</ele>
        <time>2017-04-29T08:08:23Z</time>
      </trkpt>
      <trkpt lat="49.45561" lon="3.744">
        <ele>95.31</ele>
        <time>2017-04-29T08:08:26Z</time>
      </trkpt>
      <trkpt lat="49.45568" lon="3.74396">
        <ele>95.79</ele>
        <time>2017-04-29T08:08:34Z</time>
      </trkpt>
      <trkpt lat="49.4557" lon="3.74398">
        <ele>95.79</ele>
        <time>2017-04-29T08:08:38Z</time>
      </trkpt>
      <trkpt lat="49.45572" lon="3.74408">
        <ele>96.75</ele>
        <time>2017-04-29T08:08:45Z</time>
      </trkpt>
      <trkpt lat="49.45573" lon="3.74412">
        <ele>96.75</ele>
        <time>2017-04-29T08:08:48Z</time>
      </trkpt>
      <trkpt lat="49.45573" lon="3.7442">
        <ele>97.23</ele>
        <time>2017-04-29T08:08:55Z</time>
      </trkpt>
      <trkpt lat="49.45573" lon="3.74422">
        <ele>98.19</ele>
        <time>2017-04-29T08:08:56Z</time>
      </trkpt>
      <trkpt lat="49.45574" lon="3.74439">
        <ele>97.71</ele>
        <time>2017-04-29T08:09:03Z</time>
      </trkpt>
      <trkpt lat="49.45572" lon="3.74454">
        <ele>98.19</ele>
        <time>2017-04-29T08:09:10Z</time>
      </trkpt>
      <trkpt lat="49.45571" lon="3.7447">
        <ele>98.19</ele>
        <time>2017-04-29T08:09:17Z</time>
      </trkpt>
      <trkpt lat="49.45572" lon="3.74474">
        <ele>98.19</ele>
        <time>2017-04-29T08:09:19Z</time>
      </trkpt>
      <trkpt lat="49.45571" lon="3.74485">
        <ele>98.67</ele>
        <time>2017-04-29T08:09:25Z</time>
      </trkpt>
      <trkpt lat="49.45571" lon="3.74497">
        <ele>99.15</ele>
        <time>2017-04-29T08:09:31Z</time>
      </trkpt>
      <trkpt lat="49.45572" lon="3.745">
        <ele>99.15</ele>
        <time>2017-04-29T08:09:33Z</time>
      </trkpt>
      <trkpt lat="49.4557" lon="3.74506">
        <ele>99.15</ele>
        <time>2017-04-29T08:09:37Z</time>
      </trkpt>
      <trkpt lat="49.4557" lon="3.74514">
        <ele>99.63</ele>
        <time>2017-04-29T08:09:41Z</time>
      </trkpt>
      <trkpt lat="49.4557" lon="3.74523">
        <ele>99.63</ele>
        <time>2017-04-29T08:09:45Z</time>
      </trkpt>
      <trkpt lat="49.45569" lon="3.74533">
        <ele>100.11</ele>
        <time>2017-04-29T08:09:50Z</time>
      </trkpt>
      <trkpt lat="49.4557" lon="3.74546">
        <ele>100.11</ele>
        <time>2017-04-29T08:09:56Z</time>
      </trkpt>
      <trkpt lat="49.45569" lon="3.7456">
        <ele>100.6</ele>
        <time>2017-04-29T08:10:04Z</time>
      </trkpt>
      <trkpt lat="49.45568" lon="3.7457">
        <ele>100.11</ele>
        <time>2017-04-29T08:10:10Z</time>
      </trkpt>
      <trkpt lat="49.45568" lon="3.74571">
        <ele>100.6</ele>
        <time>2017-04-29T08:10:11Z</time>
      </trkpt>
      <trkpt lat="49.45568" lon="3.74575">
        <ele>100.6</ele>
        <time>2017-04-29T08:10:13Z</time>
      </trkpt>
      <trkpt lat="49.45566" lon="3.74586">
        <ele>100.6</ele>
        <time>2017-04-29T08:10:17Z</time>
      </trkpt>
      <trkpt lat="49.45565" lon="3.74603">
        <ele>101.08</ele>
        <time>2017-04-29T08:10:24Z</time>
      </trkpt>
      <trkpt lat="49.45565" lon="3.74607">
        <ele>101.08</ele>
        <time>2017-04-29T08:10:27Z</time>
      </trkpt>
      <trkpt lat="49.45566" lon="3.74616">
        <ele>101.08</ele>
        <time>2017-04-29T08:10:31Z</time>
      </trkpt>
      <trkpt lat="49.45565" lon="3.74628">
        <ele>101.08</ele>
        <time>2017-04-29T08:10:38Z</time>
      </trkpt>
      <trkpt lat="49.45563" lon="3.74637">
        <ele>101.08</ele>
        <time>2017-04-29T08:10:42Z</time>
      </trkpt>
      <trkpt lat="49.45564" lon="3.74649">
        <ele>101.08</ele>
        <time>2017-04-29T08:10:49Z</time>
      </trkpt>
      <trkpt lat="49.45562" lon="3.74656">
        <ele>101.08</ele>
        <time>2017-04-29T08:10:54Z</time>
      </trkpt>
      <trkpt lat="49.45563" lon="3.74663">
        <ele>101.56</ele>
        <time>2017-04-29T08:10:58Z</time>
      </trkpt>
      <trkpt lat="49.45563" lon="3.74668">
        <ele>101.56</ele>
        <time>2017-04-29T08:11:00Z</time>
      </trkpt>
      <trkpt lat="49.45562" lon="3.74675">
        <ele>101.56</ele>
        <time>2017-04-29T08:11:04Z</time>
      </trkpt>
      <trkpt lat="49.45558" lon="3.74688">
        <ele>101.56</ele>
        <time>2017-04-29T08:11:12Z</time>
      </trkpt>
      <trkpt lat="49.45557" lon="3.747">
        <ele>102.04</ele>
        <time>2017-04-29T08:11:18Z</time>
      </trkpt>
      <trkpt lat="49.45556" lon="3.74705">
        <ele>102.04</ele>
        <time>2017-04-29T08:11:22Z</time>
      </trkpt>
      <trkpt lat="49.45553" lon="3.74713">
        <ele>102.04</ele>
        <time>2017-04-29T08:11:27Z</time>
      </trkpt>
      <trkpt lat="49.45552" lon="3.74721">
        <ele>102.52</ele>
        <time>2017-04-29T08:11:31Z</time>
      </trkpt>
      <trkpt lat="49.45551" lon="3.74734">
        <ele>102.52</ele>
        <time>2017-04-29T08:11:37Z</time>
      </trkpt>
      <trkpt lat="49.4555" lon="3.74745">
        <ele>102.52</ele>
        <time>2017-04-29T08:11:42Z</time>
      </trkpt>
      <trkpt lat="49.45549" lon="3.74756">
        <ele>102.52</ele>
        <time>2017-04-29T08:11:49Z</time>
      </trkpt>
      <trkpt lat="49.45548" lon="3.74763">
        <ele>102.04</ele>
        <time>2017-04-29T08:11:55Z</time>
      </trkpt>
      <trkpt lat="49.45549" lon="3.74771">
        <ele>102.04</ele>
        <time>2017-04-29T08:12:01Z</time>
      </trkpt>
      <trkpt lat="49.45548" lon="3.74778">
        <ele>102.04</ele>
        <time>2017-04-29T08:12:06Z</time>
      </trkpt>
      <trkpt lat="49.45551" lon="3.74787">
        <ele>102.04</ele>
        <time>2017-04-29T08:12:13Z</time>
      </trkpt>
      <trkpt lat="49.45552" lon="3.74792">
        <ele>102.04</ele>
        <time>2017-04-29T08:12:16Z</time>
      </trkpt>
      <trkpt lat="49.45556" lon="3.74807">
        <ele>102.52</ele>
        <time>2017-04-29T08:12:22Z</time>
      </trkpt>
      <trkpt lat="49.45556" lon="3.74809">
        <ele>102.04</ele>
        <time>2017-04-29T08:12:24Z</time>
      </trkpt>
      <trkpt lat="49.45557" lon="3.74816">
        <ele>102.04</ele>
        <time>2017-04-29T08:12:27Z</time>
      </trkpt>
      <trkpt lat="49.45559" lon="3.74829">
        <ele>102.04</ele>
        <time>2017-04-29T08:12:34Z</time>
      </trkpt>
      <trkpt lat="49.45559" lon="3.74831">
        <ele>102.52</ele>
        <time>2017-04-29T08:12:35Z</time>
      </trkpt>
      <trkpt lat="49.45562" lon="3.74842">
        <ele>102.52</ele>
        <time>2017-04-29T08:12:40Z</time>
      </trkpt>
      <trkpt lat="49.45563" lon="3.74857">
        <ele>102.52</ele>
        <time>2017-04-29T08:12:48Z</time>
      </trkpt>
      <trkpt lat="49.45564" lon="3.74864">
        <ele>102.04</ele>
        <time>2017-04-29T08:12:52Z</time>
      </trkpt>
      <trkpt lat="49.45565" lon="3.74877">
        <ele>102.04</ele>
        <time>2017-04-29T08:12:59Z</time>
      </trkpt>
      <trkpt lat="49.45566" lon="3.74883">
        <ele>102.04</ele>
        <time>2017-04-29T08:13:02Z</time>
      </trkpt>
      <trkpt lat="49.45568" lon="3.74893">
        <ele>102.04</ele>
        <time>2017-04-29T08:13:06Z</time>
      </trkpt>
      <trkpt lat="49.45566" lon="3.74904">
        <ele>102.04</ele>
        <time>2017-04-29T08:13:14Z</time>
      </trkpt>
      <trkpt lat="49.45567" lon="3.74913">
        <ele>101.56</ele>
        <time>2017-04-29T08:13:20Z</time>
      </trkpt>
      <trkpt lat="49.45566" lon="3.74916">
        <ele>101.56</ele>
        <time>2017-04-29T08:13:23Z</time>
      </trkpt>
      <trkpt lat="49.45566" lon="3.7492">
        <ele>101.56</ele>
        <time>2017-04-29T08:13:25Z</time>
      </trkpt>
      <trkpt lat="49.45568" lon="3.74925">
        <ele>101.56</ele>
        <time>2017-04-29T08:13:28Z</time>
      </trkpt>
      <trkpt lat="49.45569" lon="3.74931">
        <ele>101.56</ele>
        <time>2017-04-29T08:13:34Z</time>
      </trkpt>
      <trkpt lat="49.45571" lon="3.74945">
        <ele>101.56</ele>
        <time>2017-04-29T08:13:41Z</time>
      </trkpt>
      <trkpt lat="49.45571" lon="3.7495">
        <ele>101.56</ele>
        <time>2017-04-29T08:13:46Z</time>
      </trkpt>
      <trkpt lat="49.45573" lon="3.74958">
        <ele>101.08</ele>
        <time>2017-04-29T08:13:52Z</time>
      </trkpt>
      <trkpt lat="49.45575" lon="3.74969">
        <ele>101.08</ele>
        <time>2017-04-29T08:13:56Z</time>
      </trkpt>
      <trkpt lat="49.45577" lon="3.74987">
        <ele>101.08</ele>
        <time>2017-04-29T08:14:03Z</time>
      </trkpt>
      <trkpt lat="49.45578" lon="3.74992">
        <ele>101.08</ele>
        <time>2017-04-29T08:14:08Z</time>
      </trkpt>
      <trkpt lat="49.45579" lon="3.75001">
        <ele>101.08</ele>
        <time>2017-04-29T08:14:13Z</time>
      </trkpt>
      <trkpt lat="49.45579" lon="3.75008">
        <ele>100.6</ele>
        <time>2017-04-29T08:14:18Z</time>
      </trkpt>
      <trkpt lat="49.4558" lon="3.7501">
        <ele>100.6</ele>
        <time>2017-04-29T08:14:19Z</time>
      </trkpt>
      <trkpt lat="49.45583" lon="3.75025">
        <ele>100.6</ele>
        <time>2017-04-29T08:14:26Z</time>
      </trkpt>
      <trkpt lat="49.45584" lon="3.75034">
        <ele>100.6</ele>
        <time>2017-04-29T08:14:30Z</time>
      </trkpt>
      <trkpt lat="49.45589" lon="3.75052">
        <ele>100.6</ele>
        <time>2017-04-29T08:14:37Z</time>
      </trkpt>
      <trkpt lat="49.45589" lon="3.75053">
        <ele>101.08</ele>
        <time>2017-04-29T08:14:38Z</time>
      </trkpt>
      <trkpt lat="49.4559" lon="3.7506">
        <ele>100.6</ele>
        <time>2017-04-29T08:14:40Z</time>
      </trkpt>
      <trkpt lat="49.45595" lon="3.75075">
        <ele>101.08</ele>
        <time>2017-04-29T08:14:47Z</time>
      </trkpt>
      <trkpt lat="49.45595" lon="3.75087">
        <ele>101.08</ele>
        <time>2017-04-29T08:14:53Z</time>
      </trkpt>
      <trkpt lat="49.45596" lon="3.75089">
        <ele>101.08</ele>
        <time>2017-04-29T08:14:54Z</time>
      </trkpt>
      <trkpt lat="49.45598" lon="3.75098">
        <ele>101.08</ele>
        <time>2017-04-29T08:14:58Z</time>
      </trkpt>
      <trkpt lat="49.456" lon="3.75113">
        <ele>101.08</ele>
        <time>2017-04-29T08:15:03Z</time>
      </trkpt>
      <trkpt lat="49.45603" lon="3.75124">
        <ele>101.08</ele>
        <time>2017-04-29T08:15:10Z</time>
      </trkpt>
      <trkpt lat="49.45603" lon="3.75129">
        <ele>101.08</ele>
        <time>2017-04-29T08:15:14Z</time>
      </trkpt>
      <trkpt lat="49.45605" lon="3.75136">
        <ele>101.08</ele>
        <time>2017-04-29T08:15:22Z</time>
      </trkpt>
      <trkpt lat="49.45604" lon="3.75137">
        <ele>101.08</ele>
        <time>2017-04-29T08:15:23Z</time>
      </trkpt>
      <trkpt lat="49.45601" lon="3.75148">
        <ele>100.6</ele>
        <time>2017-04-29T08:15:29Z</time>
      </trkpt>
      <trkpt lat="49.45602" lon="3.75152">
        <ele>100.6</ele>
        <time>2017-04-29T08:15:34Z</time>
      </trkpt>
      <trkpt lat="49.45602" lon="3.75156">
        <ele>100.6</ele>
        <time>2017-04-29T08:15:39Z</time>
      </trkpt>
      <trkpt lat="49.45599" lon="3.7516">
        <ele>100.6</ele>
        <time>2017-04-29T08:15:47Z</time>
      </trkpt>
      <trkpt lat="49.45596" lon="3.7516">
        <ele>100.6</ele>
        <time>2017-04-29T08:15:55Z</time>
      </trkpt>
      <trkpt lat="49.45595" lon="3.75158">
        <ele>100.6</ele>
        <time>2017-04-29T08:16:01Z</time>
      </trkpt>
      <trkpt lat="49.45598" lon="3.7516">
        <ele>100.6</ele>
        <time>2017-04-29T08:16:07Z</time>
      </trkpt>
      <trkpt lat="49.45601" lon="3.75161">
        <ele>101.08</ele>
        <time>2017-04-29T08:16:15Z</time>
      </trkpt>
      <trkpt lat="49.45603" lon="3.75162">
        <ele>101.56</ele>
        <time>2017-04-29T08:16:20Z</time>
      </trkpt>
      <trkpt lat="49.45604" lon="3.75167">
        <ele>101.08</ele>
        <time>2017-04-29T08:16:26Z</time>
      </trkpt>
      <trkpt lat="49.45605" lon="3.75174">
        <ele>101.08</ele>
        <time>2017-04-29T08:16:32Z</time>
      </trkpt>
      <trkpt lat="49.45605" lon="3.75181">
        <ele>101.56</ele>
        <time>2017-04-29T08:16:38Z</time>
      </trkpt>
      <trkpt lat="49.45606" lon="3.75192">
        <ele>101.56</ele>
        <time>2017-04-29T08:16:45Z</time>
      </trkpt>
      <trkpt lat="49.45608" lon="3.75198">
        <ele>101.56</ele>
        <time>2017-04-29T08:16:49Z</time>
      </trkpt>
      <trkpt lat="49.45609" lon="3.75208">
        <ele>101.56</ele>
        <time>2017-04-29T08:16:55Z</time>
      </trkpt>
      <trkpt lat="49.45611" lon="3.75219">
        <ele>101.56</ele>
        <time>2017-04-29T08:17:01Z</time>
      </trkpt>
      <trkpt lat="49.45613" lon="3.75229">
        <ele>102.04</ele>
        <time>2017-04-29T08:17:07Z</time>
      </trkpt>
      <trkpt lat="49.45613" lon="3.75231">
        <ele>102.04</ele>
        <time>2017-04-29T08:17:08Z</time>
      </trkpt>
      <trkpt lat="49.45615" lon="3.7524">
        <ele>101.56</ele>
        <time>2017-04-29T08:17:14Z</time>
      </trkpt>
      <trkpt lat="49.45615" lon="3.75246">
        <ele>101.56</ele>
        <time>2017-04-29T08:17:18Z</time>
      </trkpt>
      <trkpt lat="49.45615" lon="3.75249">
        <ele>101.56</ele>
        <time>2017-04-29T08:17:20Z</time>
      </trkpt>
      <trkpt lat="49.45617" lon="3.75259">
        <ele>101.56</ele>
        <time>2017-04-29T08:17:26Z</time>
      </trkpt>
      <trkpt lat="49.45617" lon="3.75261">
        <ele>101.56</ele>
        <time>2017-04-29T08:17:27Z</time>
      </trkpt>
      <trkpt lat="49.45618" lon="3.7527">
        <ele>101.56</ele>
        <time>2017-04-29T08:17:32Z</time>
      </trkpt>
      <trkpt lat="49.4562" lon="3.75286">
        <ele>101.56</ele>
        <time>2017-04-29T08:17:39Z</time>
      </trkpt>
      <trkpt lat="49.4562" lon="3.7529">
        <ele>101.56</ele>
        <time>2017-04-29T08:17:41Z</time>
      </trkpt>
      <trkpt lat="49.45621" lon="3.75299">
        <ele>101.56</ele>
        <time>2017-04-29T08:17:48Z</time>
      </trkpt>
      <trkpt lat="49.45621" lon="3.75301">
        <ele>101.56</ele>
        <time>2017-04-29T08:17:49Z</time>
      </trkpt>
      <trkpt lat="49.45622" lon="3.75308">
        <ele>101.56</ele>
        <time>2017-04-29T08:17:54Z</time>
      </trkpt>
      <trkpt lat="49.45623" lon="3.75319">
        <ele>101.56</ele>
        <time>2017-04-29T08:18:00Z</time>
      </trkpt>
      <trkpt lat="49.45626" lon="3.75339">
        <ele>101.56</ele>
        <time>2017-04-29T08:18:09Z</time>
      </trkpt>
      <trkpt lat="49.45627" lon="3.75348">
        <ele>101.56</ele>
        <time>2017-04-29T08:18:16Z</time>
      </trkpt>
      <trkpt lat="49.45628" lon="3.75353">
        <ele>101.56</ele>
        <time>2017-04-29T08:18:20Z</time>
      </trkpt>
      <trkpt lat="49.45628" lon="3.7536">
        <ele>101.56</ele>
        <time>2017-04-29T08:18:23Z</time>
      </trkpt>
      <trkpt lat="49.45631" lon="3.75374">
        <ele>101.56</ele>
        <time>2017-04-29T08:18:30Z</time>
      </trkpt>
      <trkpt lat="49.45632" lon="3.75385">
        <ele>101.56</ele>
        <time>2017-04-29T08:18:35Z</time>
      </trkpt>
      <trkpt lat="49.45634" lon="3.7539">
        <ele>101.56</ele>
        <time>2017-04-29T08:18:38Z</time>
      </trkpt>
      <trkpt lat="49.45636" lon="3.75402">
        <ele>101.56</ele>
        <time>2017-04-29T08:18:45Z</time>
      </trkpt>
      <trkpt lat="49.45638" lon="3.75412">
        <ele>101.56</ele>
        <time>2017-04-29T08:18:52Z</time>
      </trkpt>
      <trkpt lat="49.4564" lon="3.75425">
        <ele>101.56</ele>
        <time>2017-04-29T08:18:58Z</time>
      </trkpt>
      <trkpt lat="49.4564" lon="3.75436">
        <ele>101.56</ele>
        <time>2017-04-29T08:19:05Z</time>
      </trkpt>
      <trkpt lat="49.4564" lon="3.75438">
        <ele>101.56</ele>
        <time>2017-04-29T08:19:06Z</time>
      </trkpt>
      <trkpt lat="49.4564" lon="3.75441">
        <ele>101.56</ele>
        <time>2017-04-29T08:19:08Z</time>
      </trkpt>
      <trkpt lat="49.45643" lon="3.75452">
        <ele>101.56</ele>
        <time>2017-04-29T08:19:13Z</time>
      </trkpt>
      <trkpt lat="49.45645" lon="3.75469">
        <ele>101.56</ele>
        <time>2017-04-29T08:19:20Z</time>
      </trkpt>
      <trkpt lat="49.45645" lon="3.75471">
        <ele>101.56</ele>
        <time>2017-04-29T08:19:21Z</time>
      </trkpt>
      <trkpt lat="49.45646" lon="3.75479">
        <ele>101.56</ele>
        <time>2017-04-29T08:19:27Z</time>
      </trkpt>
      <trkpt lat="49.45647" lon="3.7548">
        <ele>101.56</ele>
        <time>2017-04-29T08:19:28Z</time>
      </trkpt>
      <trkpt lat="49.45648" lon="3.75484">
        <ele>101.56</ele>
        <time>2017-04-29T08:19:30Z</time>
      </trkpt>
      <trkpt lat="49.4565" lon="3.75497">
        <ele>101.56</ele>
        <time>2017-04-29T08:19:36Z</time>
      </trkpt>
      <trkpt lat="49.45651" lon="3.75499">
        <ele>101.56</ele>
        <time>2017-04-29T08:19:37Z</time>
      </trkpt>
      <trkpt lat="49.45653" lon="3.7551">
        <ele>101.56</ele>
        <time>2017-04-29T08:19:43Z</time>
      </trkpt>
      <trkpt lat="49.45653" lon="3.75513">
        <ele>101.56</ele>
        <time>2017-04-29T08:19:44Z</time>
      </trkpt>
      <trkpt lat="49.45655" lon="3.75525">
        <ele>101.56</ele>
        <time>2017-04-29T08:19:50Z</time>
      </trkpt>
      <trkpt lat="49.45657" lon="3.75538">
        <ele>101.56</ele>
        <time>2017-04-29T08:19:56Z</time>
      </trkpt>
      <trkpt lat="49.45658" lon="3.75545">
        <ele>101.56</ele>
        <time>2017-04-29T08:20:00Z</time>
      </trkpt>
      <trkpt lat="49.4566" lon="3.75559">
        <ele>101.56</ele>
        <time>2017-04-29T08:20:07Z</time>
      </trkpt>
      <trkpt lat="49.45661" lon="3.75571">
        <ele>101.56</ele>
        <time>2017-04-29T08:20:13Z</time>
      </trkpt>
      <trkpt lat="49.45662" lon="3.75583">
        <ele>101.56</ele>
        <time>2017-04-29T08:20:20Z</time>
      </trkpt>
      <trkpt lat="49.45663" lon="3.75591">
        <ele>101.56</ele>
        <time>2017-04-29T08:20:23Z</time>
      </trkpt>
      <trkpt lat="49.45663" lon="3.75594">
        <ele>101.56</ele>
        <time>2017-04-29T08:20:25Z</time>
      </trkpt>
      <trkpt lat="49.45665" lon="3.75602">
        <ele>101.56</ele>
        <time>2017-04-29T08:20:31Z</time>
      </trkpt>
      <trkpt lat="49.45666" lon="3.75604">
        <ele>101.56</ele>
        <time>2017-04-29T08:20:32Z</time>
      </trkpt>
      <trkpt lat="49.45667" lon="3.75612">
        <ele>101.56</ele>
        <time>2017-04-29T08:20:37Z</time>
      </trkpt>
      <trkpt lat="49.45668" lon="3.75624">
        <ele>101.56</ele>
        <time>2017-04-29T08:20:44Z</time>
      </trkpt>
      <trkpt lat="49.4567" lon="3.7563">
        <ele>101.56</ele>
        <time>2017-04-29T08:20:49Z</time>
      </trkpt>
      <trkpt lat="49.4567" lon="3.75645">
        <ele>101.56</ele>
        <time>2017-04-29T08:20:57Z</time>
      </trkpt>
      <trkpt lat="49.4567" lon="3.75652">
        <ele>101.56</ele>
        <time>2017-04-29T08:21:03Z</time>
      </trkpt>
      <trkpt lat="49.45672" lon="3.75665">
        <ele>102.04</ele>
        <time>2017-04-29T08:21:10Z</time>
      </trkpt>
      <trkpt lat="49.45672" lon="3.75668">
        <ele>102.04</ele>
        <time>2017-04-29T08:21:11Z</time>
      </trkpt>
      <trkpt lat="49.45673" lon="3.7568">
        <ele>102.04</ele>
        <time>2017-04-29T08:21:17Z</time>
      </trkpt>
      <trkpt lat="49.45676" lon="3.75691">
        <ele>102.04</ele>
        <time>2017-04-29T08:21:23Z</time>
      </trkpt>
      <trkpt lat="49.45678" lon="3.75709">
        <ele>102.04</ele>
        <time>2017-04-29T08:21:31Z</time>
      </trkpt>
      <trkpt lat="49.45679" lon="3.75721">
        <ele>102.04</ele>
        <time>2017-04-29T08:21:38Z</time>
      </trkpt>
      <trkpt lat="49.45681" lon="3.75732">
        <ele>102.04</ele>
        <time>2017-04-29T08:21:44Z</time>
      </trkpt>
      <trkpt lat="49.45681" lon="3.75734">
        <ele>102.04</ele>
        <time>2017-04-29T08:21:45Z</time>
      </trkpt>
      <trkpt lat="49.45682" lon="3.75744">
        <ele>102.04</ele>
        <time>2017-04-29T08:21:50Z</time>
      </trkpt>
      <trkpt lat="49.45683" lon="3.75751">
        <ele>102.52</ele>
        <time>2017-04-29T08:21:54Z</time>
      </trkpt>
      <trkpt lat="49.45685" lon="3.75761">
        <ele>102.52</ele>
        <time>2017-04-29T08:22:00Z</time>
      </trkpt>
      <trkpt lat="49.45686" lon="3.75768">
        <ele>102.52</ele>
        <time>2017-04-29T08:22:04Z</time>
      </trkpt>
      <trkpt lat="49.45687" lon="3.75774">
        <ele>102.52</ele>
        <time>2017-04-29T08:22:09Z</time>
      </trkpt>
      <trkpt lat="49.45687" lon="3.75781">
        <ele>102.52</ele>
        <time>2017-04-29T08:22:13Z</time>
      </trkpt>
      <trkpt lat="49.45687" lon="3.75792">
        <ele>102.52</ele>
        <time>2017-04-29T08:22:20Z</time>
      </trkpt>
      <trkpt lat="49.45689" lon="3.75795">
        <ele>102.52</ele>
        <time>2017-04-29T08:22:22Z</time>
      </trkpt>
      <trkpt lat="49.4569" lon="3.75802">
        <ele>102.52</ele>
        <time>2017-04-29T08:22:25Z</time>
      </trkpt>
      <trkpt lat="49.4569" lon="3.75811">
        <ele>103</ele>
        <time>2017-04-29T08:22:30Z</time>
      </trkpt>
      <trkpt lat="49.45691" lon="3.75814">
        <ele>103</ele>
        <time>2017-04-29T08:22:32Z</time>
      </trkpt>
      <trkpt lat="49.45692" lon="3.75818">
        <ele>103</ele>
        <time>2017-04-29T08:22:35Z</time>
      </trkpt>
      <trkpt lat="49.45692" lon="3.75822">
        <ele>103</ele>
        <time>2017-04-29T08:22:37Z</time>
      </trkpt>
      <trkpt lat="49.45691" lon="3.75828">
        <ele>103</ele>
        <time>2017-04-29T08:22:41Z</time>
      </trkpt>
      <trkpt lat="49.45693" lon="3.75837">
        <ele>103.48</ele>
        <time>2017-04-29T08:22:46Z</time>
      </trkpt>
      <trkpt lat="49.45693" lon="3.75844">
        <ele>103.48</ele>
        <time>2017-04-29T08:22:49Z</time>
      </trkpt>
      <trkpt lat="49.45695" lon="3.75854">
        <ele>103</ele>
        <time>2017-04-29T08:22:54Z</time>
      </trkpt>
      <trkpt lat="49.45696" lon="3.75861">
        <ele>103.96</ele>
        <time>2017-04-29T08:22:58Z</time>
      </trkpt>
      <trkpt lat="49.45696" lon="3.75867">
        <ele>103.48</ele>
        <time>2017-04-29T08:23:01Z</time>
      </trkpt>
      <trkpt lat="49.45695" lon="3.75872">
        <ele>103.48</ele>
        <time>2017-04-29T08:23:03Z</time>
      </trkpt>
      <trkpt lat="49.45698" lon="3.75884">
        <ele>103.48</ele>
        <time>2017-04-29T08:23:09Z</time>
      </trkpt>
      <trkpt lat="49.45698" lon="3.75891">
        <ele>103.48</ele>
        <time>2017-04-29T08:23:12Z</time>
      </trkpt>
      <trkpt lat="49.457" lon="3.75901">
        <ele>103.96</ele>
        <time>2017-04-29T08:23:16Z</time>
      </trkpt>
      <trkpt lat="49.45701" lon="3.75907">
        <ele>103.96</ele>
        <time>2017-04-29T08:23:22Z</time>
      </trkpt>
      <trkpt lat="49.45702" lon="3.75918">
        <ele>103.96</ele>
        <time>2017-04-29T08:23:29Z</time>
      </trkpt>
      <trkpt lat="49.45704" lon="3.75929">
        <ele>103.96</ele>
        <time>2017-04-29T08:23:35Z</time>
      </trkpt>
      <trkpt lat="49.45704" lon="3.75935">
        <ele>104.44</ele>
        <time>2017-04-29T08:23:38Z</time>
      </trkpt>
      <trkpt lat="49.45707" lon="3.75941">
        <ele>104.44</ele>
        <time>2017-04-29T08:23:41Z</time>
      </trkpt>
      <trkpt lat="49.45707" lon="3.75952">
        <ele>104.44</ele>
        <time>2017-04-29T08:23:47Z</time>
      </trkpt>
      <trkpt lat="49.45707" lon="3.75957">
        <ele>104.44</ele>
        <time>2017-04-29T08:23:50Z</time>
      </trkpt>
      <trkpt lat="49.45712" lon="3.75975">
        <ele>104.92</ele>
        <time>2017-04-29T08:23:57Z</time>
      </trkpt>
      <trkpt lat="49.45715" lon="3.75991">
        <ele>104.92</ele>
        <time>2017-04-29T08:24:03Z</time>
      </trkpt>
      <trkpt lat="49.45716" lon="3.76001">
        <ele>104.92</ele>
        <time>2017-04-29T08:24:09Z</time>
      </trkpt>
      <trkpt lat="49.4572" lon="3.76012">
        <ele>104.92</ele>
        <time>2017-04-29T08:24:14Z</time>
      </trkpt>
      <trkpt lat="49.45719" lon="3.76018">
        <ele>104.92</ele>
        <time>2017-04-29T08:24:17Z</time>
      </trkpt>
      <trkpt lat="49.45722" lon="3.7603">
        <ele>104.92</ele>
        <time>2017-04-29T08:24:25Z</time>
      </trkpt>
      <trkpt lat="49.45721" lon="3.76031">
        <ele>104.92</ele>
        <time>2017-04-29T08:24:32Z</time>
      </trkpt>
      <trkpt lat="49.45721" lon="3.7604">
        <ele>105.4</ele>
        <time>2017-04-29T08:24:39Z</time>
      </trkpt>
      <trkpt lat="49.45724" lon="3.76046">
        <ele>105.4</ele>
        <time>2017-04-29T08:24:46Z</time>
      </trkpt>
      <trkpt lat="49.45727" lon="3.76052">
        <ele>104.92</ele>
        <time>2017-04-29T08:24:51Z</time>
      </trkpt>
      <trkpt lat="49.45727" lon="3.76053">
        <ele>105.4</ele>
        <time>2017-04-29T08:24:53Z</time>
      </trkpt>
      <trkpt lat="49.45728" lon="3.76064">
        <ele>105.4</ele>
        <time>2017-04-29T08:24:59Z</time>
      </trkpt>
      <trkpt lat="49.45729" lon="3.76068">
        <ele>105.4</ele>
        <time>2017-04-29T08:25:02Z</time>
      </trkpt>
      <trkpt lat="49.45729" lon="3.76078">
        <ele>105.4</ele>
        <time>2017-04-29T08:25:08Z</time>
      </trkpt>
      <trkpt lat="49.4573" lon="3.7609">
        <ele>105.4</ele>
        <time>2017-04-29T08:25:15Z</time>
      </trkpt>
      <trkpt lat="49.45731" lon="3.76094">
        <ele>105.88</ele>
        <time>2017-04-29T08:25:17Z</time>
      </trkpt>
      <trkpt lat="49.45732" lon="3.761">
        <ele>105.88</ele>
        <time>2017-04-29T08:25:19Z</time>
      </trkpt>
      <trkpt lat="49.45733" lon="3.76121">
        <ele>105.88</ele>
        <time>2017-04-29T08:25:27Z</time>
      </trkpt>
      <trkpt lat="49.45734" lon="3.76137">
        <ele>105.88</ele>
        <time>2017-04-29T08:25:34Z</time>
      </trkpt>
      <trkpt lat="49.45734" lon="3.76141">
        <ele>106.36</ele>
        <time>2017-04-29T08:25:36Z</time>
      </trkpt>
      <trkpt lat="49.45735" lon="3.76145">
        <ele>106.36</ele>
        <time>2017-04-29T08:25:39Z</time>
      </trkpt>
      <trkpt lat="49.45737" lon="3.76155">
        <ele>105.88</ele>
        <time>2017-04-29T08:25:44Z</time>
      </trkpt>
      <trkpt lat="49.45739" lon="3.76159">
        <ele>106.36</ele>
        <time>2017-04-29T08:25:46Z</time>
      </trkpt>
      <trkpt lat="49.45741" lon="3.76173">
        <ele>105.88</ele>
        <time>2017-04-29T08:25:53Z</time>
      </trkpt>
      <trkpt lat="49.45744" lon="3.76184">
        <ele>106.36</ele>
        <time>2017-04-29T08:25:59Z</time>
      </trkpt>
      <trkpt lat="49.45745" lon="3.76194">
        <ele>106.36</ele>
        <time>2017-04-29T08:26:05Z</time>
      </trkpt>
      <trkpt lat="49.45747" lon="3.76203">
        <ele>106.36</ele>
        <time>2017-04-29T08:26:10Z</time>
      </trkpt>
      <trkpt lat="49.45749" lon="3.76213">
        <ele>106.36</ele>
        <time>2017-04-29T08:26:17Z</time>
      </trkpt>
      <trkpt lat="49.45751" lon="3.76219">
        <ele>106.84</ele>
        <time>2017-04-29T08:26:23Z</time>
      </trkpt>
      <trkpt lat="49.45753" lon="3.76228">
        <ele>106.84</ele>
        <time>2017-04-29T08:26:27Z</time>
      </trkpt>
      <trkpt lat="49.45754" lon="3.76232">
        <ele>106.84</ele>
        <time>2017-04-29T08:26:29Z</time>
      </trkpt>
      <trkpt lat="49.45756" lon="3.76235">
        <ele>106.84</ele>
        <time>2017-04-29T08:26:31Z</time>
      </trkpt>
      <trkpt lat="49.45757" lon="3.76244">
        <ele>106.84</ele>
        <time>2017-04-29T08:26:34Z</time>
      </trkpt>
      <trkpt lat="49.45762" lon="3.76259">
        <ele>106.84</ele>
        <time>2017-04-29T08:26:41Z</time>
      </trkpt>
      <trkpt lat="49.45763" lon="3.76266">
        <ele>107.32</ele>
        <time>2017-04-29T08:26:45Z</time>
      </trkpt>
      <trkpt lat="49.45765" lon="3.76276">
        <ele>107.32</ele>
        <time>2017-04-29T08:26:51Z</time>
      </trkpt>
      <trkpt lat="49.45766" lon="3.76278">
        <ele>107.32</ele>
        <time>2017-04-29T08:26:52Z</time>
      </trkpt>
      <trkpt lat="49.4577" lon="3.76292">
        <ele>107.32</ele>
        <time>2017-04-29T08:26:57Z</time>
      </trkpt>
      <trkpt lat="49.45771" lon="3.76299">
        <ele>107.32</ele>
        <time>2017-04-29T08:27:00Z</time>
      </trkpt>
      <trkpt lat="49.45775" lon="3.76307">
        <ele>107.32</ele>
        <time>2017-04-29T08:27:05Z</time>
      </trkpt>
      <trkpt lat="49.45776" lon="3.76313">
        <ele>107.81</ele>
        <time>2017-04-29T08:27:08Z</time>
      </trkpt>
      <trkpt lat="49.45782" lon="3.76327">
        <ele>108.29</ele>
        <time>2017-04-29T08:27:15Z</time>
      </trkpt>
      <trkpt lat="49.45783" lon="3.76331">
        <ele>108.29</ele>
        <time>2017-04-29T08:27:18Z</time>
      </trkpt>
      <trkpt lat="49.45785" lon="3.76341">
        <ele>108.29</ele>
        <time>2017-04-29T08:27:25Z</time>
      </trkpt>
      <trkpt lat="49.45787" lon="3.76348">
        <ele>108.29</ele>
        <time>2017-04-29T08:27:30Z</time>
      </trkpt>
      <trkpt lat="49.45788" lon="3.76353">
        <ele>108.29</ele>
        <time>2017-04-29T08:27:33Z</time>
      </trkpt>
      <trkpt lat="49.4579" lon="3.76361">
        <ele>108.29</ele>
        <time>2017-04-29T08:27:37Z</time>
      </trkpt>
      <trkpt lat="49.45792" lon="3.76371">
        <ele>108.77</ele>
        <time>2017-04-29T08:27:42Z</time>
      </trkpt>
      <trkpt lat="49.45794" lon="3.76377">
        <ele>108.77</ele>
        <time>2017-04-29T08:27:45Z</time>
      </trkpt>
      <trkpt lat="49.45797" lon="3.7639">
        <ele>108.77</ele>
        <time>2017-04-29T08:27:52Z</time>
      </trkpt>
      <trkpt lat="49.45799" lon="3.76394">
        <ele>109.25</ele>
        <time>2017-04-29T08:27:55Z</time>
      </trkpt>
      <trkpt lat="49.45802" lon="3.76405">
        <ele>109.25</ele>
        <time>2017-04-29T08:28:01Z</time>
      </trkpt>
      <trkpt lat="49.45806" lon="3.76418">
        <ele>109.25</ele>
        <time>2017-04-29T08:28:08Z</time>
      </trkpt>
      <trkpt lat="49.45808" lon="3.76424">
        <ele>109.25</ele>
        <time>2017-04-29T08:28:11Z</time>
      </trkpt>
      <trkpt lat="49.45809" lon="3.76438">
        <ele>109.73</ele>
        <time>2017-04-29T08:28:18Z</time>
      </trkpt>
      <trkpt lat="49.45813" lon="3.76448">
        <ele>109.73</ele>
        <time>2017-04-29T08:28:24Z</time>
      </trkpt>
      <trkpt lat="49.45815" lon="3.76455">
        <ele>109.73</ele>
        <time>2017-04-29T08:28:27Z</time>
      </trkpt>
      <trkpt lat="49.45817" lon="3.7646">
        <ele>109.73</ele>
        <time>2017-04-29T08:28:29Z</time>
      </trkpt>
      <trkpt lat="49.4582" lon="3.76472">
        <ele>110.21</ele>
        <time>2017-04-29T08:28:35Z</time>
      </trkpt>
      <trkpt lat="49.45823" lon="3.76482">
        <ele>110.21</ele>
        <time>2017-04-29T08:28:40Z</time>
      </trkpt>
      <trkpt lat="49.45823" lon="3.76484">
        <ele>110.21</ele>
        <time>2017-04-29T08:28:41Z</time>
      </trkpt>
      <trkpt lat="49.45824" lon="3.76495">
        <ele>110.21</ele>
        <time>2017-04-29T08:28:46Z</time>
      </trkpt>
      <trkpt lat="49.45827" lon="3.76506">
        <ele>110.69</ele>
        <time>2017-04-29T08:28:52Z</time>
      </trkpt>
      <trkpt lat="49.45828" lon="3.76509">
        <ele>110.69</ele>
        <time>2017-04-29T08:28:54Z</time>
      </trkpt>
      <trkpt lat="49.4583" lon="3.76513">
        <ele>110.69</ele>
        <time>2017-04-29T08:28:57Z</time>
      </trkpt>
      <trkpt lat="49.45831" lon="3.76526">
        <ele>110.69</ele>
        <time>2017-04-29T08:29:03Z</time>
      </trkpt>
      <trkpt lat="49.45833" lon="3.76533">
        <ele>110.69</ele>
        <time>2017-04-29T08:29:08Z</time>
      </trkpt>
      <trkpt lat="49.45833" lon="3.76541">
        <ele>110.69</ele>
        <time>2017-04-29T08:29:14Z</time>
      </trkpt>
      <trkpt lat="49.45834" lon="3.76551">
        <ele>111.17</ele>
        <time>2017-04-29T08:29:20Z</time>
      </trkpt>
      <trkpt lat="49.45834" lon="3.76553">
        <ele>111.17</ele>
        <time>2017-04-29T08:29:21Z</time>
      </trkpt>
      <trkpt lat="49.45835" lon="3.76573">
        <ele>111.17</ele>
        <time>2017-04-29T08:29:27Z</time>
      </trkpt>
      <trkpt lat="49.45835" lon="3.76588">
        <ele>111.17</ele>
        <time>2017-04-29T08:29:33Z</time>
      </trkpt>
      <trkpt lat="49.45835" lon="3.76591">
        <ele>111.17</ele>
        <time>2017-04-29T08:29:35Z</time>
      </trkpt>
      <trkpt lat="49.45836" lon="3.76605">
        <ele>111.65</ele>
        <time>2017-04-29T08:29:42Z</time>
      </trkpt>
      <trkpt lat="49.45838" lon="3.76614">
        <ele>111.65</ele>
        <time>2017-04-29T08:29:47Z</time>
      </trkpt>
      <trkpt lat="49.45837" lon="3.76632">
        <ele>111.65</ele>
        <time>2017-04-29T08:29:56Z</time>
      </trkpt>
      <trkpt lat="49.45838" lon="3.76644">
        <ele>112.13</ele>
        <time>2017-04-29T08:30:02Z</time>
      </trkpt>
      <trkpt lat="49.45839" lon="3.7666">
        <ele>112.13</ele>
        <time>2017-04-29T08:30:08Z</time>
      </trkpt>
      <trkpt lat="49.45841" lon="3.76664">
        <ele>112.13</ele>
        <time>2017-04-29T08:30:10Z</time>
      </trkpt>
      <trkpt lat="49.45843" lon="3.76678">
        <ele>112.13</ele>
        <time>2017-04-29T08:30:18Z</time>
      </trkpt>
      <trkpt lat="49.45843" lon="3.76684">
        <ele>112.13</ele>
        <time>2017-04-29T08:30:21Z</time>
      </trkpt>
      <trkpt lat="49.45841" lon="3.76698">
        <ele>112.13</ele>
        <time>2017-04-29T08:30:29Z</time>
      </trkpt>
      <trkpt lat="49.4584" lon="3.76707">
        <ele>112.13</ele>
        <time>2017-04-29T08:30:35Z</time>
      </trkpt>
      <trkpt lat="49.45837" lon="3.7672">
        <ele>112.61</ele>
        <time>2017-04-29T08:30:43Z</time>
      </trkpt>
      <trkpt lat="49.45835" lon="3.76733">
        <ele>112.61</ele>
        <time>2017-04-29T08:30:49Z</time>
      </trkpt>
      <trkpt lat="49.45835" lon="3.76738">
        <ele>112.61</ele>
        <time>2017-04-29T08:30:52Z</time>
      </trkpt>
      <trkpt lat="49.45836" lon="3.76746">
        <ele>113.09</ele>
        <time>2017-04-29T08:30:56Z</time>
      </trkpt>
      <trkpt lat="49.45838" lon="3.76762">
        <ele>113.09</ele>
        <time>2017-04-29T08:31:04Z</time>
      </trkpt>
      <trkpt lat="49.45841" lon="3.76777">
        <ele>113.09</ele>
        <time>2017-04-29T08:31:10Z</time>
      </trkpt>
      <trkpt lat="49.45843" lon="3.76784">
        <ele>113.09</ele>
        <time>2017-04-29T08:31:13Z</time>
      </trkpt>
      <trkpt lat="49.45844" lon="3.76796">
        <ele>113.09</ele>
        <time>2017-04-29T08:31:19Z</time>
      </trkpt>
      <trkpt lat="49.45844" lon="3.76799">
        <ele>113.09</ele>
        <time>2017-04-29T08:31:21Z</time>
      </trkpt>
      <trkpt lat="49.45845" lon="3.7681">
        <ele>113.09</ele>
        <time>2017-04-29T08:31:26Z</time>
      </trkpt>
      <trkpt lat="49.45848" lon="3.76822">
        <ele>113.57</ele>
        <time>2017-04-29T08:31:32Z</time>
      </trkpt>
      <trkpt lat="49.4585" lon="3.76833">
        <ele>113.57</ele>
        <time>2017-04-29T08:31:37Z</time>
      </trkpt>
      <trkpt lat="49.45849" lon="3.76846">
        <ele>113.57</ele>
        <time>2017-04-29T08:31:44Z</time>
      </trkpt>
      <trkpt lat="49.45849" lon="3.7686">
        <ele>114.05</ele>
        <time>2017-04-29T08:31:53Z</time>
      </trkpt>
      <trkpt lat="49.45849" lon="3.76872">
        <ele>114.05</ele>
        <time>2017-04-29T08:31:59Z</time>
      </trkpt>
      <trkpt lat="49.4585" lon="3.76882">
        <ele>114.05</ele>
        <time>2017-04-29T08:32:03Z</time>
      </trkpt>
      <trkpt lat="49.45853" lon="3.76894">
        <ele>114.05</ele>
        <time>2017-04-29T08:32:08Z</time>
      </trkpt>
      <trkpt lat="49.45853" lon="3.76907">
        <ele>114.53</ele>
        <time>2017-04-29T08:32:15Z</time>
      </trkpt>
      <trkpt lat="49.45862" lon="3.76928">
        <ele>114.05</ele>
        <time>2017-04-29T08:32:20Z</time>
      </trkpt>
      <trkpt lat="49.45876" lon="3.76945">
        <ele>114.53</ele>
        <time>2017-04-29T08:32:30Z</time>
      </trkpt>
      <trkpt lat="49.4588" lon="3.7694">
        <ele>114.53</ele>
        <time>2017-04-29T08:32:35Z</time>
      </trkpt>
      <trkpt lat="49.45883" lon="3.76938">
        <ele>114.53</ele>
        <time>2017-04-29T08:32:38Z</time>
      </trkpt>
      <trkpt lat="49.45883" lon="3.76942">
        <ele>115.01</ele>
        <time>2017-04-29T08:32:47Z</time>
      </trkpt>
      <trkpt lat="49.45883" lon="3.76948">
        <ele>115.01</ele>
        <time>2017-04-29T08:32:52Z</time>
      </trkpt>
      <trkpt lat="49.45883" lon="3.76958">
        <ele>115.5</ele>
        <time>2017-04-29T08:32:59Z</time>
      </trkpt>
      <trkpt lat="49.45882" lon="3.76965">
        <ele>115.01</ele>
        <time>2017-04-29T08:33:03Z</time>
      </trkpt>
      <trkpt lat="49.45882" lon="3.76971">
        <ele>115.01</ele>
        <time>2017-04-29T08:33:07Z</time>
      </trkpt>
      <trkpt lat="49.45882" lon="3.76985">
        <ele>115.5</ele>
        <time>2017-04-29T08:33:15Z</time>
      </trkpt>
      <trkpt lat="49.45881" lon="3.76988">
        <ele>115.5</ele>
        <time>2017-04-29T08:33:17Z</time>
      </trkpt>
      <trkpt lat="49.45882" lon="3.76993">
        <ele>115.5</ele>
        <time>2017-04-29T08:33:20Z</time>
      </trkpt>
      <trkpt lat="49.45882" lon="3.76998">
        <ele>115.5</ele>
        <time>2017-04-29T08:33:23Z</time>
      </trkpt>
      <trkpt lat="49.45883" lon="3.77002">
        <ele>115.5</ele>
        <time>2017-04-29T08:33:25Z</time>
      </trkpt>
      <trkpt lat="49.45883" lon="3.77026">
        <ele>115.98</ele>
        <time>2017-04-29T08:33:35Z</time>
      </trkpt>
      <trkpt lat="49.45882" lon="3.77034">
        <ele>115.98</ele>
        <time>2017-04-29T08:33:39Z</time>
      </trkpt>
      <trkpt lat="49.45883" lon="3.77039">
        <ele>115.98</ele>
        <time>2017-04-29T08:33:41Z</time>
      </trkpt>
      <trkpt lat="49.45883" lon="3.77051">
        <ele>116.46</ele>
        <time>2017-04-29T08:33:47Z</time>
      </trkpt>
      <trkpt lat="49.45882" lon="3.7706">
        <ele>116.94</ele>
        <time>2017-04-29T08:33:54Z</time>
      </trkpt>
      <trkpt lat="49.45882" lon="3.77062">
        <ele>116.94</ele>
        <time>2017-04-29T08:33:55Z</time>
      </trkpt>
      <trkpt lat="49.45883" lon="3.77074">
        <ele>116.94</ele>
        <time>2017-04-29T08:34:01Z</time>
      </trkpt>
      <trkpt lat="49.45885" lon="3.77087">
        <ele>116.94</ele>
        <time>2017-04-29T08:34:07Z</time>
      </trkpt>
      <trkpt lat="49.45886" lon="3.7709">
        <ele>116.94</ele>
        <time>2017-04-29T08:34:08Z</time>
      </trkpt>
      <trkpt lat="49.45887" lon="3.77101">
        <ele>117.42</ele>
        <time>2017-04-29T08:34:13Z</time>
      </trkpt>
      <trkpt lat="49.45888" lon="3.77106">
        <ele>117.42</ele>
        <time>2017-04-29T08:34:15Z</time>
      </trkpt>
      <trkpt lat="49.45889" lon="3.7711">
        <ele>117.42</ele>
        <time>2017-04-29T08:34:16Z</time>
      </trkpt>
      <trkpt lat="49.45888" lon="3.77119">
        <ele>117.9</ele>
        <time>2017-04-29T08:34:22Z</time>
      </trkpt>
      <trkpt lat="49.45888" lon="3.77135">
        <ele>117.9</ele>
        <time>2017-04-29T08:34:30Z</time>
      </trkpt>
      <trkpt lat="49.45888" lon="3.77143">
        <ele>118.38</ele>
        <time>2017-04-29T08:34:34Z</time>
      </trkpt>
      <trkpt lat="49.45888" lon="3.77152">
        <ele>118.38</ele>
        <time>2017-04-29T08:34:41Z</time>
      </trkpt>
      <trkpt lat="49.45887" lon="3.77158">
        <ele>118.38</ele>
        <time>2017-04-29T08:34:44Z</time>
      </trkpt>
      <trkpt lat="49.45888" lon="3.77162">
        <ele>118.38</ele>
        <time>2017-04-29T08:34:46Z</time>
      </trkpt>
      <trkpt lat="49.45888" lon="3.77174">
        <ele>118.86</ele>
        <time>2017-04-29T08:34:52Z</time>
      </trkpt>
      <trkpt lat="49.45889" lon="3.77183">
        <ele>118.86</ele>
        <time>2017-04-29T08:34:57Z</time>
      </trkpt>
      <trkpt lat="49.45891" lon="3.77196">
        <ele>118.86</ele>
        <time>2017-04-29T08:35:02Z</time>
      </trkpt>
      <trkpt lat="49.4589" lon="3.77212">
        <ele>119.34</ele>
        <time>2017-04-29T08:35:09Z</time>
      </trkpt>
      <trkpt lat="49.4589" lon="3.77214">
        <ele>118.86</ele>
        <time>2017-04-29T08:35:10Z</time>
      </trkpt>
      <trkpt lat="49.4589" lon="3.77218">
        <ele>118.86</ele>
        <time>2017-04-29T08:35:12Z</time>
      </trkpt>
      <trkpt lat="49.4589" lon="3.77232">
        <ele>119.34</ele>
        <time>2017-04-29T08:35:19Z</time>
      </trkpt>
      <trkpt lat="49.45892" lon="3.77244">
        <ele>119.34</ele>
        <time>2017-04-29T08:35:25Z</time>
      </trkpt>
      <trkpt lat="49.45894" lon="3.77253">
        <ele>119.34</ele>
        <time>2017-04-29T08:35:28Z</time>
      </trkpt>
      <trkpt lat="49.45896" lon="3.77271">
        <ele>119.34</ele>
        <time>2017-04-29T08:35:36Z</time>
      </trkpt>
      <trkpt lat="49.45902" lon="3.77291">
        <ele>119.34</ele>
        <time>2017-04-29T08:35:43Z</time>
      </trkpt>
      <trkpt lat="49.45904" lon="3.77295">
        <ele>119.34</ele>
        <time>2017-04-29T08:35:55Z</time>
      </trkpt>
      <trkpt lat="49.45903" lon="3.773">
        <ele>119.34</ele>
        <time>2017-04-29T08:35:59Z</time>
      </trkpt>
      <trkpt lat="49.45901" lon="3.77306">
        <ele>119.34</ele>
        <time>2017-04-29T08:36:04Z</time>
      </trkpt>
      <trkpt lat="49.45901" lon="3.77312">
        <ele>119.34</ele>
        <time>2017-04-29T08:36:07Z</time>
      </trkpt>
      <trkpt lat="49.45902" lon="3.7732">
        <ele>119.34</ele>
        <time>2017-04-29T08:36:11Z</time>
      </trkpt>
      <trkpt lat="49.45902" lon="3.7733">
        <ele>119.34</ele>
        <time>2017-04-29T08:36:16Z</time>
      </trkpt>
      <trkpt lat="49.45904" lon="3.77342">
        <ele>119.34</ele>
        <time>2017-04-29T08:36:22Z</time>
      </trkpt>
      <trkpt lat="49.45903" lon="3.77355">
        <ele>118.86</ele>
        <time>2017-04-29T08:36:29Z</time>
      </trkpt>
      <trkpt lat="49.45903" lon="3.77358">
        <ele>119.34</ele>
        <time>2017-04-29T08:36:31Z</time>
      </trkpt>
      <trkpt lat="49.45905" lon="3.77371">
        <ele>119.34</ele>
        <time>2017-04-29T08:36:38Z</time>
      </trkpt>
      <trkpt lat="49.45905" lon="3.77373">
        <ele>119.34</ele>
        <time>2017-04-29T08:36:39Z</time>
      </trkpt>
      <trkpt lat="49.45906" lon="3.77375">
        <ele>118.86</ele>
        <time>2017-04-29T08:36:42Z</time>
      </trkpt>
      <trkpt lat="49.45907" lon="3.7738">
        <ele>119.82</ele>
        <time>2017-04-29T08:36:44Z</time>
      </trkpt>
      <trkpt lat="49.45906" lon="3.77401">
        <ele>119.82</ele>
        <time>2017-04-29T08:36:52Z</time>
      </trkpt>
      <trkpt lat="49.45908" lon="3.77418">
        <ele>119.82</ele>
        <time>2017-04-29T08:36:57Z</time>
      </trkpt>
      <trkpt lat="49.4591" lon="3.77428">
        <ele>120.3</ele>
        <time>2017-04-29T08:37:03Z</time>
      </trkpt>
      <trkpt lat="49.45911" lon="3.77429">
        <ele>120.3</ele>
        <time>2017-04-29T08:37:04Z</time>
      </trkpt>
      <trkpt lat="49.45914" lon="3.7744">
        <ele>120.3</ele>
        <time>2017-04-29T08:37:10Z</time>
      </trkpt>
      <trkpt lat="49.45915" lon="3.77446">
        <ele>120.78</ele>
        <time>2017-04-29T08:37:13Z</time>
      </trkpt>
      <trkpt lat="49.45918" lon="3.77458">
        <ele>120.78</ele>
        <time>2017-04-29T08:37:21Z</time>
      </trkpt>
      <trkpt lat="49.45918" lon="3.77471">
        <ele>120.78</ele>
        <time>2017-04-29T08:37:28Z</time>
      </trkpt>
      <trkpt lat="49.45918" lon="3.77478">
        <ele>120.3</ele>
        <time>2017-04-29T08:37:33Z</time>
      </trkpt>
      <trkpt lat="49.45919" lon="3.77483">
        <ele>119.82</ele>
        <time>2017-04-29T08:37:49Z</time>
      </trkpt>
      <trkpt lat="49.45921" lon="3.77487">
        <ele>119.82</ele>
        <time>2017-04-29T08:38:06Z</time>
      </trkpt>
      <trkpt lat="49.45921" lon="3.77487">
        <ele>119.82</ele>
        <time>2017-04-29T08:38:09Z</time>
      </trkpt>
      <trkpt lat="49.45922" lon="3.77489">
        <ele>120.78</ele>
        <time>2017-04-29T08:38:12Z</time>
      </trkpt>
      <trkpt lat="49.45924" lon="3.77499">
        <ele>120.78</ele>
        <time>2017-04-29T08:38:18Z</time>
      </trkpt>
      <trkpt lat="49.45924" lon="3.77504">
        <ele>121.26</ele>
        <time>2017-04-29T08:38:20Z</time>
      </trkpt>
      <trkpt lat="49.45924" lon="3.77525">
        <ele>120.78</ele>
        <time>2017-04-29T08:38:28Z</time>
      </trkpt>
      <trkpt lat="49.45924" lon="3.77528">
        <ele>121.26</ele>
        <time>2017-04-29T08:38:29Z</time>
      </trkpt>
      <trkpt lat="49.45926" lon="3.77532">
        <ele>120.78</ele>
        <time>2017-04-29T08:38:31Z</time>
      </trkpt>
      <trkpt lat="49.45925" lon="3.77546">
        <ele>120.78</ele>
        <time>2017-04-29T08:38:38Z</time>
      </trkpt>
      <trkpt lat="49.45925" lon="3.77548">
        <ele>120.3</ele>
        <time>2017-04-29T08:38:46Z</time>
      </trkpt>
      <trkpt lat="49.45926" lon="3.77549">
        <ele>120.3</ele>
        <time>2017-04-29T08:38:53Z</time>
      </trkpt>
      <trkpt lat="49.45926" lon="3.7755">
        <ele>119.82</ele>
        <time>2017-04-29T08:39:03Z</time>
      </trkpt>
      <trkpt lat="49.45926" lon="3.77549">
        <ele>119.82</ele>
        <time>2017-04-29T08:39:08Z</time>
      </trkpt>
      <trkpt lat="49.45926" lon="3.77548">
        <ele>119.82</ele>
        <time>2017-04-29T08:39:16Z</time>
      </trkpt>
      <trkpt lat="49.45926" lon="3.77549">
        <ele>120.3</ele>
        <time>2017-04-29T08:39:23Z</time>
      </trkpt>
      <trkpt lat="49.45926" lon="3.77554">
        <ele>120.3</ele>
        <time>2017-04-29T08:39:27Z</time>
      </trkpt>
      <trkpt lat="49.45927" lon="3.77563">
        <ele>120.3</ele>
        <time>2017-04-29T08:39:34Z</time>
      </trkpt>
      <trkpt lat="49.45926" lon="3.77575">
        <ele>120.3</ele>
        <time>2017-04-29T08:39:42Z</time>
      </trkpt>
      <trkpt lat="49.45926" lon="3.77581">
        <ele>120.3</ele>
        <time>2017-04-29T08:39:47Z</time>
      </trkpt>
      <trkpt lat="49.45925" lon="3.77592">
        <ele>120.3</ele>
        <time>2017-04-29T08:39:53Z</time>
      </trkpt>
      <trkpt lat="49.45926" lon="3.776">
        <ele>119.82</ele>
        <time>2017-04-29T08:39:59Z</time>
      </trkpt>
      <trkpt lat="49.45926" lon="3.77602">
        <ele>119.82</ele>
        <time>2017-04-29T08:40:00Z</time>
      </trkpt>
      <trkpt lat="49.45925" lon="3.77609">
        <ele>119.82</ele>
        <time>2017-04-29T08:40:04Z</time>
      </trkpt>
      <trkpt lat="49.45923" lon="3.77624">
        <ele>119.82</ele>
        <time>2017-04-29T08:40:11Z</time>
      </trkpt>
      <trkpt lat="49.45925" lon="3.7764">
        <ele>119.82</ele>
        <time>2017-04-29T08:40:18Z</time>
      </trkpt>
      <trkpt lat="49.45924" lon="3.77652">
        <ele>119.34</ele>
        <time>2017-04-29T08:40:24Z</time>
      </trkpt>
      <trkpt lat="49.45925" lon="3.77666">
        <ele>119.34</ele>
        <time>2017-04-29T08:40:29Z</time>
      </trkpt>
      <trkpt lat="49.45927" lon="3.77678">
        <ele>119.82</ele>
        <time>2017-04-29T08:40:36Z</time>
      </trkpt>
      <trkpt lat="49.45927" lon="3.77683">
        <ele>119.82</ele>
        <time>2017-04-29T08:40:38Z</time>
      </trkpt>
      <trkpt lat="49.45926" lon="3.77695">
        <ele>119.34</ele>
        <time>2017-04-29T08:40:44Z</time>
      </trkpt>
      <trkpt lat="49.45929" lon="3.77711">
        <ele>119.34</ele>
        <time>2017-04-29T08:40:52Z</time>
      </trkpt>
      <trkpt lat="49.45929" lon="3.77716">
        <ele>119.34</ele>
        <time>2017-04-29T08:40:54Z</time>
      </trkpt>
      <trkpt lat="49.4593" lon="3.77733">
        <ele>120.3</ele>
        <time>2017-04-29T08:41:00Z</time>
      </trkpt>
      <trkpt lat="49.45931" lon="3.7775">
        <ele>119.82</ele>
        <time>2017-04-29T08:41:06Z</time>
      </trkpt>
      <trkpt lat="49.45931" lon="3.77755">
        <ele>119.82</ele>
        <time>2017-04-29T08:41:08Z</time>
      </trkpt>
      <trkpt lat="49.45932" lon="3.77771">
        <ele>119.82</ele>
        <time>2017-04-29T08:41:15Z</time>
      </trkpt>
      <trkpt lat="49.45933" lon="3.77778">
        <ele>119.82</ele>
        <time>2017-04-29T08:41:20Z</time>
      </trkpt>
      <trkpt lat="49.45932" lon="3.77791">
        <ele>119.82</ele>
        <time>2017-04-29T08:41:27Z</time>
      </trkpt>
      <trkpt lat="49.45928" lon="3.77801">
        <ele>120.3</ele>
        <time>2017-04-29T08:41:33Z</time>
      </trkpt>
      <trkpt lat="49.4593" lon="3.77818">
        <ele>120.3</ele>
        <time>2017-04-29T08:41:39Z</time>
      </trkpt>
      <trkpt lat="49.45934" lon="3.77835">
        <ele>120.3</ele>
        <time>2017-04-29T08:41:46Z</time>
      </trkpt>
      <trkpt lat="49.45935" lon="3.77845">
        <ele>120.78</ele>
        <time>2017-04-29T08:41:52Z</time>
      </trkpt>
      <trkpt lat="49.45935" lon="3.77852">
        <ele>120.78</ele>
        <time>2017-04-29T08:41:58Z</time>
      </trkpt>
      <trkpt lat="49.45936" lon="3.77863">
        <ele>121.26</ele>
        <time>2017-04-29T08:42:03Z</time>
      </trkpt>
      <trkpt lat="49.45933" lon="3.77873">
        <ele>121.26</ele>
        <time>2017-04-29T08:42:08Z</time>
      </trkpt>
      <trkpt lat="49.45932" lon="3.77889">
        <ele>121.26</ele>
        <time>2017-04-29T08:42:17Z</time>
      </trkpt>
      <trkpt lat="49.45932" lon="3.77898">
        <ele>121.74</ele>
        <time>2017-04-29T08:42:23Z</time>
      </trkpt>
      <trkpt lat="49.45935" lon="3.77916">
        <ele>122.22</ele>
        <time>2017-04-29T08:42:29Z</time>
      </trkpt>
      <trkpt lat="49.45937" lon="3.77935">
        <ele>122.71</ele>
        <time>2017-04-29T08:42:36Z</time>
      </trkpt>
      <trkpt lat="49.45941" lon="3.77953">
        <ele>122.71</ele>
        <time>2017-04-29T08:42:42Z</time>
      </trkpt>
      <trkpt lat="49.45945" lon="3.77966">
        <ele>123.19</ele>
        <time>2017-04-29T08:42:48Z</time>
      </trkpt>
      <trkpt lat="49.45946" lon="3.77978">
        <ele>123.67</ele>
        <time>2017-04-29T08:42:55Z</time>
      </trkpt>
      <trkpt lat="49.45945" lon="3.77985">
        <ele>125.11</ele>
        <time>2017-04-29T08:43:00Z</time>
      </trkpt>
      <trkpt lat="49.45944" lon="3.77991">
        <ele>124.63</ele>
        <time>2017-04-29T08:43:03Z</time>
      </trkpt>
      <trkpt lat="49.45944" lon="3.78003">
        <ele>125.59</ele>
        <time>2017-04-29T08:43:09Z</time>
      </trkpt>
      <trkpt lat="49.45945" lon="3.78008">
        <ele>126.07</ele>
        <time>2017-04-29T08:43:11Z</time>
      </trkpt>
      <trkpt lat="49.45946" lon="3.7802">
        <ele>126.07</ele>
        <time>2017-04-29T08:43:16Z</time>
      </trkpt>
      <trkpt lat="49.45949" lon="3.78038">
        <ele>126.07</ele>
        <time>2017-04-29T08:43:23Z</time>
      </trkpt>
      <trkpt lat="49.4595" lon="3.7804">
        <ele>126.07</ele>
        <time>2017-04-29T08:43:24Z</time>
      </trkpt>
      <trkpt lat="49.45953" lon="3.78048">
        <ele>126.55</ele>
        <time>2017-04-29T08:43:27Z</time>
      </trkpt>
      <trkpt lat="49.45954" lon="3.78057">
        <ele>126.55</ele>
        <time>2017-04-29T08:43:32Z</time>
      </trkpt>
      <trkpt lat="49.45955" lon="3.78068">
        <ele>126.55</ele>
        <time>2017-04-29T08:43:38Z</time>
      </trkpt>
      <trkpt lat="49.45955" lon="3.78073">
        <ele>126.55</ele>
        <time>2017-04-29T08:43:41Z</time>
      </trkpt>
      <trkpt lat="49.45954" lon="3.7809">
        <ele>126.07</ele>
        <time>2017-04-29T08:43:49Z</time>
      </trkpt>
      <trkpt lat="49.45953" lon="3.78099">
        <ele>126.07</ele>
        <time>2017-04-29T08:43:55Z</time>
      </trkpt>
      <trkpt lat="49.45953" lon="3.78108">
        <ele>126.07</ele>
        <time>2017-04-29T08:44:00Z</time>
      </trkpt>
      <trkpt lat="49.45953" lon="3.78115">
        <ele>126.07</ele>
        <time>2017-04-29T08:44:06Z</time>
      </trkpt>
      <trkpt lat="49.45954" lon="3.7812">
        <ele>126.07</ele>
        <time>2017-04-29T08:44:08Z</time>
      </trkpt>
      <trkpt lat="49.45954" lon="3.78134">
        <ele>125.59</ele>
        <time>2017-04-29T08:44:15Z</time>
      </trkpt>
      <trkpt lat="49.45955" lon="3.7814">
        <ele>125.59</ele>
        <time>2017-04-29T08:44:18Z</time>
      </trkpt>
      <trkpt lat="49.45954" lon="3.78148">
        <ele>125.11</ele>
        <time>2017-04-29T08:44:23Z</time>
      </trkpt>
      <trkpt lat="49.45953" lon="3.78162">
        <ele>125.11</ele>
        <time>2017-04-29T08:44:29Z</time>
      </trkpt>
      <trkpt lat="49.45953" lon="3.78165">
        <ele>125.11</ele>
        <time>2017-04-29T08:44:30Z</time>
      </trkpt>
      <trkpt lat="49.45955" lon="3.78175">
        <ele>125.11</ele>
        <time>2017-04-29T08:44:34Z</time>
      </trkpt>
      <trkpt lat="49.45956" lon="3.78188">
        <ele>125.11</ele>
        <time>2017-04-29T08:44:41Z</time>
      </trkpt>
      <trkpt lat="49.45956" lon="3.78199">
        <ele>125.11</ele>
        <time>2017-04-29T08:44:47Z</time>
      </trkpt>
      <trkpt lat="49.45958" lon="3.7821">
        <ele>125.11</ele>
        <time>2017-04-29T08:44:53Z</time>
      </trkpt>
      <trkpt lat="49.45959" lon="3.78222">
        <ele>125.11</ele>
        <time>2017-04-29T08:44:59Z</time>
      </trkpt>
      <trkpt lat="49.45961" lon="3.7823">
        <ele>125.11</ele>
        <time>2017-04-29T08:45:03Z</time>
      </trkpt>
      <trkpt lat="49.45961" lon="3.78244">
        <ele>125.11</ele>
        <time>2017-04-29T08:45:09Z</time>
      </trkpt>
      <trkpt lat="49.45966" lon="3.78266">
        <ele>125.11</ele>
        <time>2017-04-29T08:45:16Z</time>
      </trkpt>
      <trkpt lat="49.45966" lon="3.78276">
        <ele>125.11</ele>
        <time>2017-04-29T08:45:21Z</time>
      </trkpt>
      <trkpt lat="49.45967" lon="3.78288">
        <ele>125.11</ele>
        <time>2017-04-29T08:45:28Z</time>
      </trkpt>
      <trkpt lat="49.4597" lon="3.783">
        <ele>125.11</ele>
        <time>2017-04-29T08:45:34Z</time>
      </trkpt>
      <trkpt lat="49.45971" lon="3.78306">
        <ele>125.11</ele>
        <time>2017-04-29T08:45:37Z</time>
      </trkpt>
      <trkpt lat="49.45973" lon="3.78318">
        <ele>125.11</ele>
        <time>2017-04-29T08:45:43Z</time>
      </trkpt>
      <trkpt lat="49.45973" lon="3.78319">
        <ele>125.11</ele>
        <time>2017-04-29T08:45:44Z</time>
      </trkpt>
      <trkpt lat="49.45973" lon="3.78325">
        <ele>125.11</ele>
        <time>2017-04-29T08:45:47Z</time>
      </trkpt>
      <trkpt lat="49.45968" lon="3.78337">
        <ele>125.59</ele>
        <time>2017-04-29T08:45:55Z</time>
      </trkpt>
      <trkpt lat="49.45969" lon="3.78348">
        <ele>125.59</ele>
        <time>2017-04-29T08:46:00Z</time>
      </trkpt>
      <trkpt lat="49.4597" lon="3.78356">
        <ele>125.59</ele>
        <time>2017-04-29T08:46:06Z</time>
      </trkpt>
      <trkpt lat="49.4597" lon="3.78358">
        <ele>125.59</ele>
        <time>2017-04-29T08:46:07Z</time>
      </trkpt>
      <trkpt lat="49.45968" lon="3.78361">
        <ele>125.59</ele>
        <time>2017-04-29T08:46:10Z</time>
      </trkpt>
      <trkpt lat="49.45966" lon="3.78372">
        <ele>126.07</ele>
        <time>2017-04-29T08:46:17Z</time>
      </trkpt>
      <trkpt lat="49.45964" lon="3.7838">
        <ele>126.07</ele>
        <time>2017-04-29T08:46:21Z</time>
      </trkpt>
      <trkpt lat="49.45963" lon="3.7839">
        <ele>126.07</ele>
        <time>2017-04-29T08:46:27Z</time>
      </trkpt>
      <trkpt lat="49.45964" lon="3.78399">
        <ele>125.59</ele>
        <time>2017-04-29T08:46:29Z</time>
      </trkpt>
      <trkpt lat="49.45969" lon="3.78418">
        <ele>126.07</ele>
        <time>2017-04-29T08:46:36Z</time>
      </trkpt>
      <trkpt lat="49.4597" lon="3.7843">
        <ele>126.07</ele>
        <time>2017-04-29T08:46:42Z</time>
      </trkpt>
      <trkpt lat="49.4597" lon="3.78433">
        <ele>126.07</ele>
        <time>2017-04-29T08:46:43Z</time>
      </trkpt>
      <trkpt lat="49.45971" lon="3.78441">
        <ele>126.07</ele>
        <time>2017-04-29T08:46:47Z</time>
      </trkpt>
      <trkpt lat="49.45975" lon="3.78458">
        <ele>126.07</ele>
        <time>2017-04-29T08:46:53Z</time>
      </trkpt>
      <trkpt lat="49.45976" lon="3.78465">
        <ele>126.55</ele>
        <time>2017-04-29T08:46:56Z</time>
      </trkpt>
      <trkpt lat="49.45977" lon="3.78469">
        <ele>126.07</ele>
        <time>2017-04-29T08:46:58Z</time>
      </trkpt>
      <trkpt lat="49.45976" lon="3.78476">
        <ele>126.07</ele>
        <time>2017-04-29T08:47:01Z</time>
      </trkpt>
      <trkpt lat="49.45977" lon="3.78494">
        <ele>126.07</ele>
        <time>2017-04-29T08:47:07Z</time>
      </trkpt>
      <trkpt lat="49.45978" lon="3.78518">
        <ele>126.07</ele>
        <time>2017-04-29T08:47:14Z</time>
      </trkpt>
      <trkpt lat="49.45977" lon="3.78526">
        <ele>126.07</ele>
        <time>2017-04-29T08:47:18Z</time>
      </trkpt>
      <trkpt lat="49.45977" lon="3.78542">
        <ele>126.07</ele>
        <time>2017-04-29T08:47:24Z</time>
      </trkpt>
      <trkpt lat="49.45977" lon="3.7855">
        <ele>126.07</ele>
        <time>2017-04-29T08:47:28Z</time>
      </trkpt>
      <trkpt lat="49.45979" lon="3.78557">
        <ele>126.07</ele>
        <time>2017-04-29T08:47:31Z</time>
      </trkpt>
      <trkpt lat="49.45982" lon="3.78572">
        <ele>125.59</ele>
        <time>2017-04-29T08:47:37Z</time>
      </trkpt>
      <trkpt lat="49.45982" lon="3.78581">
        <ele>125.59</ele>
        <time>2017-04-29T08:47:42Z</time>
      </trkpt>
      <trkpt lat="49.45983" lon="3.78594">
        <ele>125.59</ele>
        <time>2017-04-29T08:47:49Z</time>
      </trkpt>
      <trkpt lat="49.45981" lon="3.78602">
        <ele>125.59</ele>
        <time>2017-04-29T08:47:55Z</time>
      </trkpt>
      <trkpt lat="49.45979" lon="3.78617">
        <ele>126.07</ele>
        <time>2017-04-29T08:48:02Z</time>
      </trkpt>
      <trkpt lat="49.45979" lon="3.78619">
        <ele>125.59</ele>
        <time>2017-04-29T08:48:03Z</time>
      </trkpt>
      <trkpt lat="49.45977" lon="3.78629">
        <ele>126.07</ele>
        <time>2017-04-29T08:48:10Z</time>
      </trkpt>
      <trkpt lat="49.45976" lon="3.7865">
        <ele>126.07</ele>
        <time>2017-04-29T08:48:17Z</time>
      </trkpt>
      <trkpt lat="49.45977" lon="3.78672">
        <ele>126.55</ele>
        <time>2017-04-29T08:48:24Z</time>
      </trkpt>
      <trkpt lat="49.45978" lon="3.78676">
        <ele>126.55</ele>
        <time>2017-04-29T08:48:25Z</time>
      </trkpt>
      <trkpt lat="49.4598" lon="3.7869">
        <ele>126.55</ele>
        <time>2017-04-29T08:48:30Z</time>
      </trkpt>
      <trkpt lat="49.45978" lon="3.78706">
        <ele>126.55</ele>
        <time>2017-04-29T08:48:37Z</time>
      </trkpt>
      <trkpt lat="49.45977" lon="3.78714">
        <ele>126.55</ele>
        <time>2017-04-29T08:48:42Z</time>
      </trkpt>
      <trkpt lat="49.4597" lon="3.78728">
        <ele>126.55</ele>
        <time>2017-04-29T08:48:49Z</time>
      </trkpt>
      <trkpt lat="49.45968" lon="3.78742">
        <ele>126.07</ele>
        <time>2017-04-29T08:48:55Z</time>
      </trkpt>
      <trkpt lat="49.45969" lon="3.78749">
        <ele>126.55</ele>
        <time>2017-04-29T08:48:58Z</time>
      </trkpt>
      <trkpt lat="49.45968" lon="3.78758">
        <ele>126.07</ele>
        <time>2017-04-29T08:49:04Z</time>
      </trkpt>
      <trkpt lat="49.45967" lon="3.78761">
        <ele>126.07</ele>
        <time>2017-04-29T08:49:06Z</time>
      </trkpt>
      <trkpt lat="49.45968" lon="3.78779">
        <ele>126.07</ele>
        <time>2017-04-29T08:49:13Z</time>
      </trkpt>
      <trkpt lat="49.45968" lon="3.78784">
        <ele>126.07</ele>
        <time>2017-04-29T08:49:16Z</time>
      </trkpt>
      <trkpt lat="49.45964" lon="3.78798">
        <ele>126.55</ele>
        <time>2017-04-29T08:49:23Z</time>
      </trkpt>
      <trkpt lat="49.45963" lon="3.78804">
        <ele>126.07</ele>
        <time>2017-04-29T08:49:27Z</time>
      </trkpt>
      <trkpt lat="49.45961" lon="3.78817">
        <ele>126.07</ele>
        <time>2017-04-29T08:49:34Z</time>
      </trkpt>
      <trkpt lat="49.45959" lon="3.78826">
        <ele>126.55</ele>
        <time>2017-04-29T08:49:39Z</time>
      </trkpt>
      <trkpt lat="49.45956" lon="3.78844">
        <ele>126.55</ele>
        <time>2017-04-29T08:49:47Z</time>
      </trkpt>
      <trkpt lat="49.45958" lon="3.78859">
        <ele>126.55</ele>
        <time>2017-04-29T08:49:54Z</time>
      </trkpt>
      <trkpt lat="49.45958" lon="3.78871">
        <ele>126.55</ele>
        <time>2017-04-29T08:50:00Z</time>
      </trkpt>
      <trkpt lat="49.45956" lon="3.78885">
        <ele>126.55</ele>
        <time>2017-04-29T08:50:07Z</time>
      </trkpt>
      <trkpt lat="49.45955" lon="3.78891">
        <ele>126.55</ele>
        <time>2017-04-29T08:50:10Z</time>
      </trkpt>
      <trkpt lat="49.45952" lon="3.78901">
        <ele>126.55</ele>
        <time>2017-04-29T08:50:17Z</time>
      </trkpt>
      <trkpt lat="49.45952" lon="3.78907">
        <ele>126.55</ele>
        <time>2017-04-29T08:50:20Z</time>
      </trkpt>
      <trkpt lat="49.45951" lon="3.78915">
        <ele>126.55</ele>
        <time>2017-04-29T08:50:24Z</time>
      </trkpt>
      <trkpt lat="49.45947" lon="3.78932">
        <ele>126.55</ele>
        <time>2017-04-29T08:50:32Z</time>
      </trkpt>
      <trkpt lat="49.45945" lon="3.78944">
        <ele>126.55</ele>
        <time>2017-04-29T08:50:39Z</time>
      </trkpt>
      <trkpt lat="49.45942" lon="3.78951">
        <ele>127.03</ele>
        <time>2017-04-29T08:50:43Z</time>
      </trkpt>
      <trkpt lat="49.4594" lon="3.78963">
        <ele>127.03</ele>
        <time>2017-04-29T08:50:50Z</time>
      </trkpt>
      <trkpt lat="49.4594" lon="3.78972">
        <ele>127.03</ele>
        <time>2017-04-29T08:50:54Z</time>
      </trkpt>
      <trkpt lat="49.45937" lon="3.78985">
        <ele>127.99</ele>
        <time>2017-04-29T08:51:01Z</time>
      </trkpt>
      <trkpt lat="49.45937" lon="3.78995">
        <ele>127.03</ele>
        <time>2017-04-29T08:51:06Z</time>
      </trkpt>
      <trkpt lat="49.45933" lon="3.79005">
        <ele>127.03</ele>
        <time>2017-04-29T08:51:12Z</time>
      </trkpt>
      <trkpt lat="49.45933" lon="3.79015">
        <ele>127.03</ele>
        <time>2017-04-29T08:51:16Z</time>
      </trkpt>
      <trkpt lat="49.45931" lon="3.79023">
        <ele>127.03</ele>
        <time>2017-04-29T08:51:20Z</time>
      </trkpt>
      <trkpt lat="49.45932" lon="3.79026">
        <ele>127.03</ele>
        <time>2017-04-29T08:51:22Z</time>
      </trkpt>
      <trkpt lat="49.45929" lon="3.79037">
        <ele>127.03</ele>
        <time>2017-04-29T08:51:28Z</time>
      </trkpt>
      <trkpt lat="49.45927" lon="3.79047">
        <ele>127.03</ele>
        <time>2017-04-29T08:51:33Z</time>
      </trkpt>
      <trkpt lat="49.45925" lon="3.79054">
        <ele>127.51</ele>
        <time>2017-04-29T08:51:36Z</time>
      </trkpt>
      <trkpt lat="49.45927" lon="3.79061">
        <ele>127.03</ele>
        <time>2017-04-29T08:51:40Z</time>
      </trkpt>
      <trkpt lat="49.45928" lon="3.79062">
        <ele>127.03</ele>
        <time>2017-04-29T08:51:41Z</time>
      </trkpt>
      <trkpt lat="49.45924" lon="3.79075">
        <ele>127.51</ele>
        <time>2017-04-29T08:51:48Z</time>
      </trkpt>
      <trkpt lat="49.45917" lon="3.79091">
        <ele>127.51</ele>
        <time>2017-04-29T08:51:55Z</time>
      </trkpt>
      <trkpt lat="49.45917" lon="3.79095">
        <ele>127.03</ele>
        <time>2017-04-29T08:51:59Z</time>
      </trkpt>
      <trkpt lat="49.45915" lon="3.79106">
        <ele>127.51</ele>
        <time>2017-04-29T08:52:05Z</time>
      </trkpt>
      <trkpt lat="49.45914" lon="3.79112">
        <ele>127.51</ele>
        <time>2017-04-29T08:52:08Z</time>
      </trkpt>
      <trkpt lat="49.45913" lon="3.79126">
        <ele>127.51</ele>
        <time>2017-04-29T08:52:15Z</time>
      </trkpt>
      <trkpt lat="49.45912" lon="3.7913">
        <ele>127.51</ele>
        <time>2017-04-29T08:52:18Z</time>
      </trkpt>
      <trkpt lat="49.4591" lon="3.79132">
        <ele>127.51</ele>
        <time>2017-04-29T08:52:20Z</time>
      </trkpt>
      <trkpt lat="49.4591" lon="3.79136">
        <ele>127.51</ele>
        <time>2017-04-29T08:52:22Z</time>
      </trkpt>
      <trkpt lat="49.45908" lon="3.79148">
        <ele>127.51</ele>
        <time>2017-04-29T08:52:28Z</time>
      </trkpt>
      <trkpt lat="49.45903" lon="3.79161">
        <ele>127.51</ele>
        <time>2017-04-29T08:52:35Z</time>
      </trkpt>
      <trkpt lat="49.459" lon="3.79172">
        <ele>127.51</ele>
        <time>2017-04-29T08:52:40Z</time>
      </trkpt>
      <trkpt lat="49.45901" lon="3.79178">
        <ele>127.99</ele>
        <time>2017-04-29T08:52:43Z</time>
      </trkpt>
      <trkpt lat="49.45899" lon="3.79184">
        <ele>127.51</ele>
        <time>2017-04-29T08:52:46Z</time>
      </trkpt>
      <trkpt lat="49.45897" lon="3.79196">
        <ele>127.51</ele>
        <time>2017-04-29T08:52:54Z</time>
      </trkpt>
      <trkpt lat="49.4589" lon="3.79205">
        <ele>128.47</ele>
        <time>2017-04-29T08:53:01Z</time>
      </trkpt>
      <trkpt lat="49.45885" lon="3.79213">
        <ele>127.51</ele>
        <time>2017-04-29T08:53:07Z</time>
      </trkpt>
      <trkpt lat="49.45884" lon="3.79217">
        <ele>127.51</ele>
        <time>2017-04-29T08:53:10Z</time>
      </trkpt>
      <trkpt lat="49.45878" lon="3.79223">
        <ele>127.51</ele>
        <time>2017-04-29T08:53:16Z</time>
      </trkpt>
      <trkpt lat="49.4587" lon="3.79227">
        <ele>127.51</ele>
        <time>2017-04-29T08:53:22Z</time>
      </trkpt>
      <trkpt lat="49.45864" lon="3.79234">
        <ele>127.99</ele>
        <time>2017-04-29T08:53:29Z</time>
      </trkpt>
      <trkpt lat="49.45859" lon="3.79238">
        <ele>127.99</ele>
        <time>2017-04-29T08:53:34Z</time>
      </trkpt>
      <trkpt lat="49.45852" lon="3.79243">
        <ele>127.99</ele>
        <time>2017-04-29T08:53:41Z</time>
      </trkpt>
      <trkpt lat="49.4585" lon="3.79245">
        <ele>127.99</ele>
        <time>2017-04-29T08:53:43Z</time>
      </trkpt>
      <trkpt lat="49.45843" lon="3.79251">
        <ele>128.47</ele>
        <time>2017-04-29T08:53:49Z</time>
      </trkpt>
      <trkpt lat="49.45834" lon="3.79254">
        <ele>127.99</ele>
        <time>2017-04-29T08:53:55Z</time>
      </trkpt>
      <trkpt lat="49.45825" lon="3.79258">
        <ele>128.47</ele>
        <time>2017-04-29T08:54:02Z</time>
      </trkpt>
      <trkpt lat="49.4582" lon="3.79259">
        <ele>128.47</ele>
        <time>2017-04-29T08:54:06Z</time>
      </trkpt>
      <trkpt lat="49.45819" lon="3.7926">
        <ele>128.47</ele>
        <time>2017-04-29T08:54:07Z</time>
      </trkpt>
      <trkpt lat="49.45811" lon="3.79264">
        <ele>128.47</ele>
        <time>2017-04-29T08:54:14Z</time>
      </trkpt>
      <trkpt lat="49.45803" lon="3.79271">
        <ele>128.95</ele>
        <time>2017-04-29T08:54:21Z</time>
      </trkpt>
      <trkpt lat="49.458" lon="3.79273">
        <ele>129.43</ele>
        <time>2017-04-29T08:54:27Z</time>
      </trkpt>
      <trkpt lat="49.45797" lon="3.79274">
        <ele>129.43</ele>
        <time>2017-04-29T08:54:29Z</time>
      </trkpt>
      <trkpt lat="49.45788" lon="3.79278">
        <ele>129.43</ele>
        <time>2017-04-29T08:54:36Z</time>
      </trkpt>
      <trkpt lat="49.45778" lon="3.79281">
        <ele>129.92</ele>
        <time>2017-04-29T08:54:42Z</time>
      </trkpt>
      <trkpt lat="49.45772" lon="3.79283">
        <ele>129.92</ele>
        <time>2017-04-29T08:54:47Z</time>
      </trkpt>
      <trkpt lat="49.45764" lon="3.79287">
        <ele>129.92</ele>
        <time>2017-04-29T08:54:52Z</time>
      </trkpt>
      <trkpt lat="49.45756" lon="3.79292">
        <ele>129.92</ele>
        <time>2017-04-29T08:54:57Z</time>
      </trkpt>
      <trkpt lat="49.45747" lon="3.79296">
        <ele>129.43</ele>
        <time>2017-04-29T08:55:04Z</time>
      </trkpt>
      <trkpt lat="49.45738" lon="3.793">
        <ele>128.95</ele>
        <time>2017-04-29T08:55:10Z</time>
      </trkpt>
      <trkpt lat="49.45729" lon="3.79307">
        <ele>128.47</ele>
        <time>2017-04-29T08:55:17Z</time>
      </trkpt>
      <trkpt lat="49.45728" lon="3.79307">
        <ele>128.47</ele>
        <time>2017-04-29T08:55:20Z</time>
      </trkpt>
      <trkpt lat="49.45718" lon="3.79311">
        <ele>128.47</ele>
        <time>2017-04-29T08:55:26Z</time>
      </trkpt>
      <trkpt lat="49.45715" lon="3.79313">
        <ele>127.99</ele>
        <time>2017-04-29T08:55:28Z</time>
      </trkpt>
      <trkpt lat="49.45714" lon="3.79314">
        <ele>127.99</ele>
        <time>2017-04-29T08:55:30Z</time>
      </trkpt>
      <trkpt lat="49.45709" lon="3.79316">
        <ele>127.99</ele>
        <time>2017-04-29T08:55:36Z</time>
      </trkpt>
      <trkpt lat="49.45708" lon="3.79315">
        <ele>127.99</ele>
        <time>2017-04-29T08:55:37Z</time>
      </trkpt>
      <trkpt lat="49.45707" lon="3.79313">
        <ele>127.51</ele>
        <time>2017-04-29T08:55:43Z</time>
      </trkpt>
      <trkpt lat="49.45705" lon="3.79312">
        <ele>127.99</ele>
        <time>2017-04-29T08:55:50Z</time>
      </trkpt>
      <trkpt lat="49.45698" lon="3.79311">
        <ele>127.99</ele>
        <time>2017-04-29T08:55:58Z</time>
      </trkpt>
      <trkpt lat="49.45698" lon="3.7931">
        <ele>128.47</ele>
        <time>2017-04-29T08:56:05Z</time>
      </trkpt>
      <trkpt lat="49.45688" lon="3.79308">
        <ele>128.95</ele>
        <time>2017-04-29T08:56:12Z</time>
      </trkpt>
      <trkpt lat="49.45681" lon="3.79308">
        <ele>128.95</ele>
        <time>2017-04-29T08:56:21Z</time>
      </trkpt>
      <trkpt lat="49.45676" lon="3.79309">
        <ele>128.95</ele>
        <time>2017-04-29T08:56:36Z</time>
      </trkpt>
      <trkpt lat="49.45672" lon="3.79309">
        <ele>128.47</ele>
        <time>2017-04-29T08:56:43Z</time>
      </trkpt>
      <trkpt lat="49.4567" lon="3.79309">
        <ele>128.47</ele>
        <time>2017-04-29T08:56:49Z</time>
      </trkpt>
      <trkpt lat="49.4567" lon="3.79309">
        <ele>128.47</ele>
        <time>2017-04-29T08:56:50Z</time>
      </trkpt>
      <trkpt lat="49.45671" lon="3.79308">
        <ele>127.51</ele>
        <time>2017-04-29T08:56:56Z</time>
      </trkpt>
      <trkpt lat="49.4567" lon="3.79307">
        <ele>127.51</ele>
        <time>2017-04-29T08:57:09Z</time>
      </trkpt>
      <trkpt lat="49.45669" lon="3.79305">
        <ele>128.47</ele>
        <time>2017-04-29T08:57:15Z</time>
      </trkpt>
      <trkpt lat="49.45667" lon="3.79305">
        <ele>127.99</ele>
        <time>2017-04-29T08:57:26Z</time>
      </trkpt>
      <trkpt lat="49.45667" lon="3.79304">
        <ele>127.99</ele>
        <time>2017-04-29T08:57:38Z</time>
      </trkpt>
      <trkpt lat="49.45668" lon="3.79304">
        <ele>127.99</ele>
        <time>2017-04-29T08:57:48Z</time>
      </trkpt>
      <trkpt lat="49.45667" lon="3.79304">
        <ele>127.99</ele>
        <time>2017-04-29T08:58:02Z</time>
      </trkpt>
      <trkpt lat="49.45665" lon="3.79306">
        <ele>127.51</ele>
        <time>2017-04-29T08:58:19Z</time>
      </trkpt>
      <trkpt lat="49.45664" lon="3.79306">
        <ele>127.51</ele>
        <time>2017-04-29T08:58:33Z</time>
      </trkpt>
      <trkpt lat="49.45664" lon="3.79305">
        <ele>127.51</ele>
        <time>2017-04-29T08:58:47Z</time>
      </trkpt>
      <trkpt lat="49.45664" lon="3.79303">
        <ele>127.51</ele>
        <time>2017-04-29T08:58:58Z</time>
      </trkpt>
      <trkpt lat="49.45665" lon="3.79303">
        <ele>127.03</ele>
        <time>2017-04-29T08:59:06Z</time>
      </trkpt>
      <trkpt lat="49.45664" lon="3.79303">
        <ele>127.51</ele>
        <time>2017-04-29T08:59:19Z</time>
      </trkpt>
      <trkpt lat="49.45665" lon="3.79302">
        <ele>127.03</ele>
        <time>2017-04-29T08:59:34Z</time>
      </trkpt>
      <trkpt lat="49.45664" lon="3.79302">
        <ele>127.03</ele>
        <time>2017-04-29T08:59:46Z</time>
      </trkpt>
      <trkpt lat="49.45665" lon="3.79302">
        <ele>126.55</ele>
        <time>2017-04-29T09:00:02Z</time>
      </trkpt>
      <trkpt lat="49.45665" lon="3.79303">
        <ele>126.55</ele>
        <time>2017-04-29T09:00:17Z</time>
      </trkpt>
      <trkpt lat="49.45665" lon="3.79303">
        <ele>126.55</ele>
        <time>2017-04-29T09:00:31Z</time>
      </trkpt>
      <trkpt lat="49.45665" lon="3.79303">
        <ele>126.07</ele>
        <time>2017-04-29T09:00:42Z</time>
      </trkpt>
      <trkpt lat="49.45665" lon="3.79302">
        <ele>126.07</ele>
        <time>2017-04-29T09:00:56Z</time>
      </trkpt>
      <trkpt lat="49.45665" lon="3.79301">
        <ele>126.55</ele>
        <time>2017-04-29T09:01:11Z</time>
      </trkpt>
      <trkpt lat="49.45665" lon="3.79301">
        <ele>126.07</ele>
        <time>2017-04-29T09:01:27Z</time>
      </trkpt>
      <trkpt lat="49.45664" lon="3.79302">
        <ele>126.07</ele>
        <time>2017-04-29T09:01:44Z</time>
      </trkpt>
      <trkpt lat="49.45664" lon="3.793">
        <ele>126.07</ele>
        <time>2017-04-29T09:01:59Z</time>
      </trkpt>
      <trkpt lat="49.45665" lon="3.793">
        <ele>126.07</ele>
        <time>2017-04-29T09:02:16Z</time>
      </trkpt>
      <trkpt lat="49.45664" lon="3.79302">
        <ele>125.59</ele>
        <time>2017-04-29T09:02:29Z</time>
      </trkpt>
      <trkpt lat="49.45664" lon="3.79303">
        <ele>125.59</ele>
        <time>2017-04-29T09:02:37Z</time>
      </trkpt>
      <trkpt lat="49.4566" lon="3.79304">
        <ele>125.59</ele>
        <time>2017-04-29T09:02:43Z</time>
      </trkpt>
      <trkpt lat="49.45652" lon="3.79308">
        <ele>126.55</ele>
        <time>2017-04-29T09:02:50Z</time>
      </trkpt>
      <trkpt lat="49.45649" lon="3.7931">
        <ele>127.03</ele>
        <time>2017-04-29T09:02:56Z</time>
      </trkpt>
      <trkpt lat="49.45645" lon="3.79312">
        <ele>128.47</ele>
        <time>2017-04-29T09:03:02Z</time>
      </trkpt>
      <trkpt lat="49.45641" lon="3.79313">
        <ele>127.99</ele>
        <time>2017-04-29T09:03:08Z</time>
      </trkpt>
      <trkpt lat="49.45634" lon="3.79312">
        <ele>127.99</ele>
        <time>2017-04-29T09:03:15Z</time>
      </trkpt>
      <trkpt lat="49.45631" lon="3.79312">
        <ele>128.47</ele>
        <time>2017-04-29T09:03:20Z</time>
      </trkpt>
      <trkpt lat="49.4563" lon="3.79312">
        <ele>128.47</ele>
        <time>2017-04-29T09:03:21Z</time>
      </trkpt>
      <trkpt lat="49.45623" lon="3.7931">
        <ele>128.95</ele>
        <time>2017-04-29T09:03:28Z</time>
      </trkpt>
      <trkpt lat="49.45618" lon="3.79307">
        <ele>128.95</ele>
        <time>2017-04-29T09:03:34Z</time>
      </trkpt>
      <trkpt lat="49.45606" lon="3.79303">
        <ele>129.43</ele>
        <time>2017-04-29T09:03:42Z</time>
      </trkpt>
      <trkpt lat="49.45597" lon="3.79298">
        <ele>129.92</ele>
        <time>2017-04-29T09:03:48Z</time>
      </trkpt>
      <trkpt lat="49.45588" lon="3.79296">
        <ele>130.4</ele>
        <time>2017-04-29T09:03:55Z</time>
      </trkpt>
      <trkpt lat="49.45582" lon="3.79295">
        <ele>130.88</ele>
        <time>2017-04-29T09:04:01Z</time>
      </trkpt>
      <trkpt lat="49.4558" lon="3.79294">
        <ele>130.88</ele>
        <time>2017-04-29T09:04:04Z</time>
      </trkpt>
      <trkpt lat="49.45575" lon="3.79294">
        <ele>131.36</ele>
        <time>2017-04-29T09:04:07Z</time>
      </trkpt>
      <trkpt lat="49.45572" lon="3.79293">
        <ele>131.36</ele>
        <time>2017-04-29T09:04:09Z</time>
      </trkpt>
      <trkpt lat="49.45568" lon="3.7929">
        <ele>131.84</ele>
        <time>2017-04-29T09:04:13Z</time>
      </trkpt>
      <trkpt lat="49.45563" lon="3.79289">
        <ele>132.32</ele>
        <time>2017-04-29T09:04:19Z</time>
      </trkpt>
      <trkpt lat="49.45555" lon="3.79287">
        <ele>132.8</ele>
        <time>2017-04-29T09:04:26Z</time>
      </trkpt>
      <trkpt lat="49.4555" lon="3.79285">
        <ele>133.76</ele>
        <time>2017-04-29T09:04:32Z</time>
      </trkpt>
      <trkpt lat="49.45544" lon="3.79279">
        <ele>133.76</ele>
        <time>2017-04-29T09:04:37Z</time>
      </trkpt>
      <trkpt lat="49.45538" lon="3.79276">
        <ele>134.24</ele>
        <time>2017-04-29T09:04:41Z</time>
      </trkpt>
      <trkpt lat="49.45536" lon="3.79271">
        <ele>135.2</ele>
        <time>2017-04-29T09:04:45Z</time>
      </trkpt>
      <trkpt lat="49.45526" lon="3.79262">
        <ele>135.68</ele>
        <time>2017-04-29T09:04:52Z</time>
      </trkpt>
      <trkpt lat="49.45526" lon="3.79261">
        <ele>135.68</ele>
        <time>2017-04-29T09:04:53Z</time>
      </trkpt>
      <trkpt lat="49.45517" lon="3.79253">
        <ele>136.64</ele>
        <time>2017-04-29T09:05:00Z</time>
      </trkpt>
      <trkpt lat="49.4551" lon="3.79249">
        <ele>137.13</ele>
        <time>2017-04-29T09:05:03Z</time>
      </trkpt>
      <trkpt lat="49.45507" lon="3.79238">
        <ele>138.09</ele>
        <time>2017-04-29T09:05:09Z</time>
      </trkpt>
      <trkpt lat="49.45503" lon="3.79232">
        <ele>138.57</ele>
        <time>2017-04-29T09:05:15Z</time>
      </trkpt>
      <trkpt lat="49.45497" lon="3.79229">
        <ele>139.05</ele>
        <time>2017-04-29T09:05:20Z</time>
      </trkpt>
      <trkpt lat="49.45495" lon="3.79227">
        <ele>139.53</ele>
        <time>2017-04-29T09:05:23Z</time>
      </trkpt>
      <trkpt lat="49.45497" lon="3.79223">
        <ele>140.01</ele>
        <time>2017-04-29T09:05:26Z</time>
      </trkpt>
      <trkpt lat="49.45492" lon="3.79222">
        <ele>140.49</ele>
        <time>2017-04-29T09:05:29Z</time>
      </trkpt>
      <trkpt lat="49.45486" lon="3.79218">
        <ele>140.97</ele>
        <time>2017-04-29T09:05:34Z</time>
      </trkpt>
      <trkpt lat="49.45485" lon="3.79218">
        <ele>140.97</ele>
        <time>2017-04-29T09:05:35Z</time>
      </trkpt>
      <trkpt lat="49.45484" lon="3.79213">
        <ele>140.97</ele>
        <time>2017-04-29T09:05:38Z</time>
      </trkpt>
      <trkpt lat="49.4548" lon="3.79205">
        <ele>141.93</ele>
        <time>2017-04-29T09:05:44Z</time>
      </trkpt>
      <trkpt lat="49.45477" lon="3.79202">
        <ele>142.41</ele>
        <time>2017-04-29T09:05:47Z</time>
      </trkpt>
      <trkpt lat="49.45465" lon="3.79191">
        <ele>143.37</ele>
        <time>2017-04-29T09:05:55Z</time>
      </trkpt>
      <trkpt lat="49.45463" lon="3.79188">
        <ele>143.37</ele>
        <time>2017-04-29T09:05:57Z</time>
      </trkpt>
      <trkpt lat="49.45454" lon="3.79181">
        <ele>143.85</ele>
        <time>2017-04-29T09:06:01Z</time>
      </trkpt>
      <trkpt lat="49.45448" lon="3.79174">
        <ele>145.3</ele>
        <time>2017-04-29T09:06:07Z</time>
      </trkpt>
      <trkpt lat="49.45444" lon="3.7917">
        <ele>146.26</ele>
        <time>2017-04-29T09:06:13Z</time>
      </trkpt>
      <trkpt lat="49.45443" lon="3.79169">
        <ele>146.74</ele>
        <time>2017-04-29T09:06:15Z</time>
      </trkpt>
      <trkpt lat="49.45438" lon="3.7916">
        <ele>147.7</ele>
        <time>2017-04-29T09:06:23Z</time>
      </trkpt>
      <trkpt lat="49.45434" lon="3.79157">
        <ele>148.18</ele>
        <time>2017-04-29T09:06:29Z</time>
      </trkpt>
      <trkpt lat="49.45427" lon="3.79151">
        <ele>149.14</ele>
        <time>2017-04-29T09:06:36Z</time>
      </trkpt>
      <trkpt lat="49.45423" lon="3.79143">
        <ele>149.62</ele>
        <time>2017-04-29T09:06:42Z</time>
      </trkpt>
      <trkpt lat="49.45415" lon="3.79136">
        <ele>151.06</ele>
        <time>2017-04-29T09:06:49Z</time>
      </trkpt>
      <trkpt lat="49.4541" lon="3.79133">
        <ele>151.54</ele>
        <time>2017-04-29T09:06:53Z</time>
      </trkpt>
      <trkpt lat="49.45407" lon="3.79125">
        <ele>152.51</ele>
        <time>2017-04-29T09:06:59Z</time>
      </trkpt>
      <trkpt lat="49.45401" lon="3.79119">
        <ele>152.99</ele>
        <time>2017-04-29T09:07:05Z</time>
      </trkpt>
      <trkpt lat="49.45399" lon="3.79111">
        <ele>152.99</ele>
        <time>2017-04-29T09:07:11Z</time>
      </trkpt>
      <trkpt lat="49.45394" lon="3.79104">
        <ele>152.99</ele>
        <time>2017-04-29T09:07:17Z</time>
      </trkpt>
      <trkpt lat="49.4539" lon="3.79104">
        <ele>152.51</ele>
        <time>2017-04-29T09:07:25Z</time>
      </trkpt>
      <trkpt lat="49.45389" lon="3.791">
        <ele>152.51</ele>
        <time>2017-04-29T09:07:34Z</time>
      </trkpt>
      <trkpt lat="49.45385" lon="3.79097">
        <ele>152.51</ele>
        <time>2017-04-29T09:07:42Z</time>
      </trkpt>
      <trkpt lat="49.45379" lon="3.79095">
        <ele>152.99</ele>
        <time>2017-04-29T09:07:57Z</time>
      </trkpt>
      <trkpt lat="49.45378" lon="3.79094">
        <ele>152.99</ele>
        <time>2017-04-29T09:08:06Z</time>
      </trkpt>
      <trkpt lat="49.45378" lon="3.79093">
        <ele>152.51</ele>
        <time>2017-04-29T09:08:18Z</time>
      </trkpt>
      <trkpt lat="49.45376" lon="3.79091">
        <ele>152.51</ele>
        <time>2017-04-29T09:08:25Z</time>
      </trkpt>
      <trkpt lat="49.45375" lon="3.79091">
        <ele>152.51</ele>
        <time>2017-04-29T09:08:26Z</time>
      </trkpt>
      <trkpt lat="49.45372" lon="3.79091">
        <ele>152.51</ele>
        <time>2017-04-29T09:08:28Z</time>
      </trkpt>
      <trkpt lat="49.45371" lon="3.79086">
        <ele>152.51</ele>
        <time>2017-04-29T09:08:35Z</time>
      </trkpt>
      <trkpt lat="49.4537" lon="3.79085">
        <ele>152.03</ele>
        <time>2017-04-29T09:08:37Z</time>
      </trkpt>
      <trkpt lat="49.45365" lon="3.79079">
        <ele>152.03</ele>
        <time>2017-04-29T09:08:44Z</time>
      </trkpt>
      <trkpt lat="49.45358" lon="3.79073">
        <ele>151.54</ele>
        <time>2017-04-29T09:08:52Z</time>
      </trkpt>
      <trkpt lat="49.45349" lon="3.79072">
        <ele>151.54</ele>
        <time>2017-04-29T09:08:59Z</time>
      </trkpt>
      <trkpt lat="49.45346" lon="3.79073">
        <ele>151.54</ele>
        <time>2017-04-29T09:09:03Z</time>
      </trkpt>
      <trkpt lat="49.45341" lon="3.7907">
        <ele>152.03</ele>
        <time>2017-04-29T09:09:09Z</time>
      </trkpt>
      <trkpt lat="49.45337" lon="3.79068">
        <ele>152.51</ele>
        <time>2017-04-29T09:09:15Z</time>
      </trkpt>
      <trkpt lat="49.45335" lon="3.79068">
        <ele>152.51</ele>
        <time>2017-04-29T09:09:18Z</time>
      </trkpt>
      <trkpt lat="49.45324" lon="3.79072">
        <ele>152.99</ele>
        <time>2017-04-29T09:09:24Z</time>
      </trkpt>
      <trkpt lat="49.45318" lon="3.79066">
        <ele>153.47</ele>
        <time>2017-04-29T09:09:30Z</time>
      </trkpt>
      <trkpt lat="49.45312" lon="3.79063">
        <ele>153.95</ele>
        <time>2017-04-29T09:09:36Z</time>
      </trkpt>
      <trkpt lat="49.453" lon="3.79061">
        <ele>153.95</ele>
        <time>2017-04-29T09:09:42Z</time>
      </trkpt>
      <trkpt lat="49.45294" lon="3.79061">
        <ele>154.43</ele>
        <time>2017-04-29T09:09:46Z</time>
      </trkpt>
      <trkpt lat="49.45289" lon="3.79062">
        <ele>154.91</ele>
        <time>2017-04-29T09:09:52Z</time>
      </trkpt>
      <trkpt lat="49.45288" lon="3.79062">
        <ele>154.91</ele>
        <time>2017-04-29T09:09:53Z</time>
      </trkpt>
      <trkpt lat="49.45279" lon="3.79062">
        <ele>155.87</ele>
        <time>2017-04-29T09:10:00Z</time>
      </trkpt>
      <trkpt lat="49.45272" lon="3.79064">
        <ele>156.35</ele>
        <time>2017-04-29T09:10:05Z</time>
      </trkpt>
      <trkpt lat="49.45264" lon="3.79063">
        <ele>156.83</ele>
        <time>2017-04-29T09:10:12Z</time>
      </trkpt>
      <trkpt lat="49.45258" lon="3.79062">
        <ele>156.83</ele>
        <time>2017-04-29T09:10:15Z</time>
      </trkpt>
      <trkpt lat="49.4525" lon="3.79057">
        <ele>157.31</ele>
        <time>2017-04-29T09:10:23Z</time>
      </trkpt>
      <trkpt lat="49.45243" lon="3.79049">
        <ele>157.79</ele>
        <time>2017-04-29T09:10:28Z</time>
      </trkpt>
      <trkpt lat="49.45238" lon="3.79048">
        <ele>158.27</ele>
        <time>2017-04-29T09:10:32Z</time>
      </trkpt>
      <trkpt lat="49.45224" lon="3.79048">
        <ele>158.75</ele>
        <time>2017-04-29T09:10:38Z</time>
      </trkpt>
      <trkpt lat="49.45223" lon="3.79044">
        <ele>158.75</ele>
        <time>2017-04-29T09:10:40Z</time>
      </trkpt>
      <trkpt lat="49.45215" lon="3.79034">
        <ele>159.72</ele>
        <time>2017-04-29T09:10:48Z</time>
      </trkpt>
      <trkpt lat="49.45207" lon="3.79031">
        <ele>160.68</ele>
        <time>2017-04-29T09:10:54Z</time>
      </trkpt>
      <trkpt lat="49.45205" lon="3.79032">
        <ele>160.68</ele>
        <time>2017-04-29T09:10:56Z</time>
      </trkpt>
      <trkpt lat="49.45198" lon="3.7903">
        <ele>161.64</ele>
        <time>2017-04-29T09:11:02Z</time>
      </trkpt>
      <trkpt lat="49.45196" lon="3.7903">
        <ele>162.12</ele>
        <time>2017-04-29T09:11:04Z</time>
      </trkpt>
      <trkpt lat="49.45187" lon="3.79028">
        <ele>162.6</ele>
        <time>2017-04-29T09:11:11Z</time>
      </trkpt>
      <trkpt lat="49.45177" lon="3.79023">
        <ele>163.56</ele>
        <time>2017-04-29T09:11:18Z</time>
      </trkpt>
      <trkpt lat="49.45175" lon="3.79024">
        <ele>164.04</ele>
        <time>2017-04-29T09:11:24Z</time>
      </trkpt>
      <trkpt lat="49.45172" lon="3.79026">
        <ele>165</ele>
        <time>2017-04-29T09:11:29Z</time>
      </trkpt>
      <trkpt lat="49.45168" lon="3.79024">
        <ele>165.48</ele>
        <time>2017-04-29T09:11:32Z</time>
      </trkpt>
      <trkpt lat="49.45163" lon="3.79024">
        <ele>166.93</ele>
        <time>2017-04-29T09:11:39Z</time>
      </trkpt>
      <trkpt lat="49.45156" lon="3.79027">
        <ele>167.89</ele>
        <time>2017-04-29T09:11:42Z</time>
      </trkpt>
      <trkpt lat="49.45151" lon="3.79027">
        <ele>168.37</ele>
        <time>2017-04-29T09:11:46Z</time>
      </trkpt>
      <trkpt lat="49.45143" lon="3.79027">
        <ele>169.33</ele>
        <time>2017-04-29T09:11:52Z</time>
      </trkpt>
      <trkpt lat="49.45136" lon="3.79027">
        <ele>169.81</ele>
        <time>2017-04-29T09:11:56Z</time>
      </trkpt>
      <trkpt lat="49.45129" lon="3.79031">
        <ele>170.29</ele>
        <time>2017-04-29T09:12:02Z</time>
      </trkpt>
      <trkpt lat="49.45128" lon="3.79031">
        <ele>170.77</ele>
        <time>2017-04-29T09:12:03Z</time>
      </trkpt>
      <trkpt lat="49.4512" lon="3.79031">
        <ele>171.25</ele>
        <time>2017-04-29T09:12:10Z</time>
      </trkpt>
      <trkpt lat="49.45115" lon="3.79034">
        <ele>172.21</ele>
        <time>2017-04-29T09:12:15Z</time>
      </trkpt>
      <trkpt lat="49.45108" lon="3.79034">
        <ele>172.69</ele>
        <time>2017-04-29T09:12:19Z</time>
      </trkpt>
      <trkpt lat="49.45097" lon="3.79037">
        <ele>173.17</ele>
        <time>2017-04-29T09:12:26Z</time>
      </trkpt>
      <trkpt lat="49.45097" lon="3.79037">
        <ele>173.17</ele>
        <time>2017-04-29T09:12:27Z</time>
      </trkpt>
      <trkpt lat="49.45088" lon="3.79035">
        <ele>174.14</ele>
        <time>2017-04-29T09:12:32Z</time>
      </trkpt>
      <trkpt lat="49.45085" lon="3.79034">
        <ele>174.14</ele>
        <time>2017-04-29T09:12:35Z</time>
      </trkpt>
      <trkpt lat="49.45072" lon="3.7903">
        <ele>174.14</ele>
        <time>2017-04-29T09:12:42Z</time>
      </trkpt>
      <trkpt lat="49.45068" lon="3.7903">
        <ele>174.14</ele>
        <time>2017-04-29T09:12:47Z</time>
      </trkpt>
      <trkpt lat="49.45057" lon="3.79026">
        <ele>173.66</ele>
        <time>2017-04-29T09:12:55Z</time>
      </trkpt>
      <trkpt lat="49.45051" lon="3.79025">
        <ele>173.66</ele>
        <time>2017-04-29T09:13:03Z</time>
      </trkpt>
      <trkpt lat="49.45042" lon="3.79022">
        <ele>173.17</ele>
        <time>2017-04-29T09:13:17Z</time>
      </trkpt>
      <trkpt lat="49.45039" lon="3.79019">
        <ele>172.69</ele>
        <time>2017-04-29T09:13:24Z</time>
      </trkpt>
      <trkpt lat="49.45034" lon="3.79018">
        <ele>171.73</ele>
        <time>2017-04-29T09:13:31Z</time>
      </trkpt>
      <trkpt lat="49.4503" lon="3.79019">
        <ele>171.25</ele>
        <time>2017-04-29T09:13:37Z</time>
      </trkpt>
      <trkpt lat="49.45027" lon="3.79016">
        <ele>170.29</ele>
        <time>2017-04-29T09:13:44Z</time>
      </trkpt>
      <trkpt lat="49.45025" lon="3.79016">
        <ele>170.29</ele>
        <time>2017-04-29T09:13:51Z</time>
      </trkpt>
      <trkpt lat="49.45024" lon="3.79018">
        <ele>170.29</ele>
        <time>2017-04-29T09:14:02Z</time>
      </trkpt>
      <trkpt lat="49.45023" lon="3.7902">
        <ele>169.81</ele>
        <time>2017-04-29T09:14:12Z</time>
      </trkpt>
      <trkpt lat="49.45021" lon="3.7902">
        <ele>169.33</ele>
        <time>2017-04-29T09:14:18Z</time>
      </trkpt>
      <trkpt lat="49.4502" lon="3.79019">
        <ele>169.81</ele>
        <time>2017-04-29T09:14:23Z</time>
      </trkpt>
      <trkpt lat="49.45014" lon="3.79022">
        <ele>169.33</ele>
        <time>2017-04-29T09:14:30Z</time>
      </trkpt>
      <trkpt lat="49.45009" lon="3.79021">
        <ele>169.33</ele>
        <time>2017-04-29T09:14:37Z</time>
      </trkpt>
      <trkpt lat="49.45002" lon="3.79018">
        <ele>168.37</ele>
        <time>2017-04-29T09:14:44Z</time>
      </trkpt>
      <trkpt lat="49.44994" lon="3.79014">
        <ele>168.37</ele>
        <time>2017-04-29T09:14:50Z</time>
      </trkpt>
      <trkpt lat="49.44987" lon="3.79013">
        <ele>168.37</ele>
        <time>2017-04-29T09:14:56Z</time>
      </trkpt>
      <trkpt lat="49.44985" lon="3.79014">
        <ele>167.89</ele>
        <time>2017-04-29T09:14:58Z</time>
      </trkpt>
      <trkpt lat="49.44975" lon="3.79013">
        <ele>167.89</ele>
        <time>2017-04-29T09:15:05Z</time>
      </trkpt>
      <trkpt lat="49.44968" lon="3.79013">
        <ele>167.41</ele>
        <time>2017-04-29T09:15:10Z</time>
      </trkpt>
      <trkpt lat="49.44961" lon="3.79012">
        <ele>167.89</ele>
        <time>2017-04-29T09:15:17Z</time>
      </trkpt>
      <trkpt lat="49.44957" lon="3.79012">
        <ele>167.89</ele>
        <time>2017-04-29T09:15:20Z</time>
      </trkpt>
      <trkpt lat="49.44946" lon="3.79008">
        <ele>167.41</ele>
        <time>2017-04-29T09:15:29Z</time>
      </trkpt>
      <trkpt lat="49.44936" lon="3.79005">
        <ele>166.93</ele>
        <time>2017-04-29T09:15:35Z</time>
      </trkpt>
      <trkpt lat="49.44934" lon="3.79004">
        <ele>166.93</ele>
        <time>2017-04-29T09:15:37Z</time>
      </trkpt>
      <trkpt lat="49.4493" lon="3.79002">
        <ele>166.93</ele>
        <time>2017-04-29T09:15:40Z</time>
      </trkpt>
      <trkpt lat="49.44922" lon="3.78996">
        <ele>166.45</ele>
        <time>2017-04-29T09:15:47Z</time>
      </trkpt>
      <trkpt lat="49.44912" lon="3.78994">
        <ele>165.96</ele>
        <time>2017-04-29T09:15:55Z</time>
      </trkpt>
      <trkpt lat="49.44905" lon="3.78987">
        <ele>166.45</ele>
        <time>2017-04-29T09:16:02Z</time>
      </trkpt>
      <trkpt lat="49.44899" lon="3.7898">
        <ele>166.45</ele>
        <time>2017-04-29T09:16:09Z</time>
      </trkpt>
      <trkpt lat="49.44893" lon="3.78979">
        <ele>165.96</ele>
        <time>2017-04-29T09:16:15Z</time>
      </trkpt>
      <trkpt lat="49.44885" lon="3.78978">
        <ele>165.96</ele>
        <time>2017-04-29T09:16:21Z</time>
      </trkpt>
      <trkpt lat="49.44876" lon="3.78979">
        <ele>165.96</ele>
        <time>2017-04-29T09:16:28Z</time>
      </trkpt>
      <trkpt lat="49.44871" lon="3.7898">
        <ele>165.96</ele>
        <time>2017-04-29T09:16:33Z</time>
      </trkpt>
      <trkpt lat="49.44864" lon="3.78982">
        <ele>165.96</ele>
        <time>2017-04-29T09:16:39Z</time>
      </trkpt>
      <trkpt lat="49.44862" lon="3.78983">
        <ele>165.96</ele>
        <time>2017-04-29T09:16:40Z</time>
      </trkpt>
      <trkpt lat="49.44861" lon="3.78986">
        <ele>165.96</ele>
        <time>2017-04-29T09:16:42Z</time>
      </trkpt>
      <trkpt lat="49.44857" lon="3.78988">
        <ele>165.96</ele>
        <time>2017-04-29T09:16:45Z</time>
      </trkpt>
      <trkpt lat="49.44846" lon="3.78992">
        <ele>165.96</ele>
        <time>2017-04-29T09:16:53Z</time>
      </trkpt>
      <trkpt lat="49.44842" lon="3.78993">
        <ele>166.45</ele>
        <time>2017-04-29T09:16:58Z</time>
      </trkpt>
      <trkpt lat="49.44835" lon="3.78993">
        <ele>167.41</ele>
        <time>2017-04-29T09:17:03Z</time>
      </trkpt>
      <trkpt lat="49.44826" lon="3.78997">
        <ele>166.93</ele>
        <time>2017-04-29T09:17:10Z</time>
      </trkpt>
      <trkpt lat="49.44816" lon="3.78997">
        <ele>167.89</ele>
        <time>2017-04-29T09:17:17Z</time>
      </trkpt>
      <trkpt lat="49.44809" lon="3.79">
        <ele>168.37</ele>
        <time>2017-04-29T09:17:22Z</time>
      </trkpt>
      <trkpt lat="49.44804" lon="3.79001">
        <ele>168.85</ele>
        <time>2017-04-29T09:17:25Z</time>
      </trkpt>
      <trkpt lat="49.44799" lon="3.79">
        <ele>168.85</ele>
        <time>2017-04-29T09:17:28Z</time>
      </trkpt>
      <trkpt lat="49.44788" lon="3.79001">
        <ele>169.33</ele>
        <time>2017-04-29T09:17:35Z</time>
      </trkpt>
      <trkpt lat="49.44781" lon="3.79">
        <ele>170.29</ele>
        <time>2017-04-29T09:17:41Z</time>
      </trkpt>
      <trkpt lat="49.44775" lon="3.79">
        <ele>170.77</ele>
        <time>2017-04-29T09:17:48Z</time>
      </trkpt>
      <trkpt lat="49.4477" lon="3.79001">
        <ele>171.25</ele>
        <time>2017-04-29T09:17:53Z</time>
      </trkpt>
      <trkpt lat="49.44765" lon="3.79003">
        <ele>171.25</ele>
        <time>2017-04-29T09:18:00Z</time>
      </trkpt>
      <trkpt lat="49.44765" lon="3.79001">
        <ele>171.25</ele>
        <time>2017-04-29T09:18:06Z</time>
      </trkpt>
      <trkpt lat="49.4476" lon="3.79003">
        <ele>170.77</ele>
        <time>2017-04-29T09:18:13Z</time>
      </trkpt>
      <trkpt lat="49.44759" lon="3.79005">
        <ele>170.77</ele>
        <time>2017-04-29T09:18:22Z</time>
      </trkpt>
      <trkpt lat="49.44759" lon="3.79007">
        <ele>170.77</ele>
        <time>2017-04-29T09:18:30Z</time>
      </trkpt>
      <trkpt lat="49.44755" lon="3.79009">
        <ele>170.29</ele>
        <time>2017-04-29T09:18:38Z</time>
      </trkpt>
      <trkpt lat="49.44754" lon="3.79012">
        <ele>169.81</ele>
        <time>2017-04-29T09:18:44Z</time>
      </trkpt>
      <trkpt lat="49.44754" lon="3.79013">
        <ele>169.81</ele>
        <time>2017-04-29T09:18:46Z</time>
      </trkpt>
      <trkpt lat="49.44753" lon="3.79017">
        <ele>168.85</ele>
        <time>2017-04-29T09:18:53Z</time>
      </trkpt>
      <trkpt lat="49.44754" lon="3.79018">
        <ele>168.37</ele>
        <time>2017-04-29T09:19:02Z</time>
      </trkpt>
      <trkpt lat="49.44752" lon="3.79019">
        <ele>168.37</ele>
        <time>2017-04-29T09:19:05Z</time>
      </trkpt>
      <trkpt lat="49.44751" lon="3.79025">
        <ele>167.41</ele>
        <time>2017-04-29T09:19:11Z</time>
      </trkpt>
      <trkpt lat="49.44749" lon="3.79027">
        <ele>166.93</ele>
        <time>2017-04-29T09:19:13Z</time>
      </trkpt>
      <trkpt lat="49.44754" lon="3.79035">
        <ele>166.93</ele>
        <time>2017-04-29T09:19:21Z</time>
      </trkpt>
      <trkpt lat="49.44764" lon="3.79048">
        <ele>166.45</ele>
        <time>2017-04-29T09:19:33Z</time>
      </trkpt>
      <trkpt lat="49.44763" lon="3.79047">
        <ele>166.93</ele>
        <time>2017-04-29T09:19:40Z</time>
      </trkpt>
      <trkpt lat="49.44762" lon="3.79046">
        <ele>167.41</ele>
        <time>2017-04-29T09:19:47Z</time>
      </trkpt>
      <trkpt lat="49.44761" lon="3.79048">
        <ele>167.41</ele>
        <time>2017-04-29T09:20:03Z</time>
      </trkpt>
      <trkpt lat="49.44761" lon="3.79048">
        <ele>166.45</ele>
        <time>2017-04-29T09:20:12Z</time>
      </trkpt>
      <trkpt lat="49.44759" lon="3.7905">
        <ele>165.96</ele>
        <time>2017-04-29T09:20:21Z</time>
      </trkpt>
      <trkpt lat="49.44755" lon="3.79048">
        <ele>166.93</ele>
        <time>2017-04-29T09:20:28Z</time>
      </trkpt>
      <trkpt lat="49.4475" lon="3.79046">
        <ele>168.37</ele>
        <time>2017-04-29T09:20:35Z</time>
      </trkpt>
      <trkpt lat="49.44747" lon="3.79044">
        <ele>168.85</ele>
        <time>2017-04-29T09:20:40Z</time>
      </trkpt>
      <trkpt lat="49.44743" lon="3.79039">
        <ele>169.81</ele>
        <time>2017-04-29T09:20:47Z</time>
      </trkpt>
      <trkpt lat="49.44738" lon="3.79033">
        <ele>170.29</ele>
        <time>2017-04-29T09:20:55Z</time>
      </trkpt>
      <trkpt lat="49.44733" lon="3.79028">
        <ele>171.25</ele>
        <time>2017-04-29T09:21:01Z</time>
      </trkpt>
      <trkpt lat="49.44732" lon="3.79026">
        <ele>171.73</ele>
        <time>2017-04-29T09:21:03Z</time>
      </trkpt>
      <trkpt lat="49.44728" lon="3.79021">
        <ele>172.21</ele>
        <time>2017-04-29T09:21:09Z</time>
      </trkpt>
      <trkpt lat="49.44723" lon="3.79019">
        <ele>172.21</ele>
        <time>2017-04-29T09:21:15Z</time>
      </trkpt>
      <trkpt lat="49.44722" lon="3.79018">
        <ele>172.21</ele>
        <time>2017-04-29T09:21:20Z</time>
      </trkpt>
      <trkpt lat="49.44719" lon="3.79022">
        <ele>172.21</ele>
        <time>2017-04-29T09:21:27Z</time>
      </trkpt>
      <trkpt lat="49.44714" lon="3.79026">
        <ele>172.21</ele>
        <time>2017-04-29T09:21:33Z</time>
      </trkpt>
      <trkpt lat="49.44709" lon="3.79033">
        <ele>173.17</ele>
        <time>2017-04-29T09:21:39Z</time>
      </trkpt>
      <trkpt lat="49.44707" lon="3.79034">
        <ele>174.62</ele>
        <time>2017-04-29T09:21:44Z</time>
      </trkpt>
      <trkpt lat="49.44705" lon="3.79029">
        <ele>175.58</ele>
        <time>2017-04-29T09:21:50Z</time>
      </trkpt>
      <trkpt lat="49.44705" lon="3.79024">
        <ele>176.06</ele>
        <time>2017-04-29T09:21:54Z</time>
      </trkpt>
      <trkpt lat="49.44704" lon="3.79019">
        <ele>177.02</ele>
        <time>2017-04-29T09:22:00Z</time>
      </trkpt>
      <trkpt lat="49.44707" lon="3.79009">
        <ele>177.5</ele>
        <time>2017-04-29T09:22:07Z</time>
      </trkpt>
      <trkpt lat="49.4471" lon="3.79">
        <ele>178.46</ele>
        <time>2017-04-29T09:22:13Z</time>
      </trkpt>
      <trkpt lat="49.44709" lon="3.78991">
        <ele>179.42</ele>
        <time>2017-04-29T09:22:19Z</time>
      </trkpt>
      <trkpt lat="49.44712" lon="3.78984">
        <ele>180.38</ele>
        <time>2017-04-29T09:22:24Z</time>
      </trkpt>
      <trkpt lat="49.44716" lon="3.78975">
        <ele>181.35</ele>
        <time>2017-04-29T09:22:30Z</time>
      </trkpt>
      <trkpt lat="49.44717" lon="3.78967">
        <ele>182.31</ele>
        <time>2017-04-29T09:22:35Z</time>
      </trkpt>
      <trkpt lat="49.44716" lon="3.78959">
        <ele>183.27</ele>
        <time>2017-04-29T09:22:40Z</time>
      </trkpt>
      <trkpt lat="49.44714" lon="3.78952">
        <ele>185.19</ele>
        <time>2017-04-29T09:22:47Z</time>
      </trkpt>
      <trkpt lat="49.44715" lon="3.78945">
        <ele>186.15</ele>
        <time>2017-04-29T09:22:54Z</time>
      </trkpt>
      <trkpt lat="49.44713" lon="3.78938">
        <ele>187.59</ele>
        <time>2017-04-29T09:23:01Z</time>
      </trkpt>
      <trkpt lat="49.44712" lon="3.78936">
        <ele>188.08</ele>
        <time>2017-04-29T09:23:03Z</time>
      </trkpt>
      <trkpt lat="49.44712" lon="3.7893">
        <ele>189.04</ele>
        <time>2017-04-29T09:23:09Z</time>
      </trkpt>
      <trkpt lat="49.4471" lon="3.78925">
        <ele>190.48</ele>
        <time>2017-04-29T09:23:16Z</time>
      </trkpt>
      <trkpt lat="49.4471" lon="3.7892">
        <ele>191.92</ele>
        <time>2017-04-29T09:23:23Z</time>
      </trkpt>
      <trkpt lat="49.44708" lon="3.78913">
        <ele>192.88</ele>
        <time>2017-04-29T09:23:29Z</time>
      </trkpt>
      <trkpt lat="49.44706" lon="3.78904">
        <ele>194.8</ele>
        <time>2017-04-29T09:23:38Z</time>
      </trkpt>
      <trkpt lat="49.44706" lon="3.78897">
        <ele>196.25</ele>
        <time>2017-04-29T09:23:45Z</time>
      </trkpt>
      <trkpt lat="49.44707" lon="3.78892">
        <ele>197.21</ele>
        <time>2017-04-29T09:23:51Z</time>
      </trkpt>
      <trkpt lat="49.44711" lon="3.78882">
        <ele>198.17</ele>
        <time>2017-04-29T09:23:58Z</time>
      </trkpt>
      <trkpt lat="49.44712" lon="3.78877">
        <ele>198.17</ele>
        <time>2017-04-29T09:24:01Z</time>
      </trkpt>
      <trkpt lat="49.44713" lon="3.7887">
        <ele>199.13</ele>
        <time>2017-04-29T09:24:05Z</time>
      </trkpt>
      <trkpt lat="49.44712" lon="3.7886">
        <ele>200.09</ele>
        <time>2017-04-29T09:24:11Z</time>
      </trkpt>
      <trkpt lat="49.44716" lon="3.78852">
        <ele>201.05</ele>
        <time>2017-04-29T09:24:18Z</time>
      </trkpt>
      <trkpt lat="49.44717" lon="3.78851">
        <ele>201.05</ele>
        <time>2017-04-29T09:24:22Z</time>
      </trkpt>
      <trkpt lat="49.44721" lon="3.78844">
        <ele>201.53</ele>
        <time>2017-04-29T09:24:28Z</time>
      </trkpt>
      <trkpt lat="49.44727" lon="3.78838">
        <ele>202.49</ele>
        <time>2017-04-29T09:24:35Z</time>
      </trkpt>
      <trkpt lat="49.44731" lon="3.78833">
        <ele>202.98</ele>
        <time>2017-04-29T09:24:40Z</time>
      </trkpt>
      <trkpt lat="49.44733" lon="3.78823">
        <ele>203.46</ele>
        <time>2017-04-29T09:24:47Z</time>
      </trkpt>
      <trkpt lat="49.44734" lon="3.78809">
        <ele>203.94</ele>
        <time>2017-04-29T09:24:56Z</time>
      </trkpt>
      <trkpt lat="49.44735" lon="3.78796">
        <ele>204.42</ele>
        <time>2017-04-29T09:25:03Z</time>
      </trkpt>
      <trkpt lat="49.44735" lon="3.78785">
        <ele>204.42</ele>
        <time>2017-04-29T09:25:10Z</time>
      </trkpt>
      <trkpt lat="49.44736" lon="3.78781">
        <ele>204.42</ele>
        <time>2017-04-29T09:25:16Z</time>
      </trkpt>
      <trkpt lat="49.44738" lon="3.78782">
        <ele>204.9</ele>
        <time>2017-04-29T09:25:21Z</time>
      </trkpt>
      <trkpt lat="49.44739" lon="3.78788">
        <ele>206.82</ele>
        <time>2017-04-29T09:25:29Z</time>
      </trkpt>
      <trkpt lat="49.44739" lon="3.78792">
        <ele>208.26</ele>
        <time>2017-04-29T09:25:36Z</time>
      </trkpt>
      <trkpt lat="49.4474" lon="3.78795">
        <ele>210.19</ele>
        <time>2017-04-29T09:25:43Z</time>
      </trkpt>
      <trkpt lat="49.44738" lon="3.78799">
        <ele>212.11</ele>
        <time>2017-04-29T09:25:50Z</time>
      </trkpt>
      <trkpt lat="49.44739" lon="3.78803">
        <ele>212.11</ele>
        <time>2017-04-29T09:25:58Z</time>
      </trkpt>
      <trkpt lat="49.4474" lon="3.78805">
        <ele>212.11</ele>
        <time>2017-04-29T09:26:05Z</time>
      </trkpt>
      <trkpt lat="49.44739" lon="3.78807">
        <ele>211.15</ele>
        <time>2017-04-29T09:26:11Z</time>
      </trkpt>
      <trkpt lat="49.4474" lon="3.78808">
        <ele>210.67</ele>
        <time>2017-04-29T09:26:25Z</time>
      </trkpt>
      <trkpt lat="49.44741" lon="3.78808">
        <ele>211.15</ele>
        <time>2017-04-29T09:26:32Z</time>
      </trkpt>
      <trkpt lat="49.44742" lon="3.7881">
        <ele>211.63</ele>
        <time>2017-04-29T09:26:35Z</time>
      </trkpt>
      <trkpt lat="49.44743" lon="3.78812">
        <ele>212.11</ele>
        <time>2017-04-29T09:26:40Z</time>
      </trkpt>
      <trkpt lat="49.44743" lon="3.78812">
        <ele>211.63</ele>
        <time>2017-04-29T09:26:48Z</time>
      </trkpt>
      <trkpt lat="49.44744" lon="3.78811">
        <ele>211.63</ele>
        <time>2017-04-29T09:27:00Z</time>
      </trkpt>
      <trkpt lat="49.44744" lon="3.78811">
        <ele>211.63</ele>
        <time>2017-04-29T09:27:10Z</time>
      </trkpt>
      <trkpt lat="49.44744" lon="3.7881">
        <ele>211.63</ele>
        <time>2017-04-29T09:27:14Z</time>
      </trkpt>
      <trkpt lat="49.44745" lon="3.78803">
        <ele>212.59</ele>
        <time>2017-04-29T09:27:21Z</time>
      </trkpt>
      <trkpt lat="49.44744" lon="3.78799">
        <ele>214.51</ele>
        <time>2017-04-29T09:27:28Z</time>
      </trkpt>
      <trkpt lat="49.44744" lon="3.78792">
        <ele>215.47</ele>
        <time>2017-04-29T09:27:35Z</time>
      </trkpt>
      <trkpt lat="49.44742" lon="3.78789">
        <ele>215.47</ele>
        <time>2017-04-29T09:27:40Z</time>
      </trkpt>
      <trkpt lat="49.44742" lon="3.78787">
        <ele>215.47</ele>
        <time>2017-04-29T09:27:48Z</time>
      </trkpt>
      <trkpt lat="49.44742" lon="3.78787">
        <ele>215.47</ele>
        <time>2017-04-29T09:27:58Z</time>
      </trkpt>
      <trkpt lat="49.44744" lon="3.78788">
        <ele>215.47</ele>
        <time>2017-04-29T09:28:02Z</time>
      </trkpt>
      <trkpt lat="49.44747" lon="3.78796">
        <ele>216.43</ele>
        <time>2017-04-29T09:28:10Z</time>
      </trkpt>
      <trkpt lat="49.44747" lon="3.78799">
        <ele>217.88</ele>
        <time>2017-04-29T09:28:16Z</time>
      </trkpt>
      <trkpt lat="49.44749" lon="3.78802">
        <ele>218.84</ele>
        <time>2017-04-29T09:28:22Z</time>
      </trkpt>
      <trkpt lat="49.44749" lon="3.78805">
        <ele>219.32</ele>
        <time>2017-04-29T09:28:24Z</time>
      </trkpt>
      <trkpt lat="49.44751" lon="3.78809">
        <ele>218.84</ele>
        <time>2017-04-29T09:28:31Z</time>
      </trkpt>
      <trkpt lat="49.44751" lon="3.7881">
        <ele>218.84</ele>
        <time>2017-04-29T09:28:38Z</time>
      </trkpt>
      <trkpt lat="49.44749" lon="3.78812">
        <ele>218.84</ele>
        <time>2017-04-29T09:28:52Z</time>
      </trkpt>
      <trkpt lat="49.44749" lon="3.78811">
        <ele>218.84</ele>
        <time>2017-04-29T09:28:56Z</time>
      </trkpt>
      <trkpt lat="49.4475" lon="3.78806">
        <ele>218.36</ele>
        <time>2017-04-29T09:28:59Z</time>
      </trkpt>
      <trkpt lat="49.44749" lon="3.78801">
        <ele>220.28</ele>
        <time>2017-04-29T09:29:06Z</time>
      </trkpt>
      <trkpt lat="49.44749" lon="3.788">
        <ele>222.68</ele>
        <time>2017-04-29T09:29:13Z</time>
      </trkpt>
      <trkpt lat="49.44749" lon="3.78798">
        <ele>222.68</ele>
        <time>2017-04-29T09:29:20Z</time>
      </trkpt>
      <trkpt lat="49.44749" lon="3.78798">
        <ele>222.68</ele>
        <time>2017-04-29T09:29:30Z</time>
      </trkpt>
      <trkpt lat="49.44749" lon="3.78796">
        <ele>222.2</ele>
        <time>2017-04-29T09:29:36Z</time>
      </trkpt>
      <trkpt lat="49.44749" lon="3.78795">
        <ele>222.2</ele>
        <time>2017-04-29T09:29:44Z</time>
      </trkpt>
      <trkpt lat="49.44749" lon="3.78794">
        <ele>222.2</ele>
        <time>2017-04-29T09:29:56Z</time>
      </trkpt>
      <trkpt lat="49.44749" lon="3.78793">
        <ele>222.2</ele>
        <time>2017-04-29T09:30:03Z</time>
      </trkpt>
      <trkpt lat="49.44749" lon="3.78792">
        <ele>222.2</ele>
        <time>2017-04-29T09:30:09Z</time>
      </trkpt>
      <trkpt lat="49.44749" lon="3.7879">
        <ele>222.2</ele>
        <time>2017-04-29T09:30:20Z</time>
      </trkpt>
      <trkpt lat="49.44748" lon="3.78789">
        <ele>222.2</ele>
        <time>2017-04-29T09:30:29Z</time>
      </trkpt>
      <trkpt lat="49.44748" lon="3.78788">
        <ele>221.72</ele>
        <time>2017-04-29T09:30:37Z</time>
      </trkpt>
      <trkpt lat="49.44748" lon="3.78787">
        <ele>221.72</ele>
        <time>2017-04-29T09:30:49Z</time>
      </trkpt>
      <trkpt lat="49.44748" lon="3.78787">
        <ele>221.72</ele>
        <time>2017-04-29T09:30:57Z</time>
      </trkpt>
      <trkpt lat="49.44748" lon="3.78786">
        <ele>221.72</ele>
        <time>2017-04-29T09:31:06Z</time>
      </trkpt>
      <trkpt lat="49.44751" lon="3.78789">
        <ele>221.72</ele>
        <time>2017-04-29T09:31:13Z</time>
      </trkpt>
      <trkpt lat="49.44752" lon="3.78791">
        <ele>221.72</ele>
        <time>2017-04-29T09:31:21Z</time>
      </trkpt>
      <trkpt lat="49.44752" lon="3.78791">
        <ele>221.24</ele>
        <time>2017-04-29T09:31:32Z</time>
      </trkpt>
      <trkpt lat="49.44751" lon="3.78791">
        <ele>221.24</ele>
        <time>2017-04-29T09:31:48Z</time>
      </trkpt>
      <trkpt lat="49.44752" lon="3.78791">
        <ele>220.76</ele>
        <time>2017-04-29T09:32:00Z</time>
      </trkpt>
      <trkpt lat="49.44752" lon="3.78792">
        <ele>220.76</ele>
        <time>2017-04-29T09:32:07Z</time>
      </trkpt>
      <trkpt lat="49.44751" lon="3.78791">
        <ele>220.76</ele>
        <time>2017-04-29T09:32:14Z</time>
      </trkpt>
      <trkpt lat="49.44751" lon="3.78791">
        <ele>220.76</ele>
        <time>2017-04-29T09:32:15Z</time>
      </trkpt>
      <trkpt lat="49.4475" lon="3.7879">
        <ele>220.76</ele>
        <time>2017-04-29T09:32:22Z</time>
      </trkpt>
      <trkpt lat="49.4475" lon="3.7879">
        <ele>220.28</ele>
        <time>2017-04-29T09:32:40Z</time>
      </trkpt>
      <trkpt lat="49.44749" lon="3.78789">
        <ele>220.76</ele>
        <time>2017-04-29T09:32:56Z</time>
      </trkpt>
      <trkpt lat="49.44749" lon="3.78788">
        <ele>219.32</ele>
        <time>2017-04-29T09:33:03Z</time>
      </trkpt>
      <trkpt lat="49.44749" lon="3.78788">
        <ele>219.32</ele>
        <time>2017-04-29T09:33:15Z</time>
      </trkpt>
      <trkpt lat="49.44748" lon="3.78788">
        <ele>218.84</ele>
        <time>2017-04-29T09:33:32Z</time>
      </trkpt>
      <trkpt lat="49.44748" lon="3.78788">
        <ele>218.84</ele>
        <time>2017-04-29T09:33:48Z</time>
      </trkpt>
      <trkpt lat="49.44748" lon="3.78788">
        <ele>219.32</ele>
        <time>2017-04-29T09:33:58Z</time>
      </trkpt>
      <trkpt lat="49.44749" lon="3.78787">
        <ele>219.8</ele>
        <time>2017-04-29T09:34:07Z</time>
      </trkpt>
      <trkpt lat="49.44748" lon="3.78786">
        <ele>219.8</ele>
        <time>2017-04-29T09:34:14Z</time>
      </trkpt>
      <trkpt lat="49.44748" lon="3.78786">
        <ele>219.8</ele>
        <time>2017-04-29T09:34:22Z</time>
      </trkpt>
      <trkpt lat="49.44748" lon="3.78787">
        <ele>219.8</ele>
        <time>2017-04-29T09:34:33Z</time>
      </trkpt>
      <trkpt lat="49.44749" lon="3.78787">
        <ele>219.32</ele>
        <time>2017-04-29T09:34:48Z</time>
      </trkpt>
      <trkpt lat="49.44749" lon="3.78788">
        <ele>219.32</ele>
        <time>2017-04-29T09:35:06Z</time>
      </trkpt>
      <trkpt lat="49.44749" lon="3.78788">
        <ele>218.84</ele>
        <time>2017-04-29T09:35:17Z</time>
      </trkpt>
      <trkpt lat="49.4475" lon="3.78789">
        <ele>218.84</ele>
        <time>2017-04-29T09:35:35Z</time>
      </trkpt>
      <trkpt lat="49.4475" lon="3.78789">
        <ele>218.36</ele>
        <time>2017-04-29T09:35:46Z</time>
      </trkpt>
      <trkpt lat="49.4475" lon="3.78789">
        <ele>218.36</ele>
        <time>2017-04-29T09:36:00Z</time>
      </trkpt>
      <trkpt lat="49.4475" lon="3.7879">
        <ele>218.36</ele>
        <time>2017-04-29T09:36:09Z</time>
      </trkpt>
      <trkpt lat="49.44749" lon="3.7879">
        <ele>218.84</ele>
        <time>2017-04-29T09:36:22Z</time>
      </trkpt>
      <trkpt lat="49.44749" lon="3.78791">
        <ele>218.36</ele>
        <time>2017-04-29T09:36:35Z</time>
      </trkpt>
      <trkpt lat="49.44749" lon="3.78791">
        <ele>218.36</ele>
        <time>2017-04-29T09:36:41Z</time>
      </trkpt>
      <trkpt lat="49.44749" lon="3.78791">
        <ele>215.95</ele>
        <time>2017-04-29T09:36:47Z</time>
      </trkpt>
      <trkpt lat="49.44748" lon="3.78794">
        <ele>214.03</ele>
        <time>2017-04-29T09:36:54Z</time>
      </trkpt>
      <trkpt lat="49.44747" lon="3.78796">
        <ele>212.59</ele>
        <time>2017-04-29T09:37:00Z</time>
      </trkpt>
      <trkpt lat="49.44747" lon="3.78796">
        <ele>212.11</ele>
        <time>2017-04-29T09:37:02Z</time>
      </trkpt>
      <trkpt lat="49.44746" lon="3.78794">
        <ele>210.19</ele>
        <time>2017-04-29T09:37:07Z</time>
      </trkpt>
      <trkpt lat="49.44744" lon="3.78793">
        <ele>209.22</ele>
        <time>2017-04-29T09:37:13Z</time>
      </trkpt>
      <trkpt lat="49.44744" lon="3.78796">
        <ele>207.78</ele>
        <time>2017-04-29T09:37:21Z</time>
      </trkpt>
      <trkpt lat="49.44744" lon="3.78799">
        <ele>206.34</ele>
        <time>2017-04-29T09:37:27Z</time>
      </trkpt>
      <trkpt lat="49.44744" lon="3.788">
        <ele>205.86</ele>
        <time>2017-04-29T09:37:28Z</time>
      </trkpt>
      <trkpt lat="49.44745" lon="3.78804">
        <ele>204.9</ele>
        <time>2017-04-29T09:37:34Z</time>
      </trkpt>
      <trkpt lat="49.44743" lon="3.78797">
        <ele>202.49</ele>
        <time>2017-04-29T09:37:43Z</time>
      </trkpt>
      <trkpt lat="49.44743" lon="3.78796">
        <ele>202.01</ele>
        <time>2017-04-29T09:37:44Z</time>
      </trkpt>
      <trkpt lat="49.44742" lon="3.78794">
        <ele>200.57</ele>
        <time>2017-04-29T09:37:49Z</time>
      </trkpt>
      <trkpt lat="49.44741" lon="3.78788">
        <ele>197.69</ele>
        <time>2017-04-29T09:37:58Z</time>
      </trkpt>
      <trkpt lat="49.4474" lon="3.78785">
        <ele>197.21</ele>
        <time>2017-04-29T09:38:01Z</time>
      </trkpt>
      <trkpt lat="49.44735" lon="3.78786">
        <ele>197.21</ele>
        <time>2017-04-29T09:38:05Z</time>
      </trkpt>
      <trkpt lat="49.44733" lon="3.78788">
        <ele>197.21</ele>
        <time>2017-04-29T09:38:08Z</time>
      </trkpt>
      <trkpt lat="49.4473" lon="3.788">
        <ele>196.73</ele>
        <time>2017-04-29T09:38:17Z</time>
      </trkpt>
      <trkpt lat="49.44727" lon="3.78809">
        <ele>195.77</ele>
        <time>2017-04-29T09:38:25Z</time>
      </trkpt>
      <trkpt lat="49.44725" lon="3.78815">
        <ele>195.77</ele>
        <time>2017-04-29T09:38:29Z</time>
      </trkpt>
      <trkpt lat="49.44725" lon="3.78827">
        <ele>194.8</ele>
        <time>2017-04-29T09:38:36Z</time>
      </trkpt>
      <trkpt lat="49.44724" lon="3.78829">
        <ele>194.32</ele>
        <time>2017-04-29T09:38:38Z</time>
      </trkpt>
      <trkpt lat="49.44721" lon="3.78838">
        <ele>193.36</ele>
        <time>2017-04-29T09:38:44Z</time>
      </trkpt>
      <trkpt lat="49.4472" lon="3.7885">
        <ele>192.88</ele>
        <time>2017-04-29T09:38:52Z</time>
      </trkpt>
      <trkpt lat="49.4472" lon="3.78855">
        <ele>192.4</ele>
        <time>2017-04-29T09:38:56Z</time>
      </trkpt>
      <trkpt lat="49.44718" lon="3.78859">
        <ele>192.4</ele>
        <time>2017-04-29T09:38:59Z</time>
      </trkpt>
      <trkpt lat="49.44717" lon="3.78862">
        <ele>192.88</ele>
        <time>2017-04-29T09:39:06Z</time>
      </trkpt>
      <trkpt lat="49.44718" lon="3.78862">
        <ele>191.92</ele>
        <time>2017-04-29T09:39:21Z</time>
      </trkpt>
      <trkpt lat="49.44719" lon="3.78862">
        <ele>191.92</ele>
        <time>2017-04-29T09:39:41Z</time>
      </trkpt>
      <trkpt lat="49.44719" lon="3.78863">
        <ele>190.48</ele>
        <time>2017-04-29T09:39:58Z</time>
      </trkpt>
      <trkpt lat="49.4472" lon="3.78863">
        <ele>191.44</ele>
        <time>2017-04-29T09:40:14Z</time>
      </trkpt>
      <trkpt lat="49.4472" lon="3.78863">
        <ele>191.44</ele>
        <time>2017-04-29T09:40:32Z</time>
      </trkpt>
      <trkpt lat="49.4472" lon="3.78864">
        <ele>191.44</ele>
        <time>2017-04-29T09:40:51Z</time>
      </trkpt>
      <trkpt lat="49.4472" lon="3.78864">
        <ele>190.48</ele>
        <time>2017-04-29T09:41:03Z</time>
      </trkpt>
      <trkpt lat="49.44721" lon="3.78864">
        <ele>190.48</ele>
        <time>2017-04-29T09:41:19Z</time>
      </trkpt>
      <trkpt lat="49.44722" lon="3.78864">
        <ele>190.48</ele>
        <time>2017-04-29T09:41:32Z</time>
      </trkpt>
      <trkpt lat="49.44723" lon="3.78862">
        <ele>190.48</ele>
        <time>2017-04-29T09:41:49Z</time>
      </trkpt>
      <trkpt lat="49.44723" lon="3.78862">
        <ele>190.48</ele>
        <time>2017-04-29T09:42:02Z</time>
      </trkpt>
      <trkpt lat="49.44723" lon="3.78861">
        <ele>190</ele>
        <time>2017-04-29T09:42:18Z</time>
      </trkpt>
      <trkpt lat="49.44723" lon="3.78861">
        <ele>190</ele>
        <time>2017-04-29T09:42:32Z</time>
      </trkpt>
      <trkpt lat="49.44723" lon="3.78861">
        <ele>190</ele>
        <time>2017-04-29T09:42:46Z</time>
      </trkpt>
      <trkpt lat="49.44723" lon="3.78861">
        <ele>190</ele>
        <time>2017-04-29T09:43:02Z</time>
      </trkpt>
      <trkpt lat="49.44723" lon="3.78861">
        <ele>190</ele>
        <time>2017-04-29T09:43:19Z</time>
      </trkpt>
      <trkpt lat="49.44724" lon="3.7886">
        <ele>190</ele>
        <time>2017-04-29T09:43:35Z</time>
      </trkpt>
      <trkpt lat="49.44724" lon="3.78861">
        <ele>190</ele>
        <time>2017-04-29T09:43:50Z</time>
      </trkpt>
      <trkpt lat="49.44723" lon="3.78862">
        <ele>190</ele>
        <time>2017-04-29T09:44:05Z</time>
      </trkpt>
      <trkpt lat="49.44724" lon="3.78862">
        <ele>190</ele>
        <time>2017-04-29T09:44:20Z</time>
      </trkpt>
      <trkpt lat="49.44724" lon="3.78861">
        <ele>189.52</ele>
        <time>2017-04-29T09:44:37Z</time>
      </trkpt>
      <trkpt lat="49.44724" lon="3.78861">
        <ele>189.52</ele>
        <time>2017-04-29T09:44:52Z</time>
      </trkpt>
      <trkpt lat="49.44724" lon="3.78861">
        <ele>189.52</ele>
        <time>2017-04-29T09:45:08Z</time>
      </trkpt>
      <trkpt lat="49.44724" lon="3.78861">
        <ele>189.52</ele>
        <time>2017-04-29T09:45:27Z</time>
      </trkpt>
      <trkpt lat="49.44724" lon="3.7886">
        <ele>189.04</ele>
        <time>2017-04-29T09:45:41Z</time>
      </trkpt>
      <trkpt lat="49.44725" lon="3.7886">
        <ele>189.04</ele>
        <time>2017-04-29T09:45:56Z</time>
      </trkpt>
      <trkpt lat="49.44725" lon="3.78859">
        <ele>189.04</ele>
        <time>2017-04-29T09:46:10Z</time>
      </trkpt>
      <trkpt lat="49.44725" lon="3.7886">
        <ele>190</ele>
        <time>2017-04-29T09:46:17Z</time>
      </trkpt>
      <trkpt lat="49.44725" lon="3.78861">
        <ele>190</ele>
        <time>2017-04-29T09:46:25Z</time>
      </trkpt>
      <trkpt lat="49.44726" lon="3.78861">
        <ele>190</ele>
        <time>2017-04-29T09:46:32Z</time>
      </trkpt>
      <trkpt lat="49.44726" lon="3.78862">
        <ele>190</ele>
        <time>2017-04-29T09:46:41Z</time>
      </trkpt>
      <trkpt lat="49.44726" lon="3.78862">
        <ele>190</ele>
        <time>2017-04-29T09:46:44Z</time>
      </trkpt>
      <trkpt lat="49.44726" lon="3.78863">
        <ele>190</ele>
        <time>2017-04-29T09:46:49Z</time>
      </trkpt>
      <trkpt lat="49.44727" lon="3.78863">
        <ele>190.48</ele>
        <time>2017-04-29T09:46:56Z</time>
      </trkpt>
      <trkpt lat="49.44727" lon="3.78863">
        <ele>190</ele>
        <time>2017-04-29T09:47:03Z</time>
      </trkpt>
      <trkpt lat="49.44726" lon="3.78863">
        <ele>190</ele>
        <time>2017-04-29T09:47:06Z</time>
      </trkpt>
      <trkpt lat="49.44725" lon="3.78863">
        <ele>190</ele>
        <time>2017-04-29T09:47:13Z</time>
      </trkpt>
      <trkpt lat="49.44725" lon="3.78865">
        <ele>189.52</ele>
        <time>2017-04-29T09:47:20Z</time>
      </trkpt>
      <trkpt lat="49.44725" lon="3.78865">
        <ele>189.52</ele>
        <time>2017-04-29T09:47:25Z</time>
      </trkpt>
      <trkpt lat="49.44724" lon="3.78865">
        <ele>189.04</ele>
        <time>2017-04-29T09:47:32Z</time>
      </trkpt>
      <trkpt lat="49.44724" lon="3.78865">
        <ele>189.04</ele>
        <time>2017-04-29T09:47:46Z</time>
      </trkpt>
      <trkpt lat="49.44723" lon="3.78864">
        <ele>188.56</ele>
        <time>2017-04-29T09:47:57Z</time>
      </trkpt>
      <trkpt lat="49.44723" lon="3.78863">
        <ele>188.56</ele>
        <time>2017-04-29T09:48:13Z</time>
      </trkpt>
      <trkpt lat="49.44724" lon="3.78862">
        <ele>188.56</ele>
        <time>2017-04-29T09:48:29Z</time>
      </trkpt>
      <trkpt lat="49.44724" lon="3.78862">
        <ele>189.04</ele>
        <time>2017-04-29T09:48:38Z</time>
      </trkpt>
      <trkpt lat="49.44724" lon="3.78862">
        <ele>187.59</ele>
        <time>2017-04-29T09:48:47Z</time>
      </trkpt>
      <trkpt lat="49.44724" lon="3.78862">
        <ele>188.56</ele>
        <time>2017-04-29T09:48:58Z</time>
      </trkpt>
      <trkpt lat="49.44724" lon="3.78863">
        <ele>188.08</ele>
        <time>2017-04-29T09:49:18Z</time>
      </trkpt>
      <trkpt lat="49.44724" lon="3.78863">
        <ele>188.08</ele>
        <time>2017-04-29T09:49:37Z</time>
      </trkpt>
      <trkpt lat="49.44724" lon="3.78863">
        <ele>188.08</ele>
        <time>2017-04-29T09:49:52Z</time>
      </trkpt>
      <trkpt lat="49.44724" lon="3.78863">
        <ele>188.08</ele>
        <time>2017-04-29T09:50:07Z</time>
      </trkpt>
      <trkpt lat="49.44724" lon="3.78863">
        <ele>188.08</ele>
        <time>2017-04-29T09:50:23Z</time>
      </trkpt>
      <trkpt lat="49.44724" lon="3.78863">
        <ele>187.59</ele>
        <time>2017-04-29T09:50:43Z</time>
      </trkpt>
      <trkpt lat="49.44724" lon="3.78862">
        <ele>187.59</ele>
        <time>2017-04-29T09:51:03Z</time>
      </trkpt>
      <trkpt lat="49.44725" lon="3.78863">
        <ele>187.11</ele>
        <time>2017-04-29T09:51:25Z</time>
      </trkpt>
      <trkpt lat="49.44725" lon="3.78862">
        <ele>187.11</ele>
        <time>2017-04-29T09:51:43Z</time>
      </trkpt>
      <trkpt lat="49.44724" lon="3.78863">
        <ele>187.11</ele>
        <time>2017-04-29T09:52:02Z</time>
      </trkpt>
      <trkpt lat="49.44725" lon="3.78863">
        <ele>186.63</ele>
        <time>2017-04-29T09:52:23Z</time>
      </trkpt>
      <trkpt lat="49.44725" lon="3.78863">
        <ele>187.11</ele>
        <time>2017-04-29T09:52:42Z</time>
      </trkpt>
      <trkpt lat="49.44725" lon="3.78864">
        <ele>186.63</ele>
        <time>2017-04-29T09:53:01Z</time>
      </trkpt>
      <trkpt lat="49.44723" lon="3.78863">
        <ele>186.63</ele>
        <time>2017-04-29T09:53:24Z</time>
      </trkpt>
      <trkpt lat="49.44723" lon="3.78863">
        <ele>186.63</ele>
        <time>2017-04-29T09:53:46Z</time>
      </trkpt>
      <trkpt lat="49.44723" lon="3.78864">
        <ele>186.63</ele>
        <time>2017-04-29T09:54:04Z</time>
      </trkpt>
      <trkpt lat="49.44723" lon="3.78864">
        <ele>186.63</ele>
        <time>2017-04-29T09:54:24Z</time>
      </trkpt>
      <trkpt lat="49.44723" lon="3.78864">
        <ele>186.63</ele>
        <time>2017-04-29T09:54:43Z</time>
      </trkpt>
      <trkpt lat="49.44723" lon="3.78865">
        <ele>186.63</ele>
        <time>2017-04-29T09:55:01Z</time>
      </trkpt>
      <trkpt lat="49.44723" lon="3.78864">
        <ele>186.63</ele>
        <time>2017-04-29T09:55:20Z</time>
      </trkpt>
      <trkpt lat="49.44723" lon="3.78864">
        <ele>186.15</ele>
        <time>2017-04-29T09:55:36Z</time>
      </trkpt>
      <trkpt lat="49.44723" lon="3.78863">
        <ele>186.15</ele>
        <time>2017-04-29T09:55:56Z</time>
      </trkpt>
      <trkpt lat="49.44723" lon="3.78863">
        <ele>186.15</ele>
        <time>2017-04-29T09:56:13Z</time>
      </trkpt>
      <trkpt lat="49.44723" lon="3.78863">
        <ele>186.15</ele>
        <time>2017-04-29T09:56:34Z</time>
      </trkpt>
      <trkpt lat="49.44723" lon="3.78862">
        <ele>186.15</ele>
        <time>2017-04-29T09:56:53Z</time>
      </trkpt>
      <trkpt lat="49.44723" lon="3.78862">
        <ele>185.67</ele>
        <time>2017-04-29T09:57:07Z</time>
      </trkpt>
      <trkpt lat="49.44723" lon="3.78862">
        <ele>185.67</ele>
        <time>2017-04-29T09:57:24Z</time>
      </trkpt>
      <trkpt lat="49.44723" lon="3.78862">
        <ele>185.67</ele>
        <time>2017-04-29T09:57:40Z</time>
      </trkpt>
      <trkpt lat="49.44722" lon="3.78862">
        <ele>185.67</ele>
        <time>2017-04-29T09:57:59Z</time>
      </trkpt>
      <trkpt lat="49.44722" lon="3.78862">
        <ele>185.67</ele>
        <time>2017-04-29T09:58:17Z</time>
      </trkpt>
      <trkpt lat="49.44722" lon="3.78863">
        <ele>185.67</ele>
        <time>2017-04-29T09:58:38Z</time>
      </trkpt>
      <trkpt lat="49.44723" lon="3.78862">
        <ele>185.67</ele>
        <time>2017-04-29T09:58:58Z</time>
      </trkpt>
      <trkpt lat="49.44723" lon="3.78863">
        <ele>185.67</ele>
        <time>2017-04-29T09:59:18Z</time>
      </trkpt>
      <trkpt lat="49.44722" lon="3.78863">
        <ele>185.67</ele>
        <time>2017-04-29T09:59:37Z</time>
      </trkpt>
      <trkpt lat="49.44722" lon="3.78862">
        <ele>185.19</ele>
        <time>2017-04-29T09:59:56Z</time>
      </trkpt>
      <trkpt lat="49.44722" lon="3.78862">
        <ele>185.67</ele>
        <time>2017-04-29T10:00:13Z</time>
      </trkpt>
      <trkpt lat="49.44721" lon="3.78862">
        <ele>185.19</ele>
        <time>2017-04-29T10:00:30Z</time>
      </trkpt>
      <trkpt lat="49.44721" lon="3.78862">
        <ele>185.19</ele>
        <time>2017-04-29T10:00:49Z</time>
      </trkpt>
      <trkpt lat="49.4472" lon="3.78863">
        <ele>185.19</ele>
        <time>2017-04-29T10:01:09Z</time>
      </trkpt>
      <trkpt lat="49.44721" lon="3.78863">
        <ele>185.19</ele>
        <time>2017-04-29T10:01:28Z</time>
      </trkpt>
      <trkpt lat="49.44721" lon="3.78863">
        <ele>185.19</ele>
        <time>2017-04-29T10:01:51Z</time>
      </trkpt>
      <trkpt lat="49.44721" lon="3.78863">
        <ele>185.19</ele>
        <time>2017-04-29T10:02:10Z</time>
      </trkpt>
      <trkpt lat="49.44722" lon="3.78864">
        <ele>184.71</ele>
        <time>2017-04-29T10:02:28Z</time>
      </trkpt>
      <trkpt lat="49.44722" lon="3.78864">
        <ele>185.19</ele>
        <time>2017-04-29T10:02:46Z</time>
      </trkpt>
      <trkpt lat="49.44722" lon="3.78864">
        <ele>185.19</ele>
        <time>2017-04-29T10:03:05Z</time>
      </trkpt>
      <trkpt lat="49.44722" lon="3.78864">
        <ele>185.19</ele>
        <time>2017-04-29T10:03:24Z</time>
      </trkpt>
      <trkpt lat="49.44723" lon="3.78864">
        <ele>185.19</ele>
        <time>2017-04-29T10:03:42Z</time>
      </trkpt>
      <trkpt lat="49.44722" lon="3.78864">
        <ele>185.19</ele>
        <time>2017-04-29T10:03:59Z</time>
      </trkpt>
      <trkpt lat="49.44721" lon="3.78864">
        <ele>184.71</ele>
        <time>2017-04-29T10:04:17Z</time>
      </trkpt>
      <trkpt lat="49.44721" lon="3.78864">
        <ele>185.19</ele>
        <time>2017-04-29T10:04:33Z</time>
      </trkpt>
      <trkpt lat="49.44721" lon="3.78864">
        <ele>184.71</ele>
        <time>2017-04-29T10:04:52Z</time>
      </trkpt>
      <trkpt lat="49.44722" lon="3.78865">
        <ele>184.71</ele>
        <time>2017-04-29T10:05:09Z</time>
      </trkpt>
      <trkpt lat="49.44722" lon="3.78865">
        <ele>184.71</ele>
        <time>2017-04-29T10:05:29Z</time>
      </trkpt>
      <trkpt lat="49.44722" lon="3.78864">
        <ele>184.71</ele>
        <time>2017-04-29T10:05:47Z</time>
      </trkpt>
      <trkpt lat="49.44723" lon="3.78864">
        <ele>184.23</ele>
        <time>2017-04-29T10:06:05Z</time>
      </trkpt>
      <trkpt lat="49.44723" lon="3.78864">
        <ele>184.23</ele>
        <time>2017-04-29T10:06:23Z</time>
      </trkpt>
      <trkpt lat="49.44723" lon="3.78864">
        <ele>183.75</ele>
        <time>2017-04-29T10:06:41Z</time>
      </trkpt>
      <trkpt lat="49.44723" lon="3.78863">
        <ele>184.23</ele>
        <time>2017-04-29T10:07:01Z</time>
      </trkpt>
      <trkpt lat="49.44723" lon="3.78863">
        <ele>184.23</ele>
        <time>2017-04-29T10:07:21Z</time>
      </trkpt>
      <trkpt lat="49.44723" lon="3.78863">
        <ele>184.23</ele>
        <time>2017-04-29T10:07:43Z</time>
      </trkpt>
      <trkpt lat="49.44723" lon="3.78862">
        <ele>183.75</ele>
        <time>2017-04-29T10:08:02Z</time>
      </trkpt>
      <trkpt lat="49.44723" lon="3.78862">
        <ele>183.75</ele>
        <time>2017-04-29T10:08:22Z</time>
      </trkpt>
      <trkpt lat="49.44723" lon="3.78862">
        <ele>183.75</ele>
        <time>2017-04-29T10:08:42Z</time>
      </trkpt>
      <trkpt lat="49.44723" lon="3.78863">
        <ele>183.75</ele>
        <time>2017-04-29T10:08:58Z</time>
      </trkpt>
      <trkpt lat="49.44723" lon="3.78863">
        <ele>183.27</ele>
        <time>2017-04-29T10:09:19Z</time>
      </trkpt>
      <trkpt lat="49.44723" lon="3.78863">
        <ele>183.75</ele>
        <time>2017-04-29T10:09:37Z</time>
      </trkpt>
      <trkpt lat="49.44724" lon="3.78862">
        <ele>183.75</ele>
        <time>2017-04-29T10:09:57Z</time>
      </trkpt>
      <trkpt lat="49.44724" lon="3.78863">
        <ele>183.27</ele>
        <time>2017-04-29T10:10:19Z</time>
      </trkpt>
      <trkpt lat="49.44724" lon="3.78863">
        <ele>183.75</ele>
        <time>2017-04-29T10:10:38Z</time>
      </trkpt>
      <trkpt lat="49.44724" lon="3.78863">
        <ele>183.27</ele>
        <time>2017-04-29T10:10:58Z</time>
      </trkpt>
      <trkpt lat="49.44723" lon="3.78863">
        <ele>183.27</ele>
        <time>2017-04-29T10:11:16Z</time>
      </trkpt>
      <trkpt lat="49.44724" lon="3.78863">
        <ele>183.27</ele>
        <time>2017-04-29T10:11:39Z</time>
      </trkpt>
      <trkpt lat="49.44724" lon="3.78864">
        <ele>183.27</ele>
        <time>2017-04-29T10:12:01Z</time>
      </trkpt>
      <trkpt lat="49.44724" lon="3.78864">
        <ele>182.79</ele>
        <time>2017-04-29T10:12:20Z</time>
      </trkpt>
      <trkpt lat="49.44724" lon="3.78863">
        <ele>182.79</ele>
        <time>2017-04-29T10:12:40Z</time>
      </trkpt>
      <trkpt lat="49.44725" lon="3.78863">
        <ele>182.79</ele>
        <time>2017-04-29T10:12:59Z</time>
      </trkpt>
      <trkpt lat="49.44724" lon="3.78863">
        <ele>182.79</ele>
        <time>2017-04-29T10:13:19Z</time>
      </trkpt>
      <trkpt lat="49.44724" lon="3.78864">
        <ele>182.79</ele>
        <time>2017-04-29T10:13:37Z</time>
      </trkpt>
      <trkpt lat="49.44725" lon="3.78864">
        <ele>182.31</ele>
        <time>2017-04-29T10:13:54Z</time>
      </trkpt>
      <trkpt lat="49.44725" lon="3.78864">
        <ele>182.31</ele>
        <time>2017-04-29T10:14:07Z</time>
      </trkpt>
      <trkpt lat="49.44725" lon="3.78863">
        <ele>182.79</ele>
        <time>2017-04-29T10:14:26Z</time>
      </trkpt>
      <trkpt lat="49.44725" lon="3.78863">
        <ele>182.31</ele>
        <time>2017-04-29T10:14:43Z</time>
      </trkpt>
      <trkpt lat="49.44725" lon="3.78863">
        <ele>182.31</ele>
        <time>2017-04-29T10:15:00Z</time>
      </trkpt>
      <trkpt lat="49.44725" lon="3.78863">
        <ele>182.31</ele>
        <time>2017-04-29T10:15:19Z</time>
      </trkpt>
      <trkpt lat="49.44725" lon="3.78863">
        <ele>182.31</ele>
        <time>2017-04-29T10:15:35Z</time>
      </trkpt>
      <trkpt lat="49.44725" lon="3.78863">
        <ele>182.31</ele>
        <time>2017-04-29T10:15:52Z</time>
      </trkpt>
      <trkpt lat="49.44724" lon="3.78863">
        <ele>182.31</ele>
        <time>2017-04-29T10:16:08Z</time>
      </trkpt>
      <trkpt lat="49.44724" lon="3.78863">
        <ele>181.83</ele>
        <time>2017-04-29T10:16:26Z</time>
      </trkpt>
      <trkpt lat="49.44724" lon="3.78863">
        <ele>181.83</ele>
        <time>2017-04-29T10:16:40Z</time>
      </trkpt>
      <trkpt lat="49.44725" lon="3.78864">
        <ele>181.83</ele>
        <time>2017-04-29T10:16:59Z</time>
      </trkpt>
      <trkpt lat="49.44725" lon="3.78864">
        <ele>181.83</ele>
        <time>2017-04-29T10:17:15Z</time>
      </trkpt>
      <trkpt lat="49.44725" lon="3.78864">
        <ele>181.83</ele>
        <time>2017-04-29T10:17:28Z</time>
      </trkpt>
      <trkpt lat="49.44725" lon="3.78864">
        <ele>181.35</ele>
        <time>2017-04-29T10:17:43Z</time>
      </trkpt>
      <trkpt lat="49.44725" lon="3.78864">
        <ele>181.35</ele>
        <time>2017-04-29T10:17:57Z</time>
      </trkpt>
      <trkpt lat="49.44723" lon="3.78863">
        <ele>181.83</ele>
        <time>2017-04-29T10:18:17Z</time>
      </trkpt>
      <trkpt lat="49.44723" lon="3.78863">
        <ele>181.83</ele>
        <time>2017-04-29T10:18:36Z</time>
      </trkpt>
      <trkpt lat="49.44723" lon="3.78862">
        <ele>182.31</ele>
        <time>2017-04-29T10:18:54Z</time>
      </trkpt>
      <trkpt lat="49.44723" lon="3.78862">
        <ele>181.83</ele>
        <time>2017-04-29T10:19:09Z</time>
      </trkpt>
      <trkpt lat="49.44723" lon="3.78862">
        <ele>181.83</ele>
        <time>2017-04-29T10:19:26Z</time>
      </trkpt>
      <trkpt lat="49.44723" lon="3.78862">
        <ele>181.83</ele>
        <time>2017-04-29T10:19:43Z</time>
      </trkpt>
      <trkpt lat="49.44722" lon="3.78862">
        <ele>181.83</ele>
        <time>2017-04-29T10:20:01Z</time>
      </trkpt>
      <trkpt lat="49.44722" lon="3.78861">
        <ele>181.83</ele>
        <time>2017-04-29T10:20:18Z</time>
      </trkpt>
      <trkpt lat="49.44723" lon="3.78862">
        <ele>181.83</ele>
        <time>2017-04-29T10:20:39Z</time>
      </trkpt>
      <trkpt lat="49.44723" lon="3.78862">
        <ele>181.83</ele>
        <time>2017-04-29T10:20:56Z</time>
      </trkpt>
      <trkpt lat="49.44723" lon="3.78862">
        <ele>181.83</ele>
        <time>2017-04-29T10:21:14Z</time>
      </trkpt>
      <trkpt lat="49.44723" lon="3.78863">
        <ele>181.83</ele>
        <time>2017-04-29T10:21:36Z</time>
      </trkpt>
      <trkpt lat="49.44723" lon="3.78863">
        <ele>181.83</ele>
        <time>2017-04-29T10:21:53Z</time>
      </trkpt>
      <trkpt lat="49.44723" lon="3.78863">
        <ele>182.31</ele>
        <time>2017-04-29T10:22:09Z</time>
      </trkpt>
      <trkpt lat="49.44723" lon="3.78863">
        <ele>181.83</ele>
        <time>2017-04-29T10:22:25Z</time>
      </trkpt>
      <trkpt lat="49.44723" lon="3.78863">
        <ele>181.83</ele>
        <time>2017-04-29T10:22:42Z</time>
      </trkpt>
      <trkpt lat="49.44724" lon="3.78863">
        <ele>181.83</ele>
        <time>2017-04-29T10:22:59Z</time>
      </trkpt>
      <trkpt lat="49.44724" lon="3.78864">
        <ele>181.83</ele>
        <time>2017-04-29T10:23:16Z</time>
      </trkpt>
      <trkpt lat="49.44723" lon="3.78864">
        <ele>181.83</ele>
        <time>2017-04-29T10:23:34Z</time>
      </trkpt>
      <trkpt lat="49.44723" lon="3.78864">
        <ele>181.83</ele>
        <time>2017-04-29T10:23:50Z</time>
      </trkpt>
      <trkpt lat="49.44723" lon="3.78864">
        <ele>181.83</ele>
        <time>2017-04-29T10:24:08Z</time>
      </trkpt>
      <trkpt lat="49.44724" lon="3.78864">
        <ele>181.83</ele>
        <time>2017-04-29T10:24:24Z</time>
      </trkpt>
      <trkpt lat="49.44723" lon="3.78864">
        <ele>181.83</ele>
        <time>2017-04-29T10:24:42Z</time>
      </trkpt>
      <trkpt lat="49.44723" lon="3.78865">
        <ele>181.83</ele>
        <time>2017-04-29T10:24:57Z</time>
      </trkpt>
      <trkpt lat="49.44723" lon="3.78865">
        <ele>181.83</ele>
        <time>2017-04-29T10:25:13Z</time>
      </trkpt>
      <trkpt lat="49.44724" lon="3.78864">
        <ele>181.83</ele>
        <time>2017-04-29T10:25:29Z</time>
      </trkpt>
      <trkpt lat="49.44723" lon="3.78864">
        <ele>181.83</ele>
        <time>2017-04-29T10:25:46Z</time>
      </trkpt>
      <trkpt lat="49.44723" lon="3.78864">
        <ele>181.83</ele>
        <time>2017-04-29T10:26:04Z</time>
      </trkpt>
      <trkpt lat="49.44723" lon="3.78863">
        <ele>182.31</ele>
        <time>2017-04-29T10:26:21Z</time>
      </trkpt>
      <trkpt lat="49.44724" lon="3.78864">
        <ele>182.31</ele>
        <time>2017-04-29T10:26:37Z</time>
      </trkpt>
      <trkpt lat="49.44724" lon="3.78864">
        <ele>182.31</ele>
        <time>2017-04-29T10:26:53Z</time>
      </trkpt>
      <trkpt lat="49.44724" lon="3.78864">
        <ele>182.31</ele>
        <time>2017-04-29T10:27:09Z</time>
      </trkpt>
      <trkpt lat="49.44723" lon="3.78864">
        <ele>181.83</ele>
        <time>2017-04-29T10:27:26Z</time>
      </trkpt>
      <trkpt lat="49.44723" lon="3.78864">
        <ele>182.31</ele>
        <time>2017-04-29T10:27:44Z</time>
      </trkpt>
      <trkpt lat="49.44723" lon="3.78864">
        <ele>181.83</ele>
        <time>2017-04-29T10:28:00Z</time>
      </trkpt>
      <trkpt lat="49.44723" lon="3.78863">
        <ele>181.83</ele>
        <time>2017-04-29T10:28:18Z</time>
      </trkpt>
      <trkpt lat="49.44724" lon="3.78863">
        <ele>181.83</ele>
        <time>2017-04-29T10:28:36Z</time>
      </trkpt>
      <trkpt lat="49.44725" lon="3.78862">
        <ele>181.83</ele>
        <time>2017-04-29T10:28:50Z</time>
      </trkpt>
      <trkpt lat="49.44725" lon="3.78863">
        <ele>181.83</ele>
        <time>2017-04-29T10:29:04Z</time>
      </trkpt>
      <trkpt lat="49.44725" lon="3.78863">
        <ele>181.83</ele>
        <time>2017-04-29T10:29:18Z</time>
      </trkpt>
      <trkpt lat="49.44724" lon="3.78863">
        <ele>181.35</ele>
        <time>2017-04-29T10:29:33Z</time>
      </trkpt>
      <trkpt lat="49.44724" lon="3.78862">
        <ele>181.83</ele>
        <time>2017-04-29T10:29:48Z</time>
      </trkpt>
      <trkpt lat="49.44724" lon="3.78862">
        <ele>181.35</ele>
        <time>2017-04-29T10:30:03Z</time>
      </trkpt>
      <trkpt lat="49.44724" lon="3.78863">
        <ele>181.83</ele>
        <time>2017-04-29T10:30:18Z</time>
      </trkpt>
      <trkpt lat="49.44724" lon="3.78863">
        <ele>181.83</ele>
        <time>2017-04-29T10:30:29Z</time>
      </trkpt>
      <trkpt lat="49.44723" lon="3.78862">
        <ele>181.83</ele>
        <time>2017-04-29T10:30:46Z</time>
      </trkpt>
      <trkpt lat="49.44724" lon="3.78863">
        <ele>181.35</ele>
        <time>2017-04-29T10:31:00Z</time>
      </trkpt>
      <trkpt lat="49.44723" lon="3.78863">
        <ele>181.35</ele>
        <time>2017-04-29T10:31:16Z</time>
      </trkpt>
      <trkpt lat="49.44723" lon="3.78862">
        <ele>181.83</ele>
        <time>2017-04-29T10:31:29Z</time>
      </trkpt>
      <trkpt lat="49.44723" lon="3.78863">
        <ele>181.83</ele>
        <time>2017-04-29T10:31:44Z</time>
      </trkpt>
      <trkpt lat="49.44723" lon="3.78863">
        <ele>181.35</ele>
        <time>2017-04-29T10:32:00Z</time>
      </trkpt>
      <trkpt lat="49.44723" lon="3.78864">
        <ele>181.35</ele>
        <time>2017-04-29T10:32:15Z</time>
      </trkpt>
      <trkpt lat="49.44723" lon="3.78864">
        <ele>181.35</ele>
        <time>2017-04-29T10:32:29Z</time>
      </trkpt>
      <trkpt lat="49.44723" lon="3.78864">
        <ele>181.35</ele>
        <time>2017-04-29T10:32:42Z</time>
      </trkpt>
      <trkpt lat="49.44723" lon="3.78864">
        <ele>181.35</ele>
        <time>2017-04-29T10:32:59Z</time>
      </trkpt>
      <trkpt lat="49.44723" lon="3.78864">
        <ele>181.35</ele>
        <time>2017-04-29T10:33:14Z</time>
      </trkpt>
      <trkpt lat="49.44724" lon="3.78865">
        <ele>181.35</ele>
        <time>2017-04-29T10:33:30Z</time>
      </trkpt>
      <trkpt lat="49.44724" lon="3.78864">
        <ele>181.35</ele>
        <time>2017-04-29T10:33:45Z</time>
      </trkpt>
      <trkpt lat="49.44723" lon="3.78863">
        <ele>181.35</ele>
        <time>2017-04-29T10:34:05Z</time>
      </trkpt>
      <trkpt lat="49.44723" lon="3.78863">
        <ele>181.35</ele>
        <time>2017-04-29T10:34:20Z</time>
      </trkpt>
      <trkpt lat="49.44724" lon="3.78863">
        <ele>181.35</ele>
        <time>2017-04-29T10:34:39Z</time>
      </trkpt>
      <trkpt lat="49.44724" lon="3.78863">
        <ele>181.83</ele>
        <time>2017-04-29T10:34:55Z</time>
      </trkpt>
      <trkpt lat="49.44724" lon="3.78862">
        <ele>181.83</ele>
        <time>2017-04-29T10:35:07Z</time>
      </trkpt>
      <trkpt lat="49.44724" lon="3.78862">
        <ele>182.31</ele>
        <time>2017-04-29T10:35:14Z</time>
      </trkpt>
      <trkpt lat="49.44723" lon="3.78862">
        <ele>180.87</ele>
        <time>2017-04-29T10:35:21Z</time>
      </trkpt>
      <trkpt lat="49.44721" lon="3.78868">
        <ele>182.31</ele>
        <time>2017-04-29T10:36:05Z</time>
      </trkpt>
      <trkpt lat="49.44722" lon="3.78868">
        <ele>182.79</ele>
        <time>2017-04-29T10:36:06Z</time>
      </trkpt>
      <trkpt lat="49.44726" lon="3.78864">
        <ele>182.31</ele>
        <time>2017-04-29T10:36:19Z</time>
      </trkpt>
      <trkpt lat="49.44724" lon="3.78863">
        <ele>174.14</ele>
        <time>2017-04-29T10:36:26Z</time>
      </trkpt>
      <trkpt lat="49.44724" lon="3.78863">
        <ele>187.59</ele>
        <time>2017-04-29T10:36:27Z</time>
      </trkpt>
      <trkpt lat="49.44724" lon="3.78863">
        <ele>182.79</ele>
        <time>2017-04-29T10:36:28Z</time>
      </trkpt>
      <trkpt lat="49.44721" lon="3.78863">
        <ele>182.31</ele>
        <time>2017-04-29T10:36:42Z</time>
      </trkpt>
      <trkpt lat="49.4472" lon="3.78869">
        <ele>181.83</ele>
        <time>2017-04-29T10:37:02Z</time>
      </trkpt>
      <trkpt lat="49.4472" lon="3.78865">
        <ele>181.83</ele>
        <time>2017-04-29T10:37:25Z</time>
      </trkpt>
      <trkpt lat="49.44721" lon="3.78866">
        <ele>182.31</ele>
        <time>2017-04-29T10:37:45Z</time>
      </trkpt>
      <trkpt lat="49.44722" lon="3.78865">
        <ele>181.83</ele>
        <time>2017-04-29T10:38:08Z</time>
      </trkpt>
      <trkpt lat="49.44723" lon="3.78865">
        <ele>182.31</ele>
        <time>2017-04-29T10:38:27Z</time>
      </trkpt>
      <trkpt lat="49.44722" lon="3.78865">
        <ele>182.31</ele>
        <time>2017-04-29T10:38:46Z</time>
      </trkpt>
      <trkpt lat="49.44722" lon="3.78865">
        <ele>182.31</ele>
        <time>2017-04-29T10:39:06Z</time>
      </trkpt>
      <trkpt lat="49.44723" lon="3.78865">
        <ele>182.31</ele>
        <time>2017-04-29T10:39:27Z</time>
      </trkpt>
      <trkpt lat="49.44724" lon="3.78864">
        <ele>182.31</ele>
        <time>2017-04-29T10:39:49Z</time>
      </trkpt>
      <trkpt lat="49.44723" lon="3.78865">
        <ele>182.31</ele>
        <time>2017-04-29T10:40:12Z</time>
      </trkpt>
      <trkpt lat="49.44723" lon="3.78866">
        <ele>182.31</ele>
        <time>2017-04-29T10:40:35Z</time>
      </trkpt>
      <trkpt lat="49.44723" lon="3.78865">
        <ele>182.31</ele>
        <time>2017-04-29T10:40:56Z</time>
      </trkpt>
      <trkpt lat="49.44723" lon="3.78865">
        <ele>181.83</ele>
        <time>2017-04-29T10:41:14Z</time>
      </trkpt>
      <trkpt lat="49.44724" lon="3.78864">
        <ele>181.83</ele>
        <time>2017-04-29T10:41:35Z</time>
      </trkpt>
      <trkpt lat="49.44723" lon="3.78864">
        <ele>181.83</ele>
        <time>2017-04-29T10:41:57Z</time>
      </trkpt>
      <trkpt lat="49.44724" lon="3.78864">
        <ele>181.83</ele>
        <time>2017-04-29T10:42:17Z</time>
      </trkpt>
      <trkpt lat="49.44724" lon="3.78864">
        <ele>181.83</ele>
        <time>2017-04-29T10:42:39Z</time>
      </trkpt>
      <trkpt lat="49.44725" lon="3.78864">
        <ele>181.83</ele>
        <time>2017-04-29T10:42:58Z</time>
      </trkpt>
      <trkpt lat="49.44724" lon="3.78865">
        <ele>181.83</ele>
        <time>2017-04-29T10:43:15Z</time>
      </trkpt>
      <trkpt lat="49.44723" lon="3.78865">
        <ele>181.83</ele>
        <time>2017-04-29T10:43:38Z</time>
      </trkpt>
      <trkpt lat="49.44723" lon="3.78864">
        <ele>181.83</ele>
        <time>2017-04-29T10:43:55Z</time>
      </trkpt>
      <trkpt lat="49.44723" lon="3.78864">
        <ele>181.83</ele>
        <time>2017-04-29T10:44:07Z</time>
      </trkpt>
      <trkpt lat="49.44723" lon="3.78864">
        <ele>181.83</ele>
        <time>2017-04-29T10:44:26Z</time>
      </trkpt>
      <trkpt lat="49.44723" lon="3.78864">
        <ele>181.83</ele>
        <time>2017-04-29T10:44:45Z</time>
      </trkpt>
      <trkpt lat="49.44722" lon="3.78864">
        <ele>181.83</ele>
        <time>2017-04-29T10:44:59Z</time>
      </trkpt>
      <trkpt lat="49.44723" lon="3.78865">
        <ele>181.83</ele>
        <time>2017-04-29T10:45:13Z</time>
      </trkpt>
      <trkpt lat="49.44723" lon="3.78865">
        <ele>181.83</ele>
        <time>2017-04-29T10:45:23Z</time>
      </trkpt>
      <trkpt lat="49.44723" lon="3.78864">
        <ele>181.83</ele>
        <time>2017-04-29T10:45:36Z</time>
      </trkpt>
      <trkpt lat="49.44723" lon="3.78865">
        <ele>181.83</ele>
        <time>2017-04-29T10:45:47Z</time>
      </trkpt>
      <trkpt lat="49.44723" lon="3.78865">
        <ele>181.83</ele>
        <time>2017-04-29T10:46:00Z</time>
      </trkpt>
      <trkpt lat="49.44723" lon="3.78864">
        <ele>181.83</ele>
        <time>2017-04-29T10:46:09Z</time>
      </trkpt>
      <trkpt lat="49.44724" lon="3.78864">
        <ele>182.31</ele>
        <time>2017-04-29T10:46:16Z</time>
      </trkpt>
      <trkpt lat="49.44723" lon="3.78865">
        <ele>182.31</ele>
        <time>2017-04-29T10:46:24Z</time>
      </trkpt>
      <trkpt lat="49.44723" lon="3.78866">
        <ele>182.31</ele>
        <time>2017-04-29T10:46:40Z</time>
      </trkpt>
      <trkpt lat="49.44723" lon="3.78866">
        <ele>181.83</ele>
        <time>2017-04-29T10:46:59Z</time>
      </trkpt>
      <trkpt lat="49.44723" lon="3.78866">
        <ele>181.83</ele>
        <time>2017-04-29T10:47:14Z</time>
      </trkpt>
      <trkpt lat="49.44723" lon="3.78866">
        <ele>181.83</ele>
        <time>2017-04-29T10:47:16Z</time>
      </trkpt>
      <trkpt lat="49.44723" lon="3.78866">
        <ele>182.31</ele>
        <time>2017-04-29T10:47:22Z</time>
      </trkpt>
      <trkpt lat="49.44723" lon="3.78866">
        <ele>182.31</ele>
        <time>2017-04-29T10:47:34Z</time>
      </trkpt>
      <trkpt lat="49.44723" lon="3.78866">
        <ele>181.83</ele>
        <time>2017-04-29T10:47:40Z</time>
      </trkpt>
      <trkpt lat="49.44723" lon="3.78866">
        <ele>181.83</ele>
        <time>2017-04-29T10:47:47Z</time>
      </trkpt>
      <trkpt lat="49.44724" lon="3.78868">
        <ele>182.31</ele>
        <time>2017-04-29T10:48:06Z</time>
      </trkpt>
      <trkpt lat="49.44723" lon="3.78867">
        <ele>182.31</ele>
        <time>2017-04-29T10:48:25Z</time>
      </trkpt>
      <trkpt lat="49.44723" lon="3.78867">
        <ele>182.79</ele>
        <time>2017-04-29T10:48:44Z</time>
      </trkpt>
      <trkpt lat="49.44723" lon="3.78867">
        <ele>182.31</ele>
        <time>2017-04-29T10:49:04Z</time>
      </trkpt>
      <trkpt lat="49.44723" lon="3.78867">
        <ele>182.31</ele>
        <time>2017-04-29T10:49:23Z</time>
      </trkpt>
      <trkpt lat="49.44724" lon="3.78868">
        <ele>182.79</ele>
        <time>2017-04-29T10:49:46Z</time>
      </trkpt>
      <trkpt lat="49.44724" lon="3.78869">
        <ele>182.31</ele>
        <time>2017-04-29T10:50:06Z</time>
      </trkpt>
      <trkpt lat="49.44723" lon="3.78867">
        <ele>182.31</ele>
        <time>2017-04-29T10:50:20Z</time>
      </trkpt>
      <trkpt lat="49.44722" lon="3.78867">
        <ele>182.79</ele>
        <time>2017-04-29T10:50:41Z</time>
      </trkpt>
      <trkpt lat="49.44722" lon="3.78866">
        <ele>182.79</ele>
        <time>2017-04-29T10:51:01Z</time>
      </trkpt>
      <trkpt lat="49.44723" lon="3.78867">
        <ele>182.79</ele>
        <time>2017-04-29T10:51:21Z</time>
      </trkpt>
      <trkpt lat="49.44723" lon="3.78866">
        <ele>182.79</ele>
        <time>2017-04-29T10:51:42Z</time>
      </trkpt>
      <trkpt lat="49.44723" lon="3.78865">
        <ele>182.79</ele>
        <time>2017-04-29T10:52:00Z</time>
      </trkpt>
      <trkpt lat="49.44722" lon="3.78865">
        <ele>182.79</ele>
        <time>2017-04-29T10:52:13Z</time>
      </trkpt>
      <trkpt lat="49.44722" lon="3.78865">
        <ele>182.79</ele>
        <time>2017-04-29T10:52:30Z</time>
      </trkpt>
      <trkpt lat="49.44721" lon="3.78865">
        <ele>182.31</ele>
        <time>2017-04-29T10:52:48Z</time>
      </trkpt>
      <trkpt lat="49.44722" lon="3.78866">
        <ele>182.31</ele>
        <time>2017-04-29T10:53:05Z</time>
      </trkpt>
      <trkpt lat="49.44721" lon="3.78867">
        <ele>181.83</ele>
        <time>2017-04-29T10:53:21Z</time>
      </trkpt>
      <trkpt lat="49.44721" lon="3.78867">
        <ele>182.31</ele>
        <time>2017-04-29T10:53:41Z</time>
      </trkpt>
      <trkpt lat="49.44722" lon="3.78866">
        <ele>182.31</ele>
        <time>2017-04-29T10:54:00Z</time>
      </trkpt>
      <trkpt lat="49.44722" lon="3.78865">
        <ele>182.31</ele>
        <time>2017-04-29T10:54:21Z</time>
      </trkpt>
      <trkpt lat="49.44722" lon="3.78864">
        <ele>182.31</ele>
        <time>2017-04-29T10:54:39Z</time>
      </trkpt>
      <trkpt lat="49.44723" lon="3.78865">
        <ele>182.31</ele>
        <time>2017-04-29T10:55:00Z</time>
      </trkpt>
      <trkpt lat="49.44722" lon="3.78865">
        <ele>181.83</ele>
        <time>2017-04-29T10:55:17Z</time>
      </trkpt>
      <trkpt lat="49.44722" lon="3.78864">
        <ele>181.83</ele>
        <time>2017-04-29T10:55:37Z</time>
      </trkpt>
      <trkpt lat="49.44723" lon="3.78865">
        <ele>181.83</ele>
        <time>2017-04-29T10:55:56Z</time>
      </trkpt>
      <trkpt lat="49.44723" lon="3.78863">
        <ele>181.35</ele>
        <time>2017-04-29T10:56:15Z</time>
      </trkpt>
      <trkpt lat="49.44723" lon="3.78862">
        <ele>181.35</ele>
        <time>2017-04-29T10:56:32Z</time>
      </trkpt>
      <trkpt lat="49.44724" lon="3.78862">
        <ele>181.35</ele>
        <time>2017-04-29T10:56:48Z</time>
      </trkpt>
      <trkpt lat="49.44724" lon="3.78863">
        <ele>181.35</ele>
        <time>2017-04-29T10:57:09Z</time>
      </trkpt>
      <trkpt lat="49.44723" lon="3.78862">
        <ele>180.87</ele>
        <time>2017-04-29T10:57:27Z</time>
      </trkpt>
      <trkpt lat="49.44724" lon="3.78861">
        <ele>181.35</ele>
        <time>2017-04-29T10:57:46Z</time>
      </trkpt>
      <trkpt lat="49.44723" lon="3.78861">
        <ele>180.87</ele>
        <time>2017-04-29T10:58:07Z</time>
      </trkpt>
      <trkpt lat="49.44724" lon="3.78862">
        <ele>181.35</ele>
        <time>2017-04-29T10:58:29Z</time>
      </trkpt>
      <trkpt lat="49.44723" lon="3.78863">
        <ele>181.35</ele>
        <time>2017-04-29T10:58:50Z</time>
      </trkpt>
      <trkpt lat="49.44723" lon="3.78862">
        <ele>180.87</ele>
        <time>2017-04-29T10:59:13Z</time>
      </trkpt>
      <trkpt lat="49.44723" lon="3.78862">
        <ele>180.87</ele>
        <time>2017-04-29T10:59:34Z</time>
      </trkpt>
      <trkpt lat="49.44723" lon="3.78861">
        <ele>180.87</ele>
        <time>2017-04-29T10:59:55Z</time>
      </trkpt>
      <trkpt lat="49.44723" lon="3.78862">
        <ele>180.87</ele>
        <time>2017-04-29T11:00:17Z</time>
      </trkpt>
      <trkpt lat="49.44723" lon="3.78861">
        <ele>180.87</ele>
        <time>2017-04-29T11:00:38Z</time>
      </trkpt>
      <trkpt lat="49.44724" lon="3.78861">
        <ele>180.87</ele>
        <time>2017-04-29T11:00:58Z</time>
      </trkpt>
      <trkpt lat="49.44723" lon="3.78861">
        <ele>181.35</ele>
        <time>2017-04-29T11:01:15Z</time>
      </trkpt>
      <trkpt lat="49.44724" lon="3.78862">
        <ele>181.35</ele>
        <time>2017-04-29T11:01:33Z</time>
      </trkpt>
      <trkpt lat="49.44724" lon="3.78862">
        <ele>181.35</ele>
        <time>2017-04-29T11:01:53Z</time>
      </trkpt>
      <trkpt lat="49.44723" lon="3.78861">
        <ele>181.35</ele>
        <time>2017-04-29T11:02:10Z</time>
      </trkpt>
      <trkpt lat="49.44722" lon="3.78861">
        <ele>180.87</ele>
        <time>2017-04-29T11:02:31Z</time>
      </trkpt>
      <trkpt lat="49.44722" lon="3.78862">
        <ele>181.35</ele>
        <time>2017-04-29T11:02:49Z</time>
      </trkpt>
      <trkpt lat="49.44722" lon="3.78862">
        <ele>181.35</ele>
        <time>2017-04-29T11:03:10Z</time>
      </trkpt>
      <trkpt lat="49.44723" lon="3.78863">
        <ele>181.35</ele>
        <time>2017-04-29T11:03:31Z</time>
      </trkpt>
      <trkpt lat="49.44723" lon="3.78863">
        <ele>181.35</ele>
        <time>2017-04-29T11:03:36Z</time>
      </trkpt>
      <trkpt lat="49.44723" lon="3.78863">
        <ele>182.31</ele>
        <time>2017-04-29T11:03:41Z</time>
      </trkpt>
      <trkpt lat="49.44723" lon="3.78863">
        <ele>182.31</ele>
        <time>2017-04-29T11:03:47Z</time>
      </trkpt>
      <trkpt lat="49.44723" lon="3.78864">
        <ele>181.83</ele>
        <time>2017-04-29T11:03:58Z</time>
      </trkpt>
      <trkpt lat="49.44723" lon="3.78865">
        <ele>181.83</ele>
        <time>2017-04-29T11:03:59Z</time>
      </trkpt>
      <trkpt lat="49.44722" lon="3.78867">
        <ele>181.83</ele>
        <time>2017-04-29T11:04:05Z</time>
      </trkpt>
      <trkpt lat="49.44718" lon="3.78873">
        <ele>179.9</ele>
        <time>2017-04-29T11:04:11Z</time>
      </trkpt>
      <trkpt lat="49.44717" lon="3.78875">
        <ele>179.9</ele>
        <time>2017-04-29T11:04:14Z</time>
      </trkpt>
      <trkpt lat="49.44714" lon="3.78882">
        <ele>178.94</ele>
        <time>2017-04-29T11:04:22Z</time>
      </trkpt>
      <trkpt lat="49.44712" lon="3.78886">
        <ele>177.98</ele>
        <time>2017-04-29T11:04:27Z</time>
      </trkpt>
      <trkpt lat="49.44711" lon="3.78887">
        <ele>177.5</ele>
        <time>2017-04-29T11:04:34Z</time>
      </trkpt>
      <trkpt lat="49.4471" lon="3.78889">
        <ele>176.54</ele>
        <time>2017-04-29T11:04:39Z</time>
      </trkpt>
      <trkpt lat="49.4471" lon="3.78894">
        <ele>175.1</ele>
        <time>2017-04-29T11:04:43Z</time>
      </trkpt>
      <trkpt lat="49.44708" lon="3.78904">
        <ele>173.17</ele>
        <time>2017-04-29T11:04:51Z</time>
      </trkpt>
      <trkpt lat="49.44709" lon="3.78906">
        <ele>172.21</ele>
        <time>2017-04-29T11:04:57Z</time>
      </trkpt>
      <trkpt lat="49.44709" lon="3.78912">
        <ele>170.29</ele>
        <time>2017-04-29T11:05:03Z</time>
      </trkpt>
      <trkpt lat="49.44709" lon="3.78915">
        <ele>168.85</ele>
        <time>2017-04-29T11:05:08Z</time>
      </trkpt>
      <trkpt lat="49.44709" lon="3.78919">
        <ele>167.41</ele>
        <time>2017-04-29T11:05:13Z</time>
      </trkpt>
      <trkpt lat="49.44709" lon="3.78923">
        <ele>166.93</ele>
        <time>2017-04-29T11:05:17Z</time>
      </trkpt>
      <trkpt lat="49.44708" lon="3.78926">
        <ele>165.48</ele>
        <time>2017-04-29T11:05:21Z</time>
      </trkpt>
      <trkpt lat="49.44706" lon="3.7893">
        <ele>164.52</ele>
        <time>2017-04-29T11:05:26Z</time>
      </trkpt>
      <trkpt lat="49.44704" lon="3.78935">
        <ele>162.6</ele>
        <time>2017-04-29T11:05:31Z</time>
      </trkpt>
      <trkpt lat="49.44705" lon="3.78948">
        <ele>161.64</ele>
        <time>2017-04-29T11:05:37Z</time>
      </trkpt>
      <trkpt lat="49.44704" lon="3.78955">
        <ele>160.68</ele>
        <time>2017-04-29T11:05:41Z</time>
      </trkpt>
      <trkpt lat="49.44702" lon="3.78969">
        <ele>159.24</ele>
        <time>2017-04-29T11:05:49Z</time>
      </trkpt>
      <trkpt lat="49.447" lon="3.78978">
        <ele>158.75</ele>
        <time>2017-04-29T11:05:55Z</time>
      </trkpt>
      <trkpt lat="49.44698" lon="3.78982">
        <ele>157.79</ele>
        <time>2017-04-29T11:06:00Z</time>
      </trkpt>
      <trkpt lat="49.44697" lon="3.78984">
        <ele>157.31</ele>
        <time>2017-04-29T11:06:05Z</time>
      </trkpt>
      <trkpt lat="49.44696" lon="3.78994">
        <ele>156.83</ele>
        <time>2017-04-29T11:06:11Z</time>
      </trkpt>
      <trkpt lat="49.44693" lon="3.79002">
        <ele>154.91</ele>
        <time>2017-04-29T11:06:18Z</time>
      </trkpt>
      <trkpt lat="49.44693" lon="3.7901">
        <ele>154.91</ele>
        <time>2017-04-29T11:06:24Z</time>
      </trkpt>
      <trkpt lat="49.44691" lon="3.79034">
        <ele>154.91</ele>
        <time>2017-04-29T11:06:30Z</time>
      </trkpt>
      <trkpt lat="49.4469" lon="3.79036">
        <ele>154.91</ele>
        <time>2017-04-29T11:06:31Z</time>
      </trkpt>
      <trkpt lat="49.44681" lon="3.79048">
        <ele>154.91</ele>
        <time>2017-04-29T11:06:38Z</time>
      </trkpt>
      <trkpt lat="49.4468" lon="3.79048">
        <ele>154.91</ele>
        <time>2017-04-29T11:06:39Z</time>
      </trkpt>
      <trkpt lat="49.44673" lon="3.79052">
        <ele>154.43</ele>
        <time>2017-04-29T11:06:46Z</time>
      </trkpt>
      <trkpt lat="49.44666" lon="3.79051">
        <ele>153.95</ele>
        <time>2017-04-29T11:06:54Z</time>
      </trkpt>
      <trkpt lat="49.44655" lon="3.79048">
        <ele>153.47</ele>
        <time>2017-04-29T11:07:01Z</time>
      </trkpt>
      <trkpt lat="49.4465" lon="3.7905">
        <ele>153.47</ele>
        <time>2017-04-29T11:07:07Z</time>
      </trkpt>
      <trkpt lat="49.44644" lon="3.79052">
        <ele>153.47</ele>
        <time>2017-04-29T11:07:14Z</time>
      </trkpt>
      <trkpt lat="49.44644" lon="3.79047">
        <ele>153.95</ele>
        <time>2017-04-29T11:07:30Z</time>
      </trkpt>
      <trkpt lat="49.44646" lon="3.79043">
        <ele>153.95</ele>
        <time>2017-04-29T11:07:43Z</time>
      </trkpt>
      <trkpt lat="49.44646" lon="3.79036">
        <ele>153.47</ele>
        <time>2017-04-29T11:07:48Z</time>
      </trkpt>
      <trkpt lat="49.44644" lon="3.7903">
        <ele>152.99</ele>
        <time>2017-04-29T11:07:53Z</time>
      </trkpt>
      <trkpt lat="49.44639" lon="3.79027">
        <ele>152.03</ele>
        <time>2017-04-29T11:07:57Z</time>
      </trkpt>
      <trkpt lat="49.44635" lon="3.79018">
        <ele>152.51</ele>
        <time>2017-04-29T11:08:04Z</time>
      </trkpt>
      <trkpt lat="49.44632" lon="3.79014">
        <ele>151.06</ele>
        <time>2017-04-29T11:08:07Z</time>
      </trkpt>
      <trkpt lat="49.44632" lon="3.7901">
        <ele>151.06</ele>
        <time>2017-04-29T11:08:09Z</time>
      </trkpt>
      <trkpt lat="49.44629" lon="3.79008">
        <ele>150.58</ele>
        <time>2017-04-29T11:08:11Z</time>
      </trkpt>
      <trkpt lat="49.44626" lon="3.78994">
        <ele>150.1</ele>
        <time>2017-04-29T11:08:18Z</time>
      </trkpt>
      <trkpt lat="49.44624" lon="3.78991">
        <ele>149.62</ele>
        <time>2017-04-29T11:08:20Z</time>
      </trkpt>
      <trkpt lat="49.44619" lon="3.78987">
        <ele>149.14</ele>
        <time>2017-04-29T11:08:24Z</time>
      </trkpt>
      <trkpt lat="49.44612" lon="3.7898">
        <ele>148.66</ele>
        <time>2017-04-29T11:08:31Z</time>
      </trkpt>
      <trkpt lat="49.4461" lon="3.78978">
        <ele>148.18</ele>
        <time>2017-04-29T11:08:33Z</time>
      </trkpt>
      <trkpt lat="49.44603" lon="3.78973">
        <ele>147.22</ele>
        <time>2017-04-29T11:08:40Z</time>
      </trkpt>
      <trkpt lat="49.44598" lon="3.78972">
        <ele>146.74</ele>
        <time>2017-04-29T11:08:44Z</time>
      </trkpt>
      <trkpt lat="49.44591" lon="3.78972">
        <ele>145.78</ele>
        <time>2017-04-29T11:08:51Z</time>
      </trkpt>
      <trkpt lat="49.4459" lon="3.78972">
        <ele>145.3</ele>
        <time>2017-04-29T11:08:53Z</time>
      </trkpt>
      <trkpt lat="49.44587" lon="3.78972">
        <ele>145.3</ele>
        <time>2017-04-29T11:09:00Z</time>
      </trkpt>
      <trkpt lat="49.44586" lon="3.78974">
        <ele>145.3</ele>
        <time>2017-04-29T11:09:14Z</time>
      </trkpt>
      <trkpt lat="49.44584" lon="3.78974">
        <ele>145.78</ele>
        <time>2017-04-29T11:09:30Z</time>
      </trkpt>
      <trkpt lat="49.44585" lon="3.78973">
        <ele>145.78</ele>
        <time>2017-04-29T11:09:42Z</time>
      </trkpt>
      <trkpt lat="49.44583" lon="3.78972">
        <ele>145.78</ele>
        <time>2017-04-29T11:09:49Z</time>
      </trkpt>
      <trkpt lat="49.44579" lon="3.78972">
        <ele>145.3</ele>
        <time>2017-04-29T11:09:53Z</time>
      </trkpt>
      <trkpt lat="49.44572" lon="3.78967">
        <ele>144.82</ele>
        <time>2017-04-29T11:09:59Z</time>
      </trkpt>
      <trkpt lat="49.44572" lon="3.78961">
        <ele>145.78</ele>
        <time>2017-04-29T11:10:05Z</time>
      </trkpt>
      <trkpt lat="49.44571" lon="3.78961">
        <ele>144.82</ele>
        <time>2017-04-29T11:10:15Z</time>
      </trkpt>
      <trkpt lat="49.4457" lon="3.78962">
        <ele>144.82</ele>
        <time>2017-04-29T11:10:27Z</time>
      </trkpt>
      <trkpt lat="49.4457" lon="3.78961">
        <ele>144.82</ele>
        <time>2017-04-29T11:10:38Z</time>
      </trkpt>
      <trkpt lat="49.4457" lon="3.7896">
        <ele>144.82</ele>
        <time>2017-04-29T11:10:48Z</time>
      </trkpt>
      <trkpt lat="49.4457" lon="3.7896">
        <ele>145.3</ele>
        <time>2017-04-29T11:11:03Z</time>
      </trkpt>
      <trkpt lat="49.4457" lon="3.7896">
        <ele>145.3</ele>
        <time>2017-04-29T11:11:15Z</time>
      </trkpt>
      <trkpt lat="49.4457" lon="3.78959">
        <ele>145.3</ele>
        <time>2017-04-29T11:11:25Z</time>
      </trkpt>
      <trkpt lat="49.44571" lon="3.78959">
        <ele>145.3</ele>
        <time>2017-04-29T11:11:39Z</time>
      </trkpt>
      <trkpt lat="49.4457" lon="3.78956">
        <ele>145.78</ele>
        <time>2017-04-29T11:11:44Z</time>
      </trkpt>
      <trkpt lat="49.44569" lon="3.78955">
        <ele>145.78</ele>
        <time>2017-04-29T11:11:53Z</time>
      </trkpt>
      <trkpt lat="49.4457" lon="3.78955">
        <ele>145.78</ele>
        <time>2017-04-29T11:12:01Z</time>
      </trkpt>
      <trkpt lat="49.4457" lon="3.78953">
        <ele>146.26</ele>
        <time>2017-04-29T11:12:06Z</time>
      </trkpt>
      <trkpt lat="49.44571" lon="3.78952">
        <ele>146.26</ele>
        <time>2017-04-29T11:12:11Z</time>
      </trkpt>
      <trkpt lat="49.44571" lon="3.78951">
        <ele>146.26</ele>
        <time>2017-04-29T11:12:18Z</time>
      </trkpt>
      <trkpt lat="49.44571" lon="3.78951">
        <ele>146.26</ele>
        <time>2017-04-29T11:12:33Z</time>
      </trkpt>
      <trkpt lat="49.44572" lon="3.7895">
        <ele>145.78</ele>
        <time>2017-04-29T11:12:46Z</time>
      </trkpt>
      <trkpt lat="49.44573" lon="3.7895">
        <ele>145.78</ele>
        <time>2017-04-29T11:12:52Z</time>
      </trkpt>
      <trkpt lat="49.44575" lon="3.78948">
        <ele>146.26</ele>
        <time>2017-04-29T11:13:05Z</time>
      </trkpt>
      <trkpt lat="49.44575" lon="3.78947">
        <ele>146.26</ele>
        <time>2017-04-29T11:13:16Z</time>
      </trkpt>
      <trkpt lat="49.44574" lon="3.78947">
        <ele>146.26</ele>
        <time>2017-04-29T11:13:25Z</time>
      </trkpt>
      <trkpt lat="49.44572" lon="3.78948">
        <ele>145.78</ele>
        <time>2017-04-29T11:13:33Z</time>
      </trkpt>
      <trkpt lat="49.44571" lon="3.7895">
        <ele>145.78</ele>
        <time>2017-04-29T11:13:40Z</time>
      </trkpt>
      <trkpt lat="49.4457" lon="3.78951">
        <ele>145.78</ele>
        <time>2017-04-29T11:13:41Z</time>
      </trkpt>
      <trkpt lat="49.44568" lon="3.78958">
        <ele>145.78</ele>
        <time>2017-04-29T11:13:48Z</time>
      </trkpt>
      <trkpt lat="49.44568" lon="3.78964">
        <ele>145.3</ele>
        <time>2017-04-29T11:13:52Z</time>
      </trkpt>
      <trkpt lat="49.44565" lon="3.78964">
        <ele>145.3</ele>
        <time>2017-04-29T11:13:58Z</time>
      </trkpt>
      <trkpt lat="49.44564" lon="3.78965">
        <ele>145.78</ele>
        <time>2017-04-29T11:14:05Z</time>
      </trkpt>
      <trkpt lat="49.44564" lon="3.78965">
        <ele>145.3</ele>
        <time>2017-04-29T11:14:16Z</time>
      </trkpt>
      <trkpt lat="49.44564" lon="3.78966">
        <ele>144.82</ele>
        <time>2017-04-29T11:14:24Z</time>
      </trkpt>
      <trkpt lat="49.44564" lon="3.78966">
        <ele>144.34</ele>
        <time>2017-04-29T11:14:30Z</time>
      </trkpt>
      <trkpt lat="49.44563" lon="3.78967">
        <ele>144.34</ele>
        <time>2017-04-29T11:14:37Z</time>
      </trkpt>
      <trkpt lat="49.44559" lon="3.78968">
        <ele>144.34</ele>
        <time>2017-04-29T11:14:44Z</time>
      </trkpt>
      <trkpt lat="49.44554" lon="3.78971">
        <ele>143.37</ele>
        <time>2017-04-29T11:14:51Z</time>
      </trkpt>
      <trkpt lat="49.4455" lon="3.78973">
        <ele>143.37</ele>
        <time>2017-04-29T11:14:56Z</time>
      </trkpt>
      <trkpt lat="49.44547" lon="3.78974">
        <ele>143.37</ele>
        <time>2017-04-29T11:15:05Z</time>
      </trkpt>
      <trkpt lat="49.44544" lon="3.78974">
        <ele>143.37</ele>
        <time>2017-04-29T11:15:12Z</time>
      </trkpt>
      <trkpt lat="49.4454" lon="3.78974">
        <ele>143.37</ele>
        <time>2017-04-29T11:15:19Z</time>
      </trkpt>
      <trkpt lat="49.44538" lon="3.78974">
        <ele>142.89</ele>
        <time>2017-04-29T11:15:26Z</time>
      </trkpt>
      <trkpt lat="49.44537" lon="3.78973">
        <ele>142.89</ele>
        <time>2017-04-29T11:15:34Z</time>
      </trkpt>
      <trkpt lat="49.44537" lon="3.78973">
        <ele>142.89</ele>
        <time>2017-04-29T11:15:51Z</time>
      </trkpt>
      <trkpt lat="49.44536" lon="3.78973">
        <ele>142.89</ele>
        <time>2017-04-29T11:15:58Z</time>
      </trkpt>
      <trkpt lat="49.44536" lon="3.78973">
        <ele>142.89</ele>
        <time>2017-04-29T11:16:13Z</time>
      </trkpt>
      <trkpt lat="49.44535" lon="3.78974">
        <ele>142.89</ele>
        <time>2017-04-29T11:16:16Z</time>
      </trkpt>
      <trkpt lat="49.44534" lon="3.78976">
        <ele>142.89</ele>
        <time>2017-04-29T11:16:22Z</time>
      </trkpt>
      <trkpt lat="49.4453" lon="3.78979">
        <ele>142.89</ele>
        <time>2017-04-29T11:16:28Z</time>
      </trkpt>
      <trkpt lat="49.44529" lon="3.78983">
        <ele>143.37</ele>
        <time>2017-04-29T11:16:35Z</time>
      </trkpt>
      <trkpt lat="49.44528" lon="3.78985">
        <ele>143.37</ele>
        <time>2017-04-29T11:16:37Z</time>
      </trkpt>
      <trkpt lat="49.44523" lon="3.78992">
        <ele>143.85</ele>
        <time>2017-04-29T11:16:44Z</time>
      </trkpt>
      <trkpt lat="49.4452" lon="3.78994">
        <ele>142.41</ele>
        <time>2017-04-29T11:16:50Z</time>
      </trkpt>
      <trkpt lat="49.44513" lon="3.78999">
        <ele>141.93</ele>
        <time>2017-04-29T11:16:57Z</time>
      </trkpt>
      <trkpt lat="49.44508" lon="3.78999">
        <ele>142.41</ele>
        <time>2017-04-29T11:17:02Z</time>
      </trkpt>
      <trkpt lat="49.44505" lon="3.78999">
        <ele>142.89</ele>
        <time>2017-04-29T11:17:05Z</time>
      </trkpt>
      <trkpt lat="49.44499" lon="3.79">
        <ele>142.41</ele>
        <time>2017-04-29T11:17:12Z</time>
      </trkpt>
      <trkpt lat="49.44494" lon="3.79001">
        <ele>142.41</ele>
        <time>2017-04-29T11:17:19Z</time>
      </trkpt>
      <trkpt lat="49.44494" lon="3.79001">
        <ele>142.41</ele>
        <time>2017-04-29T11:17:26Z</time>
      </trkpt>
      <trkpt lat="49.44494" lon="3.79">
        <ele>142.41</ele>
        <time>2017-04-29T11:17:41Z</time>
      </trkpt>
      <trkpt lat="49.44494" lon="3.79001">
        <ele>142.41</ele>
        <time>2017-04-29T11:17:49Z</time>
      </trkpt>
      <trkpt lat="49.44493" lon="3.78998">
        <ele>141.93</ele>
        <time>2017-04-29T11:17:55Z</time>
      </trkpt>
      <trkpt lat="49.44492" lon="3.78993">
        <ele>141.45</ele>
        <time>2017-04-29T11:17:59Z</time>
      </trkpt>
      <trkpt lat="49.4449" lon="3.7899">
        <ele>142.89</ele>
        <time>2017-04-29T11:18:05Z</time>
      </trkpt>
      <trkpt lat="49.44491" lon="3.78986">
        <ele>141.45</ele>
        <time>2017-04-29T11:18:12Z</time>
      </trkpt>
      <trkpt lat="49.44493" lon="3.78981">
        <ele>140.97</ele>
        <time>2017-04-29T11:18:20Z</time>
      </trkpt>
      <trkpt lat="49.44493" lon="3.78976">
        <ele>140.49</ele>
        <time>2017-04-29T11:18:27Z</time>
      </trkpt>
      <trkpt lat="49.4449" lon="3.78971">
        <ele>138.57</ele>
        <time>2017-04-29T11:18:33Z</time>
      </trkpt>
      <trkpt lat="49.44489" lon="3.7897">
        <ele>138.09</ele>
        <time>2017-04-29T11:18:38Z</time>
      </trkpt>
      <trkpt lat="49.44489" lon="3.78964">
        <ele>137.13</ele>
        <time>2017-04-29T11:18:45Z</time>
      </trkpt>
      <trkpt lat="49.44488" lon="3.78955">
        <ele>136.64</ele>
        <time>2017-04-29T11:18:52Z</time>
      </trkpt>
      <trkpt lat="49.44488" lon="3.78953">
        <ele>136.64</ele>
        <time>2017-04-29T11:18:54Z</time>
      </trkpt>
      <trkpt lat="49.44487" lon="3.78948">
        <ele>135.68</ele>
        <time>2017-04-29T11:18:59Z</time>
      </trkpt>
      <trkpt lat="49.44487" lon="3.78942">
        <ele>135.68</ele>
        <time>2017-04-29T11:19:04Z</time>
      </trkpt>
      <trkpt lat="49.44489" lon="3.78932">
        <ele>135.68</ele>
        <time>2017-04-29T11:19:11Z</time>
      </trkpt>
      <trkpt lat="49.44489" lon="3.78921">
        <ele>134.72</ele>
        <time>2017-04-29T11:19:19Z</time>
      </trkpt>
      <trkpt lat="49.44487" lon="3.78915">
        <ele>133.76</ele>
        <time>2017-04-29T11:19:23Z</time>
      </trkpt>
      <trkpt lat="49.44487" lon="3.78914">
        <ele>133.28</ele>
        <time>2017-04-29T11:19:24Z</time>
      </trkpt>
      <trkpt lat="49.44482" lon="3.78906">
        <ele>131.84</ele>
        <time>2017-04-29T11:19:32Z</time>
      </trkpt>
      <trkpt lat="49.44482" lon="3.789">
        <ele>131.36</ele>
        <time>2017-04-29T11:19:39Z</time>
      </trkpt>
      <trkpt lat="49.44478" lon="3.78896">
        <ele>130.4</ele>
        <time>2017-04-29T11:19:46Z</time>
      </trkpt>
      <trkpt lat="49.44475" lon="3.7889">
        <ele>129.43</ele>
        <time>2017-04-29T11:19:53Z</time>
      </trkpt>
      <trkpt lat="49.44473" lon="3.78886">
        <ele>128.95</ele>
        <time>2017-04-29T11:20:01Z</time>
      </trkpt>
      <trkpt lat="49.44471" lon="3.78879">
        <ele>127.99</ele>
        <time>2017-04-29T11:20:07Z</time>
      </trkpt>
      <trkpt lat="49.4447" lon="3.78872">
        <ele>127.51</ele>
        <time>2017-04-29T11:20:13Z</time>
      </trkpt>
      <trkpt lat="49.44469" lon="3.78868">
        <ele>127.51</ele>
        <time>2017-04-29T11:20:20Z</time>
      </trkpt>
      <trkpt lat="49.44467" lon="3.78862">
        <ele>127.51</ele>
        <time>2017-04-29T11:20:26Z</time>
      </trkpt>
      <trkpt lat="49.44467" lon="3.7886">
        <ele>127.03</ele>
        <time>2017-04-29T11:20:27Z</time>
      </trkpt>
      <trkpt lat="49.44465" lon="3.78852">
        <ele>127.03</ele>
        <time>2017-04-29T11:20:33Z</time>
      </trkpt>
      <trkpt lat="49.44462" lon="3.78841">
        <ele>126.55</ele>
        <time>2017-04-29T11:20:41Z</time>
      </trkpt>
      <trkpt lat="49.44459" lon="3.78832">
        <ele>126.07</ele>
        <time>2017-04-29T11:20:49Z</time>
      </trkpt>
      <trkpt lat="49.44457" lon="3.78824">
        <ele>126.07</ele>
        <time>2017-04-29T11:20:54Z</time>
      </trkpt>
      <trkpt lat="49.44461" lon="3.78804">
        <ele>124.63</ele>
        <time>2017-04-29T11:21:02Z</time>
      </trkpt>
      <trkpt lat="49.4446" lon="3.78802">
        <ele>123.67</ele>
        <time>2017-04-29T11:21:05Z</time>
      </trkpt>
      <trkpt lat="49.44458" lon="3.78802">
        <ele>123.19</ele>
        <time>2017-04-29T11:21:07Z</time>
      </trkpt>
      <trkpt lat="49.44454" lon="3.78796">
        <ele>121.74</ele>
        <time>2017-04-29T11:21:13Z</time>
      </trkpt>
      <trkpt lat="49.44449" lon="3.78792">
        <ele>121.26</ele>
        <time>2017-04-29T11:21:20Z</time>
      </trkpt>
      <trkpt lat="49.44443" lon="3.78786">
        <ele>120.78</ele>
        <time>2017-04-29T11:21:27Z</time>
      </trkpt>
      <trkpt lat="49.44438" lon="3.7878">
        <ele>119.82</ele>
        <time>2017-04-29T11:21:33Z</time>
      </trkpt>
      <trkpt lat="49.44436" lon="3.78777">
        <ele>119.34</ele>
        <time>2017-04-29T11:21:36Z</time>
      </trkpt>
      <trkpt lat="49.44433" lon="3.78775">
        <ele>118.86</ele>
        <time>2017-04-29T11:21:44Z</time>
      </trkpt>
      <trkpt lat="49.44433" lon="3.78775">
        <ele>118.86</ele>
        <time>2017-04-29T11:21:49Z</time>
      </trkpt>
      <trkpt lat="49.44427" lon="3.78778">
        <ele>118.86</ele>
        <time>2017-04-29T11:21:55Z</time>
      </trkpt>
      <trkpt lat="49.44426" lon="3.78777">
        <ele>118.38</ele>
        <time>2017-04-29T11:21:57Z</time>
      </trkpt>
      <trkpt lat="49.44417" lon="3.78772">
        <ele>118.86</ele>
        <time>2017-04-29T11:22:06Z</time>
      </trkpt>
      <trkpt lat="49.44416" lon="3.78771">
        <ele>117.9</ele>
        <time>2017-04-29T11:22:07Z</time>
      </trkpt>
      <trkpt lat="49.44413" lon="3.78764">
        <ele>117.42</ele>
        <time>2017-04-29T11:22:13Z</time>
      </trkpt>
      <trkpt lat="49.44411" lon="3.78761">
        <ele>117.42</ele>
        <time>2017-04-29T11:22:20Z</time>
      </trkpt>
      <trkpt lat="49.4441" lon="3.7876">
        <ele>116.94</ele>
        <time>2017-04-29T11:22:33Z</time>
      </trkpt>
      <trkpt lat="49.44409" lon="3.78756">
        <ele>116.94</ele>
        <time>2017-04-29T11:22:39Z</time>
      </trkpt>
      <trkpt lat="49.44409" lon="3.78755">
        <ele>116.94</ele>
        <time>2017-04-29T11:22:46Z</time>
      </trkpt>
      <trkpt lat="49.4441" lon="3.78755">
        <ele>116.94</ele>
        <time>2017-04-29T11:23:02Z</time>
      </trkpt>
      <trkpt lat="49.4441" lon="3.78754">
        <ele>116.94</ele>
        <time>2017-04-29T11:23:23Z</time>
      </trkpt>
      <trkpt lat="49.44411" lon="3.78754">
        <ele>116.46</ele>
        <time>2017-04-29T11:23:31Z</time>
      </trkpt>
      <trkpt lat="49.4441" lon="3.78754">
        <ele>116.46</ele>
        <time>2017-04-29T11:23:47Z</time>
      </trkpt>
      <trkpt lat="49.4441" lon="3.78755">
        <ele>116.94</ele>
        <time>2017-04-29T11:23:54Z</time>
      </trkpt>
      <trkpt lat="49.44409" lon="3.78754">
        <ele>116.46</ele>
        <time>2017-04-29T11:24:00Z</time>
      </trkpt>
      <trkpt lat="49.44408" lon="3.78753">
        <ele>116.46</ele>
        <time>2017-04-29T11:24:09Z</time>
      </trkpt>
      <trkpt lat="49.44408" lon="3.78753">
        <ele>116.46</ele>
        <time>2017-04-29T11:24:21Z</time>
      </trkpt>
      <trkpt lat="49.44408" lon="3.78753">
        <ele>116.46</ele>
        <time>2017-04-29T11:24:33Z</time>
      </trkpt>
      <trkpt lat="49.44409" lon="3.78752">
        <ele>116.46</ele>
        <time>2017-04-29T11:24:47Z</time>
      </trkpt>
      <trkpt lat="49.44408" lon="3.78751">
        <ele>116.46</ele>
        <time>2017-04-29T11:24:59Z</time>
      </trkpt>
      <trkpt lat="49.44408" lon="3.78751">
        <ele>115.98</ele>
        <time>2017-04-29T11:25:13Z</time>
      </trkpt>
      <trkpt lat="49.44408" lon="3.78751">
        <ele>115.98</ele>
        <time>2017-04-29T11:25:21Z</time>
      </trkpt>
      <trkpt lat="49.44409" lon="3.78751">
        <ele>115.98</ele>
        <time>2017-04-29T11:25:29Z</time>
      </trkpt>
      <trkpt lat="49.44409" lon="3.78751">
        <ele>115.98</ele>
        <time>2017-04-29T11:25:42Z</time>
      </trkpt>
      <trkpt lat="49.44409" lon="3.78752">
        <ele>115.98</ele>
        <time>2017-04-29T11:25:55Z</time>
      </trkpt>
      <trkpt lat="49.44408" lon="3.78752">
        <ele>115.5</ele>
        <time>2017-04-29T11:26:03Z</time>
      </trkpt>
      <trkpt lat="49.44408" lon="3.78752">
        <ele>115.5</ele>
        <time>2017-04-29T11:26:12Z</time>
      </trkpt>
      <trkpt lat="49.44408" lon="3.78752">
        <ele>115.5</ele>
        <time>2017-04-29T11:26:26Z</time>
      </trkpt>
      <trkpt lat="49.44409" lon="3.78752">
        <ele>115.98</ele>
        <time>2017-04-29T11:26:38Z</time>
      </trkpt>
      <trkpt lat="49.44409" lon="3.78752">
        <ele>115.5</ele>
        <time>2017-04-29T11:26:48Z</time>
      </trkpt>
      <trkpt lat="49.44408" lon="3.78753">
        <ele>115.5</ele>
        <time>2017-04-29T11:26:54Z</time>
      </trkpt>
      <trkpt lat="49.44405" lon="3.78749">
        <ele>115.01</ele>
        <time>2017-04-29T11:27:01Z</time>
      </trkpt>
      <trkpt lat="49.44404" lon="3.78748">
        <ele>115.01</ele>
        <time>2017-04-29T11:27:03Z</time>
      </trkpt>
      <trkpt lat="49.44399" lon="3.78743">
        <ele>114.53</ele>
        <time>2017-04-29T11:27:10Z</time>
      </trkpt>
      <trkpt lat="49.44394" lon="3.78737">
        <ele>114.05</ele>
        <time>2017-04-29T11:27:17Z</time>
      </trkpt>
      <trkpt lat="49.44389" lon="3.7873">
        <ele>113.57</ele>
        <time>2017-04-29T11:27:24Z</time>
      </trkpt>
      <trkpt lat="49.44386" lon="3.78727">
        <ele>113.57</ele>
        <time>2017-04-29T11:27:29Z</time>
      </trkpt>
      <trkpt lat="49.44384" lon="3.78722">
        <ele>113.09</ele>
        <time>2017-04-29T11:27:33Z</time>
      </trkpt>
      <trkpt lat="49.44379" lon="3.78719">
        <ele>112.61</ele>
        <time>2017-04-29T11:27:38Z</time>
      </trkpt>
      <trkpt lat="49.44376" lon="3.78713">
        <ele>112.13</ele>
        <time>2017-04-29T11:27:44Z</time>
      </trkpt>
      <trkpt lat="49.44374" lon="3.78711">
        <ele>112.13</ele>
        <time>2017-04-29T11:27:46Z</time>
      </trkpt>
      <trkpt lat="49.44361" lon="3.78708">
        <ele>111.17</ele>
        <time>2017-04-29T11:27:55Z</time>
      </trkpt>
      <trkpt lat="49.44355" lon="3.78703">
        <ele>111.17</ele>
        <time>2017-04-29T11:28:01Z</time>
      </trkpt>
      <trkpt lat="49.44351" lon="3.78697">
        <ele>110.69</ele>
        <time>2017-04-29T11:28:07Z</time>
      </trkpt>
      <trkpt lat="49.44345" lon="3.78689">
        <ele>110.21</ele>
        <time>2017-04-29T11:28:14Z</time>
      </trkpt>
      <trkpt lat="49.4434" lon="3.78682">
        <ele>110.21</ele>
        <time>2017-04-29T11:28:21Z</time>
      </trkpt>
      <trkpt lat="49.44336" lon="3.78675">
        <ele>109.25</ele>
        <time>2017-04-29T11:28:28Z</time>
      </trkpt>
      <trkpt lat="49.44328" lon="3.78671">
        <ele>109.25</ele>
        <time>2017-04-29T11:28:36Z</time>
      </trkpt>
      <trkpt lat="49.44324" lon="3.78669">
        <ele>109.25</ele>
        <time>2017-04-29T11:28:40Z</time>
      </trkpt>
      <trkpt lat="49.44321" lon="3.78668">
        <ele>108.77</ele>
        <time>2017-04-29T11:28:43Z</time>
      </trkpt>
      <trkpt lat="49.44313" lon="3.78665">
        <ele>108.77</ele>
        <time>2017-04-29T11:28:50Z</time>
      </trkpt>
      <trkpt lat="49.44305" lon="3.78663">
        <ele>108.29</ele>
        <time>2017-04-29T11:28:57Z</time>
      </trkpt>
      <trkpt lat="49.44301" lon="3.78662">
        <ele>108.29</ele>
        <time>2017-04-29T11:29:01Z</time>
      </trkpt>
      <trkpt lat="49.44296" lon="3.7866">
        <ele>108.29</ele>
        <time>2017-04-29T11:29:07Z</time>
      </trkpt>
      <trkpt lat="49.44289" lon="3.78658">
        <ele>108.29</ele>
        <time>2017-04-29T11:29:13Z</time>
      </trkpt>
      <trkpt lat="49.44281" lon="3.78659">
        <ele>108.29</ele>
        <time>2017-04-29T11:29:20Z</time>
      </trkpt>
      <trkpt lat="49.44271" lon="3.7866">
        <ele>107.81</ele>
        <time>2017-04-29T11:29:28Z</time>
      </trkpt>
      <trkpt lat="49.44262" lon="3.78663">
        <ele>107.81</ele>
        <time>2017-04-29T11:29:34Z</time>
      </trkpt>
      <trkpt lat="49.44253" lon="3.78667">
        <ele>107.81</ele>
        <time>2017-04-29T11:29:40Z</time>
      </trkpt>
      <trkpt lat="49.44244" lon="3.78671">
        <ele>107.81</ele>
        <time>2017-04-29T11:29:46Z</time>
      </trkpt>
      <trkpt lat="49.44237" lon="3.78677">
        <ele>107.32</ele>
        <time>2017-04-29T11:29:53Z</time>
      </trkpt>
      <trkpt lat="49.44236" lon="3.78678">
        <ele>107.32</ele>
        <time>2017-04-29T11:29:54Z</time>
      </trkpt>
      <trkpt lat="49.44224" lon="3.78679">
        <ele>106.84</ele>
        <time>2017-04-29T11:30:03Z</time>
      </trkpt>
      <trkpt lat="49.44214" lon="3.78683">
        <ele>106.84</ele>
        <time>2017-04-29T11:30:09Z</time>
      </trkpt>
      <trkpt lat="49.4421" lon="3.78685">
        <ele>106.84</ele>
        <time>2017-04-29T11:30:11Z</time>
      </trkpt>
      <trkpt lat="49.44198" lon="3.78692">
        <ele>106.36</ele>
        <time>2017-04-29T11:30:20Z</time>
      </trkpt>
      <trkpt lat="49.44193" lon="3.78696">
        <ele>106.36</ele>
        <time>2017-04-29T11:30:25Z</time>
      </trkpt>
      <trkpt lat="49.44185" lon="3.78699">
        <ele>105.88</ele>
        <time>2017-04-29T11:30:31Z</time>
      </trkpt>
      <trkpt lat="49.44184" lon="3.787">
        <ele>105.88</ele>
        <time>2017-04-29T11:30:32Z</time>
      </trkpt>
      <trkpt lat="49.44181" lon="3.78703">
        <ele>105.88</ele>
        <time>2017-04-29T11:30:35Z</time>
      </trkpt>
      <trkpt lat="49.44176" lon="3.78705">
        <ele>105.88</ele>
        <time>2017-04-29T11:30:40Z</time>
      </trkpt>
      <trkpt lat="49.44172" lon="3.78707">
        <ele>105.88</ele>
        <time>2017-04-29T11:30:43Z</time>
      </trkpt>
      <trkpt lat="49.44165" lon="3.78708">
        <ele>105.4</ele>
        <time>2017-04-29T11:30:50Z</time>
      </trkpt>
      <trkpt lat="49.44158" lon="3.78709">
        <ele>104.92</ele>
        <time>2017-04-29T11:30:57Z</time>
      </trkpt>
      <trkpt lat="49.44157" lon="3.78709">
        <ele>104.92</ele>
        <time>2017-04-29T11:30:58Z</time>
      </trkpt>
      <trkpt lat="49.44149" lon="3.78709">
        <ele>104.44</ele>
        <time>2017-04-29T11:31:05Z</time>
      </trkpt>
      <trkpt lat="49.44142" lon="3.78707">
        <ele>103.96</ele>
        <time>2017-04-29T11:31:11Z</time>
      </trkpt>
      <trkpt lat="49.44139" lon="3.78706">
        <ele>103.96</ele>
        <time>2017-04-29T11:31:14Z</time>
      </trkpt>
      <trkpt lat="49.44131" lon="3.78704">
        <ele>103.96</ele>
        <time>2017-04-29T11:31:22Z</time>
      </trkpt>
      <trkpt lat="49.4413" lon="3.78704">
        <ele>103.96</ele>
        <time>2017-04-29T11:31:24Z</time>
      </trkpt>
      <trkpt lat="49.44122" lon="3.78701">
        <ele>103.48</ele>
        <time>2017-04-29T11:31:32Z</time>
      </trkpt>
      <trkpt lat="49.44117" lon="3.78699">
        <ele>103.48</ele>
        <time>2017-04-29T11:31:39Z</time>
      </trkpt>
      <trkpt lat="49.44107" lon="3.78698">
        <ele>103.48</ele>
        <time>2017-04-29T11:31:44Z</time>
      </trkpt>
      <trkpt lat="49.44104" lon="3.78694">
        <ele>103.96</ele>
        <time>2017-04-29T11:31:50Z</time>
      </trkpt>
      <trkpt lat="49.44103" lon="3.78695">
        <ele>103.96</ele>
        <time>2017-04-29T11:31:55Z</time>
      </trkpt>
      <trkpt lat="49.44103" lon="3.78696">
        <ele>103.48</ele>
        <time>2017-04-29T11:32:01Z</time>
      </trkpt>
      <trkpt lat="49.44101" lon="3.78696">
        <ele>103.48</ele>
        <time>2017-04-29T11:32:09Z</time>
      </trkpt>
      <trkpt lat="49.44099" lon="3.78696">
        <ele>103.48</ele>
        <time>2017-04-29T11:32:16Z</time>
      </trkpt>
      <trkpt lat="49.44095" lon="3.78694">
        <ele>103.48</ele>
        <time>2017-04-29T11:32:22Z</time>
      </trkpt>
      <trkpt lat="49.4409" lon="3.78692">
        <ele>103.48</ele>
        <time>2017-04-29T11:32:30Z</time>
      </trkpt>
      <trkpt lat="49.44085" lon="3.78689">
        <ele>103.48</ele>
        <time>2017-04-29T11:32:36Z</time>
      </trkpt>
      <trkpt lat="49.44079" lon="3.78685">
        <ele>103</ele>
        <time>2017-04-29T11:32:43Z</time>
      </trkpt>
      <trkpt lat="49.44074" lon="3.78682">
        <ele>102.52</ele>
        <time>2017-04-29T11:32:49Z</time>
      </trkpt>
      <trkpt lat="49.44065" lon="3.78681">
        <ele>102.52</ele>
        <time>2017-04-29T11:32:56Z</time>
      </trkpt>
      <trkpt lat="49.44064" lon="3.7868">
        <ele>102.52</ele>
        <time>2017-04-29T11:32:59Z</time>
      </trkpt>
      <trkpt lat="49.44062" lon="3.78681">
        <ele>102.52</ele>
        <time>2017-04-29T11:33:01Z</time>
      </trkpt>
      <trkpt lat="49.44055" lon="3.78679">
        <ele>102.04</ele>
        <time>2017-04-29T11:33:08Z</time>
      </trkpt>
      <trkpt lat="49.44053" lon="3.78679">
        <ele>102.04</ele>
        <time>2017-04-29T11:33:09Z</time>
      </trkpt>
      <trkpt lat="49.44051" lon="3.78677">
        <ele>102.04</ele>
        <time>2017-04-29T11:33:12Z</time>
      </trkpt>
      <trkpt lat="49.44045" lon="3.78675">
        <ele>101.56</ele>
        <time>2017-04-29T11:33:18Z</time>
      </trkpt>
      <trkpt lat="49.44042" lon="3.78674">
        <ele>101.56</ele>
        <time>2017-04-29T11:33:20Z</time>
      </trkpt>
      <trkpt lat="49.44041" lon="3.78673">
        <ele>101.08</ele>
        <time>2017-04-29T11:33:22Z</time>
      </trkpt>
      <trkpt lat="49.44032" lon="3.78669">
        <ele>101.08</ele>
        <time>2017-04-29T11:33:30Z</time>
      </trkpt>
      <trkpt lat="49.44027" lon="3.78668">
        <ele>100.6</ele>
        <time>2017-04-29T11:33:35Z</time>
      </trkpt>
      <trkpt lat="49.44025" lon="3.78667">
        <ele>100.6</ele>
        <time>2017-04-29T11:33:37Z</time>
      </trkpt>
      <trkpt lat="49.44021" lon="3.78666">
        <ele>100.6</ele>
        <time>2017-04-29T11:33:40Z</time>
      </trkpt>
      <trkpt lat="49.4402" lon="3.78663">
        <ele>100.11</ele>
        <time>2017-04-29T11:33:42Z</time>
      </trkpt>
      <trkpt lat="49.44011" lon="3.7866">
        <ele>99.63</ele>
        <time>2017-04-29T11:33:50Z</time>
      </trkpt>
      <trkpt lat="49.44008" lon="3.78658">
        <ele>99.63</ele>
        <time>2017-04-29T11:33:53Z</time>
      </trkpt>
      <trkpt lat="49.43999" lon="3.78653">
        <ele>99.15</ele>
        <time>2017-04-29T11:34:00Z</time>
      </trkpt>
      <trkpt lat="49.43996" lon="3.78651">
        <ele>98.67</ele>
        <time>2017-04-29T11:34:03Z</time>
      </trkpt>
      <trkpt lat="49.43986" lon="3.78645">
        <ele>98.19</ele>
        <time>2017-04-29T11:34:12Z</time>
      </trkpt>
      <trkpt lat="49.43978" lon="3.78642">
        <ele>97.71</ele>
        <time>2017-04-29T11:34:20Z</time>
      </trkpt>
      <trkpt lat="49.43974" lon="3.7864">
        <ele>97.71</ele>
        <time>2017-04-29T11:34:24Z</time>
      </trkpt>
      <trkpt lat="49.43972" lon="3.78637">
        <ele>97.71</ele>
        <time>2017-04-29T11:34:29Z</time>
      </trkpt>
      <trkpt lat="49.43969" lon="3.78634">
        <ele>97.23</ele>
        <time>2017-04-29T11:34:33Z</time>
      </trkpt>
      <trkpt lat="49.43958" lon="3.78631">
        <ele>96.75</ele>
        <time>2017-04-29T11:34:39Z</time>
      </trkpt>
      <trkpt lat="49.43957" lon="3.78631">
        <ele>96.75</ele>
        <time>2017-04-29T11:34:40Z</time>
      </trkpt>
      <trkpt lat="49.4395" lon="3.78632">
        <ele>96.75</ele>
        <time>2017-04-29T11:34:46Z</time>
      </trkpt>
      <trkpt lat="49.43946" lon="3.78629">
        <ele>96.27</ele>
        <time>2017-04-29T11:34:52Z</time>
      </trkpt>
      <trkpt lat="49.43941" lon="3.78625">
        <ele>96.27</ele>
        <time>2017-04-29T11:34:59Z</time>
      </trkpt>
      <trkpt lat="49.4394" lon="3.78625">
        <ele>95.79</ele>
        <time>2017-04-29T11:35:00Z</time>
      </trkpt>
      <trkpt lat="49.43936" lon="3.78623">
        <ele>95.79</ele>
        <time>2017-04-29T11:35:04Z</time>
      </trkpt>
      <trkpt lat="49.43933" lon="3.7862">
        <ele>95.31</ele>
        <time>2017-04-29T11:35:07Z</time>
      </trkpt>
      <trkpt lat="49.4393" lon="3.78619">
        <ele>95.31</ele>
        <time>2017-04-29T11:35:11Z</time>
      </trkpt>
      <trkpt lat="49.43921" lon="3.78614">
        <ele>94.83</ele>
        <time>2017-04-29T11:35:19Z</time>
      </trkpt>
      <trkpt lat="49.43914" lon="3.7861">
        <ele>94.35</ele>
        <time>2017-04-29T11:35:26Z</time>
      </trkpt>
      <trkpt lat="49.43911" lon="3.78606">
        <ele>94.35</ele>
        <time>2017-04-29T11:35:31Z</time>
      </trkpt>
      <trkpt lat="49.43909" lon="3.78604">
        <ele>94.35</ele>
        <time>2017-04-29T11:35:35Z</time>
      </trkpt>
      <trkpt lat="49.43905" lon="3.78604">
        <ele>94.35</ele>
        <time>2017-04-29T11:35:42Z</time>
      </trkpt>
      <trkpt lat="49.43902" lon="3.78601">
        <ele>93.87</ele>
        <time>2017-04-29T11:35:48Z</time>
      </trkpt>
      <trkpt lat="49.43895" lon="3.786">
        <ele>93.87</ele>
        <time>2017-04-29T11:35:56Z</time>
      </trkpt>
      <trkpt lat="49.43896" lon="3.78595">
        <ele>93.87</ele>
        <time>2017-04-29T11:36:03Z</time>
      </trkpt>
      <trkpt lat="49.43893" lon="3.78595">
        <ele>93.87</ele>
        <time>2017-04-29T11:36:09Z</time>
      </trkpt>
      <trkpt lat="49.43893" lon="3.78596">
        <ele>93.87</ele>
        <time>2017-04-29T11:36:14Z</time>
      </trkpt>
      <trkpt lat="49.43892" lon="3.78596">
        <ele>93.87</ele>
        <time>2017-04-29T11:36:18Z</time>
      </trkpt>
      <trkpt lat="49.43891" lon="3.78597">
        <ele>93.87</ele>
        <time>2017-04-29T11:36:25Z</time>
      </trkpt>
      <trkpt lat="49.4389" lon="3.78598">
        <ele>93.87</ele>
        <time>2017-04-29T11:36:41Z</time>
      </trkpt>
      <trkpt lat="49.43888" lon="3.78601">
        <ele>93.87</ele>
        <time>2017-04-29T11:36:47Z</time>
      </trkpt>
      <trkpt lat="49.43887" lon="3.78603">
        <ele>93.87</ele>
        <time>2017-04-29T11:36:53Z</time>
      </trkpt>
      <trkpt lat="49.43886" lon="3.78604">
        <ele>93.87</ele>
        <time>2017-04-29T11:37:02Z</time>
      </trkpt>
      <trkpt lat="49.43884" lon="3.78603">
        <ele>93.87</ele>
        <time>2017-04-29T11:37:07Z</time>
      </trkpt>
      <trkpt lat="49.43884" lon="3.78604">
        <ele>93.87</ele>
        <time>2017-04-29T11:37:18Z</time>
      </trkpt>
      <trkpt lat="49.43883" lon="3.78605">
        <ele>93.87</ele>
        <time>2017-04-29T11:37:30Z</time>
      </trkpt>
      <trkpt lat="49.43883" lon="3.78606">
        <ele>93.87</ele>
        <time>2017-04-29T11:37:41Z</time>
      </trkpt>
      <trkpt lat="49.43882" lon="3.78606">
        <ele>93.87</ele>
        <time>2017-04-29T11:37:51Z</time>
      </trkpt>
      <trkpt lat="49.43882" lon="3.78605">
        <ele>93.87</ele>
        <time>2017-04-29T11:37:57Z</time>
      </trkpt>
      <trkpt lat="49.43882" lon="3.78605">
        <ele>93.87</ele>
        <time>2017-04-29T11:38:06Z</time>
      </trkpt>
      <trkpt lat="49.43881" lon="3.78605">
        <ele>93.87</ele>
        <time>2017-04-29T11:38:15Z</time>
      </trkpt>
      <trkpt lat="49.43881" lon="3.78605">
        <ele>93.87</ele>
        <time>2017-04-29T11:38:29Z</time>
      </trkpt>
      <trkpt lat="49.4388" lon="3.78605">
        <ele>93.87</ele>
        <time>2017-04-29T11:38:44Z</time>
      </trkpt>
      <trkpt lat="49.4388" lon="3.78605">
        <ele>93.87</ele>
        <time>2017-04-29T11:38:53Z</time>
      </trkpt>
      <trkpt lat="49.4388" lon="3.78605">
        <ele>93.87</ele>
        <time>2017-04-29T11:39:01Z</time>
      </trkpt>
      <trkpt lat="49.4388" lon="3.78605">
        <ele>93.87</ele>
        <time>2017-04-29T11:39:14Z</time>
      </trkpt>
      <trkpt lat="49.4388" lon="3.78604">
        <ele>93.87</ele>
        <time>2017-04-29T11:39:21Z</time>
      </trkpt>
      <trkpt lat="49.43883" lon="3.7861">
        <ele>93.87</ele>
        <time>2017-04-29T11:39:27Z</time>
      </trkpt>
      <trkpt lat="49.43883" lon="3.78612">
        <ele>93.87</ele>
        <time>2017-04-29T11:39:28Z</time>
      </trkpt>
      <trkpt lat="49.43885" lon="3.78624">
        <ele>93.87</ele>
        <time>2017-04-29T11:39:36Z</time>
      </trkpt>
      <trkpt lat="49.43887" lon="3.78637">
        <ele>94.35</ele>
        <time>2017-04-29T11:39:43Z</time>
      </trkpt>
      <trkpt lat="49.43889" lon="3.78645">
        <ele>93.87</ele>
        <time>2017-04-29T11:39:48Z</time>
      </trkpt>
      <trkpt lat="49.4389" lon="3.78647">
        <ele>93.87</ele>
        <time>2017-04-29T11:39:50Z</time>
      </trkpt>
      <trkpt lat="49.43891" lon="3.7866">
        <ele>94.35</ele>
        <time>2017-04-29T11:39:58Z</time>
      </trkpt>
      <trkpt lat="49.43893" lon="3.78668">
        <ele>93.87</ele>
        <time>2017-04-29T11:40:04Z</time>
      </trkpt>
      <trkpt lat="49.43895" lon="3.7868">
        <ele>93.87</ele>
        <time>2017-04-29T11:40:13Z</time>
      </trkpt>
      <trkpt lat="49.43896" lon="3.78688">
        <ele>94.35</ele>
        <time>2017-04-29T11:40:18Z</time>
      </trkpt>
      <trkpt lat="49.43898" lon="3.78697">
        <ele>94.35</ele>
        <time>2017-04-29T11:40:23Z</time>
      </trkpt>
      <trkpt lat="49.43901" lon="3.78709">
        <ele>94.35</ele>
        <time>2017-04-29T11:40:31Z</time>
      </trkpt>
      <trkpt lat="49.43903" lon="3.78724">
        <ele>94.35</ele>
        <time>2017-04-29T11:40:39Z</time>
      </trkpt>
      <trkpt lat="49.43906" lon="3.78734">
        <ele>94.35</ele>
        <time>2017-04-29T11:40:46Z</time>
      </trkpt>
      <trkpt lat="49.43909" lon="3.78744">
        <ele>94.35</ele>
        <time>2017-04-29T11:40:53Z</time>
      </trkpt>
      <trkpt lat="49.43909" lon="3.78752">
        <ele>94.35</ele>
        <time>2017-04-29T11:40:58Z</time>
      </trkpt>
      <trkpt lat="49.43911" lon="3.78763">
        <ele>94.83</ele>
        <time>2017-04-29T11:41:04Z</time>
      </trkpt>
      <trkpt lat="49.43913" lon="3.78775">
        <ele>94.83</ele>
        <time>2017-04-29T11:41:11Z</time>
      </trkpt>
      <trkpt lat="49.43915" lon="3.78784">
        <ele>94.35</ele>
        <time>2017-04-29T11:41:17Z</time>
      </trkpt>
      <trkpt lat="49.43917" lon="3.78793">
        <ele>94.83</ele>
        <time>2017-04-29T11:41:23Z</time>
      </trkpt>
      <trkpt lat="49.43919" lon="3.78804">
        <ele>95.31</ele>
        <time>2017-04-29T11:41:31Z</time>
      </trkpt>
      <trkpt lat="49.43918" lon="3.78809">
        <ele>95.31</ele>
        <time>2017-04-29T11:41:34Z</time>
      </trkpt>
      <trkpt lat="49.43916" lon="3.78815">
        <ele>95.31</ele>
        <time>2017-04-29T11:41:38Z</time>
      </trkpt>
      <trkpt lat="49.43915" lon="3.78817">
        <ele>94.83</ele>
        <time>2017-04-29T11:41:40Z</time>
      </trkpt>
      <trkpt lat="49.43914" lon="3.7882">
        <ele>94.35</ele>
        <time>2017-04-29T11:41:42Z</time>
      </trkpt>
      <trkpt lat="49.43914" lon="3.78831">
        <ele>94.35</ele>
        <time>2017-04-29T11:41:48Z</time>
      </trkpt>
      <trkpt lat="49.43915" lon="3.78842">
        <ele>93.87</ele>
        <time>2017-04-29T11:41:54Z</time>
      </trkpt>
      <trkpt lat="49.43917" lon="3.78856">
        <ele>94.35</ele>
        <time>2017-04-29T11:42:00Z</time>
      </trkpt>
      <trkpt lat="49.4392" lon="3.7887">
        <ele>94.83</ele>
        <time>2017-04-29T11:42:07Z</time>
      </trkpt>
      <trkpt lat="49.43924" lon="3.7888">
        <ele>93.87</ele>
        <time>2017-04-29T11:42:14Z</time>
      </trkpt>
      <trkpt lat="49.43927" lon="3.78889">
        <ele>93.39</ele>
        <time>2017-04-29T11:42:20Z</time>
      </trkpt>
      <trkpt lat="49.43931" lon="3.78897">
        <ele>92.9</ele>
        <time>2017-04-29T11:42:25Z</time>
      </trkpt>
      <trkpt lat="49.43934" lon="3.78902">
        <ele>92.42</ele>
        <time>2017-04-29T11:42:30Z</time>
      </trkpt>
      <trkpt lat="49.4394" lon="3.78912">
        <ele>92.42</ele>
        <time>2017-04-29T11:42:36Z</time>
      </trkpt>
      <trkpt lat="49.43942" lon="3.78916">
        <ele>92.42</ele>
        <time>2017-04-29T11:42:39Z</time>
      </trkpt>
      <trkpt lat="49.43948" lon="3.78926">
        <ele>91.94</ele>
        <time>2017-04-29T11:42:46Z</time>
      </trkpt>
      <trkpt lat="49.43948" lon="3.78928">
        <ele>91.46</ele>
        <time>2017-04-29T11:42:52Z</time>
      </trkpt>
      <trkpt lat="49.43949" lon="3.78929">
        <ele>91.46</ele>
        <time>2017-04-29T11:43:02Z</time>
      </trkpt>
      <trkpt lat="49.43951" lon="3.78932">
        <ele>91.94</ele>
        <time>2017-04-29T11:43:07Z</time>
      </trkpt>
      <trkpt lat="49.43954" lon="3.78937">
        <ele>90.98</ele>
        <time>2017-04-29T11:43:14Z</time>
      </trkpt>
      <trkpt lat="49.43953" lon="3.78937">
        <ele>91.46</ele>
        <time>2017-04-29T11:43:27Z</time>
      </trkpt>
      <trkpt lat="49.43954" lon="3.78939">
        <ele>90.98</ele>
        <time>2017-04-29T11:43:33Z</time>
      </trkpt>
      <trkpt lat="49.43955" lon="3.7894">
        <ele>90.98</ele>
        <time>2017-04-29T11:43:47Z</time>
      </trkpt>
      <trkpt lat="49.43957" lon="3.78942">
        <ele>90.98</ele>
        <time>2017-04-29T11:43:50Z</time>
      </trkpt>
      <trkpt lat="49.43961" lon="3.78953">
        <ele>90.5</ele>
        <time>2017-04-29T11:43:57Z</time>
      </trkpt>
      <trkpt lat="49.43965" lon="3.78965">
        <ele>90.5</ele>
        <time>2017-04-29T11:44:04Z</time>
      </trkpt>
      <trkpt lat="49.43967" lon="3.78972">
        <ele>90.02</ele>
        <time>2017-04-29T11:44:10Z</time>
      </trkpt>
      <trkpt lat="49.43971" lon="3.78982">
        <ele>89.54</ele>
        <time>2017-04-29T11:44:16Z</time>
      </trkpt>
      <trkpt lat="49.43973" lon="3.78991">
        <ele>89.54</ele>
        <time>2017-04-29T11:44:22Z</time>
      </trkpt>
      <trkpt lat="49.43974" lon="3.78992">
        <ele>89.54</ele>
        <time>2017-04-29T11:44:24Z</time>
      </trkpt>
      <trkpt lat="49.43978" lon="3.7899">
        <ele>89.06</ele>
        <time>2017-04-29T11:44:28Z</time>
      </trkpt>
      <trkpt lat="49.43985" lon="3.78993">
        <ele>89.54</ele>
        <time>2017-04-29T11:44:34Z</time>
      </trkpt>
      <trkpt lat="49.43994" lon="3.78992">
        <ele>89.06</ele>
        <time>2017-04-29T11:44:43Z</time>
      </trkpt>
      <trkpt lat="49.43995" lon="3.78992">
        <ele>89.06</ele>
        <time>2017-04-29T11:44:44Z</time>
      </trkpt>
      <trkpt lat="49.44001" lon="3.78989">
        <ele>89.06</ele>
        <time>2017-04-29T11:44:50Z</time>
      </trkpt>
      <trkpt lat="49.44004" lon="3.78987">
        <ele>89.06</ele>
        <time>2017-04-29T11:44:53Z</time>
      </trkpt>
      <trkpt lat="49.44008" lon="3.78985">
        <ele>89.06</ele>
        <time>2017-04-29T11:44:57Z</time>
      </trkpt>
      <trkpt lat="49.44015" lon="3.7898">
        <ele>89.06</ele>
        <time>2017-04-29T11:45:03Z</time>
      </trkpt>
      <trkpt lat="49.44021" lon="3.78978">
        <ele>89.06</ele>
        <time>2017-04-29T11:45:10Z</time>
      </trkpt>
      <trkpt lat="49.44027" lon="3.78973">
        <ele>89.06</ele>
        <time>2017-04-29T11:45:16Z</time>
      </trkpt>
      <trkpt lat="49.44029" lon="3.78972">
        <ele>89.06</ele>
        <time>2017-04-29T11:45:19Z</time>
      </trkpt>
      <trkpt lat="49.44036" lon="3.78965">
        <ele>89.06</ele>
        <time>2017-04-29T11:45:27Z</time>
      </trkpt>
      <trkpt lat="49.44044" lon="3.78958">
        <ele>89.54</ele>
        <time>2017-04-29T11:45:34Z</time>
      </trkpt>
      <trkpt lat="49.4405" lon="3.78951">
        <ele>89.54</ele>
        <time>2017-04-29T11:45:41Z</time>
      </trkpt>
      <trkpt lat="49.44055" lon="3.78947">
        <ele>89.54</ele>
        <time>2017-04-29T11:45:47Z</time>
      </trkpt>
      <trkpt lat="49.44061" lon="3.7894">
        <ele>89.54</ele>
        <time>2017-04-29T11:45:53Z</time>
      </trkpt>
      <trkpt lat="49.44069" lon="3.7893">
        <ele>90.02</ele>
        <time>2017-04-29T11:46:02Z</time>
      </trkpt>
      <trkpt lat="49.44076" lon="3.78922">
        <ele>90.02</ele>
        <time>2017-04-29T11:46:10Z</time>
      </trkpt>
      <trkpt lat="49.44076" lon="3.7892">
        <ele>90.02</ele>
        <time>2017-04-29T11:46:11Z</time>
      </trkpt>
      <trkpt lat="49.44084" lon="3.78914">
        <ele>90.02</ele>
        <time>2017-04-29T11:46:18Z</time>
      </trkpt>
      <trkpt lat="49.44088" lon="3.78909">
        <ele>90.5</ele>
        <time>2017-04-29T11:46:24Z</time>
      </trkpt>
      <trkpt lat="49.44092" lon="3.78905">
        <ele>90.5</ele>
        <time>2017-04-29T11:46:30Z</time>
      </trkpt>
      <trkpt lat="49.44099" lon="3.78899">
        <ele>90.5</ele>
        <time>2017-04-29T11:46:35Z</time>
      </trkpt>
      <trkpt lat="49.44109" lon="3.78891">
        <ele>90.98</ele>
        <time>2017-04-29T11:46:44Z</time>
      </trkpt>
      <trkpt lat="49.44115" lon="3.78887">
        <ele>91.46</ele>
        <time>2017-04-29T11:46:50Z</time>
      </trkpt>
      <trkpt lat="49.44124" lon="3.78886">
        <ele>90.98</ele>
        <time>2017-04-29T11:46:58Z</time>
      </trkpt>
      <trkpt lat="49.44131" lon="3.78887">
        <ele>90.5</ele>
        <time>2017-04-29T11:47:04Z</time>
      </trkpt>
      <trkpt lat="49.44136" lon="3.78894">
        <ele>90.5</ele>
        <time>2017-04-29T11:47:10Z</time>
      </trkpt>
      <trkpt lat="49.44144" lon="3.78907">
        <ele>90.02</ele>
        <time>2017-04-29T11:47:19Z</time>
      </trkpt>
      <trkpt lat="49.44145" lon="3.78908">
        <ele>90.02</ele>
        <time>2017-04-29T11:47:20Z</time>
      </trkpt>
      <trkpt lat="49.4415" lon="3.78916">
        <ele>89.54</ele>
        <time>2017-04-29T11:47:26Z</time>
      </trkpt>
      <trkpt lat="49.44151" lon="3.78918">
        <ele>89.54</ele>
        <time>2017-04-29T11:47:27Z</time>
      </trkpt>
      <trkpt lat="49.44153" lon="3.78924">
        <ele>89.54</ele>
        <time>2017-04-29T11:47:30Z</time>
      </trkpt>
      <trkpt lat="49.44161" lon="3.78938">
        <ele>89.06</ele>
        <time>2017-04-29T11:47:39Z</time>
      </trkpt>
      <trkpt lat="49.44167" lon="3.78951">
        <ele>88.58</ele>
        <time>2017-04-29T11:47:48Z</time>
      </trkpt>
      <trkpt lat="49.44169" lon="3.78955">
        <ele>88.58</ele>
        <time>2017-04-29T11:47:51Z</time>
      </trkpt>
      <trkpt lat="49.44172" lon="3.78967">
        <ele>88.58</ele>
        <time>2017-04-29T11:47:58Z</time>
      </trkpt>
      <trkpt lat="49.44174" lon="3.78978">
        <ele>88.1</ele>
        <time>2017-04-29T11:48:04Z</time>
      </trkpt>
      <trkpt lat="49.44177" lon="3.78993">
        <ele>87.62</ele>
        <time>2017-04-29T11:48:12Z</time>
      </trkpt>
      <trkpt lat="49.44178" lon="3.79008">
        <ele>87.62</ele>
        <time>2017-04-29T11:48:20Z</time>
      </trkpt>
      <trkpt lat="49.44179" lon="3.7902">
        <ele>87.14</ele>
        <time>2017-04-29T11:48:27Z</time>
      </trkpt>
      <trkpt lat="49.4418" lon="3.79036">
        <ele>87.14</ele>
        <time>2017-04-29T11:48:35Z</time>
      </trkpt>
      <trkpt lat="49.44181" lon="3.79046">
        <ele>87.14</ele>
        <time>2017-04-29T11:48:40Z</time>
      </trkpt>
      <trkpt lat="49.44181" lon="3.79063">
        <ele>86.66</ele>
        <time>2017-04-29T11:48:49Z</time>
      </trkpt>
      <trkpt lat="49.4418" lon="3.79079">
        <ele>86.66</ele>
        <time>2017-04-29T11:48:57Z</time>
      </trkpt>
      <trkpt lat="49.44177" lon="3.79088">
        <ele>86.18</ele>
        <time>2017-04-29T11:49:02Z</time>
      </trkpt>
      <trkpt lat="49.44176" lon="3.79095">
        <ele>85.69</ele>
        <time>2017-04-29T11:49:07Z</time>
      </trkpt>
      <trkpt lat="49.44175" lon="3.79098">
        <ele>85.69</ele>
        <time>2017-04-29T11:49:10Z</time>
      </trkpt>
      <trkpt lat="49.44174" lon="3.79102">
        <ele>85.69</ele>
        <time>2017-04-29T11:49:13Z</time>
      </trkpt>
      <trkpt lat="49.4417" lon="3.79115">
        <ele>85.21</ele>
        <time>2017-04-29T11:49:21Z</time>
      </trkpt>
      <trkpt lat="49.44167" lon="3.79125">
        <ele>84.73</ele>
        <time>2017-04-29T11:49:26Z</time>
      </trkpt>
      <trkpt lat="49.44165" lon="3.79134">
        <ele>84.73</ele>
        <time>2017-04-29T11:49:32Z</time>
      </trkpt>
      <trkpt lat="49.44165" lon="3.79138">
        <ele>84.25</ele>
        <time>2017-04-29T11:49:35Z</time>
      </trkpt>
      <trkpt lat="49.44164" lon="3.79141">
        <ele>84.25</ele>
        <time>2017-04-29T11:49:37Z</time>
      </trkpt>
      <trkpt lat="49.4416" lon="3.79153">
        <ele>84.25</ele>
        <time>2017-04-29T11:49:43Z</time>
      </trkpt>
      <trkpt lat="49.4416" lon="3.79154">
        <ele>84.25</ele>
        <time>2017-04-29T11:49:44Z</time>
      </trkpt>
      <trkpt lat="49.44156" lon="3.79168">
        <ele>83.77</ele>
        <time>2017-04-29T11:49:51Z</time>
      </trkpt>
      <trkpt lat="49.44155" lon="3.79171">
        <ele>83.77</ele>
        <time>2017-04-29T11:49:53Z</time>
      </trkpt>
      <trkpt lat="49.44153" lon="3.79183">
        <ele>83.77</ele>
        <time>2017-04-29T11:50:01Z</time>
      </trkpt>
      <trkpt lat="49.44155" lon="3.79193">
        <ele>83.29</ele>
        <time>2017-04-29T11:50:07Z</time>
      </trkpt>
      <trkpt lat="49.44155" lon="3.79194">
        <ele>83.29</ele>
        <time>2017-04-29T11:50:08Z</time>
      </trkpt>
      <trkpt lat="49.44157" lon="3.79207">
        <ele>83.29</ele>
        <time>2017-04-29T11:50:15Z</time>
      </trkpt>
      <trkpt lat="49.44157" lon="3.79212">
        <ele>83.77</ele>
        <time>2017-04-29T11:50:20Z</time>
      </trkpt>
      <trkpt lat="49.44159" lon="3.7922">
        <ele>83.77</ele>
        <time>2017-04-29T11:50:27Z</time>
      </trkpt>
      <trkpt lat="49.44161" lon="3.7923">
        <ele>83.77</ele>
        <time>2017-04-29T11:50:34Z</time>
      </trkpt>
      <trkpt lat="49.44165" lon="3.79245">
        <ele>83.77</ele>
        <time>2017-04-29T11:50:40Z</time>
      </trkpt>
      <trkpt lat="49.44167" lon="3.79258">
        <ele>83.77</ele>
        <time>2017-04-29T11:50:45Z</time>
      </trkpt>
      <trkpt lat="49.44169" lon="3.79268">
        <ele>84.25</ele>
        <time>2017-04-29T11:50:50Z</time>
      </trkpt>
      <trkpt lat="49.44169" lon="3.79271">
        <ele>83.77</ele>
        <time>2017-04-29T11:50:52Z</time>
      </trkpt>
      <trkpt lat="49.44171" lon="3.79277">
        <ele>83.77</ele>
        <time>2017-04-29T11:50:55Z</time>
      </trkpt>
      <trkpt lat="49.44174" lon="3.7929">
        <ele>83.77</ele>
        <time>2017-04-29T11:51:02Z</time>
      </trkpt>
      <trkpt lat="49.44176" lon="3.79305">
        <ele>83.77</ele>
        <time>2017-04-29T11:51:10Z</time>
      </trkpt>
      <trkpt lat="49.44177" lon="3.79306">
        <ele>83.77</ele>
        <time>2017-04-29T11:51:11Z</time>
      </trkpt>
      <trkpt lat="49.4418" lon="3.79318">
        <ele>83.29</ele>
        <time>2017-04-29T11:51:17Z</time>
      </trkpt>
      <trkpt lat="49.44184" lon="3.79329">
        <ele>83.29</ele>
        <time>2017-04-29T11:51:24Z</time>
      </trkpt>
      <trkpt lat="49.44188" lon="3.79342">
        <ele>82.81</ele>
        <time>2017-04-29T11:51:31Z</time>
      </trkpt>
      <trkpt lat="49.44194" lon="3.79355">
        <ele>82.81</ele>
        <time>2017-04-29T11:51:40Z</time>
      </trkpt>
      <trkpt lat="49.44196" lon="3.79357">
        <ele>82.81</ele>
        <time>2017-04-29T11:51:42Z</time>
      </trkpt>
      <trkpt lat="49.44201" lon="3.79371">
        <ele>82.33</ele>
        <time>2017-04-29T11:51:50Z</time>
      </trkpt>
      <trkpt lat="49.44206" lon="3.79384">
        <ele>81.85</ele>
        <time>2017-04-29T11:51:58Z</time>
      </trkpt>
      <trkpt lat="49.44207" lon="3.79389">
        <ele>81.85</ele>
        <time>2017-04-29T11:52:01Z</time>
      </trkpt>
      <trkpt lat="49.4421" lon="3.79403">
        <ele>81.37</ele>
        <time>2017-04-29T11:52:08Z</time>
      </trkpt>
      <trkpt lat="49.44211" lon="3.79407">
        <ele>81.37</ele>
        <time>2017-04-29T11:52:12Z</time>
      </trkpt>
      <trkpt lat="49.4422" lon="3.7942">
        <ele>81.85</ele>
        <time>2017-04-29T11:52:21Z</time>
      </trkpt>
      <trkpt lat="49.44222" lon="3.79426">
        <ele>81.37</ele>
        <time>2017-04-29T11:52:24Z</time>
      </trkpt>
      <trkpt lat="49.44224" lon="3.79432">
        <ele>81.37</ele>
        <time>2017-04-29T11:52:27Z</time>
      </trkpt>
      <trkpt lat="49.44227" lon="3.79438">
        <ele>81.37</ele>
        <time>2017-04-29T11:52:31Z</time>
      </trkpt>
      <trkpt lat="49.44229" lon="3.79447">
        <ele>81.37</ele>
        <time>2017-04-29T11:52:37Z</time>
      </trkpt>
      <trkpt lat="49.44233" lon="3.79455">
        <ele>81.85</ele>
        <time>2017-04-29T11:52:43Z</time>
      </trkpt>
      <trkpt lat="49.44237" lon="3.79464">
        <ele>82.33</ele>
        <time>2017-04-29T11:52:49Z</time>
      </trkpt>
      <trkpt lat="49.44242" lon="3.79465">
        <ele>82.33</ele>
        <time>2017-04-29T11:52:52Z</time>
      </trkpt>
      <trkpt lat="49.44248" lon="3.79475">
        <ele>83.29</ele>
        <time>2017-04-29T11:53:00Z</time>
      </trkpt>
      <trkpt lat="49.44251" lon="3.7948">
        <ele>83.29</ele>
        <time>2017-04-29T11:53:04Z</time>
      </trkpt>
      <trkpt lat="49.44253" lon="3.79492">
        <ele>83.29</ele>
        <time>2017-04-29T11:53:10Z</time>
      </trkpt>
      <trkpt lat="49.44253" lon="3.79496">
        <ele>83.29</ele>
        <time>2017-04-29T11:53:12Z</time>
      </trkpt>
      <trkpt lat="49.44253" lon="3.79509">
        <ele>82.33</ele>
        <time>2017-04-29T11:53:19Z</time>
      </trkpt>
      <trkpt lat="49.44252" lon="3.79517">
        <ele>81.85</ele>
        <time>2017-04-29T11:53:23Z</time>
      </trkpt>
      <trkpt lat="49.44252" lon="3.79527">
        <ele>81.85</ele>
        <time>2017-04-29T11:53:28Z</time>
      </trkpt>
      <trkpt lat="49.4425" lon="3.79539">
        <ele>81.37</ele>
        <time>2017-04-29T11:53:34Z</time>
      </trkpt>
      <trkpt lat="49.44249" lon="3.79549">
        <ele>80.89</ele>
        <time>2017-04-29T11:53:39Z</time>
      </trkpt>
      <trkpt lat="49.44249" lon="3.79558">
        <ele>80.89</ele>
        <time>2017-04-29T11:53:43Z</time>
      </trkpt>
      <trkpt lat="49.44249" lon="3.79566">
        <ele>80.41</ele>
        <time>2017-04-29T11:53:47Z</time>
      </trkpt>
      <trkpt lat="49.44248" lon="3.79574">
        <ele>80.41</ele>
        <time>2017-04-29T11:53:51Z</time>
      </trkpt>
      <trkpt lat="49.44249" lon="3.79581">
        <ele>79.93</ele>
        <time>2017-04-29T11:53:55Z</time>
      </trkpt>
      <trkpt lat="49.4425" lon="3.79586">
        <ele>79.45</ele>
        <time>2017-04-29T11:53:58Z</time>
      </trkpt>
      <trkpt lat="49.44249" lon="3.79595">
        <ele>79.93</ele>
        <time>2017-04-29T11:54:03Z</time>
      </trkpt>
      <trkpt lat="49.44247" lon="3.79605">
        <ele>79.45</ele>
        <time>2017-04-29T11:54:08Z</time>
      </trkpt>
      <trkpt lat="49.44245" lon="3.79617">
        <ele>78.97</ele>
        <time>2017-04-29T11:54:14Z</time>
      </trkpt>
      <trkpt lat="49.44244" lon="3.79626">
        <ele>78.97</ele>
        <time>2017-04-29T11:54:19Z</time>
      </trkpt>
      <trkpt lat="49.44244" lon="3.79634">
        <ele>78.48</ele>
        <time>2017-04-29T11:54:24Z</time>
      </trkpt>
      <trkpt lat="49.44244" lon="3.79635">
        <ele>78.48</ele>
        <time>2017-04-29T11:54:25Z</time>
      </trkpt>
      <trkpt lat="49.4424" lon="3.79644">
        <ele>78.48</ele>
        <time>2017-04-29T11:54:30Z</time>
      </trkpt>
      <trkpt lat="49.44237" lon="3.79654">
        <ele>78.48</ele>
        <time>2017-04-29T11:54:35Z</time>
      </trkpt>
      <trkpt lat="49.44232" lon="3.79667">
        <ele>78</ele>
        <time>2017-04-29T11:54:42Z</time>
      </trkpt>
      <trkpt lat="49.44227" lon="3.79679">
        <ele>77.04</ele>
        <time>2017-04-29T11:54:49Z</time>
      </trkpt>
      <trkpt lat="49.44222" lon="3.79692">
        <ele>77.04</ele>
        <time>2017-04-29T11:54:56Z</time>
      </trkpt>
      <trkpt lat="49.44219" lon="3.79701">
        <ele>76.56</ele>
        <time>2017-04-29T11:55:02Z</time>
      </trkpt>
      <trkpt lat="49.44214" lon="3.79711">
        <ele>76.56</ele>
        <time>2017-04-29T11:55:08Z</time>
      </trkpt>
      <trkpt lat="49.44212" lon="3.79721">
        <ele>76.08</ele>
        <time>2017-04-29T11:55:13Z</time>
      </trkpt>
      <trkpt lat="49.44209" lon="3.7973">
        <ele>76.08</ele>
        <time>2017-04-29T11:55:18Z</time>
      </trkpt>
      <trkpt lat="49.44205" lon="3.79743">
        <ele>75.6</ele>
        <time>2017-04-29T11:55:25Z</time>
      </trkpt>
      <trkpt lat="49.44204" lon="3.79748">
        <ele>75.6</ele>
        <time>2017-04-29T11:55:28Z</time>
      </trkpt>
      <trkpt lat="49.44201" lon="3.79754">
        <ele>75.6</ele>
        <time>2017-04-29T11:55:33Z</time>
      </trkpt>
      <trkpt lat="49.44198" lon="3.79761">
        <ele>75.12</ele>
        <time>2017-04-29T11:55:38Z</time>
      </trkpt>
      <trkpt lat="49.44193" lon="3.79771">
        <ele>75.12</ele>
        <time>2017-04-29T11:55:45Z</time>
      </trkpt>
      <trkpt lat="49.44188" lon="3.79784">
        <ele>74.64</ele>
        <time>2017-04-29T11:55:52Z</time>
      </trkpt>
      <trkpt lat="49.44187" lon="3.79789">
        <ele>75.12</ele>
        <time>2017-04-29T11:55:55Z</time>
      </trkpt>
      <trkpt lat="49.44183" lon="3.79801">
        <ele>74.64</ele>
        <time>2017-04-29T11:56:01Z</time>
      </trkpt>
      <trkpt lat="49.44178" lon="3.79816">
        <ele>74.16</ele>
        <time>2017-04-29T11:56:10Z</time>
      </trkpt>
      <trkpt lat="49.44177" lon="3.79819">
        <ele>74.16</ele>
        <time>2017-04-29T11:56:11Z</time>
      </trkpt>
      <trkpt lat="49.44176" lon="3.79823">
        <ele>74.16</ele>
        <time>2017-04-29T11:56:13Z</time>
      </trkpt>
      <trkpt lat="49.44172" lon="3.79833">
        <ele>73.68</ele>
        <time>2017-04-29T11:56:18Z</time>
      </trkpt>
      <trkpt lat="49.44172" lon="3.79834">
        <ele>74.16</ele>
        <time>2017-04-29T11:56:19Z</time>
      </trkpt>
      <trkpt lat="49.44169" lon="3.7985">
        <ele>73.68</ele>
        <time>2017-04-29T11:56:28Z</time>
      </trkpt>
      <trkpt lat="49.44167" lon="3.7986">
        <ele>73.68</ele>
        <time>2017-04-29T11:56:34Z</time>
      </trkpt>
      <trkpt lat="49.44166" lon="3.79862">
        <ele>73.68</ele>
        <time>2017-04-29T11:56:35Z</time>
      </trkpt>
      <trkpt lat="49.44163" lon="3.7987">
        <ele>73.68</ele>
        <time>2017-04-29T11:56:39Z</time>
      </trkpt>
      <trkpt lat="49.44163" lon="3.79874">
        <ele>73.68</ele>
        <time>2017-04-29T11:56:41Z</time>
      </trkpt>
      <trkpt lat="49.4416" lon="3.79882">
        <ele>73.68</ele>
        <time>2017-04-29T11:56:46Z</time>
      </trkpt>
      <trkpt lat="49.44156" lon="3.79898">
        <ele>73.68</ele>
        <time>2017-04-29T11:56:55Z</time>
      </trkpt>
      <trkpt lat="49.44153" lon="3.79909">
        <ele>73.68</ele>
        <time>2017-04-29T11:57:01Z</time>
      </trkpt>
      <trkpt lat="49.44148" lon="3.79926">
        <ele>73.68</ele>
        <time>2017-04-29T11:57:10Z</time>
      </trkpt>
      <trkpt lat="49.44145" lon="3.79936">
        <ele>73.2</ele>
        <time>2017-04-29T11:57:16Z</time>
      </trkpt>
      <trkpt lat="49.44145" lon="3.79939">
        <ele>73.2</ele>
        <time>2017-04-29T11:57:18Z</time>
      </trkpt>
      <trkpt lat="49.44142" lon="3.79948">
        <ele>73.2</ele>
        <time>2017-04-29T11:57:23Z</time>
      </trkpt>
      <trkpt lat="49.44137" lon="3.79959">
        <ele>73.2</ele>
        <time>2017-04-29T11:57:30Z</time>
      </trkpt>
      <trkpt lat="49.44137" lon="3.79963">
        <ele>73.2</ele>
        <time>2017-04-29T11:57:32Z</time>
      </trkpt>
      <trkpt lat="49.4413" lon="3.79972">
        <ele>73.2</ele>
        <time>2017-04-29T11:57:39Z</time>
      </trkpt>
      <trkpt lat="49.44125" lon="3.79983">
        <ele>72.72</ele>
        <time>2017-04-29T11:57:46Z</time>
      </trkpt>
      <trkpt lat="49.44119" lon="3.7999">
        <ele>72.72</ele>
        <time>2017-04-29T11:57:52Z</time>
      </trkpt>
      <trkpt lat="49.44112" lon="3.79998">
        <ele>72.72</ele>
        <time>2017-04-29T11:57:59Z</time>
      </trkpt>
      <trkpt lat="49.44108" lon="3.80002">
        <ele>72.72</ele>
        <time>2017-04-29T11:58:03Z</time>
      </trkpt>
      <trkpt lat="49.44101" lon="3.80009">
        <ele>73.68</ele>
        <time>2017-04-29T11:58:10Z</time>
      </trkpt>
      <trkpt lat="49.44095" lon="3.80016">
        <ele>72.72</ele>
        <time>2017-04-29T11:58:16Z</time>
      </trkpt>
      <trkpt lat="49.44088" lon="3.80023">
        <ele>72.72</ele>
        <time>2017-04-29T11:58:23Z</time>
      </trkpt>
      <trkpt lat="49.4408" lon="3.80031">
        <ele>72.72</ele>
        <time>2017-04-29T11:58:31Z</time>
      </trkpt>
      <trkpt lat="49.44076" lon="3.80036">
        <ele>72.72</ele>
        <time>2017-04-29T11:58:35Z</time>
      </trkpt>
      <trkpt lat="49.44072" lon="3.80041">
        <ele>72.72</ele>
        <time>2017-04-29T11:58:39Z</time>
      </trkpt>
      <trkpt lat="49.44063" lon="3.80052">
        <ele>72.72</ele>
        <time>2017-04-29T11:58:48Z</time>
      </trkpt>
      <trkpt lat="49.44057" lon="3.80061">
        <ele>72.72</ele>
        <time>2017-04-29T11:58:55Z</time>
      </trkpt>
      <trkpt lat="49.44051" lon="3.80072">
        <ele>72.72</ele>
        <time>2017-04-29T11:59:02Z</time>
      </trkpt>
      <trkpt lat="49.44044" lon="3.80083">
        <ele>72.72</ele>
        <time>2017-04-29T11:59:10Z</time>
      </trkpt>
      <trkpt lat="49.44037" lon="3.80093">
        <ele>72.72</ele>
        <time>2017-04-29T11:59:18Z</time>
      </trkpt>
      <trkpt lat="49.44031" lon="3.80103">
        <ele>72.72</ele>
        <time>2017-04-29T11:59:24Z</time>
      </trkpt>
      <trkpt lat="49.44027" lon="3.80111">
        <ele>72.72</ele>
        <time>2017-04-29T11:59:29Z</time>
      </trkpt>
      <trkpt lat="49.44026" lon="3.80114">
        <ele>72.72</ele>
        <time>2017-04-29T11:59:31Z</time>
      </trkpt>
      <trkpt lat="49.44024" lon="3.80119">
        <ele>72.72</ele>
        <time>2017-04-29T11:59:35Z</time>
      </trkpt>
      <trkpt lat="49.44022" lon="3.80127">
        <ele>72.72</ele>
        <time>2017-04-29T11:59:42Z</time>
      </trkpt>
      <trkpt lat="49.44024" lon="3.80133">
        <ele>72.72</ele>
        <time>2017-04-29T11:59:47Z</time>
      </trkpt>
      <trkpt lat="49.44024" lon="3.80138">
        <ele>72.24</ele>
        <time>2017-04-29T11:59:53Z</time>
      </trkpt>
      <trkpt lat="49.44024" lon="3.80136">
        <ele>72.24</ele>
        <time>2017-04-29T12:00:06Z</time>
      </trkpt>
      <trkpt lat="49.44024" lon="3.80135">
        <ele>71.76</ele>
        <time>2017-04-29T12:00:14Z</time>
      </trkpt>
      <trkpt lat="49.44024" lon="3.80136">
        <ele>71.76</ele>
        <time>2017-04-29T12:00:21Z</time>
      </trkpt>
      <trkpt lat="49.44024" lon="3.80135">
        <ele>72.24</ele>
        <time>2017-04-29T12:00:33Z</time>
      </trkpt>
      <trkpt lat="49.44024" lon="3.80134">
        <ele>71.76</ele>
        <time>2017-04-29T12:00:47Z</time>
      </trkpt>
      <trkpt lat="49.44024" lon="3.80135">
        <ele>72.72</ele>
        <time>2017-04-29T12:00:55Z</time>
      </trkpt>
      <trkpt lat="49.44025" lon="3.80134">
        <ele>72.24</ele>
        <time>2017-04-29T12:01:04Z</time>
      </trkpt>
      <trkpt lat="49.44025" lon="3.80134">
        <ele>71.76</ele>
        <time>2017-04-29T12:01:10Z</time>
      </trkpt>
      <trkpt lat="49.44024" lon="3.80133">
        <ele>71.76</ele>
        <time>2017-04-29T12:01:16Z</time>
      </trkpt>
      <trkpt lat="49.44025" lon="3.80134">
        <ele>72.24</ele>
        <time>2017-04-29T12:01:28Z</time>
      </trkpt>
      <trkpt lat="49.44025" lon="3.80135">
        <ele>71.76</ele>
        <time>2017-04-29T12:01:34Z</time>
      </trkpt>
      <trkpt lat="49.44025" lon="3.80135">
        <ele>71.76</ele>
        <time>2017-04-29T12:01:44Z</time>
      </trkpt>
      <trkpt lat="49.44026" lon="3.80134">
        <ele>71.76</ele>
        <time>2017-04-29T12:02:00Z</time>
      </trkpt>
      <trkpt lat="49.44025" lon="3.80134">
        <ele>71.76</ele>
        <time>2017-04-29T12:02:12Z</time>
      </trkpt>
      <trkpt lat="49.44025" lon="3.80135">
        <ele>71.76</ele>
        <time>2017-04-29T12:02:31Z</time>
      </trkpt>
      <trkpt lat="49.44025" lon="3.80137">
        <ele>71.76</ele>
        <time>2017-04-29T12:02:46Z</time>
      </trkpt>
      <trkpt lat="49.44027" lon="3.80148">
        <ele>71.27</ele>
        <time>2017-04-29T12:02:54Z</time>
      </trkpt>
      <trkpt lat="49.44031" lon="3.80163">
        <ele>71.27</ele>
        <time>2017-04-29T12:03:02Z</time>
      </trkpt>
      <trkpt lat="49.44034" lon="3.80173">
        <ele>71.27</ele>
        <time>2017-04-29T12:03:09Z</time>
      </trkpt>
      <trkpt lat="49.44037" lon="3.80184">
        <ele>71.76</ele>
        <time>2017-04-29T12:03:15Z</time>
      </trkpt>
      <trkpt lat="49.4404" lon="3.80196">
        <ele>71.76</ele>
        <time>2017-04-29T12:03:22Z</time>
      </trkpt>
      <trkpt lat="49.44041" lon="3.80207">
        <ele>71.76</ele>
        <time>2017-04-29T12:03:28Z</time>
      </trkpt>
      <trkpt lat="49.44042" lon="3.80221">
        <ele>72.24</ele>
        <time>2017-04-29T12:03:36Z</time>
      </trkpt>
      <trkpt lat="49.44042" lon="3.80235">
        <ele>72.24</ele>
        <time>2017-04-29T12:03:43Z</time>
      </trkpt>
      <trkpt lat="49.4404" lon="3.80249">
        <ele>72.24</ele>
        <time>2017-04-29T12:03:50Z</time>
      </trkpt>
      <trkpt lat="49.44039" lon="3.80255">
        <ele>72.24</ele>
        <time>2017-04-29T12:03:53Z</time>
      </trkpt>
      <trkpt lat="49.44037" lon="3.80271">
        <ele>72.24</ele>
        <time>2017-04-29T12:04:01Z</time>
      </trkpt>
      <trkpt lat="49.44033" lon="3.80288">
        <ele>72.72</ele>
        <time>2017-04-29T12:04:10Z</time>
      </trkpt>
      <trkpt lat="49.44031" lon="3.80304">
        <ele>72.24</ele>
        <time>2017-04-29T12:04:18Z</time>
      </trkpt>
      <trkpt lat="49.4403" lon="3.80308">
        <ele>72.24</ele>
        <time>2017-04-29T12:04:20Z</time>
      </trkpt>
      <trkpt lat="49.44028" lon="3.80321">
        <ele>72.24</ele>
        <time>2017-04-29T12:04:27Z</time>
      </trkpt>
      <trkpt lat="49.44025" lon="3.80339">
        <ele>72.24</ele>
        <time>2017-04-29T12:04:36Z</time>
      </trkpt>
      <trkpt lat="49.44022" lon="3.80351">
        <ele>72.24</ele>
        <time>2017-04-29T12:04:43Z</time>
      </trkpt>
      <trkpt lat="49.44021" lon="3.80355">
        <ele>72.72</ele>
        <time>2017-04-29T12:04:45Z</time>
      </trkpt>
      <trkpt lat="49.44018" lon="3.80375">
        <ele>72.72</ele>
        <time>2017-04-29T12:04:55Z</time>
      </trkpt>
      <trkpt lat="49.44016" lon="3.80389">
        <ele>72.72</ele>
        <time>2017-04-29T12:05:02Z</time>
      </trkpt>
      <trkpt lat="49.44013" lon="3.80403">
        <ele>72.24</ele>
        <time>2017-04-29T12:05:09Z</time>
      </trkpt>
      <trkpt lat="49.44009" lon="3.80417">
        <ele>72.72</ele>
        <time>2017-04-29T12:05:17Z</time>
      </trkpt>
      <trkpt lat="49.44006" lon="3.80432">
        <ele>72.72</ele>
        <time>2017-04-29T12:05:25Z</time>
      </trkpt>
      <trkpt lat="49.44002" lon="3.80451">
        <ele>72.24</ele>
        <time>2017-04-29T12:05:34Z</time>
      </trkpt>
      <trkpt lat="49.43999" lon="3.80466">
        <ele>72.24</ele>
        <time>2017-04-29T12:05:42Z</time>
      </trkpt>
      <trkpt lat="49.43994" lon="3.80482">
        <ele>72.72</ele>
        <time>2017-04-29T12:05:51Z</time>
      </trkpt>
      <trkpt lat="49.43992" lon="3.80498">
        <ele>73.2</ele>
        <time>2017-04-29T12:05:59Z</time>
      </trkpt>
      <trkpt lat="49.43988" lon="3.80517">
        <ele>73.2</ele>
        <time>2017-04-29T12:06:09Z</time>
      </trkpt>
      <trkpt lat="49.43985" lon="3.80532">
        <ele>72.72</ele>
        <time>2017-04-29T12:06:17Z</time>
      </trkpt>
      <trkpt lat="49.43982" lon="3.80546">
        <ele>72.72</ele>
        <time>2017-04-29T12:06:24Z</time>
      </trkpt>
      <trkpt lat="49.43982" lon="3.80553">
        <ele>72.72</ele>
        <time>2017-04-29T12:06:28Z</time>
      </trkpt>
      <trkpt lat="49.43978" lon="3.80566">
        <ele>72.72</ele>
        <time>2017-04-29T12:06:36Z</time>
      </trkpt>
      <trkpt lat="49.43974" lon="3.80578">
        <ele>73.2</ele>
        <time>2017-04-29T12:06:43Z</time>
      </trkpt>
      <trkpt lat="49.43974" lon="3.8058">
        <ele>73.2</ele>
        <time>2017-04-29T12:06:44Z</time>
      </trkpt>
      <trkpt lat="49.43973" lon="3.80582">
        <ele>73.68</ele>
        <time>2017-04-29T12:06:46Z</time>
      </trkpt>
      <trkpt lat="49.43972" lon="3.80586">
        <ele>72.24</ele>
        <time>2017-04-29T12:06:53Z</time>
      </trkpt>
      <trkpt lat="49.43971" lon="3.8059">
        <ele>73.2</ele>
        <time>2017-04-29T12:06:59Z</time>
      </trkpt>
      <trkpt lat="49.4397" lon="3.80599">
        <ele>72.24</ele>
        <time>2017-04-29T12:07:04Z</time>
      </trkpt>
      <trkpt lat="49.43966" lon="3.80613">
        <ele>71.76</ele>
        <time>2017-04-29T12:07:12Z</time>
      </trkpt>
      <trkpt lat="49.43964" lon="3.80626">
        <ele>71.27</ele>
        <time>2017-04-29T12:07:19Z</time>
      </trkpt>
      <trkpt lat="49.43963" lon="3.8063">
        <ele>71.27</ele>
        <time>2017-04-29T12:07:21Z</time>
      </trkpt>
      <trkpt lat="49.4396" lon="3.80635">
        <ele>71.27</ele>
        <time>2017-04-29T12:07:24Z</time>
      </trkpt>
      <trkpt lat="49.43958" lon="3.80648">
        <ele>71.27</ele>
        <time>2017-04-29T12:07:31Z</time>
      </trkpt>
      <trkpt lat="49.43956" lon="3.80659">
        <ele>70.79</ele>
        <time>2017-04-29T12:07:37Z</time>
      </trkpt>
      <trkpt lat="49.43953" lon="3.8067">
        <ele>71.27</ele>
        <time>2017-04-29T12:07:42Z</time>
      </trkpt>
      <trkpt lat="49.43951" lon="3.80682">
        <ele>71.27</ele>
        <time>2017-04-29T12:07:49Z</time>
      </trkpt>
      <trkpt lat="49.43949" lon="3.80696">
        <ele>71.27</ele>
        <time>2017-04-29T12:07:56Z</time>
      </trkpt>
      <trkpt lat="49.43948" lon="3.80698">
        <ele>70.79</ele>
        <time>2017-04-29T12:07:57Z</time>
      </trkpt>
      <trkpt lat="49.43948" lon="3.80703">
        <ele>70.79</ele>
        <time>2017-04-29T12:08:00Z</time>
      </trkpt>
      <trkpt lat="49.43945" lon="3.80718">
        <ele>71.27</ele>
        <time>2017-04-29T12:08:08Z</time>
      </trkpt>
      <trkpt lat="49.43944" lon="3.80721">
        <ele>71.27</ele>
        <time>2017-04-29T12:08:09Z</time>
      </trkpt>
      <trkpt lat="49.43942" lon="3.80736">
        <ele>71.27</ele>
        <time>2017-04-29T12:08:17Z</time>
      </trkpt>
      <trkpt lat="49.43942" lon="3.80737">
        <ele>71.27</ele>
        <time>2017-04-29T12:08:18Z</time>
      </trkpt>
      <trkpt lat="49.43941" lon="3.80744">
        <ele>71.27</ele>
        <time>2017-04-29T12:08:22Z</time>
      </trkpt>
      <trkpt lat="49.43937" lon="3.80758">
        <ele>71.27</ele>
        <time>2017-04-29T12:08:30Z</time>
      </trkpt>
      <trkpt lat="49.43933" lon="3.80768">
        <ele>71.76</ele>
        <time>2017-04-29T12:08:36Z</time>
      </trkpt>
      <trkpt lat="49.43928" lon="3.80783">
        <ele>71.76</ele>
        <time>2017-04-29T12:08:43Z</time>
      </trkpt>
      <trkpt lat="49.43926" lon="3.80793">
        <ele>71.76</ele>
        <time>2017-04-29T12:08:48Z</time>
      </trkpt>
      <trkpt lat="49.43923" lon="3.80799">
        <ele>71.76</ele>
        <time>2017-04-29T12:08:51Z</time>
      </trkpt>
      <trkpt lat="49.43921" lon="3.80807">
        <ele>71.76</ele>
        <time>2017-04-29T12:08:55Z</time>
      </trkpt>
      <trkpt lat="49.43919" lon="3.80814">
        <ele>72.24</ele>
        <time>2017-04-29T12:08:59Z</time>
      </trkpt>
      <trkpt lat="49.43917" lon="3.80825">
        <ele>72.24</ele>
        <time>2017-04-29T12:09:05Z</time>
      </trkpt>
      <trkpt lat="49.43915" lon="3.80835">
        <ele>72.24</ele>
        <time>2017-04-29T12:09:11Z</time>
      </trkpt>
      <trkpt lat="49.43911" lon="3.80845">
        <ele>72.24</ele>
        <time>2017-04-29T12:09:16Z</time>
      </trkpt>
      <trkpt lat="49.43909" lon="3.80853">
        <ele>72.24</ele>
        <time>2017-04-29T12:09:20Z</time>
      </trkpt>
      <trkpt lat="49.43908" lon="3.80859">
        <ele>72.72</ele>
        <time>2017-04-29T12:09:23Z</time>
      </trkpt>
      <trkpt lat="49.43905" lon="3.80869">
        <ele>72.24</ele>
        <time>2017-04-29T12:09:29Z</time>
      </trkpt>
      <trkpt lat="49.43901" lon="3.80884">
        <ele>72.24</ele>
        <time>2017-04-29T12:09:36Z</time>
      </trkpt>
      <trkpt lat="49.43898" lon="3.80889">
        <ele>72.72</ele>
        <time>2017-04-29T12:09:39Z</time>
      </trkpt>
      <trkpt lat="49.43894" lon="3.80903">
        <ele>72.72</ele>
        <time>2017-04-29T12:09:47Z</time>
      </trkpt>
      <trkpt lat="49.43894" lon="3.80907">
        <ele>72.72</ele>
        <time>2017-04-29T12:09:49Z</time>
      </trkpt>
      <trkpt lat="49.4389" lon="3.80919">
        <ele>72.24</ele>
        <time>2017-04-29T12:09:56Z</time>
      </trkpt>
      <trkpt lat="49.43885" lon="3.80933">
        <ele>72.24</ele>
        <time>2017-04-29T12:10:04Z</time>
      </trkpt>
      <trkpt lat="49.43883" lon="3.8094">
        <ele>72.24</ele>
        <time>2017-04-29T12:10:07Z</time>
      </trkpt>
      <trkpt lat="49.43879" lon="3.80949">
        <ele>72.24</ele>
        <time>2017-04-29T12:10:12Z</time>
      </trkpt>
      <trkpt lat="49.43878" lon="3.80957">
        <ele>72.24</ele>
        <time>2017-04-29T12:10:16Z</time>
      </trkpt>
      <trkpt lat="49.43874" lon="3.80964">
        <ele>72.24</ele>
        <time>2017-04-29T12:10:20Z</time>
      </trkpt>
      <trkpt lat="49.4387" lon="3.80975">
        <ele>72.24</ele>
        <time>2017-04-29T12:10:28Z</time>
      </trkpt>
      <trkpt lat="49.43868" lon="3.80979">
        <ele>72.24</ele>
        <time>2017-04-29T12:10:35Z</time>
      </trkpt>
      <trkpt lat="49.43867" lon="3.80983">
        <ele>72.24</ele>
        <time>2017-04-29T12:10:41Z</time>
      </trkpt>
      <trkpt lat="49.43866" lon="3.80984">
        <ele>72.24</ele>
        <time>2017-04-29T12:10:46Z</time>
      </trkpt>
      <trkpt lat="49.43865" lon="3.80987">
        <ele>72.24</ele>
        <time>2017-04-29T12:10:48Z</time>
      </trkpt>
      <trkpt lat="49.43863" lon="3.80997">
        <ele>72.24</ele>
        <time>2017-04-29T12:10:56Z</time>
      </trkpt>
      <trkpt lat="49.43859" lon="3.81005">
        <ele>71.76</ele>
        <time>2017-04-29T12:11:04Z</time>
      </trkpt>
      <trkpt lat="49.43858" lon="3.81008">
        <ele>71.76</ele>
        <time>2017-04-29T12:11:07Z</time>
      </trkpt>
      <trkpt lat="49.43857" lon="3.81012">
        <ele>71.76</ele>
        <time>2017-04-29T12:11:10Z</time>
      </trkpt>
      <trkpt lat="49.43852" lon="3.81025">
        <ele>71.76</ele>
        <time>2017-04-29T12:11:18Z</time>
      </trkpt>
      <trkpt lat="49.43849" lon="3.81036">
        <ele>71.76</ele>
        <time>2017-04-29T12:11:24Z</time>
      </trkpt>
      <trkpt lat="49.43845" lon="3.81047">
        <ele>71.76</ele>
        <time>2017-04-29T12:11:31Z</time>
      </trkpt>
      <trkpt lat="49.4384" lon="3.81057">
        <ele>71.76</ele>
        <time>2017-04-29T12:11:37Z</time>
      </trkpt>
      <trkpt lat="49.43838" lon="3.81068">
        <ele>71.76</ele>
        <time>2017-04-29T12:11:43Z</time>
      </trkpt>
      <trkpt lat="49.43836" lon="3.81076">
        <ele>71.76</ele>
        <time>2017-04-29T12:11:48Z</time>
      </trkpt>
      <trkpt lat="49.43832" lon="3.81089">
        <ele>71.76</ele>
        <time>2017-04-29T12:11:55Z</time>
      </trkpt>
      <trkpt lat="49.4383" lon="3.81101">
        <ele>71.76</ele>
        <time>2017-04-29T12:12:02Z</time>
      </trkpt>
      <trkpt lat="49.43827" lon="3.81114">
        <ele>71.76</ele>
        <time>2017-04-29T12:12:09Z</time>
      </trkpt>
      <trkpt lat="49.43826" lon="3.8112">
        <ele>71.27</ele>
        <time>2017-04-29T12:12:12Z</time>
      </trkpt>
      <trkpt lat="49.4382" lon="3.81136">
        <ele>71.27</ele>
        <time>2017-04-29T12:12:21Z</time>
      </trkpt>
      <trkpt lat="49.43816" lon="3.81146">
        <ele>71.27</ele>
        <time>2017-04-29T12:12:27Z</time>
      </trkpt>
      <trkpt lat="49.43815" lon="3.81161">
        <ele>71.27</ele>
        <time>2017-04-29T12:12:35Z</time>
      </trkpt>
      <trkpt lat="49.43815" lon="3.81163">
        <ele>71.27</ele>
        <time>2017-04-29T12:12:36Z</time>
      </trkpt>
      <trkpt lat="49.43813" lon="3.81169">
        <ele>71.27</ele>
        <time>2017-04-29T12:12:39Z</time>
      </trkpt>
      <trkpt lat="49.43809" lon="3.81182">
        <ele>71.27</ele>
        <time>2017-04-29T12:12:46Z</time>
      </trkpt>
      <trkpt lat="49.43808" lon="3.81186">
        <ele>71.27</ele>
        <time>2017-04-29T12:12:48Z</time>
      </trkpt>
      <trkpt lat="49.43803" lon="3.81201">
        <ele>71.27</ele>
        <time>2017-04-29T12:12:56Z</time>
      </trkpt>
      <trkpt lat="49.43802" lon="3.81205">
        <ele>71.27</ele>
        <time>2017-04-29T12:12:58Z</time>
      </trkpt>
      <trkpt lat="49.43799" lon="3.81219">
        <ele>71.27</ele>
        <time>2017-04-29T12:13:06Z</time>
      </trkpt>
      <trkpt lat="49.43797" lon="3.81231">
        <ele>70.79</ele>
        <time>2017-04-29T12:13:12Z</time>
      </trkpt>
      <trkpt lat="49.43794" lon="3.81245">
        <ele>70.79</ele>
        <time>2017-04-29T12:13:19Z</time>
      </trkpt>
      <trkpt lat="49.43794" lon="3.81249">
        <ele>70.79</ele>
        <time>2017-04-29T12:13:21Z</time>
      </trkpt>
      <trkpt lat="49.4379" lon="3.81263">
        <ele>70.79</ele>
        <time>2017-04-29T12:13:28Z</time>
      </trkpt>
      <trkpt lat="49.43788" lon="3.81267">
        <ele>70.79</ele>
        <time>2017-04-29T12:13:30Z</time>
      </trkpt>
      <trkpt lat="49.43782" lon="3.81285">
        <ele>70.79</ele>
        <time>2017-04-29T12:13:39Z</time>
      </trkpt>
      <trkpt lat="49.43781" lon="3.81295">
        <ele>70.79</ele>
        <time>2017-04-29T12:13:44Z</time>
      </trkpt>
      <trkpt lat="49.43778" lon="3.8131">
        <ele>70.79</ele>
        <time>2017-04-29T12:13:52Z</time>
      </trkpt>
      <trkpt lat="49.43777" lon="3.81316">
        <ele>70.31</ele>
        <time>2017-04-29T12:13:55Z</time>
      </trkpt>
      <trkpt lat="49.43775" lon="3.81329">
        <ele>70.31</ele>
        <time>2017-04-29T12:14:02Z</time>
      </trkpt>
      <trkpt lat="49.43773" lon="3.81341">
        <ele>70.31</ele>
        <time>2017-04-29T12:14:08Z</time>
      </trkpt>
      <trkpt lat="49.43772" lon="3.81353">
        <ele>70.79</ele>
        <time>2017-04-29T12:14:14Z</time>
      </trkpt>
      <trkpt lat="49.43771" lon="3.81357">
        <ele>70.79</ele>
        <time>2017-04-29T12:14:16Z</time>
      </trkpt>
      <trkpt lat="49.4377" lon="3.81365">
        <ele>70.79</ele>
        <time>2017-04-29T12:14:20Z</time>
      </trkpt>
      <trkpt lat="49.43768" lon="3.81378">
        <ele>70.31</ele>
        <time>2017-04-29T12:14:27Z</time>
      </trkpt>
      <trkpt lat="49.43767" lon="3.81382">
        <ele>70.31</ele>
        <time>2017-04-29T12:14:29Z</time>
      </trkpt>
      <trkpt lat="49.43765" lon="3.81397">
        <ele>70.31</ele>
        <time>2017-04-29T12:14:36Z</time>
      </trkpt>
      <trkpt lat="49.43763" lon="3.81416">
        <ele>70.31</ele>
        <time>2017-04-29T12:14:45Z</time>
      </trkpt>
      <trkpt lat="49.43762" lon="3.81419">
        <ele>70.31</ele>
        <time>2017-04-29T12:14:47Z</time>
      </trkpt>
      <trkpt lat="49.4376" lon="3.81437">
        <ele>70.31</ele>
        <time>2017-04-29T12:14:55Z</time>
      </trkpt>
      <trkpt lat="49.4376" lon="3.8144">
        <ele>70.31</ele>
        <time>2017-04-29T12:14:57Z</time>
      </trkpt>
      <trkpt lat="49.43759" lon="3.81444">
        <ele>70.31</ele>
        <time>2017-04-29T12:14:59Z</time>
      </trkpt>
      <trkpt lat="49.43756" lon="3.8146">
        <ele>69.83</ele>
        <time>2017-04-29T12:15:07Z</time>
      </trkpt>
      <trkpt lat="49.43755" lon="3.81464">
        <ele>70.31</ele>
        <time>2017-04-29T12:15:09Z</time>
      </trkpt>
      <trkpt lat="49.43752" lon="3.81478">
        <ele>69.83</ele>
        <time>2017-04-29T12:15:16Z</time>
      </trkpt>
      <trkpt lat="49.43751" lon="3.81484">
        <ele>69.83</ele>
        <time>2017-04-29T12:15:19Z</time>
      </trkpt>
      <trkpt lat="49.43749" lon="3.81498">
        <ele>69.83</ele>
        <time>2017-04-29T12:15:26Z</time>
      </trkpt>
      <trkpt lat="49.43749" lon="3.815">
        <ele>69.83</ele>
        <time>2017-04-29T12:15:27Z</time>
      </trkpt>
      <trkpt lat="49.43747" lon="3.81512">
        <ele>69.83</ele>
        <time>2017-04-29T12:15:33Z</time>
      </trkpt>
      <trkpt lat="49.43744" lon="3.81523">
        <ele>70.31</ele>
        <time>2017-04-29T12:15:38Z</time>
      </trkpt>
      <trkpt lat="49.43741" lon="3.81541">
        <ele>70.31</ele>
        <time>2017-04-29T12:15:47Z</time>
      </trkpt>
      <trkpt lat="49.43741" lon="3.81543">
        <ele>69.83</ele>
        <time>2017-04-29T12:15:48Z</time>
      </trkpt>
      <trkpt lat="49.43739" lon="3.81557">
        <ele>69.35</ele>
        <time>2017-04-29T12:15:55Z</time>
      </trkpt>
      <trkpt lat="49.43738" lon="3.81568">
        <ele>69.35</ele>
        <time>2017-04-29T12:16:01Z</time>
      </trkpt>
      <trkpt lat="49.43736" lon="3.81586">
        <ele>69.35</ele>
        <time>2017-04-29T12:16:10Z</time>
      </trkpt>
      <trkpt lat="49.43736" lon="3.81588">
        <ele>69.83</ele>
        <time>2017-04-29T12:16:11Z</time>
      </trkpt>
      <trkpt lat="49.43733" lon="3.81605">
        <ele>69.35</ele>
        <time>2017-04-29T12:16:19Z</time>
      </trkpt>
      <trkpt lat="49.43731" lon="3.81619">
        <ele>69.35</ele>
        <time>2017-04-29T12:16:26Z</time>
      </trkpt>
      <trkpt lat="49.43729" lon="3.81636">
        <ele>68.87</ele>
        <time>2017-04-29T12:16:34Z</time>
      </trkpt>
      <trkpt lat="49.43727" lon="3.8165">
        <ele>68.87</ele>
        <time>2017-04-29T12:16:41Z</time>
      </trkpt>
      <trkpt lat="49.43724" lon="3.81666">
        <ele>68.87</ele>
        <time>2017-04-29T12:16:49Z</time>
      </trkpt>
      <trkpt lat="49.43722" lon="3.8168">
        <ele>68.39</ele>
        <time>2017-04-29T12:16:56Z</time>
      </trkpt>
      <trkpt lat="49.43719" lon="3.81698">
        <ele>68.87</ele>
        <time>2017-04-29T12:17:05Z</time>
      </trkpt>
      <trkpt lat="49.43717" lon="3.81714">
        <ele>68.87</ele>
        <time>2017-04-29T12:17:13Z</time>
      </trkpt>
      <trkpt lat="49.43714" lon="3.81731">
        <ele>68.87</ele>
        <time>2017-04-29T12:17:22Z</time>
      </trkpt>
      <trkpt lat="49.43713" lon="3.81743">
        <ele>68.87</ele>
        <time>2017-04-29T12:17:28Z</time>
      </trkpt>
      <trkpt lat="49.43711" lon="3.81758">
        <ele>68.87</ele>
        <time>2017-04-29T12:17:36Z</time>
      </trkpt>
      <trkpt lat="49.43708" lon="3.81766">
        <ele>68.39</ele>
        <time>2017-04-29T12:17:44Z</time>
      </trkpt>
      <trkpt lat="49.43708" lon="3.81767">
        <ele>68.39</ele>
        <time>2017-04-29T12:17:52Z</time>
      </trkpt>
      <trkpt lat="49.43707" lon="3.81767">
        <ele>68.39</ele>
        <time>2017-04-29T12:17:58Z</time>
      </trkpt>
      <trkpt lat="49.43707" lon="3.81768">
        <ele>68.39</ele>
        <time>2017-04-29T12:18:10Z</time>
      </trkpt>
      <trkpt lat="49.43707" lon="3.81769">
        <ele>68.39</ele>
        <time>2017-04-29T12:18:25Z</time>
      </trkpt>
      <trkpt lat="49.43707" lon="3.81768">
        <ele>68.39</ele>
        <time>2017-04-29T12:18:42Z</time>
      </trkpt>
      <trkpt lat="49.43707" lon="3.81768">
        <ele>67.91</ele>
        <time>2017-04-29T12:18:56Z</time>
      </trkpt>
      <trkpt lat="49.43707" lon="3.81768">
        <ele>67.91</ele>
        <time>2017-04-29T12:19:11Z</time>
      </trkpt>
      <trkpt lat="49.43707" lon="3.81768">
        <ele>67.91</ele>
        <time>2017-04-29T12:19:25Z</time>
      </trkpt>
      <trkpt lat="49.43708" lon="3.81768">
        <ele>67.91</ele>
        <time>2017-04-29T12:19:31Z</time>
      </trkpt>
      <trkpt lat="49.43707" lon="3.81768">
        <ele>67.91</ele>
        <time>2017-04-29T12:19:38Z</time>
      </trkpt>
      <trkpt lat="49.43708" lon="3.81767">
        <ele>67.91</ele>
        <time>2017-04-29T12:19:48Z</time>
      </trkpt>
      <trkpt lat="49.43708" lon="3.81768">
        <ele>67.91</ele>
        <time>2017-04-29T12:19:53Z</time>
      </trkpt>
      <trkpt lat="49.43707" lon="3.81773">
        <ele>67.91</ele>
        <time>2017-04-29T12:19:56Z</time>
      </trkpt>
      <trkpt lat="49.43706" lon="3.81784">
        <ele>67.91</ele>
        <time>2017-04-29T12:20:05Z</time>
      </trkpt>
      <trkpt lat="49.43706" lon="3.81785">
        <ele>67.91</ele>
        <time>2017-04-29T12:20:14Z</time>
      </trkpt>
      <trkpt lat="49.43706" lon="3.81787">
        <ele>67.91</ele>
        <time>2017-04-29T12:20:23Z</time>
      </trkpt>
      <trkpt lat="49.43706" lon="3.8179">
        <ele>67.91</ele>
        <time>2017-04-29T12:20:25Z</time>
      </trkpt>
      <trkpt lat="49.43706" lon="3.81793">
        <ele>67.91</ele>
        <time>2017-04-29T12:20:27Z</time>
      </trkpt>
      <trkpt lat="49.43705" lon="3.81802">
        <ele>67.91</ele>
        <time>2017-04-29T12:20:33Z</time>
      </trkpt>
      <trkpt lat="49.43703" lon="3.8181">
        <ele>67.91</ele>
        <time>2017-04-29T12:20:38Z</time>
      </trkpt>
      <trkpt lat="49.43701" lon="3.81824">
        <ele>67.91</ele>
        <time>2017-04-29T12:20:46Z</time>
      </trkpt>
      <trkpt lat="49.437" lon="3.81828">
        <ele>67.91</ele>
        <time>2017-04-29T12:20:48Z</time>
      </trkpt>
      <trkpt lat="49.43698" lon="3.81845">
        <ele>67.91</ele>
        <time>2017-04-29T12:20:57Z</time>
      </trkpt>
      <trkpt lat="49.43696" lon="3.8186">
        <ele>67.91</ele>
        <time>2017-04-29T12:21:05Z</time>
      </trkpt>
      <trkpt lat="49.43694" lon="3.81878">
        <ele>68.39</ele>
        <time>2017-04-29T12:21:14Z</time>
      </trkpt>
      <trkpt lat="49.43692" lon="3.81897">
        <ele>67.91</ele>
        <time>2017-04-29T12:21:24Z</time>
      </trkpt>
      <trkpt lat="49.43689" lon="3.81911">
        <ele>67.91</ele>
        <time>2017-04-29T12:21:32Z</time>
      </trkpt>
      <trkpt lat="49.43688" lon="3.81925">
        <ele>67.91</ele>
        <time>2017-04-29T12:21:39Z</time>
      </trkpt>
      <trkpt lat="49.43685" lon="3.81942">
        <ele>67.91</ele>
        <time>2017-04-29T12:21:48Z</time>
      </trkpt>
      <trkpt lat="49.43683" lon="3.8196">
        <ele>67.91</ele>
        <time>2017-04-29T12:21:57Z</time>
      </trkpt>
      <trkpt lat="49.43681" lon="3.81975">
        <ele>67.91</ele>
        <time>2017-04-29T12:22:05Z</time>
      </trkpt>
      <trkpt lat="49.43679" lon="3.81994">
        <ele>67.91</ele>
        <time>2017-04-29T12:22:14Z</time>
      </trkpt>
      <trkpt lat="49.43677" lon="3.82009">
        <ele>67.91</ele>
        <time>2017-04-29T12:22:21Z</time>
      </trkpt>
      <trkpt lat="49.43675" lon="3.82024">
        <ele>67.91</ele>
        <time>2017-04-29T12:22:29Z</time>
      </trkpt>
      <trkpt lat="49.43673" lon="3.82038">
        <ele>67.91</ele>
        <time>2017-04-29T12:22:36Z</time>
      </trkpt>
      <trkpt lat="49.4367" lon="3.82053">
        <ele>67.91</ele>
        <time>2017-04-29T12:22:44Z</time>
      </trkpt>
      <trkpt lat="49.43668" lon="3.82071">
        <ele>67.43</ele>
        <time>2017-04-29T12:22:53Z</time>
      </trkpt>
      <trkpt lat="49.43664" lon="3.82095">
        <ele>67.43</ele>
        <time>2017-04-29T12:23:05Z</time>
      </trkpt>
      <trkpt lat="49.43663" lon="3.8211">
        <ele>67.43</ele>
        <time>2017-04-29T12:23:12Z</time>
      </trkpt>
      <trkpt lat="49.4366" lon="3.82128">
        <ele>66.95</ele>
        <time>2017-04-29T12:23:21Z</time>
      </trkpt>
      <trkpt lat="49.43658" lon="3.82143">
        <ele>66.95</ele>
        <time>2017-04-29T12:23:28Z</time>
      </trkpt>
      <trkpt lat="49.43656" lon="3.82158">
        <ele>66.95</ele>
        <time>2017-04-29T12:23:36Z</time>
      </trkpt>
      <trkpt lat="49.43655" lon="3.82177">
        <ele>66.95</ele>
        <time>2017-04-29T12:23:45Z</time>
      </trkpt>
      <trkpt lat="49.4365" lon="3.82193">
        <ele>66.95</ele>
        <time>2017-04-29T12:23:54Z</time>
      </trkpt>
      <trkpt lat="49.43649" lon="3.82207">
        <ele>66.95</ele>
        <time>2017-04-29T12:24:01Z</time>
      </trkpt>
      <trkpt lat="49.43644" lon="3.8223">
        <ele>67.43</ele>
        <time>2017-04-29T12:24:12Z</time>
      </trkpt>
      <trkpt lat="49.4364" lon="3.82246">
        <ele>66.95</ele>
        <time>2017-04-29T12:24:20Z</time>
      </trkpt>
      <trkpt lat="49.43636" lon="3.82265">
        <ele>66.47</ele>
        <time>2017-04-29T12:24:29Z</time>
      </trkpt>
      <trkpt lat="49.43632" lon="3.82278">
        <ele>66.47</ele>
        <time>2017-04-29T12:24:36Z</time>
      </trkpt>
      <trkpt lat="49.43628" lon="3.82298">
        <ele>65.99</ele>
        <time>2017-04-29T12:24:46Z</time>
      </trkpt>
      <trkpt lat="49.43625" lon="3.82313">
        <ele>65.99</ele>
        <time>2017-04-29T12:24:53Z</time>
      </trkpt>
      <trkpt lat="49.43621" lon="3.82328">
        <ele>65.99</ele>
        <time>2017-04-29T12:25:01Z</time>
      </trkpt>
      <trkpt lat="49.43617" lon="3.82344">
        <ele>65.99</ele>
        <time>2017-04-29T12:25:09Z</time>
      </trkpt>
      <trkpt lat="49.43615" lon="3.82359">
        <ele>65.99</ele>
        <time>2017-04-29T12:25:16Z</time>
      </trkpt>
      <trkpt lat="49.4361" lon="3.82372">
        <ele>65.99</ele>
        <time>2017-04-29T12:25:23Z</time>
      </trkpt>
      <trkpt lat="49.43607" lon="3.82389">
        <ele>65.51</ele>
        <time>2017-04-29T12:25:31Z</time>
      </trkpt>
      <trkpt lat="49.43604" lon="3.82403">
        <ele>65.99</ele>
        <time>2017-04-29T12:25:38Z</time>
      </trkpt>
      <trkpt lat="49.43603" lon="3.8241">
        <ele>65.51</ele>
        <time>2017-04-29T12:25:41Z</time>
      </trkpt>
      <trkpt lat="49.436" lon="3.82418">
        <ele>65.51</ele>
        <time>2017-04-29T12:25:46Z</time>
      </trkpt>
      <trkpt lat="49.43597" lon="3.82438">
        <ele>65.99</ele>
        <time>2017-04-29T12:25:56Z</time>
      </trkpt>
      <trkpt lat="49.43593" lon="3.82454">
        <ele>65.99</ele>
        <time>2017-04-29T12:26:04Z</time>
      </trkpt>
      <trkpt lat="49.43589" lon="3.8247">
        <ele>65.99</ele>
        <time>2017-04-29T12:26:12Z</time>
      </trkpt>
      <trkpt lat="49.43586" lon="3.82486">
        <ele>65.99</ele>
        <time>2017-04-29T12:26:20Z</time>
      </trkpt>
      <trkpt lat="49.43584" lon="3.82495">
        <ele>65.99</ele>
        <time>2017-04-29T12:26:24Z</time>
      </trkpt>
      <trkpt lat="49.43582" lon="3.82501">
        <ele>65.51</ele>
        <time>2017-04-29T12:26:27Z</time>
      </trkpt>
      <trkpt lat="49.43577" lon="3.8252">
        <ele>65.99</ele>
        <time>2017-04-29T12:26:37Z</time>
      </trkpt>
      <trkpt lat="49.43573" lon="3.82536">
        <ele>65.99</ele>
        <time>2017-04-29T12:26:45Z</time>
      </trkpt>
      <trkpt lat="49.43569" lon="3.82557">
        <ele>65.99</ele>
        <time>2017-04-29T12:26:55Z</time>
      </trkpt>
      <trkpt lat="49.43565" lon="3.82575">
        <ele>65.99</ele>
        <time>2017-04-29T12:27:04Z</time>
      </trkpt>
      <trkpt lat="49.43561" lon="3.82594">
        <ele>66.47</ele>
        <time>2017-04-29T12:27:13Z</time>
      </trkpt>
      <trkpt lat="49.43557" lon="3.82613">
        <ele>66.47</ele>
        <time>2017-04-29T12:27:23Z</time>
      </trkpt>
      <trkpt lat="49.43553" lon="3.82628">
        <ele>66.47</ele>
        <time>2017-04-29T12:27:31Z</time>
      </trkpt>
      <trkpt lat="49.4355" lon="3.82644">
        <ele>66.47</ele>
        <time>2017-04-29T12:27:39Z</time>
      </trkpt>
      <trkpt lat="49.43547" lon="3.8266">
        <ele>66.47</ele>
        <time>2017-04-29T12:27:47Z</time>
      </trkpt>
      <trkpt lat="49.43542" lon="3.82677">
        <ele>66.47</ele>
        <time>2017-04-29T12:27:56Z</time>
      </trkpt>
      <trkpt lat="49.43539" lon="3.82694">
        <ele>66.95</ele>
        <time>2017-04-29T12:28:04Z</time>
      </trkpt>
      <trkpt lat="49.43535" lon="3.8271">
        <ele>67.91</ele>
        <time>2017-04-29T12:28:13Z</time>
      </trkpt>
      <trkpt lat="49.4353" lon="3.82727">
        <ele>66.95</ele>
        <time>2017-04-29T12:28:22Z</time>
      </trkpt>
      <trkpt lat="49.43527" lon="3.82744">
        <ele>66.95</ele>
        <time>2017-04-29T12:28:31Z</time>
      </trkpt>
      <trkpt lat="49.43522" lon="3.82764">
        <ele>66.95</ele>
        <time>2017-04-29T12:28:41Z</time>
      </trkpt>
      <trkpt lat="49.43518" lon="3.82777">
        <ele>66.95</ele>
        <time>2017-04-29T12:28:48Z</time>
      </trkpt>
      <trkpt lat="49.43514" lon="3.82796">
        <ele>66.47</ele>
        <time>2017-04-29T12:28:57Z</time>
      </trkpt>
      <trkpt lat="49.43512" lon="3.82807">
        <ele>66.95</ele>
        <time>2017-04-29T12:29:03Z</time>
      </trkpt>
      <trkpt lat="49.43507" lon="3.82825">
        <ele>66.95</ele>
        <time>2017-04-29T12:29:12Z</time>
      </trkpt>
      <trkpt lat="49.43507" lon="3.82827">
        <ele>66.47</ele>
        <time>2017-04-29T12:29:13Z</time>
      </trkpt>
      <trkpt lat="49.43503" lon="3.82847">
        <ele>66.47</ele>
        <time>2017-04-29T12:29:23Z</time>
      </trkpt>
      <trkpt lat="49.43499" lon="3.82865">
        <ele>65.99</ele>
        <time>2017-04-29T12:29:32Z</time>
      </trkpt>
      <trkpt lat="49.43495" lon="3.82881">
        <ele>65.99</ele>
        <time>2017-04-29T12:29:40Z</time>
      </trkpt>
      <trkpt lat="49.43495" lon="3.82886">
        <ele>65.99</ele>
        <time>2017-04-29T12:29:42Z</time>
      </trkpt>
      <trkpt lat="49.43493" lon="3.82899">
        <ele>65.99</ele>
        <time>2017-04-29T12:29:48Z</time>
      </trkpt>
      <trkpt lat="49.4349" lon="3.82908">
        <ele>65.99</ele>
        <time>2017-04-29T12:29:53Z</time>
      </trkpt>
      <trkpt lat="49.43485" lon="3.82929">
        <ele>65.51</ele>
        <time>2017-04-29T12:30:04Z</time>
      </trkpt>
      <trkpt lat="49.43482" lon="3.82946">
        <ele>65.51</ele>
        <time>2017-04-29T12:30:12Z</time>
      </trkpt>
      <trkpt lat="49.43478" lon="3.82963">
        <ele>65.03</ele>
        <time>2017-04-29T12:30:20Z</time>
      </trkpt>
      <trkpt lat="49.43473" lon="3.8298">
        <ele>65.03</ele>
        <time>2017-04-29T12:30:29Z</time>
      </trkpt>
      <trkpt lat="49.4347" lon="3.82997">
        <ele>65.03</ele>
        <time>2017-04-29T12:30:37Z</time>
      </trkpt>
      <trkpt lat="49.43466" lon="3.83014">
        <ele>65.03</ele>
        <time>2017-04-29T12:30:45Z</time>
      </trkpt>
      <trkpt lat="49.43461" lon="3.83032">
        <ele>65.03</ele>
        <time>2017-04-29T12:30:54Z</time>
      </trkpt>
      <trkpt lat="49.43457" lon="3.83047">
        <ele>65.03</ele>
        <time>2017-04-29T12:31:02Z</time>
      </trkpt>
      <trkpt lat="49.43451" lon="3.83065">
        <ele>65.03</ele>
        <time>2017-04-29T12:31:11Z</time>
      </trkpt>
      <trkpt lat="49.43444" lon="3.83082">
        <ele>65.03</ele>
        <time>2017-04-29T12:31:20Z</time>
      </trkpt>
      <trkpt lat="49.43439" lon="3.83094">
        <ele>65.03</ele>
        <time>2017-04-29T12:31:27Z</time>
      </trkpt>
      <trkpt lat="49.43435" lon="3.83102">
        <ele>65.03</ele>
        <time>2017-04-29T12:31:32Z</time>
      </trkpt>
      <trkpt lat="49.43427" lon="3.83119">
        <ele>64.55</ele>
        <time>2017-04-29T12:31:41Z</time>
      </trkpt>
      <trkpt lat="49.4342" lon="3.83133">
        <ele>64.55</ele>
        <time>2017-04-29T12:31:50Z</time>
      </trkpt>
      <trkpt lat="49.43413" lon="3.83149">
        <ele>65.03</ele>
        <time>2017-04-29T12:31:59Z</time>
      </trkpt>
      <trkpt lat="49.43405" lon="3.83165">
        <ele>64.55</ele>
        <time>2017-04-29T12:32:08Z</time>
      </trkpt>
      <trkpt lat="49.43398" lon="3.83181">
        <ele>64.55</ele>
        <time>2017-04-29T12:32:17Z</time>
      </trkpt>
      <trkpt lat="49.4339" lon="3.83199">
        <ele>64.55</ele>
        <time>2017-04-29T12:32:27Z</time>
      </trkpt>
      <trkpt lat="49.43382" lon="3.83216">
        <ele>64.55</ele>
        <time>2017-04-29T12:32:37Z</time>
      </trkpt>
      <trkpt lat="49.43372" lon="3.83235">
        <ele>64.55</ele>
        <time>2017-04-29T12:32:48Z</time>
      </trkpt>
      <trkpt lat="49.43364" lon="3.83255">
        <ele>64.55</ele>
        <time>2017-04-29T12:32:59Z</time>
      </trkpt>
      <trkpt lat="49.43357" lon="3.83269">
        <ele>64.55</ele>
        <time>2017-04-29T12:33:07Z</time>
      </trkpt>
      <trkpt lat="49.4335" lon="3.83283">
        <ele>64.07</ele>
        <time>2017-04-29T12:33:15Z</time>
      </trkpt>
      <trkpt lat="49.43344" lon="3.83298">
        <ele>64.55</ele>
        <time>2017-04-29T12:33:23Z</time>
      </trkpt>
      <trkpt lat="49.43335" lon="3.83313">
        <ele>64.55</ele>
        <time>2017-04-29T12:33:32Z</time>
      </trkpt>
      <trkpt lat="49.43328" lon="3.83326">
        <ele>64.07</ele>
        <time>2017-04-29T12:33:40Z</time>
      </trkpt>
      <trkpt lat="49.43322" lon="3.8334">
        <ele>64.55</ele>
        <time>2017-04-29T12:33:48Z</time>
      </trkpt>
      <trkpt lat="49.43318" lon="3.8335">
        <ele>64.07</ele>
        <time>2017-04-29T12:33:53Z</time>
      </trkpt>
      <trkpt lat="49.43313" lon="3.8336">
        <ele>64.07</ele>
        <time>2017-04-29T12:33:59Z</time>
      </trkpt>
      <trkpt lat="49.43307" lon="3.83372">
        <ele>64.07</ele>
        <time>2017-04-29T12:34:06Z</time>
      </trkpt>
      <trkpt lat="49.433" lon="3.83389">
        <ele>63.58</ele>
        <time>2017-04-29T12:34:15Z</time>
      </trkpt>
      <trkpt lat="49.43294" lon="3.83403">
        <ele>63.58</ele>
        <time>2017-04-29T12:34:23Z</time>
      </trkpt>
      <trkpt lat="49.43286" lon="3.83418">
        <ele>63.58</ele>
        <time>2017-04-29T12:34:32Z</time>
      </trkpt>
      <trkpt lat="49.43279" lon="3.83433">
        <ele>63.58</ele>
        <time>2017-04-29T12:34:41Z</time>
      </trkpt>
      <trkpt lat="49.43273" lon="3.83448">
        <ele>63.58</ele>
        <time>2017-04-29T12:34:49Z</time>
      </trkpt>
      <trkpt lat="49.43266" lon="3.8346">
        <ele>63.58</ele>
        <time>2017-04-29T12:34:56Z</time>
      </trkpt>
      <trkpt lat="49.43259" lon="3.83477">
        <ele>63.58</ele>
        <time>2017-04-29T12:35:05Z</time>
      </trkpt>
      <trkpt lat="49.43253" lon="3.8349">
        <ele>63.58</ele>
        <time>2017-04-29T12:35:13Z</time>
      </trkpt>
      <trkpt lat="49.43247" lon="3.83504">
        <ele>63.58</ele>
        <time>2017-04-29T12:35:21Z</time>
      </trkpt>
      <trkpt lat="49.4324" lon="3.83519">
        <ele>63.58</ele>
        <time>2017-04-29T12:35:29Z</time>
      </trkpt>
      <trkpt lat="49.43233" lon="3.83534">
        <ele>63.58</ele>
        <time>2017-04-29T12:35:38Z</time>
      </trkpt>
      <trkpt lat="49.43227" lon="3.83546">
        <ele>63.58</ele>
        <time>2017-04-29T12:35:45Z</time>
      </trkpt>
      <trkpt lat="49.4322" lon="3.83562">
        <ele>63.58</ele>
        <time>2017-04-29T12:35:54Z</time>
      </trkpt>
      <trkpt lat="49.43214" lon="3.83576">
        <ele>63.58</ele>
        <time>2017-04-29T12:36:02Z</time>
      </trkpt>
      <trkpt lat="49.43206" lon="3.83594">
        <ele>63.58</ele>
        <time>2017-04-29T12:36:12Z</time>
      </trkpt>
      <trkpt lat="49.43198" lon="3.83608">
        <ele>63.58</ele>
        <time>2017-04-29T12:36:20Z</time>
      </trkpt>
      <trkpt lat="49.43192" lon="3.83622">
        <ele>63.58</ele>
        <time>2017-04-29T12:36:28Z</time>
      </trkpt>
      <trkpt lat="49.43185" lon="3.83639">
        <ele>63.1</ele>
        <time>2017-04-29T12:36:37Z</time>
      </trkpt>
      <trkpt lat="49.43179" lon="3.83651">
        <ele>63.58</ele>
        <time>2017-04-29T12:36:44Z</time>
      </trkpt>
      <trkpt lat="49.43173" lon="3.83666">
        <ele>63.1</ele>
        <time>2017-04-29T12:36:52Z</time>
      </trkpt>
      <trkpt lat="49.43171" lon="3.83671">
        <ele>63.1</ele>
        <time>2017-04-29T12:36:55Z</time>
      </trkpt>
      <trkpt lat="49.43162" lon="3.83687">
        <ele>63.58</ele>
        <time>2017-04-29T12:37:04Z</time>
      </trkpt>
      <trkpt lat="49.43157" lon="3.837">
        <ele>63.58</ele>
        <time>2017-04-29T12:37:11Z</time>
      </trkpt>
      <trkpt lat="49.43156" lon="3.83701">
        <ele>63.58</ele>
        <time>2017-04-29T12:37:12Z</time>
      </trkpt>
      <trkpt lat="49.4315" lon="3.83716">
        <ele>63.58</ele>
        <time>2017-04-29T12:37:20Z</time>
      </trkpt>
      <trkpt lat="49.43148" lon="3.83719">
        <ele>63.58</ele>
        <time>2017-04-29T12:37:22Z</time>
      </trkpt>
      <trkpt lat="49.43141" lon="3.83733">
        <ele>64.07</ele>
        <time>2017-04-29T12:37:30Z</time>
      </trkpt>
      <trkpt lat="49.43135" lon="3.83747">
        <ele>64.07</ele>
        <time>2017-04-29T12:37:38Z</time>
      </trkpt>
      <trkpt lat="49.43134" lon="3.83748">
        <ele>64.07</ele>
        <time>2017-04-29T12:37:39Z</time>
      </trkpt>
      <trkpt lat="49.43128" lon="3.83763">
        <ele>64.07</ele>
        <time>2017-04-29T12:37:47Z</time>
      </trkpt>
      <trkpt lat="49.43121" lon="3.83776">
        <ele>64.55</ele>
        <time>2017-04-29T12:37:55Z</time>
      </trkpt>
      <trkpt lat="49.43117" lon="3.83787">
        <ele>64.55</ele>
        <time>2017-04-29T12:38:01Z</time>
      </trkpt>
      <trkpt lat="49.43111" lon="3.83798">
        <ele>64.55</ele>
        <time>2017-04-29T12:38:07Z</time>
      </trkpt>
      <trkpt lat="49.43108" lon="3.83807">
        <ele>65.03</ele>
        <time>2017-04-29T12:38:12Z</time>
      </trkpt>
      <trkpt lat="49.43101" lon="3.83819">
        <ele>65.03</ele>
        <time>2017-04-29T12:38:19Z</time>
      </trkpt>
      <trkpt lat="49.43096" lon="3.83833">
        <ele>65.03</ele>
        <time>2017-04-29T12:38:27Z</time>
      </trkpt>
      <trkpt lat="49.4309" lon="3.83845">
        <ele>65.51</ele>
        <time>2017-04-29T12:38:34Z</time>
      </trkpt>
      <trkpt lat="49.43089" lon="3.83851">
        <ele>65.03</ele>
        <time>2017-04-29T12:38:37Z</time>
      </trkpt>
      <trkpt lat="49.43082" lon="3.83862">
        <ele>65.03</ele>
        <time>2017-04-29T12:38:44Z</time>
      </trkpt>
      <trkpt lat="49.43077" lon="3.83874">
        <ele>65.51</ele>
        <time>2017-04-29T12:38:51Z</time>
      </trkpt>
      <trkpt lat="49.43072" lon="3.83885">
        <ele>65.51</ele>
        <time>2017-04-29T12:38:57Z</time>
      </trkpt>
      <trkpt lat="49.43064" lon="3.839">
        <ele>65.51</ele>
        <time>2017-04-29T12:39:06Z</time>
      </trkpt>
      <trkpt lat="49.43059" lon="3.83911">
        <ele>65.99</ele>
        <time>2017-04-29T12:39:12Z</time>
      </trkpt>
      <trkpt lat="49.43059" lon="3.83913">
        <ele>65.51</ele>
        <time>2017-04-29T12:39:13Z</time>
      </trkpt>
      <trkpt lat="49.43052" lon="3.83926">
        <ele>65.99</ele>
        <time>2017-04-29T12:39:21Z</time>
      </trkpt>
      <trkpt lat="49.43046" lon="3.83938">
        <ele>65.99</ele>
        <time>2017-04-29T12:39:28Z</time>
      </trkpt>
      <trkpt lat="49.43045" lon="3.8394">
        <ele>65.99</ele>
        <time>2017-04-29T12:39:29Z</time>
      </trkpt>
      <trkpt lat="49.43041" lon="3.83947">
        <ele>65.99</ele>
        <time>2017-04-29T12:39:33Z</time>
      </trkpt>
      <trkpt lat="49.43039" lon="3.83954">
        <ele>66.47</ele>
        <time>2017-04-29T12:39:37Z</time>
      </trkpt>
      <trkpt lat="49.43035" lon="3.83963">
        <ele>66.47</ele>
        <time>2017-04-29T12:39:42Z</time>
      </trkpt>
      <trkpt lat="49.43031" lon="3.83972">
        <ele>66.47</ele>
        <time>2017-04-29T12:39:47Z</time>
      </trkpt>
      <trkpt lat="49.43025" lon="3.83986">
        <ele>66.95</ele>
        <time>2017-04-29T12:39:55Z</time>
      </trkpt>
      <trkpt lat="49.43024" lon="3.83987">
        <ele>66.47</ele>
        <time>2017-04-29T12:39:56Z</time>
      </trkpt>
      <trkpt lat="49.43019" lon="3.83996">
        <ele>66.95</ele>
        <time>2017-04-29T12:40:01Z</time>
      </trkpt>
      <trkpt lat="49.43015" lon="3.84003">
        <ele>66.95</ele>
        <time>2017-04-29T12:40:05Z</time>
      </trkpt>
      <trkpt lat="49.43014" lon="3.84006">
        <ele>66.95</ele>
        <time>2017-04-29T12:40:07Z</time>
      </trkpt>
      <trkpt lat="49.43007" lon="3.84021">
        <ele>66.95</ele>
        <time>2017-04-29T12:40:15Z</time>
      </trkpt>
      <trkpt lat="49.43005" lon="3.84026">
        <ele>66.95</ele>
        <time>2017-04-29T12:40:18Z</time>
      </trkpt>
      <trkpt lat="49.43003" lon="3.84031">
        <ele>66.95</ele>
        <time>2017-04-29T12:40:21Z</time>
      </trkpt>
      <trkpt lat="49.42997" lon="3.84043">
        <ele>66.95</ele>
        <time>2017-04-29T12:40:28Z</time>
      </trkpt>
      <trkpt lat="49.42991" lon="3.84055">
        <ele>67.43</ele>
        <time>2017-04-29T12:40:35Z</time>
      </trkpt>
      <trkpt lat="49.4299" lon="3.84058">
        <ele>67.43</ele>
        <time>2017-04-29T12:40:37Z</time>
      </trkpt>
      <trkpt lat="49.42982" lon="3.84075">
        <ele>67.43</ele>
        <time>2017-04-29T12:40:46Z</time>
      </trkpt>
      <trkpt lat="49.42979" lon="3.84083">
        <ele>67.43</ele>
        <time>2017-04-29T12:40:51Z</time>
      </trkpt>
      <trkpt lat="49.42972" lon="3.84095">
        <ele>67.43</ele>
        <time>2017-04-29T12:40:58Z</time>
      </trkpt>
      <trkpt lat="49.42965" lon="3.84111">
        <ele>67.91</ele>
        <time>2017-04-29T12:41:07Z</time>
      </trkpt>
      <trkpt lat="49.42964" lon="3.84113">
        <ele>67.91</ele>
        <time>2017-04-29T12:41:08Z</time>
      </trkpt>
      <trkpt lat="49.4296" lon="3.84124">
        <ele>67.43</ele>
        <time>2017-04-29T12:41:14Z</time>
      </trkpt>
      <trkpt lat="49.42955" lon="3.84137">
        <ele>67.91</ele>
        <time>2017-04-29T12:41:22Z</time>
      </trkpt>
      <trkpt lat="49.42949" lon="3.84146">
        <ele>67.91</ele>
        <time>2017-04-29T12:41:28Z</time>
      </trkpt>
      <trkpt lat="49.42948" lon="3.8415">
        <ele>67.91</ele>
        <time>2017-04-29T12:41:30Z</time>
      </trkpt>
      <trkpt lat="49.42941" lon="3.84164">
        <ele>68.39</ele>
        <time>2017-04-29T12:41:38Z</time>
      </trkpt>
      <trkpt lat="49.42934" lon="3.84177">
        <ele>68.39</ele>
        <time>2017-04-29T12:41:46Z</time>
      </trkpt>
      <trkpt lat="49.42929" lon="3.84187">
        <ele>67.91</ele>
        <time>2017-04-29T12:41:52Z</time>
      </trkpt>
      <trkpt lat="49.42924" lon="3.842">
        <ele>68.39</ele>
        <time>2017-04-29T12:41:59Z</time>
      </trkpt>
      <trkpt lat="49.42923" lon="3.84201">
        <ele>68.39</ele>
        <time>2017-04-29T12:42:00Z</time>
      </trkpt>
      <trkpt lat="49.42918" lon="3.84216">
        <ele>68.39</ele>
        <time>2017-04-29T12:42:08Z</time>
      </trkpt>
      <trkpt lat="49.42917" lon="3.84218">
        <ele>68.39</ele>
        <time>2017-04-29T12:42:09Z</time>
      </trkpt>
      <trkpt lat="49.42909" lon="3.8423">
        <ele>68.39</ele>
        <time>2017-04-29T12:42:17Z</time>
      </trkpt>
      <trkpt lat="49.42906" lon="3.84239">
        <ele>68.39</ele>
        <time>2017-04-29T12:42:22Z</time>
      </trkpt>
      <trkpt lat="49.42903" lon="3.84244">
        <ele>68.39</ele>
        <time>2017-04-29T12:42:25Z</time>
      </trkpt>
      <trkpt lat="49.42898" lon="3.84257">
        <ele>68.39</ele>
        <time>2017-04-29T12:42:32Z</time>
      </trkpt>
      <trkpt lat="49.42894" lon="3.84263">
        <ele>68.39</ele>
        <time>2017-04-29T12:42:36Z</time>
      </trkpt>
      <trkpt lat="49.42893" lon="3.84267">
        <ele>68.87</ele>
        <time>2017-04-29T12:42:38Z</time>
      </trkpt>
      <trkpt lat="49.42886" lon="3.84279">
        <ele>68.87</ele>
        <time>2017-04-29T12:42:45Z</time>
      </trkpt>
      <trkpt lat="49.42883" lon="3.84288">
        <ele>68.87</ele>
        <time>2017-04-29T12:42:50Z</time>
      </trkpt>
      <trkpt lat="49.42878" lon="3.84299">
        <ele>68.87</ele>
        <time>2017-04-29T12:42:56Z</time>
      </trkpt>
      <trkpt lat="49.42873" lon="3.8431">
        <ele>68.87</ele>
        <time>2017-04-29T12:43:03Z</time>
      </trkpt>
      <trkpt lat="49.42871" lon="3.84316">
        <ele>68.87</ele>
        <time>2017-04-29T12:43:06Z</time>
      </trkpt>
      <trkpt lat="49.42869" lon="3.84321">
        <ele>68.87</ele>
        <time>2017-04-29T12:43:09Z</time>
      </trkpt>
      <trkpt lat="49.42863" lon="3.84336">
        <ele>68.87</ele>
        <time>2017-04-29T12:43:17Z</time>
      </trkpt>
      <trkpt lat="49.42862" lon="3.8434">
        <ele>68.87</ele>
        <time>2017-04-29T12:43:19Z</time>
      </trkpt>
      <trkpt lat="49.42856" lon="3.84352">
        <ele>68.87</ele>
        <time>2017-04-29T12:43:26Z</time>
      </trkpt>
      <trkpt lat="49.42853" lon="3.84363">
        <ele>69.35</ele>
        <time>2017-04-29T12:43:32Z</time>
      </trkpt>
      <trkpt lat="49.42853" lon="3.84367">
        <ele>69.35</ele>
        <time>2017-04-29T12:43:34Z</time>
      </trkpt>
      <trkpt lat="49.42847" lon="3.84382">
        <ele>68.87</ele>
        <time>2017-04-29T12:43:41Z</time>
      </trkpt>
      <trkpt lat="49.42847" lon="3.84384">
        <ele>68.87</ele>
        <time>2017-04-29T12:43:42Z</time>
      </trkpt>
      <trkpt lat="49.42846" lon="3.84389">
        <ele>68.87</ele>
        <time>2017-04-29T12:43:45Z</time>
      </trkpt>
      <trkpt lat="49.4284" lon="3.84405">
        <ele>68.87</ele>
        <time>2017-04-29T12:43:54Z</time>
      </trkpt>
      <trkpt lat="49.42835" lon="3.8442">
        <ele>68.87</ele>
        <time>2017-04-29T12:44:02Z</time>
      </trkpt>
      <trkpt lat="49.42831" lon="3.84433">
        <ele>68.87</ele>
        <time>2017-04-29T12:44:09Z</time>
      </trkpt>
      <trkpt lat="49.42826" lon="3.84447">
        <ele>68.87</ele>
        <time>2017-04-29T12:44:17Z</time>
      </trkpt>
      <trkpt lat="49.42824" lon="3.84454">
        <ele>68.87</ele>
        <time>2017-04-29T12:44:21Z</time>
      </trkpt>
      <trkpt lat="49.4282" lon="3.84467">
        <ele>68.87</ele>
        <time>2017-04-29T12:44:28Z</time>
      </trkpt>
      <trkpt lat="49.42815" lon="3.84476">
        <ele>68.87</ele>
        <time>2017-04-29T12:44:34Z</time>
      </trkpt>
      <trkpt lat="49.4281" lon="3.84478">
        <ele>68.87</ele>
        <time>2017-04-29T12:44:40Z</time>
      </trkpt>
      <trkpt lat="49.4281" lon="3.84477">
        <ele>68.87</ele>
        <time>2017-04-29T12:44:48Z</time>
      </trkpt>
      <trkpt lat="49.4281" lon="3.84477">
        <ele>68.87</ele>
        <time>2017-04-29T12:45:04Z</time>
      </trkpt>
      <trkpt lat="49.42812" lon="3.84481">
        <ele>69.35</ele>
        <time>2017-04-29T12:45:07Z</time>
      </trkpt>
      <trkpt lat="49.42812" lon="3.84486">
        <ele>68.87</ele>
        <time>2017-04-29T12:45:13Z</time>
      </trkpt>
      <trkpt lat="49.4281" lon="3.84491">
        <ele>69.35</ele>
        <time>2017-04-29T12:45:19Z</time>
      </trkpt>
      <trkpt lat="49.4281" lon="3.84498">
        <ele>68.87</ele>
        <time>2017-04-29T12:45:25Z</time>
      </trkpt>
      <trkpt lat="49.42808" lon="3.84499">
        <ele>67.91</ele>
        <time>2017-04-29T12:45:35Z</time>
      </trkpt>
      <trkpt lat="49.42808" lon="3.84499">
        <ele>68.39</ele>
        <time>2017-04-29T12:45:52Z</time>
      </trkpt>
      <trkpt lat="49.42807" lon="3.84503">
        <ele>69.35</ele>
        <time>2017-04-29T12:45:57Z</time>
      </trkpt>
      <trkpt lat="49.42805" lon="3.84511">
        <ele>69.35</ele>
        <time>2017-04-29T12:46:04Z</time>
      </trkpt>
      <trkpt lat="49.42801" lon="3.84515">
        <ele>68.87</ele>
        <time>2017-04-29T12:46:11Z</time>
      </trkpt>
      <trkpt lat="49.428" lon="3.84515">
        <ele>68.87</ele>
        <time>2017-04-29T12:46:19Z</time>
      </trkpt>
      <trkpt lat="49.42799" lon="3.84515">
        <ele>68.87</ele>
        <time>2017-04-29T12:46:36Z</time>
      </trkpt>
      <trkpt lat="49.42799" lon="3.84516">
        <ele>68.87</ele>
        <time>2017-04-29T12:46:55Z</time>
      </trkpt>
      <trkpt lat="49.42798" lon="3.84515">
        <ele>68.87</ele>
        <time>2017-04-29T12:47:12Z</time>
      </trkpt>
      <trkpt lat="49.42798" lon="3.84516">
        <ele>68.87</ele>
        <time>2017-04-29T12:47:35Z</time>
      </trkpt>
      <trkpt lat="49.42797" lon="3.84516">
        <ele>68.87</ele>
        <time>2017-04-29T12:47:53Z</time>
      </trkpt>
      <trkpt lat="49.42797" lon="3.84516">
        <ele>68.87</ele>
        <time>2017-04-29T12:48:13Z</time>
      </trkpt>
      <trkpt lat="49.42797" lon="3.84517">
        <ele>69.35</ele>
        <time>2017-04-29T12:48:32Z</time>
      </trkpt>
      <trkpt lat="49.42798" lon="3.84518">
        <ele>68.87</ele>
        <time>2017-04-29T12:48:51Z</time>
      </trkpt>
      <trkpt lat="49.42799" lon="3.84518">
        <ele>68.87</ele>
        <time>2017-04-29T12:49:09Z</time>
      </trkpt>
      <trkpt lat="49.42799" lon="3.84518">
        <ele>69.35</ele>
        <time>2017-04-29T12:49:28Z</time>
      </trkpt>
      <trkpt lat="49.42798" lon="3.84517">
        <ele>69.35</ele>
        <time>2017-04-29T12:49:46Z</time>
      </trkpt>
      <trkpt lat="49.42798" lon="3.84516">
        <ele>69.35</ele>
        <time>2017-04-29T12:50:05Z</time>
      </trkpt>
      <trkpt lat="49.42798" lon="3.84516">
        <ele>69.35</ele>
        <time>2017-04-29T12:50:19Z</time>
      </trkpt>
      <trkpt lat="49.42797" lon="3.84515">
        <ele>69.35</ele>
        <time>2017-04-29T12:50:42Z</time>
      </trkpt>
      <trkpt lat="49.42798" lon="3.84515">
        <ele>68.87</ele>
        <time>2017-04-29T12:51:01Z</time>
      </trkpt>
      <trkpt lat="49.42797" lon="3.84516">
        <ele>68.87</ele>
        <time>2017-04-29T12:51:09Z</time>
      </trkpt>
      <trkpt lat="49.42798" lon="3.84515">
        <ele>69.35</ele>
        <time>2017-04-29T12:51:14Z</time>
      </trkpt>
      <trkpt lat="49.42797" lon="3.8452">
        <ele>69.35</ele>
        <time>2017-04-29T12:51:19Z</time>
      </trkpt>
      <trkpt lat="49.42797" lon="3.84524">
        <ele>68.87</ele>
        <time>2017-04-29T12:51:25Z</time>
      </trkpt>
      <trkpt lat="49.42798" lon="3.84524">
        <ele>69.35</ele>
        <time>2017-04-29T12:51:33Z</time>
      </trkpt>
      <trkpt lat="49.42798" lon="3.84525">
        <ele>68.87</ele>
        <time>2017-04-29T12:51:42Z</time>
      </trkpt>
      <trkpt lat="49.42799" lon="3.84525">
        <ele>69.35</ele>
        <time>2017-04-29T12:51:59Z</time>
      </trkpt>
      <trkpt lat="49.42799" lon="3.84527">
        <ele>68.87</ele>
        <time>2017-04-29T12:52:17Z</time>
      </trkpt>
      <trkpt lat="49.42799" lon="3.84527">
        <ele>68.87</ele>
        <time>2017-04-29T12:52:35Z</time>
      </trkpt>
      <trkpt lat="49.42799" lon="3.84527">
        <ele>68.87</ele>
        <time>2017-04-29T12:52:49Z</time>
      </trkpt>
      <trkpt lat="49.42799" lon="3.84526">
        <ele>68.87</ele>
        <time>2017-04-29T12:53:05Z</time>
      </trkpt>
      <trkpt lat="49.428" lon="3.84526">
        <ele>68.87</ele>
        <time>2017-04-29T12:53:21Z</time>
      </trkpt>
      <trkpt lat="49.428" lon="3.84525">
        <ele>68.87</ele>
        <time>2017-04-29T12:53:36Z</time>
      </trkpt>
      <trkpt lat="49.428" lon="3.84525">
        <ele>68.87</ele>
        <time>2017-04-29T12:53:56Z</time>
      </trkpt>
      <trkpt lat="49.42801" lon="3.84527">
        <ele>68.87</ele>
        <time>2017-04-29T12:54:18Z</time>
      </trkpt>
      <trkpt lat="49.428" lon="3.84527">
        <ele>68.87</ele>
        <time>2017-04-29T12:54:38Z</time>
      </trkpt>
      <trkpt lat="49.42801" lon="3.84527">
        <ele>68.87</ele>
        <time>2017-04-29T12:54:59Z</time>
      </trkpt>
      <trkpt lat="49.42801" lon="3.84527">
        <ele>68.87</ele>
        <time>2017-04-29T12:55:19Z</time>
      </trkpt>
      <trkpt lat="49.42801" lon="3.84526">
        <ele>68.87</ele>
        <time>2017-04-29T12:55:38Z</time>
      </trkpt>
      <trkpt lat="49.42801" lon="3.84526">
        <ele>68.87</ele>
        <time>2017-04-29T12:55:56Z</time>
      </trkpt>
      <trkpt lat="49.42801" lon="3.84526">
        <ele>68.87</ele>
        <time>2017-04-29T12:56:15Z</time>
      </trkpt>
      <trkpt lat="49.42801" lon="3.84526">
        <ele>68.87</ele>
        <time>2017-04-29T12:56:33Z</time>
      </trkpt>
      <trkpt lat="49.42802" lon="3.84526">
        <ele>69.35</ele>
        <time>2017-04-29T12:56:38Z</time>
      </trkpt>
      <trkpt lat="49.42802" lon="3.84526">
        <ele>69.35</ele>
        <time>2017-04-29T12:56:43Z</time>
      </trkpt>
      <trkpt lat="49.42802" lon="3.84526">
        <ele>69.83</ele>
        <time>2017-04-29T12:56:54Z</time>
      </trkpt>
      <trkpt lat="49.42802" lon="3.84526">
        <ele>69.35</ele>
        <time>2017-04-29T12:57:05Z</time>
      </trkpt>
      <trkpt lat="49.42801" lon="3.84527">
        <ele>69.35</ele>
        <time>2017-04-29T12:57:18Z</time>
      </trkpt>
      <trkpt lat="49.42801" lon="3.84527">
        <ele>69.35</ele>
        <time>2017-04-29T12:57:31Z</time>
      </trkpt>
      <trkpt lat="49.42801" lon="3.84527">
        <ele>69.35</ele>
        <time>2017-04-29T12:57:40Z</time>
      </trkpt>
      <trkpt lat="49.428" lon="3.84527">
        <ele>69.35</ele>
        <time>2017-04-29T12:57:57Z</time>
      </trkpt>
      <trkpt lat="49.428" lon="3.84526">
        <ele>69.35</ele>
        <time>2017-04-29T12:58:12Z</time>
      </trkpt>
      <trkpt lat="49.428" lon="3.84526">
        <ele>69.35</ele>
        <time>2017-04-29T12:58:22Z</time>
      </trkpt>
      <trkpt lat="49.428" lon="3.84526">
        <ele>69.35</ele>
        <time>2017-04-29T12:58:38Z</time>
      </trkpt>
      <trkpt lat="49.428" lon="3.84526">
        <ele>69.35</ele>
        <time>2017-04-29T12:58:50Z</time>
      </trkpt>
      <trkpt lat="49.42799" lon="3.84525">
        <ele>69.35</ele>
        <time>2017-04-29T12:59:07Z</time>
      </trkpt>
      <trkpt lat="49.42799" lon="3.84525">
        <ele>69.35</ele>
        <time>2017-04-29T12:59:15Z</time>
      </trkpt>
      <trkpt lat="49.42799" lon="3.84526">
        <ele>69.35</ele>
        <time>2017-04-29T12:59:27Z</time>
      </trkpt>
      <trkpt lat="49.42799" lon="3.84526">
        <ele>68.87</ele>
        <time>2017-04-29T12:59:42Z</time>
      </trkpt>
      <trkpt lat="49.42799" lon="3.84526">
        <ele>68.87</ele>
        <time>2017-04-29T12:59:54Z</time>
      </trkpt>
      <trkpt lat="49.42799" lon="3.84526">
        <ele>68.87</ele>
        <time>2017-04-29T13:00:05Z</time>
      </trkpt>
      <trkpt lat="49.42799" lon="3.84526">
        <ele>68.87</ele>
        <time>2017-04-29T13:00:17Z</time>
      </trkpt>
      <trkpt lat="49.428" lon="3.84526">
        <ele>68.87</ele>
        <time>2017-04-29T13:00:29Z</time>
      </trkpt>
      <trkpt lat="49.428" lon="3.84526">
        <ele>68.87</ele>
        <time>2017-04-29T13:00:39Z</time>
      </trkpt>
      <trkpt lat="49.42799" lon="3.84526">
        <ele>68.87</ele>
        <time>2017-04-29T13:00:52Z</time>
      </trkpt>
      <trkpt lat="49.42799" lon="3.84525">
        <ele>69.35</ele>
        <time>2017-04-29T13:01:00Z</time>
      </trkpt>
      <trkpt lat="49.42798" lon="3.84525">
        <ele>69.35</ele>
        <time>2017-04-29T13:01:06Z</time>
      </trkpt>
      <trkpt lat="49.42797" lon="3.84526">
        <ele>69.35</ele>
        <time>2017-04-29T13:01:15Z</time>
      </trkpt>
      <trkpt lat="49.42796" lon="3.84527">
        <ele>69.35</ele>
        <time>2017-04-29T13:01:32Z</time>
      </trkpt>
      <trkpt lat="49.42796" lon="3.84528">
        <ele>69.35</ele>
        <time>2017-04-29T13:01:49Z</time>
      </trkpt>
      <trkpt lat="49.42795" lon="3.84529">
        <ele>69.35</ele>
        <time>2017-04-29T13:02:04Z</time>
      </trkpt>
      <trkpt lat="49.42794" lon="3.84529">
        <ele>69.35</ele>
        <time>2017-04-29T13:02:18Z</time>
      </trkpt>
      <trkpt lat="49.42793" lon="3.8453">
        <ele>68.87</ele>
        <time>2017-04-29T13:02:35Z</time>
      </trkpt>
      <trkpt lat="49.42793" lon="3.84529">
        <ele>69.35</ele>
        <time>2017-04-29T13:02:50Z</time>
      </trkpt>
      <trkpt lat="49.42792" lon="3.84529">
        <ele>68.87</ele>
        <time>2017-04-29T13:03:11Z</time>
      </trkpt>
      <trkpt lat="49.42792" lon="3.84528">
        <ele>69.35</ele>
        <time>2017-04-29T13:03:32Z</time>
      </trkpt>
      <trkpt lat="49.42791" lon="3.84527">
        <ele>69.35</ele>
        <time>2017-04-29T13:03:53Z</time>
      </trkpt>
      <trkpt lat="49.42791" lon="3.84527">
        <ele>69.35</ele>
        <time>2017-04-29T13:04:09Z</time>
      </trkpt>
      <trkpt lat="49.42791" lon="3.84527">
        <ele>69.35</ele>
        <time>2017-04-29T13:04:29Z</time>
      </trkpt>
      <trkpt lat="49.42791" lon="3.84527">
        <ele>69.35</ele>
        <time>2017-04-29T13:04:49Z</time>
      </trkpt>
      <trkpt lat="49.42791" lon="3.84528">
        <ele>69.35</ele>
        <time>2017-04-29T13:04:55Z</time>
      </trkpt>
      <trkpt lat="49.42787" lon="3.84532">
        <ele>68.87</ele>
        <time>2017-04-29T13:05:02Z</time>
      </trkpt>
      <trkpt lat="49.42787" lon="3.84532">
        <ele>69.35</ele>
        <time>2017-04-29T13:05:07Z</time>
      </trkpt>
      <trkpt lat="49.42787" lon="3.84532">
        <ele>69.35</ele>
        <time>2017-04-29T13:05:29Z</time>
      </trkpt>
      <trkpt lat="49.42786" lon="3.84532">
        <ele>69.35</ele>
        <time>2017-04-29T13:05:50Z</time>
      </trkpt>
      <trkpt lat="49.42785" lon="3.84532">
        <ele>68.87</ele>
        <time>2017-04-29T13:06:11Z</time>
      </trkpt>
      <trkpt lat="49.42785" lon="3.84532">
        <ele>68.87</ele>
        <time>2017-04-29T13:06:30Z</time>
      </trkpt>
      <trkpt lat="49.42785" lon="3.84531">
        <ele>68.87</ele>
        <time>2017-04-29T13:06:52Z</time>
      </trkpt>
      <trkpt lat="49.42786" lon="3.8453">
        <ele>69.35</ele>
        <time>2017-04-29T13:07:16Z</time>
      </trkpt>
      <trkpt lat="49.42785" lon="3.8453">
        <ele>69.35</ele>
        <time>2017-04-29T13:07:40Z</time>
      </trkpt>
      <trkpt lat="49.42785" lon="3.84531">
        <ele>69.35</ele>
        <time>2017-04-29T13:08:03Z</time>
      </trkpt>
      <trkpt lat="49.42786" lon="3.84531">
        <ele>69.35</ele>
        <time>2017-04-29T13:08:25Z</time>
      </trkpt>
      <trkpt lat="49.42786" lon="3.84531">
        <ele>69.35</ele>
        <time>2017-04-29T13:08:48Z</time>
      </trkpt>
      <trkpt lat="49.42786" lon="3.84531">
        <ele>69.35</ele>
        <time>2017-04-29T13:09:08Z</time>
      </trkpt>
      <trkpt lat="49.42785" lon="3.8453">
        <ele>69.35</ele>
        <time>2017-04-29T13:09:34Z</time>
      </trkpt>
      <trkpt lat="49.42785" lon="3.8453">
        <ele>69.35</ele>
        <time>2017-04-29T13:09:59Z</time>
      </trkpt>
      <trkpt lat="49.42785" lon="3.84528">
        <ele>69.35</ele>
        <time>2017-04-29T13:10:21Z</time>
      </trkpt>
      <trkpt lat="49.42785" lon="3.84528">
        <ele>69.35</ele>
        <time>2017-04-29T13:10:44Z</time>
      </trkpt>
      <trkpt lat="49.42786" lon="3.84528">
        <ele>69.35</ele>
        <time>2017-04-29T13:10:51Z</time>
      </trkpt>
      <trkpt lat="49.42786" lon="3.84529">
        <ele>69.35</ele>
        <time>2017-04-29T13:10:59Z</time>
      </trkpt>
      <trkpt lat="49.42787" lon="3.84529">
        <ele>69.83</ele>
        <time>2017-04-29T13:11:10Z</time>
      </trkpt>
      <trkpt lat="49.42787" lon="3.8453">
        <ele>69.83</ele>
        <time>2017-04-29T13:11:11Z</time>
      </trkpt>
      <trkpt lat="49.42791" lon="3.84538">
        <ele>69.35</ele>
        <time>2017-04-29T13:11:19Z</time>
      </trkpt>
      <trkpt lat="49.42792" lon="3.84548">
        <ele>69.35</ele>
        <time>2017-04-29T13:11:26Z</time>
      </trkpt>
      <trkpt lat="49.42792" lon="3.8456">
        <ele>69.35</ele>
        <time>2017-04-29T13:11:34Z</time>
      </trkpt>
      <trkpt lat="49.42792" lon="3.84572">
        <ele>69.83</ele>
        <time>2017-04-29T13:11:41Z</time>
      </trkpt>
      <trkpt lat="49.42791" lon="3.84585">
        <ele>69.83</ele>
        <time>2017-04-29T13:11:49Z</time>
      </trkpt>
      <trkpt lat="49.4279" lon="3.84599">
        <ele>69.83</ele>
        <time>2017-04-29T13:11:57Z</time>
      </trkpt>
      <trkpt lat="49.4279" lon="3.84602">
        <ele>70.31</ele>
        <time>2017-04-29T13:11:59Z</time>
      </trkpt>
      <trkpt lat="49.4279" lon="3.84605">
        <ele>69.83</ele>
        <time>2017-04-29T13:12:01Z</time>
      </trkpt>
      <trkpt lat="49.4279" lon="3.8462">
        <ele>69.83</ele>
        <time>2017-04-29T13:12:10Z</time>
      </trkpt>
      <trkpt lat="49.4279" lon="3.84624">
        <ele>69.83</ele>
        <time>2017-04-29T13:12:12Z</time>
      </trkpt>
      <trkpt lat="49.4279" lon="3.84641">
        <ele>70.31</ele>
        <time>2017-04-29T13:12:22Z</time>
      </trkpt>
      <trkpt lat="49.42789" lon="3.84644">
        <ele>70.31</ele>
        <time>2017-04-29T13:12:24Z</time>
      </trkpt>
      <trkpt lat="49.42789" lon="3.8465">
        <ele>70.31</ele>
        <time>2017-04-29T13:12:27Z</time>
      </trkpt>
      <trkpt lat="49.4279" lon="3.84664">
        <ele>70.31</ele>
        <time>2017-04-29T13:12:35Z</time>
      </trkpt>
      <trkpt lat="49.42789" lon="3.84677">
        <ele>70.31</ele>
        <time>2017-04-29T13:12:43Z</time>
      </trkpt>
      <trkpt lat="49.42787" lon="3.84688">
        <ele>70.31</ele>
        <time>2017-04-29T13:12:50Z</time>
      </trkpt>
      <trkpt lat="49.42787" lon="3.84697">
        <ele>70.79</ele>
        <time>2017-04-29T13:12:55Z</time>
      </trkpt>
      <trkpt lat="49.42787" lon="3.84711">
        <ele>70.31</ele>
        <time>2017-04-29T13:13:03Z</time>
      </trkpt>
      <trkpt lat="49.42787" lon="3.84722">
        <ele>70.31</ele>
        <time>2017-04-29T13:13:10Z</time>
      </trkpt>
      <trkpt lat="49.42786" lon="3.84735">
        <ele>70.31</ele>
        <time>2017-04-29T13:13:17Z</time>
      </trkpt>
      <trkpt lat="49.42786" lon="3.8474">
        <ele>70.79</ele>
        <time>2017-04-29T13:13:20Z</time>
      </trkpt>
      <trkpt lat="49.42787" lon="3.84745">
        <ele>70.79</ele>
        <time>2017-04-29T13:13:23Z</time>
      </trkpt>
      <trkpt lat="49.42786" lon="3.84759">
        <ele>70.79</ele>
        <time>2017-04-29T13:13:31Z</time>
      </trkpt>
      <trkpt lat="49.42786" lon="3.84768">
        <ele>70.79</ele>
        <time>2017-04-29T13:13:36Z</time>
      </trkpt>
      <trkpt lat="49.42785" lon="3.84786">
        <ele>70.79</ele>
        <time>2017-04-29T13:13:46Z</time>
      </trkpt>
      <trkpt lat="49.42786" lon="3.84794">
        <ele>70.79</ele>
        <time>2017-04-29T13:13:51Z</time>
      </trkpt>
      <trkpt lat="49.42785" lon="3.84811">
        <ele>71.27</ele>
        <time>2017-04-29T13:14:00Z</time>
      </trkpt>
      <trkpt lat="49.42784" lon="3.84813">
        <ele>71.27</ele>
        <time>2017-04-29T13:14:01Z</time>
      </trkpt>
      <trkpt lat="49.42783" lon="3.84826">
        <ele>71.27</ele>
        <time>2017-04-29T13:14:08Z</time>
      </trkpt>
      <trkpt lat="49.42783" lon="3.84828">
        <ele>71.27</ele>
        <time>2017-04-29T13:14:09Z</time>
      </trkpt>
      <trkpt lat="49.42783" lon="3.84834">
        <ele>71.27</ele>
        <time>2017-04-29T13:14:12Z</time>
      </trkpt>
      <trkpt lat="49.42783" lon="3.84838">
        <ele>71.27</ele>
        <time>2017-04-29T13:14:15Z</time>
      </trkpt>
      <trkpt lat="49.42782" lon="3.84847">
        <ele>71.76</ele>
        <time>2017-04-29T13:14:23Z</time>
      </trkpt>
      <trkpt lat="49.42782" lon="3.8485">
        <ele>71.76</ele>
        <time>2017-04-29T13:14:29Z</time>
      </trkpt>
      <trkpt lat="49.42782" lon="3.84851">
        <ele>71.76</ele>
        <time>2017-04-29T13:14:32Z</time>
      </trkpt>
      <trkpt lat="49.42782" lon="3.84854">
        <ele>71.76</ele>
        <time>2017-04-29T13:14:34Z</time>
      </trkpt>
      <trkpt lat="49.42784" lon="3.84872">
        <ele>71.76</ele>
        <time>2017-04-29T13:14:44Z</time>
      </trkpt>
      <trkpt lat="49.42784" lon="3.84874">
        <ele>71.76</ele>
        <time>2017-04-29T13:14:45Z</time>
      </trkpt>
      <trkpt lat="49.42785" lon="3.84887">
        <ele>71.76</ele>
        <time>2017-04-29T13:14:52Z</time>
      </trkpt>
      <trkpt lat="49.42784" lon="3.84893">
        <ele>71.76</ele>
        <time>2017-04-29T13:14:55Z</time>
      </trkpt>
      <trkpt lat="49.42788" lon="3.84905">
        <ele>71.76</ele>
        <time>2017-04-29T13:15:02Z</time>
      </trkpt>
      <trkpt lat="49.42788" lon="3.84907">
        <ele>71.76</ele>
        <time>2017-04-29T13:15:03Z</time>
      </trkpt>
      <trkpt lat="49.42786" lon="3.84916">
        <ele>71.76</ele>
        <time>2017-04-29T13:15:08Z</time>
      </trkpt>
      <trkpt lat="49.42786" lon="3.84922">
        <ele>71.76</ele>
        <time>2017-04-29T13:15:11Z</time>
      </trkpt>
      <trkpt lat="49.42784" lon="3.8493">
        <ele>71.76</ele>
        <time>2017-04-29T13:15:15Z</time>
      </trkpt>
      <trkpt lat="49.42783" lon="3.84935">
        <ele>71.76</ele>
        <time>2017-04-29T13:15:18Z</time>
      </trkpt>
      <trkpt lat="49.42782" lon="3.84948">
        <ele>71.76</ele>
        <time>2017-04-29T13:15:25Z</time>
      </trkpt>
      <trkpt lat="49.42782" lon="3.84952">
        <ele>71.76</ele>
        <time>2017-04-29T13:15:27Z</time>
      </trkpt>
      <trkpt lat="49.42779" lon="3.8497">
        <ele>71.76</ele>
        <time>2017-04-29T13:15:36Z</time>
      </trkpt>
      <trkpt lat="49.42778" lon="3.84983">
        <ele>71.76</ele>
        <time>2017-04-29T13:15:43Z</time>
      </trkpt>
      <trkpt lat="49.42774" lon="3.84989">
        <ele>71.76</ele>
        <time>2017-04-29T13:15:52Z</time>
      </trkpt>
      <trkpt lat="49.42773" lon="3.8499">
        <ele>71.76</ele>
        <time>2017-04-29T13:16:01Z</time>
      </trkpt>
      <trkpt lat="49.42773" lon="3.84991">
        <ele>71.76</ele>
        <time>2017-04-29T13:16:11Z</time>
      </trkpt>
      <trkpt lat="49.42772" lon="3.84993">
        <ele>71.76</ele>
        <time>2017-04-29T13:16:13Z</time>
      </trkpt>
      <trkpt lat="49.42761" lon="3.84994">
        <ele>72.24</ele>
        <time>2017-04-29T13:16:23Z</time>
      </trkpt>
      <trkpt lat="49.42748" lon="3.84995">
        <ele>72.24</ele>
        <time>2017-04-29T13:16:34Z</time>
      </trkpt>
      <trkpt lat="49.42738" lon="3.84996">
        <ele>72.72</ele>
        <time>2017-04-29T13:16:42Z</time>
      </trkpt>
      <trkpt lat="49.42727" lon="3.84996">
        <ele>73.2</ele>
        <time>2017-04-29T13:16:51Z</time>
      </trkpt>
      <trkpt lat="49.42718" lon="3.84995">
        <ele>73.2</ele>
        <time>2017-04-29T13:16:59Z</time>
      </trkpt>
      <trkpt lat="49.42708" lon="3.84997">
        <ele>73.2</ele>
        <time>2017-04-29T13:17:09Z</time>
      </trkpt>
      <trkpt lat="49.42701" lon="3.84998">
        <ele>73.2</ele>
        <time>2017-04-29T13:17:17Z</time>
      </trkpt>
      <trkpt lat="49.427" lon="3.85004">
        <ele>73.2</ele>
        <time>2017-04-29T13:17:24Z</time>
      </trkpt>
      <trkpt lat="49.427" lon="3.85006">
        <ele>73.2</ele>
        <time>2017-04-29T13:17:32Z</time>
      </trkpt>
      <trkpt lat="49.42699" lon="3.85007">
        <ele>73.68</ele>
        <time>2017-04-29T13:17:44Z</time>
      </trkpt>
      <trkpt lat="49.42699" lon="3.85007">
        <ele>73.68</ele>
        <time>2017-04-29T13:17:54Z</time>
      </trkpt>
      <trkpt lat="49.42697" lon="3.8501">
        <ele>73.68</ele>
        <time>2017-04-29T13:18:05Z</time>
      </trkpt>
      <trkpt lat="49.42697" lon="3.8501">
        <ele>73.68</ele>
        <time>2017-04-29T13:18:07Z</time>
      </trkpt>
      <trkpt lat="49.42695" lon="3.85012">
        <ele>73.68</ele>
        <time>2017-04-29T13:18:10Z</time>
      </trkpt>
      <trkpt lat="49.42686" lon="3.85012">
        <ele>74.64</ele>
        <time>2017-04-29T13:18:18Z</time>
      </trkpt>
      <trkpt lat="49.42676" lon="3.85011">
        <ele>74.16</ele>
        <time>2017-04-29T13:18:26Z</time>
      </trkpt>
      <trkpt lat="49.42665" lon="3.8501">
        <ele>74.64</ele>
        <time>2017-04-29T13:18:35Z</time>
      </trkpt>
      <trkpt lat="49.42655" lon="3.8501">
        <ele>74.64</ele>
        <time>2017-04-29T13:18:44Z</time>
      </trkpt>
      <trkpt lat="49.42644" lon="3.85013">
        <ele>74.64</ele>
        <time>2017-04-29T13:18:54Z</time>
      </trkpt>
      <trkpt lat="49.42638" lon="3.8502">
        <ele>74.64</ele>
        <time>2017-04-29T13:19:02Z</time>
      </trkpt>
      <trkpt lat="49.42636" lon="3.85021">
        <ele>74.64</ele>
        <time>2017-04-29T13:19:04Z</time>
      </trkpt>
      <trkpt lat="49.4263" lon="3.85026">
        <ele>74.64</ele>
        <time>2017-04-29T13:19:11Z</time>
      </trkpt>
      <trkpt lat="49.42629" lon="3.85028">
        <ele>74.64</ele>
        <time>2017-04-29T13:19:21Z</time>
      </trkpt>
      <trkpt lat="49.42628" lon="3.85028">
        <ele>74.16</ele>
        <time>2017-04-29T13:19:29Z</time>
      </trkpt>
      <trkpt lat="49.42629" lon="3.85027">
        <ele>74.16</ele>
        <time>2017-04-29T13:19:34Z</time>
      </trkpt>
      <trkpt lat="49.42629" lon="3.85027">
        <ele>74.16</ele>
        <time>2017-04-29T13:19:43Z</time>
      </trkpt>
      <trkpt lat="49.42629" lon="3.85028">
        <ele>74.16</ele>
        <time>2017-04-29T13:19:57Z</time>
      </trkpt>
      <trkpt lat="49.42629" lon="3.85028">
        <ele>74.16</ele>
        <time>2017-04-29T13:20:10Z</time>
      </trkpt>
      <trkpt lat="49.42628" lon="3.85028">
        <ele>74.16</ele>
        <time>2017-04-29T13:20:23Z</time>
      </trkpt>
      <trkpt lat="49.42628" lon="3.85028">
        <ele>74.16</ele>
        <time>2017-04-29T13:20:36Z</time>
      </trkpt>
      <trkpt lat="49.42628" lon="3.85029">
        <ele>74.16</ele>
        <time>2017-04-29T13:20:46Z</time>
      </trkpt>
      <trkpt lat="49.42628" lon="3.85029">
        <ele>74.16</ele>
        <time>2017-04-29T13:20:57Z</time>
      </trkpt>
      <trkpt lat="49.42628" lon="3.8503">
        <ele>73.68</ele>
        <time>2017-04-29T13:21:12Z</time>
      </trkpt>
      <trkpt lat="49.42628" lon="3.8503">
        <ele>73.68</ele>
        <time>2017-04-29T13:21:25Z</time>
      </trkpt>
      <trkpt lat="49.42628" lon="3.85031">
        <ele>73.68</ele>
        <time>2017-04-29T13:21:32Z</time>
      </trkpt>
      <trkpt lat="49.42631" lon="3.85036">
        <ele>74.16</ele>
        <time>2017-04-29T13:21:36Z</time>
      </trkpt>
      <trkpt lat="49.42636" lon="3.85041">
        <ele>73.68</ele>
        <time>2017-04-29T13:21:44Z</time>
      </trkpt>
      <trkpt lat="49.42637" lon="3.85044">
        <ele>73.2</ele>
        <time>2017-04-29T13:21:46Z</time>
      </trkpt>
      <trkpt lat="49.42639" lon="3.85049">
        <ele>72.72</ele>
        <time>2017-04-29T13:21:49Z</time>
      </trkpt>
      <trkpt lat="49.42642" lon="3.85064">
        <ele>72.72</ele>
        <time>2017-04-29T13:21:57Z</time>
      </trkpt>
      <trkpt lat="49.42644" lon="3.85074">
        <ele>72.72</ele>
        <time>2017-04-29T13:22:03Z</time>
      </trkpt>
      <trkpt lat="49.42643" lon="3.85085">
        <ele>72.72</ele>
        <time>2017-04-29T13:22:09Z</time>
      </trkpt>
      <trkpt lat="49.42643" lon="3.85089">
        <ele>72.24</ele>
        <time>2017-04-29T13:22:11Z</time>
      </trkpt>
      <trkpt lat="49.4264" lon="3.85106">
        <ele>71.76</ele>
        <time>2017-04-29T13:22:20Z</time>
      </trkpt>
      <trkpt lat="49.4264" lon="3.85108">
        <ele>71.76</ele>
        <time>2017-04-29T13:22:21Z</time>
      </trkpt>
      <trkpt lat="49.42637" lon="3.85122">
        <ele>71.27</ele>
        <time>2017-04-29T13:22:29Z</time>
      </trkpt>
      <trkpt lat="49.42636" lon="3.85126">
        <ele>71.27</ele>
        <time>2017-04-29T13:22:31Z</time>
      </trkpt>
      <trkpt lat="49.42631" lon="3.85138">
        <ele>70.79</ele>
        <time>2017-04-29T13:22:38Z</time>
      </trkpt>
      <trkpt lat="49.42628" lon="3.85151">
        <ele>70.79</ele>
        <time>2017-04-29T13:22:46Z</time>
      </trkpt>
      <trkpt lat="49.42622" lon="3.85163">
        <ele>70.31</ele>
        <time>2017-04-29T13:22:54Z</time>
      </trkpt>
      <trkpt lat="49.42616" lon="3.85173">
        <ele>69.83</ele>
        <time>2017-04-29T13:23:01Z</time>
      </trkpt>
      <trkpt lat="49.42609" lon="3.85181">
        <ele>69.35</ele>
        <time>2017-04-29T13:23:08Z</time>
      </trkpt>
      <trkpt lat="49.42604" lon="3.85185">
        <ele>69.35</ele>
        <time>2017-04-29T13:23:13Z</time>
      </trkpt>
      <trkpt lat="49.42595" lon="3.85187">
        <ele>68.87</ele>
        <time>2017-04-29T13:23:21Z</time>
      </trkpt>
      <trkpt lat="49.42594" lon="3.85186">
        <ele>68.87</ele>
        <time>2017-04-29T13:23:22Z</time>
      </trkpt>
      <trkpt lat="49.42592" lon="3.85188">
        <ele>68.87</ele>
        <time>2017-04-29T13:23:28Z</time>
      </trkpt>
      <trkpt lat="49.42592" lon="3.85188">
        <ele>68.87</ele>
        <time>2017-04-29T13:23:30Z</time>
      </trkpt>
      <trkpt lat="49.42589" lon="3.85194">
        <ele>68.87</ele>
        <time>2017-04-29T13:23:35Z</time>
      </trkpt>
      <trkpt lat="49.42578" lon="3.85198">
        <ele>68.39</ele>
        <time>2017-04-29T13:23:45Z</time>
      </trkpt>
      <trkpt lat="49.42565" lon="3.85202">
        <ele>68.39</ele>
        <time>2017-04-29T13:23:55Z</time>
      </trkpt>
      <trkpt lat="49.42553" lon="3.85203">
        <ele>67.91</ele>
        <time>2017-04-29T13:24:04Z</time>
      </trkpt>
      <trkpt lat="49.42541" lon="3.85204">
        <ele>67.91</ele>
        <time>2017-04-29T13:24:13Z</time>
      </trkpt>
      <trkpt lat="49.42531" lon="3.85205">
        <ele>67.91</ele>
        <time>2017-04-29T13:24:20Z</time>
      </trkpt>
      <trkpt lat="49.42528" lon="3.85205">
        <ele>67.91</ele>
        <time>2017-04-29T13:24:23Z</time>
      </trkpt>
      <trkpt lat="49.42523" lon="3.85205">
        <ele>67.91</ele>
        <time>2017-04-29T13:24:27Z</time>
      </trkpt>
      <trkpt lat="49.42512" lon="3.85207">
        <ele>67.43</ele>
        <time>2017-04-29T13:24:36Z</time>
      </trkpt>
      <trkpt lat="49.42506" lon="3.85208">
        <ele>67.43</ele>
        <time>2017-04-29T13:24:41Z</time>
      </trkpt>
      <trkpt lat="49.42495" lon="3.85209">
        <ele>66.95</ele>
        <time>2017-04-29T13:24:51Z</time>
      </trkpt>
      <trkpt lat="49.42485" lon="3.85209">
        <ele>66.95</ele>
        <time>2017-04-29T13:24:59Z</time>
      </trkpt>
      <trkpt lat="49.42473" lon="3.8521">
        <ele>66.95</ele>
        <time>2017-04-29T13:25:08Z</time>
      </trkpt>
      <trkpt lat="49.42464" lon="3.8521">
        <ele>66.95</ele>
        <time>2017-04-29T13:25:16Z</time>
      </trkpt>
      <trkpt lat="49.42452" lon="3.85209">
        <ele>66.95</ele>
        <time>2017-04-29T13:25:25Z</time>
      </trkpt>
      <trkpt lat="49.42449" lon="3.85209">
        <ele>66.95</ele>
        <time>2017-04-29T13:25:28Z</time>
      </trkpt>
      <trkpt lat="49.42439" lon="3.85206">
        <ele>66.95</ele>
        <time>2017-04-29T13:25:36Z</time>
      </trkpt>
      <trkpt lat="49.42431" lon="3.85203">
        <ele>66.95</ele>
        <time>2017-04-29T13:25:43Z</time>
      </trkpt>
      <trkpt lat="49.4242" lon="3.85199">
        <ele>66.47</ele>
        <time>2017-04-29T13:25:51Z</time>
      </trkpt>
      <trkpt lat="49.4241" lon="3.85193">
        <ele>66.47</ele>
        <time>2017-04-29T13:25:59Z</time>
      </trkpt>
      <trkpt lat="49.42401" lon="3.8519">
        <ele>66.47</ele>
        <time>2017-04-29T13:26:07Z</time>
      </trkpt>
      <trkpt lat="49.42391" lon="3.85185">
        <ele>66.47</ele>
        <time>2017-04-29T13:26:15Z</time>
      </trkpt>
      <trkpt lat="49.42389" lon="3.85184">
        <ele>66.47</ele>
        <time>2017-04-29T13:26:17Z</time>
      </trkpt>
      <trkpt lat="49.42379" lon="3.8518">
        <ele>66.47</ele>
        <time>2017-04-29T13:26:25Z</time>
      </trkpt>
      <trkpt lat="49.42371" lon="3.85176">
        <ele>66.47</ele>
        <time>2017-04-29T13:26:32Z</time>
      </trkpt>
      <trkpt lat="49.4237" lon="3.85176">
        <ele>66.47</ele>
        <time>2017-04-29T13:26:33Z</time>
      </trkpt>
      <trkpt lat="49.42368" lon="3.85174">
        <ele>66.47</ele>
        <time>2017-04-29T13:26:35Z</time>
      </trkpt>
      <trkpt lat="49.42356" lon="3.85169">
        <ele>66.47</ele>
        <time>2017-04-29T13:26:45Z</time>
      </trkpt>
      <trkpt lat="49.42347" lon="3.85164">
        <ele>66.47</ele>
        <time>2017-04-29T13:26:53Z</time>
      </trkpt>
      <trkpt lat="49.42341" lon="3.85162">
        <ele>66.47</ele>
        <time>2017-04-29T13:26:59Z</time>
      </trkpt>
      <trkpt lat="49.42331" lon="3.85159">
        <ele>66.47</ele>
        <time>2017-04-29T13:27:07Z</time>
      </trkpt>
      <trkpt lat="49.42328" lon="3.85158">
        <ele>65.99</ele>
        <time>2017-04-29T13:27:09Z</time>
      </trkpt>
      <trkpt lat="49.42323" lon="3.85156">
        <ele>65.99</ele>
        <time>2017-04-29T13:27:14Z</time>
      </trkpt>
      <trkpt lat="49.42317" lon="3.85153">
        <ele>65.99</ele>
        <time>2017-04-29T13:27:20Z</time>
      </trkpt>
      <trkpt lat="49.42314" lon="3.85152">
        <ele>65.99</ele>
        <time>2017-04-29T13:27:22Z</time>
      </trkpt>
      <trkpt lat="49.42307" lon="3.8515">
        <ele>65.99</ele>
        <time>2017-04-29T13:27:28Z</time>
      </trkpt>
      <trkpt lat="49.42298" lon="3.85149">
        <ele>65.51</ele>
        <time>2017-04-29T13:27:35Z</time>
      </trkpt>
      <trkpt lat="49.42286" lon="3.85144">
        <ele>65.99</ele>
        <time>2017-04-29T13:27:44Z</time>
      </trkpt>
      <trkpt lat="49.42276" lon="3.8514">
        <ele>65.99</ele>
        <time>2017-04-29T13:27:52Z</time>
      </trkpt>
      <trkpt lat="49.42272" lon="3.85137">
        <ele>65.99</ele>
        <time>2017-04-29T13:27:57Z</time>
      </trkpt>
      <trkpt lat="49.42261" lon="3.8513">
        <ele>65.99</ele>
        <time>2017-04-29T13:28:05Z</time>
      </trkpt>
      <trkpt lat="49.42259" lon="3.85127">
        <ele>66.47</ele>
        <time>2017-04-29T13:28:07Z</time>
      </trkpt>
      <trkpt lat="49.42257" lon="3.85125">
        <ele>66.47</ele>
        <time>2017-04-29T13:28:09Z</time>
      </trkpt>
      <trkpt lat="49.42255" lon="3.85123">
        <ele>66.47</ele>
        <time>2017-04-29T13:28:11Z</time>
      </trkpt>
      <trkpt lat="49.4225" lon="3.85116">
        <ele>66.47</ele>
        <time>2017-04-29T13:28:16Z</time>
      </trkpt>
      <trkpt lat="49.42243" lon="3.85106">
        <ele>66.47</ele>
        <time>2017-04-29T13:28:24Z</time>
      </trkpt>
      <trkpt lat="49.42236" lon="3.85098">
        <ele>66.47</ele>
        <time>2017-04-29T13:28:31Z</time>
      </trkpt>
      <trkpt lat="49.42234" lon="3.85093">
        <ele>66.95</ele>
        <time>2017-04-29T13:28:36Z</time>
      </trkpt>
      <trkpt lat="49.4223" lon="3.85093">
        <ele>66.95</ele>
        <time>2017-04-29T13:28:43Z</time>
      </trkpt>
      <trkpt lat="49.4223" lon="3.85093">
        <ele>66.95</ele>
        <time>2017-04-29T13:28:45Z</time>
      </trkpt>
      <trkpt lat="49.42228" lon="3.85094">
        <ele>66.95</ele>
        <time>2017-04-29T13:28:47Z</time>
      </trkpt>
      <trkpt lat="49.42224" lon="3.85096">
        <ele>66.95</ele>
        <time>2017-04-29T13:28:53Z</time>
      </trkpt>
      <trkpt lat="49.42221" lon="3.85095">
        <ele>66.95</ele>
        <time>2017-04-29T13:29:00Z</time>
      </trkpt>
      <trkpt lat="49.42215" lon="3.85099">
        <ele>66.95</ele>
        <time>2017-04-29T13:29:08Z</time>
      </trkpt>
      <trkpt lat="49.42207" lon="3.85106">
        <ele>66.47</ele>
        <time>2017-04-29T13:29:17Z</time>
      </trkpt>
      <trkpt lat="49.42206" lon="3.85107">
        <ele>66.47</ele>
        <time>2017-04-29T13:29:19Z</time>
      </trkpt>
      <trkpt lat="49.42195" lon="3.85113">
        <ele>66.95</ele>
        <time>2017-04-29T13:29:29Z</time>
      </trkpt>
      <trkpt lat="49.42188" lon="3.85121">
        <ele>66.95</ele>
        <time>2017-04-29T13:29:37Z</time>
      </trkpt>
      <trkpt lat="49.42182" lon="3.85127">
        <ele>66.95</ele>
        <time>2017-04-29T13:29:44Z</time>
      </trkpt>
      <trkpt lat="49.42177" lon="3.85132">
        <ele>66.95</ele>
        <time>2017-04-29T13:29:51Z</time>
      </trkpt>
      <trkpt lat="49.4217" lon="3.8514">
        <ele>66.95</ele>
        <time>2017-04-29T13:29:59Z</time>
      </trkpt>
      <trkpt lat="49.42158" lon="3.85148">
        <ele>67.43</ele>
        <time>2017-04-29T13:30:08Z</time>
      </trkpt>
      <trkpt lat="49.42149" lon="3.85154">
        <ele>67.43</ele>
        <time>2017-04-29T13:30:16Z</time>
      </trkpt>
      <trkpt lat="49.42143" lon="3.85159">
        <ele>67.43</ele>
        <time>2017-04-29T13:30:22Z</time>
      </trkpt>
      <trkpt lat="49.4214" lon="3.85161">
        <ele>67.43</ele>
        <time>2017-04-29T13:30:25Z</time>
      </trkpt>
      <trkpt lat="49.42135" lon="3.85166">
        <ele>67.43</ele>
        <time>2017-04-29T13:30:30Z</time>
      </trkpt>
      <trkpt lat="49.42123" lon="3.85174">
        <ele>67.43</ele>
        <time>2017-04-29T13:30:40Z</time>
      </trkpt>
      <trkpt lat="49.42111" lon="3.85179">
        <ele>67.91</ele>
        <time>2017-04-29T13:30:48Z</time>
      </trkpt>
      <trkpt lat="49.42094" lon="3.85182">
        <ele>67.91</ele>
        <time>2017-04-29T13:30:58Z</time>
      </trkpt>
      <trkpt lat="49.42082" lon="3.85183">
        <ele>67.91</ele>
        <time>2017-04-29T13:31:07Z</time>
      </trkpt>
      <trkpt lat="49.42075" lon="3.8518">
        <ele>67.91</ele>
        <time>2017-04-29T13:31:17Z</time>
      </trkpt>
      <trkpt lat="49.42075" lon="3.85178">
        <ele>67.43</ele>
        <time>2017-04-29T13:31:33Z</time>
      </trkpt>
      <trkpt lat="49.42074" lon="3.85181">
        <ele>67.43</ele>
        <time>2017-04-29T13:31:40Z</time>
      </trkpt>
      <trkpt lat="49.42074" lon="3.8518">
        <ele>67.43</ele>
        <time>2017-04-29T13:31:51Z</time>
      </trkpt>
      <trkpt lat="49.42073" lon="3.8518">
        <ele>67.43</ele>
        <time>2017-04-29T13:32:05Z</time>
      </trkpt>
      <trkpt lat="49.42072" lon="3.85181">
        <ele>66.95</ele>
        <time>2017-04-29T13:32:16Z</time>
      </trkpt>
      <trkpt lat="49.4207" lon="3.85179">
        <ele>66.95</ele>
        <time>2017-04-29T13:32:31Z</time>
      </trkpt>
      <trkpt lat="49.4207" lon="3.85179">
        <ele>67.43</ele>
        <time>2017-04-29T13:32:39Z</time>
      </trkpt>
      <trkpt lat="49.42069" lon="3.8518">
        <ele>67.43</ele>
        <time>2017-04-29T13:32:54Z</time>
      </trkpt>
      <trkpt lat="49.42069" lon="3.8518">
        <ele>67.43</ele>
        <time>2017-04-29T13:33:06Z</time>
      </trkpt>
      <trkpt lat="49.42069" lon="3.85181">
        <ele>66.95</ele>
        <time>2017-04-29T13:33:18Z</time>
      </trkpt>
      <trkpt lat="49.42068" lon="3.8518">
        <ele>67.43</ele>
        <time>2017-04-29T13:33:27Z</time>
      </trkpt>
      <trkpt lat="49.42068" lon="3.85179">
        <ele>66.95</ele>
        <time>2017-04-29T13:33:42Z</time>
      </trkpt>
      <trkpt lat="49.42068" lon="3.85179">
        <ele>66.95</ele>
        <time>2017-04-29T13:33:58Z</time>
      </trkpt>
      <trkpt lat="49.42068" lon="3.8518">
        <ele>66.95</ele>
        <time>2017-04-29T13:34:08Z</time>
      </trkpt>
      <trkpt lat="49.42068" lon="3.8518">
        <ele>66.95</ele>
        <time>2017-04-29T13:34:23Z</time>
      </trkpt>
      <trkpt lat="49.42068" lon="3.8518">
        <ele>66.95</ele>
        <time>2017-04-29T13:34:33Z</time>
      </trkpt>
      <trkpt lat="49.42068" lon="3.85181">
        <ele>66.95</ele>
        <time>2017-04-29T13:34:47Z</time>
      </trkpt>
      <trkpt lat="49.42068" lon="3.8518">
        <ele>66.95</ele>
        <time>2017-04-29T13:35:03Z</time>
      </trkpt>
      <trkpt lat="49.42069" lon="3.8518">
        <ele>66.95</ele>
        <time>2017-04-29T13:35:13Z</time>
      </trkpt>
      <trkpt lat="49.42069" lon="3.85181">
        <ele>66.95</ele>
        <time>2017-04-29T13:35:20Z</time>
      </trkpt>
      <trkpt lat="49.42069" lon="3.85181">
        <ele>66.95</ele>
        <time>2017-04-29T13:35:30Z</time>
      </trkpt>
      <trkpt lat="49.4207" lon="3.85181">
        <ele>66.95</ele>
        <time>2017-04-29T13:35:41Z</time>
      </trkpt>
      <trkpt lat="49.4207" lon="3.85181">
        <ele>66.47</ele>
        <time>2017-04-29T13:35:52Z</time>
      </trkpt>
      <trkpt lat="49.42069" lon="3.85181">
        <ele>66.95</ele>
        <time>2017-04-29T13:35:57Z</time>
      </trkpt>
      <trkpt lat="49.42069" lon="3.85181">
        <ele>67.43</ele>
        <time>2017-04-29T13:36:09Z</time>
      </trkpt>
      <trkpt lat="49.42068" lon="3.85181">
        <ele>66.95</ele>
        <time>2017-04-29T13:36:22Z</time>
      </trkpt>
      <trkpt lat="49.42067" lon="3.85181">
        <ele>66.95</ele>
        <time>2017-04-29T13:36:37Z</time>
      </trkpt>
      <trkpt lat="49.42067" lon="3.85181">
        <ele>66.95</ele>
        <time>2017-04-29T13:36:52Z</time>
      </trkpt>
      <trkpt lat="49.42067" lon="3.85181">
        <ele>66.95</ele>
        <time>2017-04-29T13:37:08Z</time>
      </trkpt>
      <trkpt lat="49.42067" lon="3.85181">
        <ele>67.43</ele>
        <time>2017-04-29T13:37:24Z</time>
      </trkpt>
      <trkpt lat="49.42067" lon="3.85182">
        <ele>67.43</ele>
        <time>2017-04-29T13:37:36Z</time>
      </trkpt>
      <trkpt lat="49.42066" lon="3.85181">
        <ele>67.43</ele>
        <time>2017-04-29T13:37:40Z</time>
      </trkpt>
      <trkpt lat="49.42062" lon="3.85182">
        <ele>67.43</ele>
        <time>2017-04-29T13:37:48Z</time>
      </trkpt>
      <trkpt lat="49.42057" lon="3.85182">
        <ele>66.95</ele>
        <time>2017-04-29T13:37:54Z</time>
      </trkpt>
      <trkpt lat="49.42052" lon="3.8518">
        <ele>67.43</ele>
        <time>2017-04-29T13:38:02Z</time>
      </trkpt>
      <trkpt lat="49.42046" lon="3.85181">
        <ele>67.43</ele>
        <time>2017-04-29T13:38:10Z</time>
      </trkpt>
      <trkpt lat="49.42042" lon="3.8518">
        <ele>67.43</ele>
        <time>2017-04-29T13:38:16Z</time>
      </trkpt>
      <trkpt lat="49.42035" lon="3.8518">
        <ele>67.43</ele>
        <time>2017-04-29T13:38:24Z</time>
      </trkpt>
      <trkpt lat="49.4203" lon="3.85179">
        <ele>66.95</ele>
        <time>2017-04-29T13:38:31Z</time>
      </trkpt>
      <trkpt lat="49.42023" lon="3.85179">
        <ele>67.43</ele>
        <time>2017-04-29T13:38:39Z</time>
      </trkpt>
      <trkpt lat="49.42013" lon="3.85178">
        <ele>67.43</ele>
        <time>2017-04-29T13:38:47Z</time>
      </trkpt>
      <trkpt lat="49.42012" lon="3.85178">
        <ele>67.43</ele>
        <time>2017-04-29T13:38:48Z</time>
      </trkpt>
      <trkpt lat="49.42007" lon="3.85181">
        <ele>67.43</ele>
        <time>2017-04-29T13:38:51Z</time>
      </trkpt>
      <trkpt lat="49.41995" lon="3.85186">
        <ele>67.43</ele>
        <time>2017-04-29T13:38:59Z</time>
      </trkpt>
      <trkpt lat="49.41987" lon="3.85189">
        <ele>67.43</ele>
        <time>2017-04-29T13:39:06Z</time>
      </trkpt>
      <trkpt lat="49.41983" lon="3.85188">
        <ele>67.43</ele>
        <time>2017-04-29T13:39:09Z</time>
      </trkpt>
      <trkpt lat="49.41978" lon="3.85189">
        <ele>67.43</ele>
        <time>2017-04-29T13:39:15Z</time>
      </trkpt>
      <trkpt lat="49.41972" lon="3.85192">
        <ele>67.43</ele>
        <time>2017-04-29T13:39:22Z</time>
      </trkpt>
      <trkpt lat="49.41964" lon="3.85195">
        <ele>67.43</ele>
        <time>2017-04-29T13:39:29Z</time>
      </trkpt>
      <trkpt lat="49.41959" lon="3.85196">
        <ele>67.43</ele>
        <time>2017-04-29T13:39:35Z</time>
      </trkpt>
      <trkpt lat="49.41954" lon="3.85199">
        <ele>67.91</ele>
        <time>2017-04-29T13:39:39Z</time>
      </trkpt>
      <trkpt lat="49.41948" lon="3.852">
        <ele>67.43</ele>
        <time>2017-04-29T13:39:44Z</time>
      </trkpt>
      <trkpt lat="49.41943" lon="3.85202">
        <ele>67.91</ele>
        <time>2017-04-29T13:39:48Z</time>
      </trkpt>
      <trkpt lat="49.41938" lon="3.85204">
        <ele>67.91</ele>
        <time>2017-04-29T13:39:53Z</time>
      </trkpt>
      <trkpt lat="49.41933" lon="3.85204">
        <ele>67.91</ele>
        <time>2017-04-29T13:39:56Z</time>
      </trkpt>
      <trkpt lat="49.41922" lon="3.8521">
        <ele>67.91</ele>
        <time>2017-04-29T13:40:03Z</time>
      </trkpt>
      <trkpt lat="49.41912" lon="3.85214">
        <ele>67.91</ele>
        <time>2017-04-29T13:40:09Z</time>
      </trkpt>
      <trkpt lat="49.41902" lon="3.85217">
        <ele>67.91</ele>
        <time>2017-04-29T13:40:17Z</time>
      </trkpt>
      <trkpt lat="49.41895" lon="3.8522">
        <ele>67.91</ele>
        <time>2017-04-29T13:40:23Z</time>
      </trkpt>
      <trkpt lat="49.41886" lon="3.85225">
        <ele>67.91</ele>
        <time>2017-04-29T13:40:31Z</time>
      </trkpt>
      <trkpt lat="49.41878" lon="3.85229">
        <ele>67.91</ele>
        <time>2017-04-29T13:40:36Z</time>
      </trkpt>
      <trkpt lat="49.4187" lon="3.85233">
        <ele>67.91</ele>
        <time>2017-04-29T13:40:44Z</time>
      </trkpt>
      <trkpt lat="49.41868" lon="3.85232">
        <ele>67.91</ele>
        <time>2017-04-29T13:40:46Z</time>
      </trkpt>
      <trkpt lat="49.41863" lon="3.85235">
        <ele>67.43</ele>
        <time>2017-04-29T13:40:51Z</time>
      </trkpt>
      <trkpt lat="49.41862" lon="3.85245">
        <ele>67.91</ele>
        <time>2017-04-29T13:40:55Z</time>
      </trkpt>
      <trkpt lat="49.41853" lon="3.85255">
        <ele>67.43</ele>
        <time>2017-04-29T13:41:00Z</time>
      </trkpt>
      <trkpt lat="49.41851" lon="3.85268">
        <ele>67.43</ele>
        <time>2017-04-29T13:41:07Z</time>
      </trkpt>
      <trkpt lat="49.41851" lon="3.85286">
        <ele>67.91</ele>
        <time>2017-04-29T13:41:15Z</time>
      </trkpt>
      <trkpt lat="49.41853" lon="3.85299">
        <ele>67.91</ele>
        <time>2017-04-29T13:41:22Z</time>
      </trkpt>
      <trkpt lat="49.41855" lon="3.85313">
        <ele>67.91</ele>
        <time>2017-04-29T13:41:29Z</time>
      </trkpt>
      <trkpt lat="49.41855" lon="3.85317">
        <ele>67.91</ele>
        <time>2017-04-29T13:41:31Z</time>
      </trkpt>
      <trkpt lat="49.41858" lon="3.85331">
        <ele>67.91</ele>
        <time>2017-04-29T13:41:38Z</time>
      </trkpt>
      <trkpt lat="49.4186" lon="3.85346">
        <ele>67.91</ele>
        <time>2017-04-29T13:41:46Z</time>
      </trkpt>
      <trkpt lat="49.41861" lon="3.85351">
        <ele>67.91</ele>
        <time>2017-04-29T13:41:48Z</time>
      </trkpt>
      <trkpt lat="49.41862" lon="3.8536">
        <ele>67.91</ele>
        <time>2017-04-29T13:41:53Z</time>
      </trkpt>
      <trkpt lat="49.41864" lon="3.85381">
        <ele>68.39</ele>
        <time>2017-04-29T13:42:03Z</time>
      </trkpt>
      <trkpt lat="49.41865" lon="3.85399">
        <ele>68.39</ele>
        <time>2017-04-29T13:42:12Z</time>
      </trkpt>
      <trkpt lat="49.41865" lon="3.85413">
        <ele>68.87</ele>
        <time>2017-04-29T13:42:19Z</time>
      </trkpt>
      <trkpt lat="49.41866" lon="3.85419">
        <ele>68.39</ele>
        <time>2017-04-29T13:42:22Z</time>
      </trkpt>
      <trkpt lat="49.41866" lon="3.85436">
        <ele>68.39</ele>
        <time>2017-04-29T13:42:30Z</time>
      </trkpt>
      <trkpt lat="49.41864" lon="3.8545">
        <ele>67.91</ele>
        <time>2017-04-29T13:42:37Z</time>
      </trkpt>
      <trkpt lat="49.41864" lon="3.85459">
        <ele>67.91</ele>
        <time>2017-04-29T13:42:42Z</time>
      </trkpt>
      <trkpt lat="49.41862" lon="3.85474">
        <ele>67.91</ele>
        <time>2017-04-29T13:42:50Z</time>
      </trkpt>
      <trkpt lat="49.4186" lon="3.85485">
        <ele>67.91</ele>
        <time>2017-04-29T13:42:55Z</time>
      </trkpt>
      <trkpt lat="49.41857" lon="3.85498">
        <ele>67.43</ele>
        <time>2017-04-29T13:43:02Z</time>
      </trkpt>
      <trkpt lat="49.41853" lon="3.85508">
        <ele>67.43</ele>
        <time>2017-04-29T13:43:08Z</time>
      </trkpt>
      <trkpt lat="49.41849" lon="3.85521">
        <ele>67.43</ele>
        <time>2017-04-29T13:43:15Z</time>
      </trkpt>
      <trkpt lat="49.41847" lon="3.85532">
        <ele>67.43</ele>
        <time>2017-04-29T13:43:21Z</time>
      </trkpt>
      <trkpt lat="49.41843" lon="3.85549">
        <ele>67.43</ele>
        <time>2017-04-29T13:43:30Z</time>
      </trkpt>
      <trkpt lat="49.41842" lon="3.85563">
        <ele>67.43</ele>
        <time>2017-04-29T13:43:37Z</time>
      </trkpt>
      <trkpt lat="49.41842" lon="3.85578">
        <ele>67.43</ele>
        <time>2017-04-29T13:43:45Z</time>
      </trkpt>
      <trkpt lat="49.41843" lon="3.85589">
        <ele>67.43</ele>
        <time>2017-04-29T13:43:51Z</time>
      </trkpt>
      <trkpt lat="49.41844" lon="3.85601">
        <ele>67.43</ele>
        <time>2017-04-29T13:43:57Z</time>
      </trkpt>
      <trkpt lat="49.41847" lon="3.85616">
        <ele>67.43</ele>
        <time>2017-04-29T13:44:05Z</time>
      </trkpt>
      <trkpt lat="49.4185" lon="3.8563">
        <ele>67.91</ele>
        <time>2017-04-29T13:44:12Z</time>
      </trkpt>
      <trkpt lat="49.4185" lon="3.85641">
        <ele>67.91</ele>
        <time>2017-04-29T13:44:18Z</time>
      </trkpt>
      <trkpt lat="49.41853" lon="3.85656">
        <ele>68.39</ele>
        <time>2017-04-29T13:44:26Z</time>
      </trkpt>
      <trkpt lat="49.41853" lon="3.85659">
        <ele>68.39</ele>
        <time>2017-04-29T13:44:28Z</time>
      </trkpt>
      <trkpt lat="49.41854" lon="3.85669">
        <ele>68.39</ele>
        <time>2017-04-29T13:44:33Z</time>
      </trkpt>
      <trkpt lat="49.41857" lon="3.85688">
        <ele>68.39</ele>
        <time>2017-04-29T13:44:43Z</time>
      </trkpt>
      <trkpt lat="49.41859" lon="3.85701">
        <ele>68.87</ele>
        <time>2017-04-29T13:44:50Z</time>
      </trkpt>
      <trkpt lat="49.41861" lon="3.85713">
        <ele>68.87</ele>
        <time>2017-04-29T13:44:57Z</time>
      </trkpt>
      <trkpt lat="49.41864" lon="3.85729">
        <ele>69.35</ele>
        <time>2017-04-29T13:45:06Z</time>
      </trkpt>
      <trkpt lat="49.41868" lon="3.85745">
        <ele>69.35</ele>
        <time>2017-04-29T13:45:15Z</time>
      </trkpt>
      <trkpt lat="49.41872" lon="3.8576">
        <ele>69.83</ele>
        <time>2017-04-29T13:45:24Z</time>
      </trkpt>
      <trkpt lat="49.41876" lon="3.85775">
        <ele>69.35</ele>
        <time>2017-04-29T13:45:33Z</time>
      </trkpt>
      <trkpt lat="49.41879" lon="3.85785">
        <ele>69.83</ele>
        <time>2017-04-29T13:45:40Z</time>
      </trkpt>
      <trkpt lat="49.4188" lon="3.85788">
        <ele>69.83</ele>
        <time>2017-04-29T13:45:42Z</time>
      </trkpt>
      <trkpt lat="49.41884" lon="3.85793">
        <ele>69.83</ele>
        <time>2017-04-29T13:45:50Z</time>
      </trkpt>
      <trkpt lat="49.41885" lon="3.85794">
        <ele>69.83</ele>
        <time>2017-04-29T13:45:59Z</time>
      </trkpt>
      <trkpt lat="49.41883" lon="3.85798">
        <ele>69.83</ele>
        <time>2017-04-29T13:46:04Z</time>
      </trkpt>
      <trkpt lat="49.4188" lon="3.85805">
        <ele>70.31</ele>
        <time>2017-04-29T13:46:11Z</time>
      </trkpt>
      <trkpt lat="49.41878" lon="3.85807">
        <ele>69.83</ele>
        <time>2017-04-29T13:46:13Z</time>
      </trkpt>
      <trkpt lat="49.41872" lon="3.85816">
        <ele>70.79</ele>
        <time>2017-04-29T13:46:21Z</time>
      </trkpt>
      <trkpt lat="49.41865" lon="3.85823">
        <ele>69.83</ele>
        <time>2017-04-29T13:46:28Z</time>
      </trkpt>
      <trkpt lat="49.41856" lon="3.85829">
        <ele>69.35</ele>
        <time>2017-04-29T13:46:36Z</time>
      </trkpt>
      <trkpt lat="49.41845" lon="3.85837">
        <ele>69.35</ele>
        <time>2017-04-29T13:46:46Z</time>
      </trkpt>
      <trkpt lat="49.41834" lon="3.85845">
        <ele>69.35</ele>
        <time>2017-04-29T13:46:56Z</time>
      </trkpt>
      <trkpt lat="49.41824" lon="3.85851">
        <ele>68.39</ele>
        <time>2017-04-29T13:47:05Z</time>
      </trkpt>
      <trkpt lat="49.41815" lon="3.85857">
        <ele>67.91</ele>
        <time>2017-04-29T13:47:14Z</time>
      </trkpt>
      <trkpt lat="49.41807" lon="3.85861">
        <ele>67.43</ele>
        <time>2017-04-29T13:47:22Z</time>
      </trkpt>
      <trkpt lat="49.41805" lon="3.85864">
        <ele>66.95</ele>
        <time>2017-04-29T13:47:28Z</time>
      </trkpt>
      <trkpt lat="49.41796" lon="3.8587">
        <ele>66.95</ele>
        <time>2017-04-29T13:47:37Z</time>
      </trkpt>
      <trkpt lat="49.41785" lon="3.85877">
        <ele>65.99</ele>
        <time>2017-04-29T13:47:46Z</time>
      </trkpt>
      <trkpt lat="49.41776" lon="3.85884">
        <ele>65.99</ele>
        <time>2017-04-29T13:47:54Z</time>
      </trkpt>
      <trkpt lat="49.41764" lon="3.85892">
        <ele>65.99</ele>
        <time>2017-04-29T13:48:04Z</time>
      </trkpt>
      <trkpt lat="49.41753" lon="3.85899">
        <ele>65.51</ele>
        <time>2017-04-29T13:48:14Z</time>
      </trkpt>
      <trkpt lat="49.41752" lon="3.85901">
        <ele>65.51</ele>
        <time>2017-04-29T13:48:15Z</time>
      </trkpt>
      <trkpt lat="49.4175" lon="3.85913">
        <ele>65.03</ele>
        <time>2017-04-29T13:48:22Z</time>
      </trkpt>
      <trkpt lat="49.41746" lon="3.85927">
        <ele>65.03</ele>
        <time>2017-04-29T13:48:30Z</time>
      </trkpt>
      <trkpt lat="49.41745" lon="3.8593">
        <ele>65.03</ele>
        <time>2017-04-29T13:48:32Z</time>
      </trkpt>
      <trkpt lat="49.41743" lon="3.85946">
        <ele>65.03</ele>
        <time>2017-04-29T13:48:42Z</time>
      </trkpt>
      <trkpt lat="49.41742" lon="3.8595">
        <ele>65.03</ele>
        <time>2017-04-29T13:48:45Z</time>
      </trkpt>
      <trkpt lat="49.41741" lon="3.85964">
        <ele>65.03</ele>
        <time>2017-04-29T13:48:52Z</time>
      </trkpt>
      <trkpt lat="49.41739" lon="3.8598">
        <ele>64.07</ele>
        <time>2017-04-29T13:49:01Z</time>
      </trkpt>
      <trkpt lat="49.41737" lon="3.85992">
        <ele>64.07</ele>
        <time>2017-04-29T13:49:07Z</time>
      </trkpt>
      <trkpt lat="49.41736" lon="3.86008">
        <ele>64.55</ele>
        <time>2017-04-29T13:49:15Z</time>
      </trkpt>
      <trkpt lat="49.41733" lon="3.86025">
        <ele>64.55</ele>
        <time>2017-04-29T13:49:24Z</time>
      </trkpt>
      <trkpt lat="49.41733" lon="3.86027">
        <ele>64.55</ele>
        <time>2017-04-29T13:49:25Z</time>
      </trkpt>
      <trkpt lat="49.41731" lon="3.86043">
        <ele>64.55</ele>
        <time>2017-04-29T13:49:33Z</time>
      </trkpt>
      <trkpt lat="49.41729" lon="3.8605">
        <ele>64.55</ele>
        <time>2017-04-29T13:49:37Z</time>
      </trkpt>
      <trkpt lat="49.41729" lon="3.86056">
        <ele>64.55</ele>
        <time>2017-04-29T13:49:40Z</time>
      </trkpt>
      <trkpt lat="49.41727" lon="3.86071">
        <ele>65.03</ele>
        <time>2017-04-29T13:49:48Z</time>
      </trkpt>
      <trkpt lat="49.41725" lon="3.86085">
        <ele>64.55</ele>
        <time>2017-04-29T13:49:55Z</time>
      </trkpt>
      <trkpt lat="49.41723" lon="3.86102">
        <ele>64.07</ele>
        <time>2017-04-29T13:50:04Z</time>
      </trkpt>
      <trkpt lat="49.41721" lon="3.86115">
        <ele>64.07</ele>
        <time>2017-04-29T13:50:11Z</time>
      </trkpt>
      <trkpt lat="49.4172" lon="3.86125">
        <ele>64.07</ele>
        <time>2017-04-29T13:50:16Z</time>
      </trkpt>
      <trkpt lat="49.41718" lon="3.86134">
        <ele>65.03</ele>
        <time>2017-04-29T13:50:21Z</time>
      </trkpt>
      <trkpt lat="49.41716" lon="3.86154">
        <ele>64.07</ele>
        <time>2017-04-29T13:50:31Z</time>
      </trkpt>
      <trkpt lat="49.41714" lon="3.86172">
        <ele>64.07</ele>
        <time>2017-04-29T13:50:40Z</time>
      </trkpt>
      <trkpt lat="49.41714" lon="3.86178">
        <ele>64.07</ele>
        <time>2017-04-29T13:50:43Z</time>
      </trkpt>
      <trkpt lat="49.41712" lon="3.86186">
        <ele>64.07</ele>
        <time>2017-04-29T13:50:47Z</time>
      </trkpt>
      <trkpt lat="49.4171" lon="3.86201">
        <ele>64.07</ele>
        <time>2017-04-29T13:50:55Z</time>
      </trkpt>
      <trkpt lat="49.41708" lon="3.86214">
        <ele>64.07</ele>
        <time>2017-04-29T13:51:02Z</time>
      </trkpt>
      <trkpt lat="49.41708" lon="3.86222">
        <ele>64.07</ele>
        <time>2017-04-29T13:51:06Z</time>
      </trkpt>
      <trkpt lat="49.41704" lon="3.86237">
        <ele>64.55</ele>
        <time>2017-04-29T13:51:14Z</time>
      </trkpt>
      <trkpt lat="49.417" lon="3.86245">
        <ele>64.55</ele>
        <time>2017-04-29T13:51:21Z</time>
      </trkpt>
      <trkpt lat="49.41698" lon="3.86249">
        <ele>64.55</ele>
        <time>2017-04-29T13:51:27Z</time>
      </trkpt>
      <trkpt lat="49.41695" lon="3.86254">
        <ele>64.55</ele>
        <time>2017-04-29T13:51:31Z</time>
      </trkpt>
      <trkpt lat="49.41689" lon="3.86262">
        <ele>65.03</ele>
        <time>2017-04-29T13:51:38Z</time>
      </trkpt>
      <trkpt lat="49.41684" lon="3.86267">
        <ele>65.03</ele>
        <time>2017-04-29T13:51:43Z</time>
      </trkpt>
      <trkpt lat="49.4168" lon="3.86269">
        <ele>65.03</ele>
        <time>2017-04-29T13:51:46Z</time>
      </trkpt>
      <trkpt lat="49.41668" lon="3.86276">
        <ele>65.51</ele>
        <time>2017-04-29T13:51:57Z</time>
      </trkpt>
      <trkpt lat="49.41658" lon="3.86284">
        <ele>65.51</ele>
        <time>2017-04-29T13:52:06Z</time>
      </trkpt>
      <trkpt lat="49.41647" lon="3.86291">
        <ele>65.99</ele>
        <time>2017-04-29T13:52:15Z</time>
      </trkpt>
      <trkpt lat="49.41637" lon="3.86298">
        <ele>65.99</ele>
        <time>2017-04-29T13:52:23Z</time>
      </trkpt>
      <trkpt lat="49.41626" lon="3.86306">
        <ele>65.51</ele>
        <time>2017-04-29T13:52:32Z</time>
      </trkpt>
      <trkpt lat="49.41616" lon="3.86313">
        <ele>65.99</ele>
        <time>2017-04-29T13:52:41Z</time>
      </trkpt>
      <trkpt lat="49.41608" lon="3.8632">
        <ele>65.99</ele>
        <time>2017-04-29T13:52:48Z</time>
      </trkpt>
      <trkpt lat="49.41599" lon="3.86326">
        <ele>66.47</ele>
        <time>2017-04-29T13:52:56Z</time>
      </trkpt>
      <trkpt lat="49.41588" lon="3.86334">
        <ele>66.47</ele>
        <time>2017-04-29T13:53:05Z</time>
      </trkpt>
      <trkpt lat="49.41587" lon="3.86335">
        <ele>66.47</ele>
        <time>2017-04-29T13:53:06Z</time>
      </trkpt>
      <trkpt lat="49.4158" lon="3.86339">
        <ele>67.43</ele>
        <time>2017-04-29T13:53:12Z</time>
      </trkpt>
      <trkpt lat="49.41568" lon="3.86347">
        <ele>67.43</ele>
        <time>2017-04-29T13:53:22Z</time>
      </trkpt>
      <trkpt lat="49.4156" lon="3.86353">
        <ele>67.91</ele>
        <time>2017-04-29T13:53:29Z</time>
      </trkpt>
      <trkpt lat="49.41551" lon="3.8636">
        <ele>68.39</ele>
        <time>2017-04-29T13:53:37Z</time>
      </trkpt>
      <trkpt lat="49.41547" lon="3.86362">
        <ele>68.39</ele>
        <time>2017-04-29T13:53:40Z</time>
      </trkpt>
      <trkpt lat="49.41538" lon="3.86369">
        <ele>68.87</ele>
        <time>2017-04-29T13:53:48Z</time>
      </trkpt>
      <trkpt lat="49.4153" lon="3.86374">
        <ele>69.83</ele>
        <time>2017-04-29T13:53:55Z</time>
      </trkpt>
      <trkpt lat="49.41522" lon="3.8638">
        <ele>70.31</ele>
        <time>2017-04-29T13:54:02Z</time>
      </trkpt>
      <trkpt lat="49.41515" lon="3.86386">
        <ele>70.31</ele>
        <time>2017-04-29T13:54:08Z</time>
      </trkpt>
      <trkpt lat="49.41503" lon="3.86394">
        <ele>70.31</ele>
        <time>2017-04-29T13:54:18Z</time>
      </trkpt>
      <trkpt lat="49.41495" lon="3.864">
        <ele>70.79</ele>
        <time>2017-04-29T13:54:25Z</time>
      </trkpt>
      <trkpt lat="49.41484" lon="3.86408">
        <ele>70.79</ele>
        <time>2017-04-29T13:54:35Z</time>
      </trkpt>
      <trkpt lat="49.41474" lon="3.86415">
        <ele>70.31</ele>
        <time>2017-04-29T13:54:43Z</time>
      </trkpt>
      <trkpt lat="49.41463" lon="3.86422">
        <ele>69.83</ele>
        <time>2017-04-29T13:54:53Z</time>
      </trkpt>
      <trkpt lat="49.41451" lon="3.86431">
        <ele>68.87</ele>
        <time>2017-04-29T13:55:03Z</time>
      </trkpt>
      <trkpt lat="49.41439" lon="3.86438">
        <ele>68.39</ele>
        <time>2017-04-29T13:55:12Z</time>
      </trkpt>
      <trkpt lat="49.41428" lon="3.86445">
        <ele>67.43</ele>
        <time>2017-04-29T13:55:21Z</time>
      </trkpt>
      <trkpt lat="49.41417" lon="3.86453">
        <ele>66.95</ele>
        <time>2017-04-29T13:55:30Z</time>
      </trkpt>
      <trkpt lat="49.41406" lon="3.8646">
        <ele>66.47</ele>
        <time>2017-04-29T13:55:39Z</time>
      </trkpt>
      <trkpt lat="49.41395" lon="3.86469">
        <ele>66.47</ele>
        <time>2017-04-29T13:55:48Z</time>
      </trkpt>
      <trkpt lat="49.41383" lon="3.86478">
        <ele>65.99</ele>
        <time>2017-04-29T13:55:58Z</time>
      </trkpt>
      <trkpt lat="49.41372" lon="3.86485">
        <ele>65.51</ele>
        <time>2017-04-29T13:56:07Z</time>
      </trkpt>
      <trkpt lat="49.41361" lon="3.86492">
        <ele>65.03</ele>
        <time>2017-04-29T13:56:16Z</time>
      </trkpt>
      <trkpt lat="49.41351" lon="3.86499">
        <ele>64.55</ele>
        <time>2017-04-29T13:56:24Z</time>
      </trkpt>
      <trkpt lat="49.4134" lon="3.86505">
        <ele>63.58</ele>
        <time>2017-04-29T13:56:33Z</time>
      </trkpt>
      <trkpt lat="49.41331" lon="3.86512">
        <ele>63.1</ele>
        <time>2017-04-29T13:56:40Z</time>
      </trkpt>
      <trkpt lat="49.4132" lon="3.86519">
        <ele>62.62</ele>
        <time>2017-04-29T13:56:49Z</time>
      </trkpt>
      <trkpt lat="49.4131" lon="3.86527">
        <ele>62.14</ele>
        <time>2017-04-29T13:56:58Z</time>
      </trkpt>
      <trkpt lat="49.41296" lon="3.86536">
        <ele>61.66</ele>
        <time>2017-04-29T13:57:09Z</time>
      </trkpt>
      <trkpt lat="49.41286" lon="3.86543">
        <ele>61.18</ele>
        <time>2017-04-29T13:57:17Z</time>
      </trkpt>
      <trkpt lat="49.41277" lon="3.86549">
        <ele>60.22</ele>
        <time>2017-04-29T13:57:25Z</time>
      </trkpt>
      <trkpt lat="49.41266" lon="3.86557">
        <ele>59.74</ele>
        <time>2017-04-29T13:57:34Z</time>
      </trkpt>
      <trkpt lat="49.41257" lon="3.86564">
        <ele>58.78</ele>
        <time>2017-04-29T13:57:41Z</time>
      </trkpt>
      <trkpt lat="49.41247" lon="3.86569">
        <ele>58.3</ele>
        <time>2017-04-29T13:57:49Z</time>
      </trkpt>
      <trkpt lat="49.41236" lon="3.86577">
        <ele>57.82</ele>
        <time>2017-04-29T13:57:58Z</time>
      </trkpt>
      <trkpt lat="49.41227" lon="3.86583">
        <ele>57.34</ele>
        <time>2017-04-29T13:58:06Z</time>
      </trkpt>
      <trkpt lat="49.41217" lon="3.86589">
        <ele>57.34</ele>
        <time>2017-04-29T13:58:14Z</time>
      </trkpt>
      <trkpt lat="49.41207" lon="3.86595">
        <ele>56.86</ele>
        <time>2017-04-29T13:58:23Z</time>
      </trkpt>
      <trkpt lat="49.41198" lon="3.86601">
        <ele>56.86</ele>
        <time>2017-04-29T13:58:31Z</time>
      </trkpt>
      <trkpt lat="49.41192" lon="3.86605">
        <ele>56.86</ele>
        <time>2017-04-29T13:58:36Z</time>
      </trkpt>
      <trkpt lat="49.41186" lon="3.86608">
        <ele>56.86</ele>
        <time>2017-04-29T13:58:43Z</time>
      </trkpt>
      <trkpt lat="49.41181" lon="3.86612">
        <ele>56.86</ele>
        <time>2017-04-29T13:58:50Z</time>
      </trkpt>
      <trkpt lat="49.41181" lon="3.86619">
        <ele>56.86</ele>
        <time>2017-04-29T13:58:57Z</time>
      </trkpt>
      <trkpt lat="49.41181" lon="3.86624">
        <ele>56.37</ele>
        <time>2017-04-29T13:59:03Z</time>
      </trkpt>
      <trkpt lat="49.41182" lon="3.86625">
        <ele>56.86</ele>
        <time>2017-04-29T13:59:15Z</time>
      </trkpt>
      <trkpt lat="49.41182" lon="3.86626">
        <ele>56.37</ele>
        <time>2017-04-29T13:59:16Z</time>
      </trkpt>
      <trkpt lat="49.41184" lon="3.86639">
        <ele>56.86</ele>
        <time>2017-04-29T13:59:24Z</time>
      </trkpt>
      <trkpt lat="49.41185" lon="3.86646">
        <ele>56.86</ele>
        <time>2017-04-29T13:59:28Z</time>
      </trkpt>
      <trkpt lat="49.41187" lon="3.86663">
        <ele>57.34</ele>
        <time>2017-04-29T13:59:37Z</time>
      </trkpt>
      <trkpt lat="49.41189" lon="3.86678">
        <ele>56.86</ele>
        <time>2017-04-29T13:59:45Z</time>
      </trkpt>
      <trkpt lat="49.41191" lon="3.86684">
        <ele>56.86</ele>
        <time>2017-04-29T13:59:48Z</time>
      </trkpt>
      <trkpt lat="49.41194" lon="3.86701">
        <ele>56.86</ele>
        <time>2017-04-29T13:59:57Z</time>
      </trkpt>
      <trkpt lat="49.41196" lon="3.86716">
        <ele>56.86</ele>
        <time>2017-04-29T14:00:05Z</time>
      </trkpt>
      <trkpt lat="49.41197" lon="3.86721">
        <ele>56.86</ele>
        <time>2017-04-29T14:00:08Z</time>
      </trkpt>
      <trkpt lat="49.41198" lon="3.86737">
        <ele>56.86</ele>
        <time>2017-04-29T14:00:16Z</time>
      </trkpt>
      <trkpt lat="49.41201" lon="3.86754">
        <ele>56.86</ele>
        <time>2017-04-29T14:00:25Z</time>
      </trkpt>
      <trkpt lat="49.41203" lon="3.86769">
        <ele>56.86</ele>
        <time>2017-04-29T14:00:33Z</time>
      </trkpt>
      <trkpt lat="49.41205" lon="3.86782">
        <ele>56.86</ele>
        <time>2017-04-29T14:00:40Z</time>
      </trkpt>
      <trkpt lat="49.41207" lon="3.86795">
        <ele>56.86</ele>
        <time>2017-04-29T14:00:47Z</time>
      </trkpt>
      <trkpt lat="49.41208" lon="3.86805">
        <ele>56.86</ele>
        <time>2017-04-29T14:00:53Z</time>
      </trkpt>
      <trkpt lat="49.41209" lon="3.86818">
        <ele>56.86</ele>
        <time>2017-04-29T14:01:00Z</time>
      </trkpt>
      <trkpt lat="49.4121" lon="3.86824">
        <ele>56.86</ele>
        <time>2017-04-29T14:01:03Z</time>
      </trkpt>
      <trkpt lat="49.4121" lon="3.86832">
        <ele>56.86</ele>
        <time>2017-04-29T14:01:07Z</time>
      </trkpt>
      <trkpt lat="49.4121" lon="3.86849">
        <ele>56.86</ele>
        <time>2017-04-29T14:01:16Z</time>
      </trkpt>
      <trkpt lat="49.4121" lon="3.86863">
        <ele>56.86</ele>
        <time>2017-04-29T14:01:24Z</time>
      </trkpt>
      <trkpt lat="49.4121" lon="3.86873">
        <ele>56.86</ele>
        <time>2017-04-29T14:01:29Z</time>
      </trkpt>
      <trkpt lat="49.41209" lon="3.86888">
        <ele>56.86</ele>
        <time>2017-04-29T14:01:37Z</time>
      </trkpt>
      <trkpt lat="49.41208" lon="3.86904">
        <ele>56.37</ele>
        <time>2017-04-29T14:01:45Z</time>
      </trkpt>
      <trkpt lat="49.41208" lon="3.86916">
        <ele>56.37</ele>
        <time>2017-04-29T14:01:52Z</time>
      </trkpt>
      <trkpt lat="49.41207" lon="3.86922">
        <ele>56.37</ele>
        <time>2017-04-29T14:01:55Z</time>
      </trkpt>
      <trkpt lat="49.41206" lon="3.8693">
        <ele>56.37</ele>
        <time>2017-04-29T14:02:00Z</time>
      </trkpt>
      <trkpt lat="49.41205" lon="3.86943">
        <ele>56.37</ele>
        <time>2017-04-29T14:02:07Z</time>
      </trkpt>
      <trkpt lat="49.41205" lon="3.86955">
        <ele>56.37</ele>
        <time>2017-04-29T14:02:14Z</time>
      </trkpt>
      <trkpt lat="49.41202" lon="3.86969">
        <ele>56.37</ele>
        <time>2017-04-29T14:02:23Z</time>
      </trkpt>
      <trkpt lat="49.41201" lon="3.86983">
        <ele>56.37</ele>
        <time>2017-04-29T14:02:30Z</time>
      </trkpt>
      <trkpt lat="49.412" lon="3.86994">
        <ele>56.86</ele>
        <time>2017-04-29T14:02:37Z</time>
      </trkpt>
      <trkpt lat="49.41198" lon="3.86999">
        <ele>56.86</ele>
        <time>2017-04-29T14:02:43Z</time>
      </trkpt>
      <trkpt lat="49.41197" lon="3.87004">
        <ele>56.86</ele>
        <time>2017-04-29T14:02:49Z</time>
      </trkpt>
      <trkpt lat="49.41197" lon="3.87007">
        <ele>56.86</ele>
        <time>2017-04-29T14:02:51Z</time>
      </trkpt>
      <trkpt lat="49.41196" lon="3.87018">
        <ele>56.86</ele>
        <time>2017-04-29T14:02:57Z</time>
      </trkpt>
      <trkpt lat="49.41196" lon="3.87021">
        <ele>56.86</ele>
        <time>2017-04-29T14:02:58Z</time>
      </trkpt>
      <trkpt lat="49.41196" lon="3.87033">
        <ele>56.86</ele>
        <time>2017-04-29T14:03:02Z</time>
      </trkpt>
      <trkpt lat="49.41197" lon="3.87048">
        <ele>57.34</ele>
        <time>2017-04-29T14:03:09Z</time>
      </trkpt>
      <trkpt lat="49.41197" lon="3.8706">
        <ele>57.34</ele>
        <time>2017-04-29T14:03:15Z</time>
      </trkpt>
      <trkpt lat="49.41196" lon="3.87063">
        <ele>57.82</ele>
        <time>2017-04-29T14:03:16Z</time>
      </trkpt>
      <trkpt lat="49.41197" lon="3.87082">
        <ele>57.82</ele>
        <time>2017-04-29T14:03:23Z</time>
      </trkpt>
      <trkpt lat="49.41196" lon="3.87102">
        <ele>57.82</ele>
        <time>2017-04-29T14:03:32Z</time>
      </trkpt>
      <trkpt lat="49.41195" lon="3.87119">
        <ele>58.3</ele>
        <time>2017-04-29T14:03:40Z</time>
      </trkpt>
      <trkpt lat="49.41194" lon="3.87126">
        <ele>58.3</ele>
        <time>2017-04-29T14:03:44Z</time>
      </trkpt>
      <trkpt lat="49.41193" lon="3.87142">
        <ele>58.78</ele>
        <time>2017-04-29T14:03:53Z</time>
      </trkpt>
      <trkpt lat="49.41193" lon="3.87148">
        <ele>59.26</ele>
        <time>2017-04-29T14:03:56Z</time>
      </trkpt>
      <trkpt lat="49.41192" lon="3.87168">
        <ele>59.26</ele>
        <time>2017-04-29T14:04:05Z</time>
      </trkpt>
      <trkpt lat="49.41192" lon="3.87186">
        <ele>59.74</ele>
        <time>2017-04-29T14:04:12Z</time>
      </trkpt>
      <trkpt lat="49.41191" lon="3.87197">
        <ele>59.74</ele>
        <time>2017-04-29T14:04:16Z</time>
      </trkpt>
      <trkpt lat="49.4119" lon="3.87206">
        <ele>59.74</ele>
        <time>2017-04-29T14:04:20Z</time>
      </trkpt>
      <trkpt lat="49.4119" lon="3.87213">
        <ele>60.7</ele>
        <time>2017-04-29T14:04:23Z</time>
      </trkpt>
      <trkpt lat="49.41189" lon="3.87231">
        <ele>59.74</ele>
        <time>2017-04-29T14:04:31Z</time>
      </trkpt>
      <trkpt lat="49.41188" lon="3.87236">
        <ele>59.74</ele>
        <time>2017-04-29T14:04:33Z</time>
      </trkpt>
      <trkpt lat="49.41186" lon="3.87262">
        <ele>59.74</ele>
        <time>2017-04-29T14:04:44Z</time>
      </trkpt>
      <trkpt lat="49.41185" lon="3.87282">
        <ele>59.74</ele>
        <time>2017-04-29T14:04:54Z</time>
      </trkpt>
      <trkpt lat="49.41184" lon="3.87304">
        <ele>59.74</ele>
        <time>2017-04-29T14:05:04Z</time>
      </trkpt>
      <trkpt lat="49.41183" lon="3.87322">
        <ele>59.26</ele>
        <time>2017-04-29T14:05:13Z</time>
      </trkpt>
      <trkpt lat="49.41182" lon="3.87338">
        <ele>59.26</ele>
        <time>2017-04-29T14:05:21Z</time>
      </trkpt>
      <trkpt lat="49.4118" lon="3.87356">
        <ele>59.74</ele>
        <time>2017-04-29T14:05:30Z</time>
      </trkpt>
      <trkpt lat="49.41179" lon="3.87373">
        <ele>59.74</ele>
        <time>2017-04-29T14:05:37Z</time>
      </trkpt>
      <trkpt lat="49.41178" lon="3.87394">
        <ele>59.26</ele>
        <time>2017-04-29T14:05:47Z</time>
      </trkpt>
      <trkpt lat="49.41177" lon="3.87414">
        <ele>59.26</ele>
        <time>2017-04-29T14:05:56Z</time>
      </trkpt>
      <trkpt lat="49.41176" lon="3.87433">
        <ele>59.26</ele>
        <time>2017-04-29T14:06:05Z</time>
      </trkpt>
      <trkpt lat="49.41175" lon="3.87447">
        <ele>59.26</ele>
        <time>2017-04-29T14:06:12Z</time>
      </trkpt>
      <trkpt lat="49.41175" lon="3.87449">
        <ele>58.78</ele>
        <time>2017-04-29T14:06:13Z</time>
      </trkpt>
      <trkpt lat="49.41174" lon="3.87461">
        <ele>59.26</ele>
        <time>2017-04-29T14:06:18Z</time>
      </trkpt>
      <trkpt lat="49.41173" lon="3.87479">
        <ele>59.26</ele>
        <time>2017-04-29T14:06:27Z</time>
      </trkpt>
      <trkpt lat="49.41172" lon="3.87496">
        <ele>58.78</ele>
        <time>2017-04-29T14:06:35Z</time>
      </trkpt>
      <trkpt lat="49.41171" lon="3.8751">
        <ele>58.78</ele>
        <time>2017-04-29T14:06:42Z</time>
      </trkpt>
      <trkpt lat="49.41171" lon="3.87514">
        <ele>58.78</ele>
        <time>2017-04-29T14:06:44Z</time>
      </trkpt>
      <trkpt lat="49.4117" lon="3.87533">
        <ele>58.78</ele>
        <time>2017-04-29T14:06:53Z</time>
      </trkpt>
      <trkpt lat="49.41168" lon="3.8755">
        <ele>58.78</ele>
        <time>2017-04-29T14:07:01Z</time>
      </trkpt>
      <trkpt lat="49.41167" lon="3.87565">
        <ele>58.3</ele>
        <time>2017-04-29T14:07:08Z</time>
      </trkpt>
      <trkpt lat="49.41166" lon="3.8758">
        <ele>58.78</ele>
        <time>2017-04-29T14:07:15Z</time>
      </trkpt>
      <trkpt lat="49.41166" lon="3.87596">
        <ele>58.3</ele>
        <time>2017-04-29T14:07:23Z</time>
      </trkpt>
      <trkpt lat="49.41165" lon="3.87612">
        <ele>58.3</ele>
        <time>2017-04-29T14:07:30Z</time>
      </trkpt>
      <trkpt lat="49.41164" lon="3.87632">
        <ele>58.3</ele>
        <time>2017-04-29T14:07:40Z</time>
      </trkpt>
      <trkpt lat="49.41162" lon="3.87648">
        <ele>58.3</ele>
        <time>2017-04-29T14:07:48Z</time>
      </trkpt>
      <trkpt lat="49.41161" lon="3.87658">
        <ele>58.3</ele>
        <time>2017-04-29T14:07:53Z</time>
      </trkpt>
      <trkpt lat="49.4116" lon="3.87676">
        <ele>58.3</ele>
        <time>2017-04-29T14:08:02Z</time>
      </trkpt>
      <trkpt lat="49.41159" lon="3.87694">
        <ele>58.78</ele>
        <time>2017-04-29T14:08:10Z</time>
      </trkpt>
      <trkpt lat="49.41159" lon="3.87707">
        <ele>58.3</ele>
        <time>2017-04-29T14:08:17Z</time>
      </trkpt>
      <trkpt lat="49.41158" lon="3.87725">
        <ele>58.3</ele>
        <time>2017-04-29T14:08:25Z</time>
      </trkpt>
      <trkpt lat="49.41159" lon="3.87743">
        <ele>58.3</ele>
        <time>2017-04-29T14:08:33Z</time>
      </trkpt>
      <trkpt lat="49.4116" lon="3.87756">
        <ele>58.3</ele>
        <time>2017-04-29T14:08:39Z</time>
      </trkpt>
      <trkpt lat="49.41159" lon="3.87765">
        <ele>58.78</ele>
        <time>2017-04-29T14:08:43Z</time>
      </trkpt>
      <trkpt lat="49.4116" lon="3.8778">
        <ele>58.78</ele>
        <time>2017-04-29T14:08:50Z</time>
      </trkpt>
      <trkpt lat="49.41161" lon="3.87792">
        <ele>58.78</ele>
        <time>2017-04-29T14:08:56Z</time>
      </trkpt>
      <trkpt lat="49.41164" lon="3.87805">
        <ele>58.78</ele>
        <time>2017-04-29T14:09:02Z</time>
      </trkpt>
      <trkpt lat="49.41164" lon="3.87807">
        <ele>58.78</ele>
        <time>2017-04-29T14:09:03Z</time>
      </trkpt>
      <trkpt lat="49.41165" lon="3.87815">
        <ele>58.78</ele>
        <time>2017-04-29T14:09:07Z</time>
      </trkpt>
      <trkpt lat="49.41165" lon="3.87823">
        <ele>59.26</ele>
        <time>2017-04-29T14:09:11Z</time>
      </trkpt>
      <trkpt lat="49.41167" lon="3.87837">
        <ele>59.26</ele>
        <time>2017-04-29T14:09:18Z</time>
      </trkpt>
      <trkpt lat="49.41169" lon="3.87845">
        <ele>59.26</ele>
        <time>2017-04-29T14:09:22Z</time>
      </trkpt>
      <trkpt lat="49.41171" lon="3.87855">
        <ele>59.26</ele>
        <time>2017-04-29T14:09:27Z</time>
      </trkpt>
      <trkpt lat="49.41173" lon="3.87871">
        <ele>59.26</ele>
        <time>2017-04-29T14:09:35Z</time>
      </trkpt>
      <trkpt lat="49.41175" lon="3.87884">
        <ele>59.74</ele>
        <time>2017-04-29T14:09:41Z</time>
      </trkpt>
      <trkpt lat="49.41176" lon="3.87893">
        <ele>59.26</ele>
        <time>2017-04-29T14:09:46Z</time>
      </trkpt>
      <trkpt lat="49.41176" lon="3.87897">
        <ele>59.26</ele>
        <time>2017-04-29T14:09:48Z</time>
      </trkpt>
      <trkpt lat="49.41179" lon="3.87912">
        <ele>59.26</ele>
        <time>2017-04-29T14:09:55Z</time>
      </trkpt>
      <trkpt lat="49.4118" lon="3.8792">
        <ele>59.74</ele>
        <time>2017-04-29T14:09:59Z</time>
      </trkpt>
      <trkpt lat="49.41182" lon="3.87934">
        <ele>59.26</ele>
        <time>2017-04-29T14:10:06Z</time>
      </trkpt>
      <trkpt lat="49.41182" lon="3.87945">
        <ele>59.74</ele>
        <time>2017-04-29T14:10:11Z</time>
      </trkpt>
      <trkpt lat="49.41185" lon="3.87962">
        <ele>59.74</ele>
        <time>2017-04-29T14:10:19Z</time>
      </trkpt>
      <trkpt lat="49.41188" lon="3.87973">
        <ele>59.74</ele>
        <time>2017-04-29T14:10:25Z</time>
      </trkpt>
      <trkpt lat="49.41188" lon="3.87986">
        <ele>59.26</ele>
        <time>2017-04-29T14:10:31Z</time>
      </trkpt>
      <trkpt lat="49.4119" lon="3.88">
        <ele>59.74</ele>
        <time>2017-04-29T14:10:38Z</time>
      </trkpt>
      <trkpt lat="49.41193" lon="3.88011">
        <ele>59.74</ele>
        <time>2017-04-29T14:10:43Z</time>
      </trkpt>
      <trkpt lat="49.41194" lon="3.88023">
        <ele>59.74</ele>
        <time>2017-04-29T14:10:49Z</time>
      </trkpt>
      <trkpt lat="49.41196" lon="3.88035">
        <ele>59.74</ele>
        <time>2017-04-29T14:10:55Z</time>
      </trkpt>
      <trkpt lat="49.41196" lon="3.88037">
        <ele>59.74</ele>
        <time>2017-04-29T14:10:56Z</time>
      </trkpt>
      <trkpt lat="49.41197" lon="3.88043">
        <ele>59.74</ele>
        <time>2017-04-29T14:10:59Z</time>
      </trkpt>
      <trkpt lat="49.41198" lon="3.88051">
        <ele>59.74</ele>
        <time>2017-04-29T14:11:03Z</time>
      </trkpt>
      <trkpt lat="49.412" lon="3.88068">
        <ele>60.22</ele>
        <time>2017-04-29T14:11:11Z</time>
      </trkpt>
      <trkpt lat="49.412" lon="3.88074">
        <ele>60.22</ele>
        <time>2017-04-29T14:11:14Z</time>
      </trkpt>
      <trkpt lat="49.41202" lon="3.88081">
        <ele>59.74</ele>
        <time>2017-04-29T14:11:17Z</time>
      </trkpt>
      <trkpt lat="49.41204" lon="3.88091">
        <ele>60.22</ele>
        <time>2017-04-29T14:11:22Z</time>
      </trkpt>
      <trkpt lat="49.41206" lon="3.88109">
        <ele>60.22</ele>
        <time>2017-04-29T14:11:31Z</time>
      </trkpt>
      <trkpt lat="49.41208" lon="3.88123">
        <ele>60.22</ele>
        <time>2017-04-29T14:11:38Z</time>
      </trkpt>
      <trkpt lat="49.41211" lon="3.88135">
        <ele>60.22</ele>
        <time>2017-04-29T14:11:44Z</time>
      </trkpt>
      <trkpt lat="49.41212" lon="3.88148">
        <ele>60.7</ele>
        <time>2017-04-29T14:11:50Z</time>
      </trkpt>
      <trkpt lat="49.41214" lon="3.88162">
        <ele>60.7</ele>
        <time>2017-04-29T14:11:57Z</time>
      </trkpt>
      <trkpt lat="49.41214" lon="3.88164">
        <ele>60.7</ele>
        <time>2017-04-29T14:11:58Z</time>
      </trkpt>
      <trkpt lat="49.41215" lon="3.88176">
        <ele>60.7</ele>
        <time>2017-04-29T14:12:03Z</time>
      </trkpt>
      <trkpt lat="49.41219" lon="3.88192">
        <ele>61.18</ele>
        <time>2017-04-29T14:12:11Z</time>
      </trkpt>
      <trkpt lat="49.4122" lon="3.88205">
        <ele>61.18</ele>
        <time>2017-04-29T14:12:17Z</time>
      </trkpt>
      <trkpt lat="49.41221" lon="3.88213">
        <ele>61.66</ele>
        <time>2017-04-29T14:12:21Z</time>
      </trkpt>
      <trkpt lat="49.41223" lon="3.88227">
        <ele>61.66</ele>
        <time>2017-04-29T14:12:27Z</time>
      </trkpt>
      <trkpt lat="49.41226" lon="3.88241">
        <ele>61.66</ele>
        <time>2017-04-29T14:12:34Z</time>
      </trkpt>
      <trkpt lat="49.41226" lon="3.88247">
        <ele>62.14</ele>
        <time>2017-04-29T14:12:37Z</time>
      </trkpt>
      <trkpt lat="49.41227" lon="3.88256">
        <ele>62.14</ele>
        <time>2017-04-29T14:12:41Z</time>
      </trkpt>
      <trkpt lat="49.41229" lon="3.88268">
        <ele>62.14</ele>
        <time>2017-04-29T14:12:47Z</time>
      </trkpt>
      <trkpt lat="49.41232" lon="3.88283">
        <ele>62.62</ele>
        <time>2017-04-29T14:12:54Z</time>
      </trkpt>
      <trkpt lat="49.41232" lon="3.88285">
        <ele>62.14</ele>
        <time>2017-04-29T14:12:55Z</time>
      </trkpt>
      <trkpt lat="49.41233" lon="3.88293">
        <ele>62.62</ele>
        <time>2017-04-29T14:12:59Z</time>
      </trkpt>
      <trkpt lat="49.41235" lon="3.88311">
        <ele>62.62</ele>
        <time>2017-04-29T14:13:07Z</time>
      </trkpt>
      <trkpt lat="49.41236" lon="3.88319">
        <ele>62.62</ele>
        <time>2017-04-29T14:13:11Z</time>
      </trkpt>
      <trkpt lat="49.41239" lon="3.88331">
        <ele>63.1</ele>
        <time>2017-04-29T14:13:17Z</time>
      </trkpt>
      <trkpt lat="49.4124" lon="3.88346">
        <ele>63.58</ele>
        <time>2017-04-29T14:13:24Z</time>
      </trkpt>
      <trkpt lat="49.41244" lon="3.88364">
        <ele>63.58</ele>
        <time>2017-04-29T14:13:33Z</time>
      </trkpt>
      <trkpt lat="49.41245" lon="3.88377">
        <ele>64.07</ele>
        <time>2017-04-29T14:13:39Z</time>
      </trkpt>
      <trkpt lat="49.41246" lon="3.88379">
        <ele>64.07</ele>
        <time>2017-04-29T14:13:40Z</time>
      </trkpt>
      <trkpt lat="49.41246" lon="3.88389">
        <ele>64.07</ele>
        <time>2017-04-29T14:13:45Z</time>
      </trkpt>
      <trkpt lat="49.41246" lon="3.88394">
        <ele>64.07</ele>
        <time>2017-04-29T14:13:47Z</time>
      </trkpt>
      <trkpt lat="49.41247" lon="3.88404">
        <ele>64.55</ele>
        <time>2017-04-29T14:13:52Z</time>
      </trkpt>
      <trkpt lat="49.41247" lon="3.88415">
        <ele>64.55</ele>
        <time>2017-04-29T14:13:57Z</time>
      </trkpt>
      <trkpt lat="49.41248" lon="3.8843">
        <ele>65.03</ele>
        <time>2017-04-29T14:14:04Z</time>
      </trkpt>
      <trkpt lat="49.41248" lon="3.88432">
        <ele>65.03</ele>
        <time>2017-04-29T14:14:05Z</time>
      </trkpt>
      <trkpt lat="49.41248" lon="3.88436">
        <ele>65.03</ele>
        <time>2017-04-29T14:14:07Z</time>
      </trkpt>
      <trkpt lat="49.41251" lon="3.88446">
        <ele>65.03</ele>
        <time>2017-04-29T14:14:12Z</time>
      </trkpt>
      <trkpt lat="49.41253" lon="3.88459">
        <ele>65.03</ele>
        <time>2017-04-29T14:14:19Z</time>
      </trkpt>
      <trkpt lat="49.41255" lon="3.88474">
        <ele>65.51</ele>
        <time>2017-04-29T14:14:26Z</time>
      </trkpt>
      <trkpt lat="49.41255" lon="3.88477">
        <ele>65.51</ele>
        <time>2017-04-29T14:14:28Z</time>
      </trkpt>
      <trkpt lat="49.41256" lon="3.8849">
        <ele>65.99</ele>
        <time>2017-04-29T14:14:34Z</time>
      </trkpt>
      <trkpt lat="49.41259" lon="3.88502">
        <ele>65.99</ele>
        <time>2017-04-29T14:14:40Z</time>
      </trkpt>
      <trkpt lat="49.4126" lon="3.88508">
        <ele>65.99</ele>
        <time>2017-04-29T14:14:43Z</time>
      </trkpt>
      <trkpt lat="49.4126" lon="3.88519">
        <ele>66.47</ele>
        <time>2017-04-29T14:14:48Z</time>
      </trkpt>
      <trkpt lat="49.41262" lon="3.88524">
        <ele>66.47</ele>
        <time>2017-04-29T14:14:51Z</time>
      </trkpt>
      <trkpt lat="49.41262" lon="3.88528">
        <ele>66.95</ele>
        <time>2017-04-29T14:14:53Z</time>
      </trkpt>
      <trkpt lat="49.41264" lon="3.8854">
        <ele>66.47</ele>
        <time>2017-04-29T14:14:58Z</time>
      </trkpt>
      <trkpt lat="49.41267" lon="3.88557">
        <ele>66.95</ele>
        <time>2017-04-29T14:15:07Z</time>
      </trkpt>
      <trkpt lat="49.41267" lon="3.88564">
        <ele>66.47</ele>
        <time>2017-04-29T14:15:10Z</time>
      </trkpt>
      <trkpt lat="49.41269" lon="3.8858">
        <ele>66.95</ele>
        <time>2017-04-29T14:15:18Z</time>
      </trkpt>
      <trkpt lat="49.4127" lon="3.88583">
        <ele>66.95</ele>
        <time>2017-04-29T14:15:19Z</time>
      </trkpt>
      <trkpt lat="49.41273" lon="3.886">
        <ele>66.47</ele>
        <time>2017-04-29T14:15:27Z</time>
      </trkpt>
      <trkpt lat="49.41275" lon="3.8861">
        <ele>66.47</ele>
        <time>2017-04-29T14:15:32Z</time>
      </trkpt>
      <trkpt lat="49.41277" lon="3.88625">
        <ele>65.99</ele>
        <time>2017-04-29T14:15:39Z</time>
      </trkpt>
      <trkpt lat="49.41279" lon="3.88636">
        <ele>65.99</ele>
        <time>2017-04-29T14:15:44Z</time>
      </trkpt>
      <trkpt lat="49.41279" lon="3.88637">
        <ele>65.51</ele>
        <time>2017-04-29T14:15:45Z</time>
      </trkpt>
      <trkpt lat="49.41282" lon="3.88646">
        <ele>65.99</ele>
        <time>2017-04-29T14:15:50Z</time>
      </trkpt>
      <trkpt lat="49.41286" lon="3.88657">
        <ele>65.99</ele>
        <time>2017-04-29T14:15:56Z</time>
      </trkpt>
      <trkpt lat="49.41286" lon="3.8866">
        <ele>65.99</ele>
        <time>2017-04-29T14:15:57Z</time>
      </trkpt>
      <trkpt lat="49.41285" lon="3.88666">
        <ele>65.99</ele>
        <time>2017-04-29T14:16:01Z</time>
      </trkpt>
      <trkpt lat="49.41287" lon="3.88677">
        <ele>65.99</ele>
        <time>2017-04-29T14:16:07Z</time>
      </trkpt>
      <trkpt lat="49.41292" lon="3.88677">
        <ele>66.47</ele>
        <time>2017-04-29T14:16:13Z</time>
      </trkpt>
      <trkpt lat="49.41292" lon="3.88673">
        <ele>66.47</ele>
        <time>2017-04-29T14:16:20Z</time>
      </trkpt>
      <trkpt lat="49.41293" lon="3.88673">
        <ele>65.51</ele>
        <time>2017-04-29T14:16:30Z</time>
      </trkpt>
      <trkpt lat="49.41293" lon="3.88674">
        <ele>66.47</ele>
        <time>2017-04-29T14:16:42Z</time>
      </trkpt>
      <trkpt lat="49.41293" lon="3.88674">
        <ele>66.47</ele>
        <time>2017-04-29T14:16:49Z</time>
      </trkpt>
      <trkpt lat="49.41293" lon="3.88678">
        <ele>66.47</ele>
        <time>2017-04-29T14:16:52Z</time>
      </trkpt>
      <trkpt lat="49.41294" lon="3.88682">
        <ele>66.47</ele>
        <time>2017-04-29T14:16:55Z</time>
      </trkpt>
      <trkpt lat="49.41294" lon="3.88689">
        <ele>67.43</ele>
        <time>2017-04-29T14:17:00Z</time>
      </trkpt>
      <trkpt lat="49.41296" lon="3.88701">
        <ele>67.43</ele>
        <time>2017-04-29T14:17:08Z</time>
      </trkpt>
      <trkpt lat="49.41297" lon="3.88714">
        <ele>67.91</ele>
        <time>2017-04-29T14:17:17Z</time>
      </trkpt>
      <trkpt lat="49.41298" lon="3.88724">
        <ele>67.91</ele>
        <time>2017-04-29T14:17:25Z</time>
      </trkpt>
      <trkpt lat="49.41299" lon="3.88725">
        <ele>67.91</ele>
        <time>2017-04-29T14:17:32Z</time>
      </trkpt>
      <trkpt lat="49.413" lon="3.8873">
        <ele>68.39</ele>
        <time>2017-04-29T14:17:37Z</time>
      </trkpt>
      <trkpt lat="49.41302" lon="3.88741">
        <ele>68.39</ele>
        <time>2017-04-29T14:17:44Z</time>
      </trkpt>
      <trkpt lat="49.41304" lon="3.88745">
        <ele>68.39</ele>
        <time>2017-04-29T14:17:50Z</time>
      </trkpt>
      <trkpt lat="49.41303" lon="3.88745">
        <ele>67.91</ele>
        <time>2017-04-29T14:17:57Z</time>
      </trkpt>
      <trkpt lat="49.41303" lon="3.88744">
        <ele>68.39</ele>
        <time>2017-04-29T14:18:00Z</time>
      </trkpt>
      <trkpt lat="49.41308" lon="3.88744">
        <ele>68.39</ele>
        <time>2017-04-29T14:18:07Z</time>
      </trkpt>
      <trkpt lat="49.41309" lon="3.8874">
        <ele>67.91</ele>
        <time>2017-04-29T14:18:11Z</time>
      </trkpt>
      <trkpt lat="49.41313" lon="3.88737">
        <ele>67.91</ele>
        <time>2017-04-29T14:18:18Z</time>
      </trkpt>
      <trkpt lat="49.41314" lon="3.88737">
        <ele>67.91</ele>
        <time>2017-04-29T14:18:27Z</time>
      </trkpt>
      <trkpt lat="49.41314" lon="3.88737">
        <ele>67.91</ele>
        <time>2017-04-29T14:18:40Z</time>
      </trkpt>
      <trkpt lat="49.41315" lon="3.88734">
        <ele>67.91</ele>
        <time>2017-04-29T14:18:50Z</time>
      </trkpt>
      <trkpt lat="49.41315" lon="3.88734">
        <ele>67.43</ele>
        <time>2017-04-29T14:18:59Z</time>
      </trkpt>
      <trkpt lat="49.41316" lon="3.88731">
        <ele>67.91</ele>
        <time>2017-04-29T14:19:05Z</time>
      </trkpt>
      <trkpt lat="49.41316" lon="3.8873">
        <ele>67.43</ele>
        <time>2017-04-29T14:19:17Z</time>
      </trkpt>
      <trkpt lat="49.41317" lon="3.88726">
        <ele>67.43</ele>
        <time>2017-04-29T14:19:22Z</time>
      </trkpt>
      <trkpt lat="49.41316" lon="3.88721">
        <ele>67.43</ele>
        <time>2017-04-29T14:19:29Z</time>
      </trkpt>
      <trkpt lat="49.41317" lon="3.8872">
        <ele>67.43</ele>
        <time>2017-04-29T14:19:36Z</time>
      </trkpt>
      <trkpt lat="49.41316" lon="3.88719">
        <ele>67.43</ele>
        <time>2017-04-29T14:19:54Z</time>
      </trkpt>
      <trkpt lat="49.41316" lon="3.8872">
        <ele>67.43</ele>
        <time>2017-04-29T14:20:10Z</time>
      </trkpt>
      <trkpt lat="49.41318" lon="3.88722">
        <ele>67.43</ele>
        <time>2017-04-29T14:20:16Z</time>
      </trkpt>
      <trkpt lat="49.41319" lon="3.88725">
        <ele>67.43</ele>
        <time>2017-04-29T14:20:22Z</time>
      </trkpt>
      <trkpt lat="49.41318" lon="3.88727">
        <ele>67.43</ele>
        <time>2017-04-29T14:20:30Z</time>
      </trkpt>
      <trkpt lat="49.41319" lon="3.88728">
        <ele>66.47</ele>
        <time>2017-04-29T14:20:39Z</time>
      </trkpt>
      <trkpt lat="49.41319" lon="3.88728">
        <ele>66.47</ele>
        <time>2017-04-29T14:21:01Z</time>
      </trkpt>
      <trkpt lat="49.4132" lon="3.88728">
        <ele>66.47</ele>
        <time>2017-04-29T14:21:20Z</time>
      </trkpt>
      <trkpt lat="49.41319" lon="3.88728">
        <ele>66.47</ele>
        <time>2017-04-29T14:21:30Z</time>
      </trkpt>
      <trkpt lat="49.41319" lon="3.88728">
        <ele>66.47</ele>
        <time>2017-04-29T14:21:45Z</time>
      </trkpt>
      <trkpt lat="49.41319" lon="3.88728">
        <ele>66.47</ele>
        <time>2017-04-29T14:21:57Z</time>
      </trkpt>
      <trkpt lat="49.4132" lon="3.88728">
        <ele>67.43</ele>
        <time>2017-04-29T14:22:10Z</time>
      </trkpt>
      <trkpt lat="49.41319" lon="3.88728">
        <ele>65.99</ele>
        <time>2017-04-29T14:22:21Z</time>
      </trkpt>
      <trkpt lat="49.41319" lon="3.88728">
        <ele>69.35</ele>
        <time>2017-04-29T14:22:25Z</time>
      </trkpt>
      <trkpt lat="49.41319" lon="3.88727">
        <ele>67.43</ele>
        <time>2017-04-29T14:22:30Z</time>
      </trkpt>
      <trkpt lat="49.41318" lon="3.88724">
        <ele>67.43</ele>
        <time>2017-04-29T14:22:35Z</time>
      </trkpt>
      <trkpt lat="49.41316" lon="3.88722">
        <ele>67.43</ele>
        <time>2017-04-29T14:22:42Z</time>
      </trkpt>
      <trkpt lat="49.41315" lon="3.88721">
        <ele>67.43</ele>
        <time>2017-04-29T14:22:47Z</time>
      </trkpt>
      <trkpt lat="49.41314" lon="3.88723">
        <ele>67.43</ele>
        <time>2017-04-29T14:23:01Z</time>
      </trkpt>
      <trkpt lat="49.41314" lon="3.88723">
        <ele>67.43</ele>
        <time>2017-04-29T14:23:18Z</time>
      </trkpt>
      <trkpt lat="49.41314" lon="3.88722">
        <ele>67.43</ele>
        <time>2017-04-29T14:23:36Z</time>
      </trkpt>
      <trkpt lat="49.41314" lon="3.88722">
        <ele>67.43</ele>
        <time>2017-04-29T14:23:51Z</time>
      </trkpt>
      <trkpt lat="49.41314" lon="3.88721">
        <ele>67.43</ele>
        <time>2017-04-29T14:24:03Z</time>
      </trkpt>
      <trkpt lat="49.41314" lon="3.88721">
        <ele>67.43</ele>
        <time>2017-04-29T14:24:12Z</time>
      </trkpt>
      <trkpt lat="49.41315" lon="3.88722">
        <ele>67.43</ele>
        <time>2017-04-29T14:24:21Z</time>
      </trkpt>
      <trkpt lat="49.41314" lon="3.88721">
        <ele>67.43</ele>
        <time>2017-04-29T14:24:37Z</time>
      </trkpt>
      <trkpt lat="49.41314" lon="3.88723">
        <ele>67.43</ele>
        <time>2017-04-29T14:24:51Z</time>
      </trkpt>
      <trkpt lat="49.41313" lon="3.88724">
        <ele>67.91</ele>
        <time>2017-04-29T14:24:56Z</time>
      </trkpt>
      <trkpt lat="49.41313" lon="3.88724">
        <ele>67.43</ele>
        <time>2017-04-29T14:25:04Z</time>
      </trkpt>
      <trkpt lat="49.41313" lon="3.88724">
        <ele>67.91</ele>
        <time>2017-04-29T14:25:15Z</time>
      </trkpt>
      <trkpt lat="49.41312" lon="3.88723">
        <ele>67.43</ele>
        <time>2017-04-29T14:25:24Z</time>
      </trkpt>
      <trkpt lat="49.41312" lon="3.88723">
        <ele>67.43</ele>
        <time>2017-04-29T14:25:35Z</time>
      </trkpt>
      <trkpt lat="49.41312" lon="3.88722">
        <ele>67.91</ele>
        <time>2017-04-29T14:25:42Z</time>
      </trkpt>
      <trkpt lat="49.41312" lon="3.88721">
        <ele>67.91</ele>
        <time>2017-04-29T14:25:53Z</time>
      </trkpt>
      <trkpt lat="49.41312" lon="3.88721">
        <ele>67.43</ele>
        <time>2017-04-29T14:26:10Z</time>
      </trkpt>
      <trkpt lat="49.41312" lon="3.88721">
        <ele>67.43</ele>
        <time>2017-04-29T14:26:27Z</time>
      </trkpt>
      <trkpt lat="49.41312" lon="3.88721">
        <ele>67.43</ele>
        <time>2017-04-29T14:26:38Z</time>
      </trkpt>
      <trkpt lat="49.41312" lon="3.88721">
        <ele>67.43</ele>
        <time>2017-04-29T14:26:51Z</time>
      </trkpt>
      <trkpt lat="49.41312" lon="3.8872">
        <ele>67.91</ele>
        <time>2017-04-29T14:27:07Z</time>
      </trkpt>
      <trkpt lat="49.41312" lon="3.8872">
        <ele>67.43</ele>
        <time>2017-04-29T14:27:22Z</time>
      </trkpt>
      <trkpt lat="49.41312" lon="3.88721">
        <ele>67.91</ele>
        <time>2017-04-29T14:27:35Z</time>
      </trkpt>
      <trkpt lat="49.41311" lon="3.88721">
        <ele>67.91</ele>
        <time>2017-04-29T14:27:45Z</time>
      </trkpt>
      <trkpt lat="49.41312" lon="3.88723">
        <ele>66.95</ele>
        <time>2017-04-29T14:27:50Z</time>
      </trkpt>
      <trkpt lat="49.41313" lon="3.88724">
        <ele>63.1</ele>
        <time>2017-04-29T14:27:57Z</time>
      </trkpt>
      <trkpt lat="49.41313" lon="3.88723">
        <ele>70.31</ele>
        <time>2017-04-29T14:28:00Z</time>
      </trkpt>
      <trkpt lat="49.41313" lon="3.88723">
        <ele>66.95</ele>
        <time>2017-04-29T14:28:01Z</time>
      </trkpt>
      <trkpt lat="49.41312" lon="3.88723">
        <ele>66.95</ele>
        <time>2017-04-29T14:28:15Z</time>
      </trkpt>
      <trkpt lat="49.41312" lon="3.88723">
        <ele>66.47</ele>
        <time>2017-04-29T14:28:31Z</time>
      </trkpt>
      <trkpt lat="49.41312" lon="3.88723">
        <ele>66.95</ele>
        <time>2017-04-29T14:28:48Z</time>
      </trkpt>
      <trkpt lat="49.41312" lon="3.88723">
        <ele>66.95</ele>
        <time>2017-04-29T14:29:02Z</time>
      </trkpt>
      <trkpt lat="49.41314" lon="3.88723">
        <ele>66.95</ele>
        <time>2017-04-29T14:29:15Z</time>
      </trkpt>
      <trkpt lat="49.41314" lon="3.88723">
        <ele>66.47</ele>
        <time>2017-04-29T14:29:32Z</time>
      </trkpt>
      <trkpt lat="49.41315" lon="3.88723">
        <ele>66.95</ele>
        <time>2017-04-29T14:29:46Z</time>
      </trkpt>
      <trkpt lat="49.41315" lon="3.88722">
        <ele>66.47</ele>
        <time>2017-04-29T14:30:06Z</time>
      </trkpt>
      <trkpt lat="49.41314" lon="3.88722">
        <ele>67.43</ele>
        <time>2017-04-29T14:30:25Z</time>
      </trkpt>
      <trkpt lat="49.41314" lon="3.88723">
        <ele>66.95</ele>
        <time>2017-04-29T14:30:42Z</time>
      </trkpt>
      <trkpt lat="49.41314" lon="3.88723">
        <ele>66.47</ele>
        <time>2017-04-29T14:30:57Z</time>
      </trkpt>
      <trkpt lat="49.41313" lon="3.88723">
        <ele>66.47</ele>
        <time>2017-04-29T14:31:08Z</time>
      </trkpt>
      <trkpt lat="49.41314" lon="3.88724">
        <ele>66.95</ele>
        <time>2017-04-29T14:31:24Z</time>
      </trkpt>
      <trkpt lat="49.41314" lon="3.88724">
        <ele>66.47</ele>
        <time>2017-04-29T14:31:40Z</time>
      </trkpt>
      <trkpt lat="49.41314" lon="3.88724">
        <ele>66.47</ele>
        <time>2017-04-29T14:31:55Z</time>
      </trkpt>
      <trkpt lat="49.41314" lon="3.88724">
        <ele>66.47</ele>
        <time>2017-04-29T14:32:10Z</time>
      </trkpt>
      <trkpt lat="49.41313" lon="3.88724">
        <ele>67.43</ele>
        <time>2017-04-29T14:32:26Z</time>
      </trkpt>
      <trkpt lat="49.41312" lon="3.88724">
        <ele>66.47</ele>
        <time>2017-04-29T14:32:49Z</time>
      </trkpt>
      <trkpt lat="49.41312" lon="3.88724">
        <ele>66.47</ele>
        <time>2017-04-29T14:33:09Z</time>
      </trkpt>
      <trkpt lat="49.41311" lon="3.88724">
        <ele>66.47</ele>
        <time>2017-04-29T14:33:27Z</time>
      </trkpt>
      <trkpt lat="49.41311" lon="3.88723">
        <ele>66.47</ele>
        <time>2017-04-29T14:33:43Z</time>
      </trkpt>
      <trkpt lat="49.41311" lon="3.88724">
        <ele>66.47</ele>
        <time>2017-04-29T14:34:04Z</time>
      </trkpt>
      <trkpt lat="49.41312" lon="3.88724">
        <ele>66.47</ele>
        <time>2017-04-29T14:34:19Z</time>
      </trkpt>
      <trkpt lat="49.41313" lon="3.88724">
        <ele>66.47</ele>
        <time>2017-04-29T14:34:41Z</time>
      </trkpt>
      <trkpt lat="49.41313" lon="3.88724">
        <ele>66.47</ele>
        <time>2017-04-29T14:35:02Z</time>
      </trkpt>
      <trkpt lat="49.41314" lon="3.88725">
        <ele>66.47</ele>
        <time>2017-04-29T14:35:17Z</time>
      </trkpt>
      <trkpt lat="49.41315" lon="3.88724">
        <ele>66.47</ele>
        <time>2017-04-29T14:35:32Z</time>
      </trkpt>
      <trkpt lat="49.41316" lon="3.88723">
        <ele>66.47</ele>
        <time>2017-04-29T14:35:46Z</time>
      </trkpt>
      <trkpt lat="49.41316" lon="3.88723">
        <ele>66.47</ele>
        <time>2017-04-29T14:36:03Z</time>
      </trkpt>
      <trkpt lat="49.41316" lon="3.88724">
        <ele>66.47</ele>
        <time>2017-04-29T14:36:20Z</time>
      </trkpt>
      <trkpt lat="49.41316" lon="3.88723">
        <ele>66.95</ele>
        <time>2017-04-29T14:36:42Z</time>
      </trkpt>
      <trkpt lat="49.41315" lon="3.88723">
        <ele>66.95</ele>
        <time>2017-04-29T14:37:01Z</time>
      </trkpt>
      <trkpt lat="49.41315" lon="3.88723">
        <ele>66.95</ele>
        <time>2017-04-29T14:37:19Z</time>
      </trkpt>
      <trkpt lat="49.41316" lon="3.88724">
        <ele>66.95</ele>
        <time>2017-04-29T14:37:37Z</time>
      </trkpt>
      <trkpt lat="49.41316" lon="3.88724">
        <ele>66.95</ele>
        <time>2017-04-29T14:37:55Z</time>
      </trkpt>
      <trkpt lat="49.41316" lon="3.88723">
        <ele>66.95</ele>
        <time>2017-04-29T14:38:13Z</time>
      </trkpt>
      <trkpt lat="49.41315" lon="3.88723">
        <ele>66.95</ele>
        <time>2017-04-29T14:38:31Z</time>
      </trkpt>
      <trkpt lat="49.41315" lon="3.88723">
        <ele>66.95</ele>
        <time>2017-04-29T14:38:50Z</time>
      </trkpt>
      <trkpt lat="49.41314" lon="3.88723">
        <ele>66.95</ele>
        <time>2017-04-29T14:39:07Z</time>
      </trkpt>
      <trkpt lat="49.41315" lon="3.88723">
        <ele>66.95</ele>
        <time>2017-04-29T14:39:28Z</time>
      </trkpt>
      <trkpt lat="49.41315" lon="3.88724">
        <ele>66.95</ele>
        <time>2017-04-29T14:39:43Z</time>
      </trkpt>
      <trkpt lat="49.41315" lon="3.88724">
        <ele>67.91</ele>
        <time>2017-04-29T14:39:48Z</time>
      </trkpt>
      <trkpt lat="49.41314" lon="3.88721">
        <ele>67.91</ele>
        <time>2017-04-29T14:39:54Z</time>
      </trkpt>
      <trkpt lat="49.4131" lon="3.88719">
        <ele>67.91</ele>
        <time>2017-04-29T14:40:00Z</time>
      </trkpt>
      <trkpt lat="49.41302" lon="3.88722">
        <ele>67.91</ele>
        <time>2017-04-29T14:40:08Z</time>
      </trkpt>
      <trkpt lat="49.413" lon="3.88726">
        <ele>67.91</ele>
        <time>2017-04-29T14:40:14Z</time>
      </trkpt>
      <trkpt lat="49.413" lon="3.8873">
        <ele>67.43</ele>
        <time>2017-04-29T14:40:20Z</time>
      </trkpt>
      <trkpt lat="49.413" lon="3.88731">
        <ele>67.43</ele>
        <time>2017-04-29T14:40:33Z</time>
      </trkpt>
      <trkpt lat="49.413" lon="3.88731">
        <ele>67.43</ele>
        <time>2017-04-29T14:40:49Z</time>
      </trkpt>
      <trkpt lat="49.413" lon="3.88731">
        <ele>67.43</ele>
        <time>2017-04-29T14:41:06Z</time>
      </trkpt>
      <trkpt lat="49.413" lon="3.88731">
        <ele>67.43</ele>
        <time>2017-04-29T14:41:21Z</time>
      </trkpt>
      <trkpt lat="49.413" lon="3.88731">
        <ele>66.95</ele>
        <time>2017-04-29T14:41:38Z</time>
      </trkpt>
      <trkpt lat="49.413" lon="3.88731">
        <ele>67.43</ele>
        <time>2017-04-29T14:41:57Z</time>
      </trkpt>
      <trkpt lat="49.413" lon="3.88731">
        <ele>66.95</ele>
        <time>2017-04-29T14:42:14Z</time>
      </trkpt>
      <trkpt lat="49.413" lon="3.88731">
        <ele>66.95</ele>
        <time>2017-04-29T14:42:30Z</time>
      </trkpt>
      <trkpt lat="49.413" lon="3.88732">
        <ele>66.95</ele>
        <time>2017-04-29T14:42:47Z</time>
      </trkpt>
      <trkpt lat="49.413" lon="3.88732">
        <ele>66.95</ele>
        <time>2017-04-29T14:43:03Z</time>
      </trkpt>
      <trkpt lat="49.413" lon="3.88731">
        <ele>67.43</ele>
        <time>2017-04-29T14:43:12Z</time>
      </trkpt>
      <trkpt lat="49.41301" lon="3.8873">
        <ele>67.91</ele>
        <time>2017-04-29T14:43:17Z</time>
      </trkpt>
      <trkpt lat="49.41301" lon="3.88731">
        <ele>68.39</ele>
        <time>2017-04-29T14:43:26Z</time>
      </trkpt>
      <trkpt lat="49.41301" lon="3.88732">
        <ele>67.91</ele>
        <time>2017-04-29T14:43:38Z</time>
      </trkpt>
      <trkpt lat="49.41301" lon="3.88732">
        <ele>67.91</ele>
        <time>2017-04-29T14:43:42Z</time>
      </trkpt>
      <trkpt lat="49.41301" lon="3.88733">
        <ele>67.91</ele>
        <time>2017-04-29T14:43:49Z</time>
      </trkpt>
      <trkpt lat="49.41301" lon="3.88733">
        <ele>67.91</ele>
        <time>2017-04-29T14:43:58Z</time>
      </trkpt>
      <trkpt lat="49.41301" lon="3.88733">
        <ele>67.91</ele>
        <time>2017-04-29T14:44:06Z</time>
      </trkpt>
      <trkpt lat="49.41301" lon="3.88733">
        <ele>67.91</ele>
        <time>2017-04-29T14:44:17Z</time>
      </trkpt>
      <trkpt lat="49.41301" lon="3.88733">
        <ele>68.39</ele>
        <time>2017-04-29T14:44:28Z</time>
      </trkpt>
      <trkpt lat="49.41301" lon="3.88733">
        <ele>68.39</ele>
        <time>2017-04-29T14:44:40Z</time>
      </trkpt>
      <trkpt lat="49.41301" lon="3.88734">
        <ele>68.39</ele>
        <time>2017-04-29T14:44:47Z</time>
      </trkpt>
      <trkpt lat="49.41302" lon="3.8874">
        <ele>68.39</ele>
        <time>2017-04-29T14:44:52Z</time>
      </trkpt>
      <trkpt lat="49.41304" lon="3.88743">
        <ele>68.39</ele>
        <time>2017-04-29T14:44:55Z</time>
      </trkpt>
      <trkpt lat="49.41304" lon="3.88749">
        <ele>68.87</ele>
        <time>2017-04-29T14:45:00Z</time>
      </trkpt>
      <trkpt lat="49.41304" lon="3.88759">
        <ele>69.35</ele>
        <time>2017-04-29T14:45:08Z</time>
      </trkpt>
      <trkpt lat="49.41304" lon="3.88766">
        <ele>68.87</ele>
        <time>2017-04-29T14:45:15Z</time>
      </trkpt>
      <trkpt lat="49.41304" lon="3.88766">
        <ele>68.39</ele>
        <time>2017-04-29T14:45:28Z</time>
      </trkpt>
      <trkpt lat="49.41304" lon="3.88766">
        <ele>68.39</ele>
        <time>2017-04-29T14:45:41Z</time>
      </trkpt>
      <trkpt lat="49.41304" lon="3.88766">
        <ele>68.39</ele>
        <time>2017-04-29T14:45:42Z</time>
      </trkpt>
      <trkpt lat="49.41303" lon="3.88767">
        <ele>68.87</ele>
        <time>2017-04-29T14:45:48Z</time>
      </trkpt>
      <trkpt lat="49.41302" lon="3.88769">
        <ele>68.39</ele>
        <time>2017-04-29T14:45:52Z</time>
      </trkpt>
      <trkpt lat="49.41302" lon="3.88773">
        <ele>68.87</ele>
        <time>2017-04-29T14:45:55Z</time>
      </trkpt>
      <trkpt lat="49.41302" lon="3.88781">
        <ele>68.87</ele>
        <time>2017-04-29T14:46:00Z</time>
      </trkpt>
      <trkpt lat="49.41301" lon="3.88788">
        <ele>68.87</ele>
        <time>2017-04-29T14:46:04Z</time>
      </trkpt>
      <trkpt lat="49.41302" lon="3.88801">
        <ele>68.87</ele>
        <time>2017-04-29T14:46:12Z</time>
      </trkpt>
      <trkpt lat="49.41302" lon="3.88808">
        <ele>68.87</ele>
        <time>2017-04-29T14:46:16Z</time>
      </trkpt>
      <trkpt lat="49.41305" lon="3.88819">
        <ele>69.35</ele>
        <time>2017-04-29T14:46:23Z</time>
      </trkpt>
      <trkpt lat="49.41306" lon="3.88823">
        <ele>69.35</ele>
        <time>2017-04-29T14:46:26Z</time>
      </trkpt>
      <trkpt lat="49.41306" lon="3.8883">
        <ele>69.83</ele>
        <time>2017-04-29T14:46:30Z</time>
      </trkpt>
      <trkpt lat="49.41309" lon="3.88846">
        <ele>69.83</ele>
        <time>2017-04-29T14:46:40Z</time>
      </trkpt>
      <trkpt lat="49.4131" lon="3.88862">
        <ele>69.83</ele>
        <time>2017-04-29T14:46:48Z</time>
      </trkpt>
      <trkpt lat="49.41312" lon="3.88876">
        <ele>70.31</ele>
        <time>2017-04-29T14:46:55Z</time>
      </trkpt>
      <trkpt lat="49.41313" lon="3.88881">
        <ele>70.31</ele>
        <time>2017-04-29T14:46:58Z</time>
      </trkpt>
      <trkpt lat="49.41315" lon="3.88899">
        <ele>70.31</ele>
        <time>2017-04-29T14:47:08Z</time>
      </trkpt>
      <trkpt lat="49.41315" lon="3.88911">
        <ele>70.31</ele>
        <time>2017-04-29T14:47:14Z</time>
      </trkpt>
      <trkpt lat="49.41315" lon="3.88925">
        <ele>69.83</ele>
        <time>2017-04-29T14:47:22Z</time>
      </trkpt>
      <trkpt lat="49.41317" lon="3.88936">
        <ele>69.83</ele>
        <time>2017-04-29T14:47:28Z</time>
      </trkpt>
      <trkpt lat="49.41319" lon="3.88944">
        <ele>69.83</ele>
        <time>2017-04-29T14:47:32Z</time>
      </trkpt>
      <trkpt lat="49.41319" lon="3.88952">
        <ele>69.35</ele>
        <time>2017-04-29T14:47:36Z</time>
      </trkpt>
      <trkpt lat="49.41321" lon="3.88968">
        <ele>68.87</ele>
        <time>2017-04-29T14:47:45Z</time>
      </trkpt>
      <trkpt lat="49.41321" lon="3.88984">
        <ele>68.87</ele>
        <time>2017-04-29T14:47:53Z</time>
      </trkpt>
      <trkpt lat="49.41322" lon="3.88988">
        <ele>68.87</ele>
        <time>2017-04-29T14:47:55Z</time>
      </trkpt>
      <trkpt lat="49.41323" lon="3.89004">
        <ele>68.87</ele>
        <time>2017-04-29T14:48:03Z</time>
      </trkpt>
      <trkpt lat="49.41323" lon="3.8901">
        <ele>68.87</ele>
        <time>2017-04-29T14:48:06Z</time>
      </trkpt>
      <trkpt lat="49.41324" lon="3.89028">
        <ele>68.39</ele>
        <time>2017-04-29T14:48:15Z</time>
      </trkpt>
      <trkpt lat="49.41324" lon="3.89029">
        <ele>68.87</ele>
        <time>2017-04-29T14:48:16Z</time>
      </trkpt>
      <trkpt lat="49.41325" lon="3.89047">
        <ele>68.87</ele>
        <time>2017-04-29T14:48:25Z</time>
      </trkpt>
      <trkpt lat="49.41325" lon="3.89051">
        <ele>69.35</ele>
        <time>2017-04-29T14:48:27Z</time>
      </trkpt>
      <trkpt lat="49.41326" lon="3.89065">
        <ele>68.39</ele>
        <time>2017-04-29T14:48:35Z</time>
      </trkpt>
      <trkpt lat="49.41327" lon="3.89079">
        <ele>68.39</ele>
        <time>2017-04-29T14:48:42Z</time>
      </trkpt>
      <trkpt lat="49.41326" lon="3.89092">
        <ele>68.87</ele>
        <time>2017-04-29T14:48:49Z</time>
      </trkpt>
      <trkpt lat="49.41326" lon="3.89104">
        <ele>69.35</ele>
        <time>2017-04-29T14:48:56Z</time>
      </trkpt>
      <trkpt lat="49.41326" lon="3.89111">
        <ele>68.87</ele>
        <time>2017-04-29T14:49:00Z</time>
      </trkpt>
      <trkpt lat="49.41327" lon="3.89116">
        <ele>68.87</ele>
        <time>2017-04-29T14:49:03Z</time>
      </trkpt>
      <trkpt lat="49.41326" lon="3.89129">
        <ele>68.87</ele>
        <time>2017-04-29T14:49:10Z</time>
      </trkpt>
      <trkpt lat="49.41326" lon="3.89133">
        <ele>68.87</ele>
        <time>2017-04-29T14:49:12Z</time>
      </trkpt>
      <trkpt lat="49.41327" lon="3.89151">
        <ele>69.35</ele>
        <time>2017-04-29T14:49:21Z</time>
      </trkpt>
      <trkpt lat="49.41328" lon="3.89164">
        <ele>69.35</ele>
        <time>2017-04-29T14:49:28Z</time>
      </trkpt>
      <trkpt lat="49.41328" lon="3.89166">
        <ele>68.87</ele>
        <time>2017-04-29T14:49:29Z</time>
      </trkpt>
      <trkpt lat="49.41328" lon="3.89176">
        <ele>69.35</ele>
        <time>2017-04-29T14:49:34Z</time>
      </trkpt>
      <trkpt lat="49.4133" lon="3.89198">
        <ele>69.35</ele>
        <time>2017-04-29T14:49:45Z</time>
      </trkpt>
      <trkpt lat="49.41332" lon="3.89214">
        <ele>69.35</ele>
        <time>2017-04-29T14:49:53Z</time>
      </trkpt>
      <trkpt lat="49.41332" lon="3.89234">
        <ele>69.35</ele>
        <time>2017-04-29T14:50:03Z</time>
      </trkpt>
      <trkpt lat="49.41333" lon="3.89251">
        <ele>69.35</ele>
        <time>2017-04-29T14:50:12Z</time>
      </trkpt>
      <trkpt lat="49.41334" lon="3.89268">
        <ele>69.83</ele>
        <time>2017-04-29T14:50:20Z</time>
      </trkpt>
      <trkpt lat="49.41335" lon="3.89284">
        <ele>69.83</ele>
        <time>2017-04-29T14:50:28Z</time>
      </trkpt>
      <trkpt lat="49.41336" lon="3.89299">
        <ele>70.31</ele>
        <time>2017-04-29T14:50:36Z</time>
      </trkpt>
      <trkpt lat="49.41337" lon="3.89313">
        <ele>70.31</ele>
        <time>2017-04-29T14:50:43Z</time>
      </trkpt>
      <trkpt lat="49.41338" lon="3.8933">
        <ele>69.83</ele>
        <time>2017-04-29T14:50:51Z</time>
      </trkpt>
      <trkpt lat="49.4134" lon="3.89346">
        <ele>70.31</ele>
        <time>2017-04-29T14:50:59Z</time>
      </trkpt>
      <trkpt lat="49.4134" lon="3.89364">
        <ele>70.31</ele>
        <time>2017-04-29T14:51:08Z</time>
      </trkpt>
      <trkpt lat="49.4134" lon="3.89375">
        <ele>70.79</ele>
        <time>2017-04-29T14:51:13Z</time>
      </trkpt>
      <trkpt lat="49.41341" lon="3.89385">
        <ele>70.79</ele>
        <time>2017-04-29T14:51:18Z</time>
      </trkpt>
      <trkpt lat="49.41341" lon="3.89403">
        <ele>71.27</ele>
        <time>2017-04-29T14:51:27Z</time>
      </trkpt>
      <trkpt lat="49.41342" lon="3.89421">
        <ele>71.27</ele>
        <time>2017-04-29T14:51:36Z</time>
      </trkpt>
      <trkpt lat="49.41343" lon="3.89442">
        <ele>71.76</ele>
        <time>2017-04-29T14:51:46Z</time>
      </trkpt>
      <trkpt lat="49.41344" lon="3.89461">
        <ele>71.76</ele>
        <time>2017-04-29T14:51:55Z</time>
      </trkpt>
      <trkpt lat="49.41344" lon="3.89469">
        <ele>72.24</ele>
        <time>2017-04-29T14:51:59Z</time>
      </trkpt>
      <trkpt lat="49.41345" lon="3.89478">
        <ele>72.24</ele>
        <time>2017-04-29T14:52:03Z</time>
      </trkpt>
      <trkpt lat="49.41345" lon="3.89496">
        <ele>72.72</ele>
        <time>2017-04-29T14:52:12Z</time>
      </trkpt>
      <trkpt lat="49.41346" lon="3.89513">
        <ele>73.2</ele>
        <time>2017-04-29T14:52:20Z</time>
      </trkpt>
      <trkpt lat="49.41347" lon="3.8953">
        <ele>74.16</ele>
        <time>2017-04-29T14:52:28Z</time>
      </trkpt>
      <trkpt lat="49.41348" lon="3.89546">
        <ele>73.68</ele>
        <time>2017-04-29T14:52:36Z</time>
      </trkpt>
      <trkpt lat="49.41349" lon="3.89563">
        <ele>74.16</ele>
        <time>2017-04-29T14:52:44Z</time>
      </trkpt>
      <trkpt lat="49.41351" lon="3.89583">
        <ele>74.16</ele>
        <time>2017-04-29T14:52:54Z</time>
      </trkpt>
      <trkpt lat="49.41352" lon="3.89601">
        <ele>74.16</ele>
        <time>2017-04-29T14:53:03Z</time>
      </trkpt>
      <trkpt lat="49.41353" lon="3.89618">
        <ele>74.16</ele>
        <time>2017-04-29T14:53:11Z</time>
      </trkpt>
      <trkpt lat="49.41355" lon="3.89635">
        <ele>74.16</ele>
        <time>2017-04-29T14:53:19Z</time>
      </trkpt>
      <trkpt lat="49.41357" lon="3.8965">
        <ele>74.16</ele>
        <time>2017-04-29T14:53:27Z</time>
      </trkpt>
      <trkpt lat="49.41359" lon="3.89665">
        <ele>74.16</ele>
        <time>2017-04-29T14:53:34Z</time>
      </trkpt>
      <trkpt lat="49.41362" lon="3.89679">
        <ele>74.64</ele>
        <time>2017-04-29T14:53:41Z</time>
      </trkpt>
      <trkpt lat="49.41365" lon="3.89698">
        <ele>74.64</ele>
        <time>2017-04-29T14:53:50Z</time>
      </trkpt>
      <trkpt lat="49.41369" lon="3.89713">
        <ele>74.64</ele>
        <time>2017-04-29T14:53:58Z</time>
      </trkpt>
      <trkpt lat="49.41372" lon="3.89727">
        <ele>74.16</ele>
        <time>2017-04-29T14:54:05Z</time>
      </trkpt>
      <trkpt lat="49.41375" lon="3.89741">
        <ele>74.16</ele>
        <time>2017-04-29T14:54:12Z</time>
      </trkpt>
      <trkpt lat="49.41377" lon="3.89756">
        <ele>74.16</ele>
        <time>2017-04-29T14:54:19Z</time>
      </trkpt>
      <trkpt lat="49.4138" lon="3.89772">
        <ele>73.68</ele>
        <time>2017-04-29T14:54:27Z</time>
      </trkpt>
      <trkpt lat="49.41384" lon="3.89786">
        <ele>74.16</ele>
        <time>2017-04-29T14:54:34Z</time>
      </trkpt>
      <trkpt lat="49.41387" lon="3.898">
        <ele>73.68</ele>
        <time>2017-04-29T14:54:41Z</time>
      </trkpt>
      <trkpt lat="49.4139" lon="3.89817">
        <ele>73.68</ele>
        <time>2017-04-29T14:54:49Z</time>
      </trkpt>
      <trkpt lat="49.41394" lon="3.89833">
        <ele>73.68</ele>
        <time>2017-04-29T14:54:57Z</time>
      </trkpt>
      <trkpt lat="49.41397" lon="3.89846">
        <ele>73.2</ele>
        <time>2017-04-29T14:55:04Z</time>
      </trkpt>
      <trkpt lat="49.41398" lon="3.89853">
        <ele>73.2</ele>
        <time>2017-04-29T14:55:08Z</time>
      </trkpt>
      <trkpt lat="49.41402" lon="3.89869">
        <ele>73.2</ele>
        <time>2017-04-29T14:55:16Z</time>
      </trkpt>
      <trkpt lat="49.41405" lon="3.89886">
        <ele>73.2</ele>
        <time>2017-04-29T14:55:24Z</time>
      </trkpt>
      <trkpt lat="49.4141" lon="3.89902">
        <ele>73.2</ele>
        <time>2017-04-29T14:55:33Z</time>
      </trkpt>
      <trkpt lat="49.41414" lon="3.89916">
        <ele>73.2</ele>
        <time>2017-04-29T14:55:41Z</time>
      </trkpt>
      <trkpt lat="49.41419" lon="3.89932">
        <ele>73.2</ele>
        <time>2017-04-29T14:55:49Z</time>
      </trkpt>
      <trkpt lat="49.41423" lon="3.89945">
        <ele>72.72</ele>
        <time>2017-04-29T14:55:56Z</time>
      </trkpt>
      <trkpt lat="49.41428" lon="3.89958">
        <ele>73.2</ele>
        <time>2017-04-29T14:56:03Z</time>
      </trkpt>
      <trkpt lat="49.4143" lon="3.89966">
        <ele>73.2</ele>
        <time>2017-04-29T14:56:07Z</time>
      </trkpt>
      <trkpt lat="49.41436" lon="3.8998">
        <ele>72.72</ele>
        <time>2017-04-29T14:56:15Z</time>
      </trkpt>
      <trkpt lat="49.41439" lon="3.89989">
        <ele>72.72</ele>
        <time>2017-04-29T14:56:20Z</time>
      </trkpt>
      <trkpt lat="49.41444" lon="3.90002">
        <ele>73.2</ele>
        <time>2017-04-29T14:56:27Z</time>
      </trkpt>
      <trkpt lat="49.41448" lon="3.90014">
        <ele>72.72</ele>
        <time>2017-04-29T14:56:33Z</time>
      </trkpt>
      <trkpt lat="49.41448" lon="3.90024">
        <ele>72.72</ele>
        <time>2017-04-29T14:56:38Z</time>
      </trkpt>
      <trkpt lat="49.41446" lon="3.90029">
        <ele>72.72</ele>
        <time>2017-04-29T14:56:41Z</time>
      </trkpt>
      <trkpt lat="49.4145" lon="3.90043">
        <ele>72.72</ele>
        <time>2017-04-29T14:56:49Z</time>
      </trkpt>
      <trkpt lat="49.41455" lon="3.90059">
        <ele>72.72</ele>
        <time>2017-04-29T14:56:57Z</time>
      </trkpt>
      <trkpt lat="49.4146" lon="3.90072">
        <ele>72.72</ele>
        <time>2017-04-29T14:57:04Z</time>
      </trkpt>
      <trkpt lat="49.41464" lon="3.90083">
        <ele>72.72</ele>
        <time>2017-04-29T14:57:10Z</time>
      </trkpt>
      <trkpt lat="49.41469" lon="3.90097">
        <ele>72.72</ele>
        <time>2017-04-29T14:57:17Z</time>
      </trkpt>
      <trkpt lat="49.41473" lon="3.90109">
        <ele>72.72</ele>
        <time>2017-04-29T14:57:24Z</time>
      </trkpt>
      <trkpt lat="49.41476" lon="3.9012">
        <ele>72.72</ele>
        <time>2017-04-29T14:57:30Z</time>
      </trkpt>
      <trkpt lat="49.41479" lon="3.90131">
        <ele>72.72</ele>
        <time>2017-04-29T14:57:36Z</time>
      </trkpt>
      <trkpt lat="49.41482" lon="3.90136">
        <ele>72.72</ele>
        <time>2017-04-29T14:57:39Z</time>
      </trkpt>
      <trkpt lat="49.41488" lon="3.90153">
        <ele>72.72</ele>
        <time>2017-04-29T14:57:48Z</time>
      </trkpt>
      <trkpt lat="49.41494" lon="3.90168">
        <ele>72.72</ele>
        <time>2017-04-29T14:57:56Z</time>
      </trkpt>
      <trkpt lat="49.41496" lon="3.90173">
        <ele>72.72</ele>
        <time>2017-04-29T14:57:59Z</time>
      </trkpt>
      <trkpt lat="49.41503" lon="3.9019">
        <ele>72.72</ele>
        <time>2017-04-29T14:58:08Z</time>
      </trkpt>
      <trkpt lat="49.41507" lon="3.90202">
        <ele>72.72</ele>
        <time>2017-04-29T14:58:14Z</time>
      </trkpt>
      <trkpt lat="49.41511" lon="3.90215">
        <ele>72.72</ele>
        <time>2017-04-29T14:58:21Z</time>
      </trkpt>
      <trkpt lat="49.41516" lon="3.9023">
        <ele>72.24</ele>
        <time>2017-04-29T14:58:29Z</time>
      </trkpt>
      <trkpt lat="49.41522" lon="3.90247">
        <ele>72.24</ele>
        <time>2017-04-29T14:58:38Z</time>
      </trkpt>
      <trkpt lat="49.41526" lon="3.90261">
        <ele>72.24</ele>
        <time>2017-04-29T14:58:46Z</time>
      </trkpt>
      <trkpt lat="49.41532" lon="3.90275">
        <ele>72.24</ele>
        <time>2017-04-29T14:58:54Z</time>
      </trkpt>
      <trkpt lat="49.41536" lon="3.90287">
        <ele>72.24</ele>
        <time>2017-04-29T14:59:01Z</time>
      </trkpt>
      <trkpt lat="49.4154" lon="3.90298">
        <ele>72.24</ele>
        <time>2017-04-29T14:59:07Z</time>
      </trkpt>
      <trkpt lat="49.41543" lon="3.90307">
        <ele>72.24</ele>
        <time>2017-04-29T14:59:12Z</time>
      </trkpt>
      <trkpt lat="49.41545" lon="3.90311">
        <ele>72.24</ele>
        <time>2017-04-29T14:59:14Z</time>
      </trkpt>
      <trkpt lat="49.4155" lon="3.90325">
        <ele>72.24</ele>
        <time>2017-04-29T14:59:22Z</time>
      </trkpt>
      <trkpt lat="49.4155" lon="3.90327">
        <ele>72.24</ele>
        <time>2017-04-29T14:59:23Z</time>
      </trkpt>
      <trkpt lat="49.41549" lon="3.90342">
        <ele>72.24</ele>
        <time>2017-04-29T14:59:31Z</time>
      </trkpt>
      <trkpt lat="49.41544" lon="3.90345">
        <ele>72.24</ele>
        <time>2017-04-29T14:59:35Z</time>
      </trkpt>
      <trkpt lat="49.41542" lon="3.90346">
        <ele>72.24</ele>
        <time>2017-04-29T14:59:42Z</time>
      </trkpt>
      <trkpt lat="49.41537" lon="3.90348">
        <ele>72.24</ele>
        <time>2017-04-29T14:59:47Z</time>
      </trkpt>
      <trkpt lat="49.41527" lon="3.9035">
        <ele>72.24</ele>
        <time>2017-04-29T14:59:55Z</time>
      </trkpt>
      <trkpt lat="49.41518" lon="3.90353">
        <ele>72.24</ele>
        <time>2017-04-29T15:00:02Z</time>
      </trkpt>
      <trkpt lat="49.41507" lon="3.90356">
        <ele>72.24</ele>
        <time>2017-04-29T15:00:11Z</time>
      </trkpt>
      <trkpt lat="49.41497" lon="3.90359">
        <ele>72.72</ele>
        <time>2017-04-29T15:00:19Z</time>
      </trkpt>
      <trkpt lat="49.41486" lon="3.90362">
        <ele>72.72</ele>
        <time>2017-04-29T15:00:28Z</time>
      </trkpt>
      <trkpt lat="49.41473" lon="3.90365">
        <ele>72.72</ele>
        <time>2017-04-29T15:00:38Z</time>
      </trkpt>
      <trkpt lat="49.41465" lon="3.90368">
        <ele>72.72</ele>
        <time>2017-04-29T15:00:45Z</time>
      </trkpt>
      <trkpt lat="49.41453" lon="3.9037">
        <ele>72.72</ele>
        <time>2017-04-29T15:00:54Z</time>
      </trkpt>
      <trkpt lat="49.41449" lon="3.90372">
        <ele>73.2</ele>
        <time>2017-04-29T15:00:57Z</time>
      </trkpt>
      <trkpt lat="49.41439" lon="3.90375">
        <ele>72.72</ele>
        <time>2017-04-29T15:01:05Z</time>
      </trkpt>
      <trkpt lat="49.41438" lon="3.90375">
        <ele>72.72</ele>
        <time>2017-04-29T15:01:06Z</time>
      </trkpt>
      <trkpt lat="49.41427" lon="3.90378">
        <ele>72.72</ele>
        <time>2017-04-29T15:01:15Z</time>
      </trkpt>
      <trkpt lat="49.41418" lon="3.9038">
        <ele>72.24</ele>
        <time>2017-04-29T15:01:22Z</time>
      </trkpt>
      <trkpt lat="49.41411" lon="3.90383">
        <ele>72.24</ele>
        <time>2017-04-29T15:01:28Z</time>
      </trkpt>
      <trkpt lat="49.41401" lon="3.90385">
        <ele>72.24</ele>
        <time>2017-04-29T15:01:36Z</time>
      </trkpt>
      <trkpt lat="49.41388" lon="3.90389">
        <ele>71.76</ele>
        <time>2017-04-29T15:01:47Z</time>
      </trkpt>
      <trkpt lat="49.41386" lon="3.9039">
        <ele>71.27</ele>
        <time>2017-04-29T15:01:52Z</time>
      </trkpt>
      <trkpt lat="49.4138" lon="3.90392">
        <ele>71.27</ele>
        <time>2017-04-29T15:01:57Z</time>
      </trkpt>
      <trkpt lat="49.41375" lon="3.90394">
        <ele>71.27</ele>
        <time>2017-04-29T15:02:01Z</time>
      </trkpt>
      <trkpt lat="49.41366" lon="3.90396">
        <ele>70.31</ele>
        <time>2017-04-29T15:02:08Z</time>
      </trkpt>
      <trkpt lat="49.41362" lon="3.90397">
        <ele>70.31</ele>
        <time>2017-04-29T15:02:11Z</time>
      </trkpt>
      <trkpt lat="49.41352" lon="3.90401">
        <ele>69.83</ele>
        <time>2017-04-29T15:02:19Z</time>
      </trkpt>
      <trkpt lat="49.41342" lon="3.90403">
        <ele>68.87</ele>
        <time>2017-04-29T15:02:27Z</time>
      </trkpt>
      <trkpt lat="49.41334" lon="3.90406">
        <ele>68.87</ele>
        <time>2017-04-29T15:02:34Z</time>
      </trkpt>
      <trkpt lat="49.41319" lon="3.90409">
        <ele>67.91</ele>
        <time>2017-04-29T15:02:46Z</time>
      </trkpt>
      <trkpt lat="49.41307" lon="3.90412">
        <ele>67.43</ele>
        <time>2017-04-29T15:02:55Z</time>
      </trkpt>
      <trkpt lat="49.41293" lon="3.90416">
        <ele>66.47</ele>
        <time>2017-04-29T15:03:06Z</time>
      </trkpt>
      <trkpt lat="49.41283" lon="3.90418">
        <ele>65.99</ele>
        <time>2017-04-29T15:03:14Z</time>
      </trkpt>
      <trkpt lat="49.41282" lon="3.90418">
        <ele>65.99</ele>
        <time>2017-04-29T15:03:15Z</time>
      </trkpt>
      <trkpt lat="49.41271" lon="3.90422">
        <ele>65.03</ele>
        <time>2017-04-29T15:03:24Z</time>
      </trkpt>
      <trkpt lat="49.41261" lon="3.90425">
        <ele>65.03</ele>
        <time>2017-04-29T15:03:32Z</time>
      </trkpt>
      <trkpt lat="49.41251" lon="3.90427">
        <ele>64.55</ele>
        <time>2017-04-29T15:03:40Z</time>
      </trkpt>
      <trkpt lat="49.41239" lon="3.90429">
        <ele>64.07</ele>
        <time>2017-04-29T15:03:49Z</time>
      </trkpt>
      <trkpt lat="49.4123" lon="3.90432">
        <ele>63.58</ele>
        <time>2017-04-29T15:03:56Z</time>
      </trkpt>
      <trkpt lat="49.41219" lon="3.90435">
        <ele>63.1</ele>
        <time>2017-04-29T15:04:05Z</time>
      </trkpt>
      <trkpt lat="49.41212" lon="3.90437">
        <ele>62.62</ele>
        <time>2017-04-29T15:04:10Z</time>
      </trkpt>
      <trkpt lat="49.41202" lon="3.90438">
        <ele>62.14</ele>
        <time>2017-04-29T15:04:18Z</time>
      </trkpt>
      <trkpt lat="49.41198" lon="3.90441">
        <ele>62.14</ele>
        <time>2017-04-29T15:04:22Z</time>
      </trkpt>
      <trkpt lat="49.4119" lon="3.90442">
        <ele>62.62</ele>
        <time>2017-04-29T15:04:29Z</time>
      </trkpt>
      <trkpt lat="49.41181" lon="3.90444">
        <ele>61.18</ele>
        <time>2017-04-29T15:04:36Z</time>
      </trkpt>
      <trkpt lat="49.41172" lon="3.90447">
        <ele>61.18</ele>
        <time>2017-04-29T15:04:43Z</time>
      </trkpt>
      <trkpt lat="49.41162" lon="3.90449">
        <ele>60.7</ele>
        <time>2017-04-29T15:04:51Z</time>
      </trkpt>
      <trkpt lat="49.41148" lon="3.90453">
        <ele>60.22</ele>
        <time>2017-04-29T15:05:02Z</time>
      </trkpt>
      <trkpt lat="49.41141" lon="3.90456">
        <ele>60.22</ele>
        <time>2017-04-29T15:05:08Z</time>
      </trkpt>
      <trkpt lat="49.4113" lon="3.90458">
        <ele>59.74</ele>
        <time>2017-04-29T15:05:16Z</time>
      </trkpt>
      <trkpt lat="49.41121" lon="3.90461">
        <ele>59.26</ele>
        <time>2017-04-29T15:05:23Z</time>
      </trkpt>
      <trkpt lat="49.41113" lon="3.90464">
        <ele>59.26</ele>
        <time>2017-04-29T15:05:30Z</time>
      </trkpt>
      <trkpt lat="49.41101" lon="3.90466">
        <ele>58.78</ele>
        <time>2017-04-29T15:05:39Z</time>
      </trkpt>
      <trkpt lat="49.41091" lon="3.90469">
        <ele>58.78</ele>
        <time>2017-04-29T15:05:47Z</time>
      </trkpt>
      <trkpt lat="49.41078" lon="3.90472">
        <ele>58.78</ele>
        <time>2017-04-29T15:05:57Z</time>
      </trkpt>
      <trkpt lat="49.41069" lon="3.90473">
        <ele>58.78</ele>
        <time>2017-04-29T15:06:04Z</time>
      </trkpt>
      <trkpt lat="49.41062" lon="3.90468">
        <ele>58.3</ele>
        <time>2017-04-29T15:06:10Z</time>
      </trkpt>
      <trkpt lat="49.4106" lon="3.90466">
        <ele>58.3</ele>
        <time>2017-04-29T15:06:17Z</time>
      </trkpt>
      <trkpt lat="49.4106" lon="3.90466">
        <ele>58.3</ele>
        <time>2017-04-29T15:06:36Z</time>
      </trkpt>
      <trkpt lat="49.4106" lon="3.90466">
        <ele>58.3</ele>
        <time>2017-04-29T15:06:44Z</time>
      </trkpt>
      <trkpt lat="49.41061" lon="3.9047">
        <ele>58.78</ele>
        <time>2017-04-29T15:06:48Z</time>
      </trkpt>
      <trkpt lat="49.41065" lon="3.90479">
        <ele>58.3</ele>
        <time>2017-04-29T15:06:54Z</time>
      </trkpt>
      <trkpt lat="49.41066" lon="3.90482">
        <ele>58.3</ele>
        <time>2017-04-29T15:07:01Z</time>
      </trkpt>
      <trkpt lat="49.41066" lon="3.90482">
        <ele>58.3</ele>
        <time>2017-04-29T15:07:12Z</time>
      </trkpt>
      <trkpt lat="49.41067" lon="3.90484">
        <ele>58.3</ele>
        <time>2017-04-29T15:07:24Z</time>
      </trkpt>
      <trkpt lat="49.41068" lon="3.90496">
        <ele>58.78</ele>
        <time>2017-04-29T15:07:30Z</time>
      </trkpt>
      <trkpt lat="49.4107" lon="3.90513">
        <ele>58.78</ele>
        <time>2017-04-29T15:07:39Z</time>
      </trkpt>
      <trkpt lat="49.4107" lon="3.90519">
        <ele>58.78</ele>
        <time>2017-04-29T15:07:42Z</time>
      </trkpt>
      <trkpt lat="49.41071" lon="3.90529">
        <ele>57.82</ele>
        <time>2017-04-29T15:07:46Z</time>
      </trkpt>
      <trkpt lat="49.41072" lon="3.90547">
        <ele>57.82</ele>
        <time>2017-04-29T15:07:54Z</time>
      </trkpt>
      <trkpt lat="49.41073" lon="3.9056">
        <ele>58.78</ele>
        <time>2017-04-29T15:08:03Z</time>
      </trkpt>
      <trkpt lat="49.41074" lon="3.90559">
        <ele>58.3</ele>
        <time>2017-04-29T15:08:12Z</time>
      </trkpt>
      <trkpt lat="49.41074" lon="3.90559">
        <ele>58.3</ele>
        <time>2017-04-29T15:08:16Z</time>
      </trkpt>
      <trkpt lat="49.41073" lon="3.90557">
        <ele>58.3</ele>
        <time>2017-04-29T15:08:21Z</time>
      </trkpt>
      <trkpt lat="49.41073" lon="3.90556">
        <ele>58.78</ele>
        <time>2017-04-29T15:08:26Z</time>
      </trkpt>
      <trkpt lat="49.41072" lon="3.90556">
        <ele>58.3</ele>
        <time>2017-04-29T15:08:32Z</time>
      </trkpt>
      <trkpt lat="49.41071" lon="3.90556">
        <ele>58.3</ele>
        <time>2017-04-29T15:08:45Z</time>
      </trkpt>
      <trkpt lat="49.4107" lon="3.90557">
        <ele>58.3</ele>
        <time>2017-04-29T15:08:48Z</time>
      </trkpt>
      <trkpt lat="49.41064" lon="3.90561">
        <ele>57.82</ele>
        <time>2017-04-29T15:08:53Z</time>
      </trkpt>
      <trkpt lat="49.41054" lon="3.90569">
        <ele>57.82</ele>
        <time>2017-04-29T15:09:03Z</time>
      </trkpt>
      <trkpt lat="49.41049" lon="3.90573">
        <ele>57.34</ele>
        <time>2017-04-29T15:09:09Z</time>
      </trkpt>
      <trkpt lat="49.41044" lon="3.90576">
        <ele>57.34</ele>
        <time>2017-04-29T15:09:13Z</time>
      </trkpt>
      <trkpt lat="49.41031" lon="3.90586">
        <ele>57.34</ele>
        <time>2017-04-29T15:09:24Z</time>
      </trkpt>
      <trkpt lat="49.41023" lon="3.90593">
        <ele>56.86</ele>
        <time>2017-04-29T15:09:31Z</time>
      </trkpt>
      <trkpt lat="49.41016" lon="3.90599">
        <ele>56.86</ele>
        <time>2017-04-29T15:09:38Z</time>
      </trkpt>
      <trkpt lat="49.41015" lon="3.90599">
        <ele>56.86</ele>
        <time>2017-04-29T15:09:49Z</time>
      </trkpt>
      <trkpt lat="49.41016" lon="3.90599">
        <ele>56.86</ele>
        <time>2017-04-29T15:09:54Z</time>
      </trkpt>
      <trkpt lat="49.41011" lon="3.90603">
        <ele>56.86</ele>
        <time>2017-04-29T15:10:01Z</time>
      </trkpt>
      <trkpt lat="49.41007" lon="3.90606">
        <ele>56.37</ele>
        <time>2017-04-29T15:10:05Z</time>
      </trkpt>
      <trkpt lat="49.40998" lon="3.90612">
        <ele>56.86</ele>
        <time>2017-04-29T15:10:13Z</time>
      </trkpt>
      <trkpt lat="49.40995" lon="3.90615">
        <ele>56.86</ele>
        <time>2017-04-29T15:10:16Z</time>
      </trkpt>
      <trkpt lat="49.40994" lon="3.90616">
        <ele>56.86</ele>
        <time>2017-04-29T15:10:18Z</time>
      </trkpt>
      <trkpt lat="49.40984" lon="3.90624">
        <ele>56.86</ele>
        <time>2017-04-29T15:10:27Z</time>
      </trkpt>
      <trkpt lat="49.40974" lon="3.90632">
        <ele>56.86</ele>
        <time>2017-04-29T15:10:35Z</time>
      </trkpt>
      <trkpt lat="49.40966" lon="3.90638">
        <ele>56.37</ele>
        <time>2017-04-29T15:10:43Z</time>
      </trkpt>
      <trkpt lat="49.40961" lon="3.90643">
        <ele>56.37</ele>
        <time>2017-04-29T15:10:49Z</time>
      </trkpt>
      <trkpt lat="49.4096" lon="3.90644">
        <ele>56.37</ele>
        <time>2017-04-29T15:10:50Z</time>
      </trkpt>
      <trkpt lat="49.40953" lon="3.90642">
        <ele>56.37</ele>
        <time>2017-04-29T15:10:56Z</time>
      </trkpt>
      <trkpt lat="49.40947" lon="3.90647">
        <ele>56.37</ele>
        <time>2017-04-29T15:11:02Z</time>
      </trkpt>
      <trkpt lat="49.40935" lon="3.90655">
        <ele>55.41</ele>
        <time>2017-04-29T15:11:12Z</time>
      </trkpt>
      <trkpt lat="49.4093" lon="3.9066">
        <ele>55.41</ele>
        <time>2017-04-29T15:11:20Z</time>
      </trkpt>
      <trkpt lat="49.40925" lon="3.90661">
        <ele>55.41</ele>
        <time>2017-04-29T15:11:28Z</time>
      </trkpt>
      <trkpt lat="49.40924" lon="3.90662">
        <ele>56.37</ele>
        <time>2017-04-29T15:11:30Z</time>
      </trkpt>
      <trkpt lat="49.40926" lon="3.90677">
        <ele>55.89</ele>
        <time>2017-04-29T15:11:38Z</time>
      </trkpt>
      <trkpt lat="49.40927" lon="3.90679">
        <ele>55.89</ele>
        <time>2017-04-29T15:11:39Z</time>
      </trkpt>
      <trkpt lat="49.40929" lon="3.90695">
        <ele>55.41</ele>
        <time>2017-04-29T15:11:48Z</time>
      </trkpt>
      <trkpt lat="49.4093" lon="3.90704">
        <ele>55.41</ele>
        <time>2017-04-29T15:11:53Z</time>
      </trkpt>
      <trkpt lat="49.40932" lon="3.90711">
        <ele>55.41</ele>
        <time>2017-04-29T15:11:57Z</time>
      </trkpt>
      <trkpt lat="49.40934" lon="3.90717">
        <ele>55.41</ele>
        <time>2017-04-29T15:12:00Z</time>
      </trkpt>
      <trkpt lat="49.40938" lon="3.90727">
        <ele>55.41</ele>
        <time>2017-04-29T15:12:07Z</time>
      </trkpt>
      <trkpt lat="49.40946" lon="3.90738">
        <ele>55.41</ele>
        <time>2017-04-29T15:12:15Z</time>
      </trkpt>
      <trkpt lat="49.40953" lon="3.90746">
        <ele>55.41</ele>
        <time>2017-04-29T15:12:22Z</time>
      </trkpt>
      <trkpt lat="49.40961" lon="3.90757">
        <ele>56.37</ele>
        <time>2017-04-29T15:12:30Z</time>
      </trkpt>
      <trkpt lat="49.40968" lon="3.90765">
        <ele>56.37</ele>
        <time>2017-04-29T15:12:37Z</time>
      </trkpt>
      <trkpt lat="49.40977" lon="3.90772">
        <ele>56.37</ele>
        <time>2017-04-29T15:12:44Z</time>
      </trkpt>
      <trkpt lat="49.40986" lon="3.90778">
        <ele>55.89</ele>
        <time>2017-04-29T15:12:51Z</time>
      </trkpt>
      <trkpt lat="49.40998" lon="3.90782">
        <ele>55.89</ele>
        <time>2017-04-29T15:13:00Z</time>
      </trkpt>
      <trkpt lat="49.41007" lon="3.90785">
        <ele>55.41</ele>
        <time>2017-04-29T15:13:07Z</time>
      </trkpt>
      <trkpt lat="49.41011" lon="3.90786">
        <ele>55.89</ele>
        <time>2017-04-29T15:13:10Z</time>
      </trkpt>
      <trkpt lat="49.41017" lon="3.90787">
        <ele>55.41</ele>
        <time>2017-04-29T15:13:15Z</time>
      </trkpt>
      <trkpt lat="49.41028" lon="3.90792">
        <ele>55.41</ele>
        <time>2017-04-29T15:13:24Z</time>
      </trkpt>
      <trkpt lat="49.41029" lon="3.90792">
        <ele>55.41</ele>
        <time>2017-04-29T15:13:25Z</time>
      </trkpt>
      <trkpt lat="49.41041" lon="3.90804">
        <ele>54.93</ele>
        <time>2017-04-29T15:13:36Z</time>
      </trkpt>
      <trkpt lat="49.41046" lon="3.90814">
        <ele>54.93</ele>
        <time>2017-04-29T15:13:43Z</time>
      </trkpt>
      <trkpt lat="49.41043" lon="3.90824">
        <ele>54.93</ele>
        <time>2017-04-29T15:13:50Z</time>
      </trkpt>
      <trkpt lat="49.4104" lon="3.90836">
        <ele>54.45</ele>
        <time>2017-04-29T15:13:58Z</time>
      </trkpt>
      <trkpt lat="49.41036" lon="3.90848">
        <ele>54.45</ele>
        <time>2017-04-29T15:14:05Z</time>
      </trkpt>
      <trkpt lat="49.41033" lon="3.90863">
        <ele>54.45</ele>
        <time>2017-04-29T15:14:14Z</time>
      </trkpt>
      <trkpt lat="49.41029" lon="3.90871">
        <ele>54.45</ele>
        <time>2017-04-29T15:14:20Z</time>
      </trkpt>
      <trkpt lat="49.41026" lon="3.90877">
        <ele>54.45</ele>
        <time>2017-04-29T15:14:24Z</time>
      </trkpt>
      <trkpt lat="49.41025" lon="3.9088">
        <ele>54.45</ele>
        <time>2017-04-29T15:14:26Z</time>
      </trkpt>
      <trkpt lat="49.41018" lon="3.90892">
        <ele>54.45</ele>
        <time>2017-04-29T15:14:34Z</time>
      </trkpt>
      <trkpt lat="49.41011" lon="3.909">
        <ele>54.45</ele>
        <time>2017-04-29T15:14:41Z</time>
      </trkpt>
      <trkpt lat="49.41007" lon="3.90903">
        <ele>54.45</ele>
        <time>2017-04-29T15:14:45Z</time>
      </trkpt>
      <trkpt lat="49.40999" lon="3.90908">
        <ele>54.45</ele>
        <time>2017-04-29T15:14:53Z</time>
      </trkpt>
      <trkpt lat="49.40992" lon="3.9091">
        <ele>54.45</ele>
        <time>2017-04-29T15:15:00Z</time>
      </trkpt>
      <trkpt lat="49.40991" lon="3.90911">
        <ele>54.45</ele>
        <time>2017-04-29T15:15:01Z</time>
      </trkpt>
      <trkpt lat="49.40983" lon="3.90918">
        <ele>54.93</ele>
        <time>2017-04-29T15:15:08Z</time>
      </trkpt>
      <trkpt lat="49.40975" lon="3.90923">
        <ele>54.93</ele>
        <time>2017-04-29T15:15:14Z</time>
      </trkpt>
      <trkpt lat="49.40966" lon="3.90923">
        <ele>54.45</ele>
        <time>2017-04-29T15:15:21Z</time>
      </trkpt>
      <trkpt lat="49.40959" lon="3.9092">
        <ele>54.93</ele>
        <time>2017-04-29T15:15:27Z</time>
      </trkpt>
      <trkpt lat="49.40953" lon="3.90917">
        <ele>55.89</ele>
        <time>2017-04-29T15:15:34Z</time>
      </trkpt>
      <trkpt lat="49.4095" lon="3.90916">
        <ele>56.37</ele>
        <time>2017-04-29T15:15:40Z</time>
      </trkpt>
      <trkpt lat="49.40946" lon="3.9092">
        <ele>56.86</ele>
        <time>2017-04-29T15:15:46Z</time>
      </trkpt>
      <trkpt lat="49.40944" lon="3.90924">
        <ele>57.34</ele>
        <time>2017-04-29T15:15:50Z</time>
      </trkpt>
      <trkpt lat="49.4094" lon="3.90926">
        <ele>57.34</ele>
        <time>2017-04-29T15:15:54Z</time>
      </trkpt>
      <trkpt lat="49.40935" lon="3.90926">
        <ele>57.34</ele>
        <time>2017-04-29T15:16:00Z</time>
      </trkpt>
      <trkpt lat="49.40933" lon="3.90926">
        <ele>57.34</ele>
        <time>2017-04-29T15:16:02Z</time>
      </trkpt>
      <trkpt lat="49.40929" lon="3.90923">
        <ele>57.34</ele>
        <time>2017-04-29T15:16:06Z</time>
      </trkpt>
      <trkpt lat="49.40927" lon="3.90921">
        <ele>57.34</ele>
        <time>2017-04-29T15:16:08Z</time>
      </trkpt>
      <trkpt lat="49.40925" lon="3.90918">
        <ele>57.34</ele>
        <time>2017-04-29T15:16:11Z</time>
      </trkpt>
      <trkpt lat="49.40922" lon="3.90916">
        <ele>57.34</ele>
        <time>2017-04-29T15:16:14Z</time>
      </trkpt>
      <trkpt lat="49.40921" lon="3.90913">
        <ele>57.82</ele>
        <time>2017-04-29T15:16:16Z</time>
      </trkpt>
      <trkpt lat="49.40919" lon="3.90908">
        <ele>57.34</ele>
        <time>2017-04-29T15:16:20Z</time>
      </trkpt>
      <trkpt lat="49.40915" lon="3.90901">
        <ele>57.82</ele>
        <time>2017-04-29T15:16:26Z</time>
      </trkpt>
      <trkpt lat="49.40912" lon="3.9089">
        <ele>57.82</ele>
        <time>2017-04-29T15:16:33Z</time>
      </trkpt>
      <trkpt lat="49.40909" lon="3.9088">
        <ele>57.82</ele>
        <time>2017-04-29T15:16:39Z</time>
      </trkpt>
      <trkpt lat="49.40909" lon="3.90875">
        <ele>58.3</ele>
        <time>2017-04-29T15:16:42Z</time>
      </trkpt>
      <trkpt lat="49.40906" lon="3.90872">
        <ele>58.3</ele>
        <time>2017-04-29T15:16:45Z</time>
      </trkpt>
      <trkpt lat="49.40905" lon="3.90856">
        <ele>58.3</ele>
        <time>2017-04-29T15:16:54Z</time>
      </trkpt>
      <trkpt lat="49.40902" lon="3.9085">
        <ele>57.82</ele>
        <time>2017-04-29T15:16:58Z</time>
      </trkpt>
      <trkpt lat="49.409" lon="3.90844">
        <ele>58.3</ele>
        <time>2017-04-29T15:17:02Z</time>
      </trkpt>
      <trkpt lat="49.40898" lon="3.90835">
        <ele>58.3</ele>
        <time>2017-04-29T15:17:07Z</time>
      </trkpt>
      <trkpt lat="49.40894" lon="3.90822">
        <ele>58.3</ele>
        <time>2017-04-29T15:17:15Z</time>
      </trkpt>
      <trkpt lat="49.4089" lon="3.90813">
        <ele>58.3</ele>
        <time>2017-04-29T15:17:20Z</time>
      </trkpt>
      <trkpt lat="49.40886" lon="3.908">
        <ele>57.82</ele>
        <time>2017-04-29T15:17:27Z</time>
      </trkpt>
      <trkpt lat="49.40883" lon="3.9079">
        <ele>57.34</ele>
        <time>2017-04-29T15:17:33Z</time>
      </trkpt>
      <trkpt lat="49.40879" lon="3.90779">
        <ele>56.86</ele>
        <time>2017-04-29T15:17:39Z</time>
      </trkpt>
      <trkpt lat="49.40874" lon="3.90769">
        <ele>56.86</ele>
        <time>2017-04-29T15:17:45Z</time>
      </trkpt>
      <trkpt lat="49.4087" lon="3.9076">
        <ele>56.37</ele>
        <time>2017-04-29T15:17:51Z</time>
      </trkpt>
      <trkpt lat="49.40867" lon="3.90749">
        <ele>56.86</ele>
        <time>2017-04-29T15:17:57Z</time>
      </trkpt>
      <trkpt lat="49.40864" lon="3.90733">
        <ele>56.86</ele>
        <time>2017-04-29T15:18:06Z</time>
      </trkpt>
      <trkpt lat="49.4086" lon="3.90719">
        <ele>57.34</ele>
        <time>2017-04-29T15:18:14Z</time>
      </trkpt>
      <trkpt lat="49.4086" lon="3.90717">
        <ele>57.34</ele>
        <time>2017-04-29T15:18:15Z</time>
      </trkpt>
      <trkpt lat="49.40855" lon="3.90708">
        <ele>58.3</ele>
        <time>2017-04-29T15:18:24Z</time>
      </trkpt>
      <trkpt lat="49.40855" lon="3.90702">
        <ele>58.78</ele>
        <time>2017-04-29T15:18:31Z</time>
      </trkpt>
      <trkpt lat="49.40855" lon="3.90697">
        <ele>58.78</ele>
        <time>2017-04-29T15:18:40Z</time>
      </trkpt>
      <trkpt lat="49.40854" lon="3.90696">
        <ele>58.3</ele>
        <time>2017-04-29T15:18:45Z</time>
      </trkpt>
      <trkpt lat="49.40851" lon="3.90687">
        <ele>58.3</ele>
        <time>2017-04-29T15:18:52Z</time>
      </trkpt>
      <trkpt lat="49.40849" lon="3.90682">
        <ele>58.78</ele>
        <time>2017-04-29T15:18:56Z</time>
      </trkpt>
      <trkpt lat="49.40847" lon="3.90679">
        <ele>58.78</ele>
        <time>2017-04-29T15:18:58Z</time>
      </trkpt>
      <trkpt lat="49.40846" lon="3.90674">
        <ele>58.78</ele>
        <time>2017-04-29T15:19:02Z</time>
      </trkpt>
      <trkpt lat="49.40844" lon="3.90669">
        <ele>58.78</ele>
        <time>2017-04-29T15:19:05Z</time>
      </trkpt>
      <trkpt lat="49.4084" lon="3.90655">
        <ele>58.78</ele>
        <time>2017-04-29T15:19:14Z</time>
      </trkpt>
      <trkpt lat="49.40839" lon="3.90652">
        <ele>58.78</ele>
        <time>2017-04-29T15:19:16Z</time>
      </trkpt>
      <trkpt lat="49.40834" lon="3.90637">
        <ele>58.78</ele>
        <time>2017-04-29T15:19:25Z</time>
      </trkpt>
      <trkpt lat="49.40831" lon="3.90626">
        <ele>58.78</ele>
        <time>2017-04-29T15:19:32Z</time>
      </trkpt>
      <trkpt lat="49.40827" lon="3.90617">
        <ele>58.78</ele>
        <time>2017-04-29T15:19:37Z</time>
      </trkpt>
      <trkpt lat="49.40823" lon="3.90607">
        <ele>58.78</ele>
        <time>2017-04-29T15:19:43Z</time>
      </trkpt>
      <trkpt lat="49.40819" lon="3.90599">
        <ele>58.78</ele>
        <time>2017-04-29T15:19:48Z</time>
      </trkpt>
      <trkpt lat="49.40815" lon="3.90588">
        <ele>58.78</ele>
        <time>2017-04-29T15:19:55Z</time>
      </trkpt>
      <trkpt lat="49.40812" lon="3.90573">
        <ele>58.78</ele>
        <time>2017-04-29T15:20:04Z</time>
      </trkpt>
      <trkpt lat="49.40811" lon="3.9057">
        <ele>58.3</ele>
        <time>2017-04-29T15:20:06Z</time>
      </trkpt>
      <trkpt lat="49.40806" lon="3.90556">
        <ele>58.78</ele>
        <time>2017-04-29T15:20:14Z</time>
      </trkpt>
      <trkpt lat="49.40802" lon="3.90548">
        <ele>58.3</ele>
        <time>2017-04-29T15:20:19Z</time>
      </trkpt>
      <trkpt lat="49.40795" lon="3.90533">
        <ele>58.3</ele>
        <time>2017-04-29T15:20:28Z</time>
      </trkpt>
      <trkpt lat="49.40794" lon="3.9053">
        <ele>58.3</ele>
        <time>2017-04-29T15:20:30Z</time>
      </trkpt>
      <trkpt lat="49.4079" lon="3.90515">
        <ele>58.3</ele>
        <time>2017-04-29T15:20:39Z</time>
      </trkpt>
      <trkpt lat="49.40787" lon="3.90501">
        <ele>58.78</ele>
        <time>2017-04-29T15:20:48Z</time>
      </trkpt>
      <trkpt lat="49.40781" lon="3.90491">
        <ele>58.78</ele>
        <time>2017-04-29T15:20:56Z</time>
      </trkpt>
      <trkpt lat="49.40773" lon="3.90487">
        <ele>58.78</ele>
        <time>2017-04-29T15:21:02Z</time>
      </trkpt>
      <trkpt lat="49.40765" lon="3.90486">
        <ele>58.78</ele>
        <time>2017-04-29T15:21:10Z</time>
      </trkpt>
      <trkpt lat="49.40764" lon="3.90485">
        <ele>58.78</ele>
        <time>2017-04-29T15:21:12Z</time>
      </trkpt>
      <trkpt lat="49.40757" lon="3.90483">
        <ele>59.26</ele>
        <time>2017-04-29T15:21:20Z</time>
      </trkpt>
      <trkpt lat="49.40753" lon="3.90479">
        <ele>59.26</ele>
        <time>2017-04-29T15:21:29Z</time>
      </trkpt>
      <trkpt lat="49.40753" lon="3.90478">
        <ele>59.26</ele>
        <time>2017-04-29T15:21:36Z</time>
      </trkpt>
      <trkpt lat="49.40751" lon="3.90479">
        <ele>59.26</ele>
        <time>2017-04-29T15:21:41Z</time>
      </trkpt>
      <trkpt lat="49.4075" lon="3.90476">
        <ele>59.26</ele>
        <time>2017-04-29T15:21:55Z</time>
      </trkpt>
      <trkpt lat="49.4075" lon="3.90476">
        <ele>59.26</ele>
        <time>2017-04-29T15:22:03Z</time>
      </trkpt>
      <trkpt lat="49.40749" lon="3.90476">
        <ele>58.78</ele>
        <time>2017-04-29T15:22:11Z</time>
      </trkpt>
      <trkpt lat="49.40749" lon="3.90474">
        <ele>59.26</ele>
        <time>2017-04-29T15:22:15Z</time>
      </trkpt>
      <trkpt lat="49.40749" lon="3.90474">
        <ele>59.26</ele>
        <time>2017-04-29T15:22:23Z</time>
      </trkpt>
      <trkpt lat="49.40749" lon="3.90473">
        <ele>59.26</ele>
        <time>2017-04-29T15:22:35Z</time>
      </trkpt>
      <trkpt lat="49.40747" lon="3.90475">
        <ele>59.26</ele>
        <time>2017-04-29T15:22:43Z</time>
      </trkpt>
      <trkpt lat="49.40747" lon="3.90475">
        <ele>59.26</ele>
        <time>2017-04-29T15:22:49Z</time>
      </trkpt>
      <trkpt lat="49.40745" lon="3.90477">
        <ele>59.26</ele>
        <time>2017-04-29T15:22:58Z</time>
      </trkpt>
      <trkpt lat="49.40744" lon="3.90477">
        <ele>59.26</ele>
        <time>2017-04-29T15:23:05Z</time>
      </trkpt>
      <trkpt lat="49.40744" lon="3.90477">
        <ele>58.78</ele>
        <time>2017-04-29T15:23:18Z</time>
      </trkpt>
      <trkpt lat="49.40744" lon="3.90478">
        <ele>59.26</ele>
        <time>2017-04-29T15:23:31Z</time>
      </trkpt>
      <trkpt lat="49.40744" lon="3.90478">
        <ele>59.26</ele>
        <time>2017-04-29T15:23:41Z</time>
      </trkpt>
      <trkpt lat="49.40744" lon="3.90478">
        <ele>59.26</ele>
        <time>2017-04-29T15:23:58Z</time>
      </trkpt>
      <trkpt lat="49.40744" lon="3.90477">
        <ele>59.26</ele>
        <time>2017-04-29T15:24:05Z</time>
      </trkpt>
      <trkpt lat="49.40743" lon="3.90477">
        <ele>59.26</ele>
        <time>2017-04-29T15:24:15Z</time>
      </trkpt>
      <trkpt lat="49.40737" lon="3.90475">
        <ele>58.78</ele>
        <time>2017-04-29T15:24:21Z</time>
      </trkpt>
      <trkpt lat="49.40729" lon="3.90474">
        <ele>58.78</ele>
        <time>2017-04-29T15:24:29Z</time>
      </trkpt>
      <trkpt lat="49.40718" lon="3.90472">
        <ele>59.26</ele>
        <time>2017-04-29T15:24:38Z</time>
      </trkpt>
      <trkpt lat="49.40712" lon="3.90472">
        <ele>59.26</ele>
        <time>2017-04-29T15:24:43Z</time>
      </trkpt>
      <trkpt lat="49.40702" lon="3.9047">
        <ele>59.26</ele>
        <time>2017-04-29T15:24:50Z</time>
      </trkpt>
      <trkpt lat="49.40691" lon="3.90469">
        <ele>58.78</ele>
        <time>2017-04-29T15:24:58Z</time>
      </trkpt>
      <trkpt lat="49.40682" lon="3.9047">
        <ele>59.26</ele>
        <time>2017-04-29T15:25:05Z</time>
      </trkpt>
      <trkpt lat="49.40674" lon="3.90468">
        <ele>59.26</ele>
        <time>2017-04-29T15:25:12Z</time>
      </trkpt>
      <trkpt lat="49.40662" lon="3.90468">
        <ele>59.26</ele>
        <time>2017-04-29T15:25:22Z</time>
      </trkpt>
      <trkpt lat="49.4065" lon="3.90469">
        <ele>59.74</ele>
        <time>2017-04-29T15:25:31Z</time>
      </trkpt>
      <trkpt lat="49.40638" lon="3.9047">
        <ele>59.74</ele>
        <time>2017-04-29T15:25:40Z</time>
      </trkpt>
      <trkpt lat="49.4063" lon="3.90469">
        <ele>59.26</ele>
        <time>2017-04-29T15:25:47Z</time>
      </trkpt>
      <trkpt lat="49.40617" lon="3.9047">
        <ele>59.26</ele>
        <time>2017-04-29T15:25:57Z</time>
      </trkpt>
      <trkpt lat="49.40602" lon="3.90471">
        <ele>59.26</ele>
        <time>2017-04-29T15:26:08Z</time>
      </trkpt>
      <trkpt lat="49.4059" lon="3.90471">
        <ele>59.26</ele>
        <time>2017-04-29T15:26:18Z</time>
      </trkpt>
      <trkpt lat="49.40578" lon="3.90472">
        <ele>59.26</ele>
        <time>2017-04-29T15:26:27Z</time>
      </trkpt>
      <trkpt lat="49.40565" lon="3.90473">
        <ele>58.78</ele>
        <time>2017-04-29T15:26:37Z</time>
      </trkpt>
      <trkpt lat="49.4055" lon="3.90473">
        <ele>58.78</ele>
        <time>2017-04-29T15:26:48Z</time>
      </trkpt>
      <trkpt lat="49.40539" lon="3.90475">
        <ele>59.26</ele>
        <time>2017-04-29T15:26:57Z</time>
      </trkpt>
      <trkpt lat="49.40528" lon="3.90477">
        <ele>58.3</ele>
        <time>2017-04-29T15:27:05Z</time>
      </trkpt>
      <trkpt lat="49.40519" lon="3.90477">
        <ele>58.3</ele>
        <time>2017-04-29T15:27:13Z</time>
      </trkpt>
      <trkpt lat="49.40509" lon="3.90479">
        <ele>58.3</ele>
        <time>2017-04-29T15:27:21Z</time>
      </trkpt>
      <trkpt lat="49.405" lon="3.90479">
        <ele>58.3</ele>
        <time>2017-04-29T15:27:28Z</time>
      </trkpt>
      <trkpt lat="49.4049" lon="3.90479">
        <ele>58.3</ele>
        <time>2017-04-29T15:27:36Z</time>
      </trkpt>
      <trkpt lat="49.40489" lon="3.90478">
        <ele>58.3</ele>
        <time>2017-04-29T15:27:37Z</time>
      </trkpt>
      <trkpt lat="49.4048" lon="3.90478">
        <ele>58.3</ele>
        <time>2017-04-29T15:27:47Z</time>
      </trkpt>
      <trkpt lat="49.40477" lon="3.90477">
        <ele>58.3</ele>
        <time>2017-04-29T15:27:51Z</time>
      </trkpt>
      <trkpt lat="49.40474" lon="3.90477">
        <ele>58.3</ele>
        <time>2017-04-29T15:27:54Z</time>
      </trkpt>
      <trkpt lat="49.40471" lon="3.90476">
        <ele>58.3</ele>
        <time>2017-04-29T15:27:57Z</time>
      </trkpt>
      <trkpt lat="49.40461" lon="3.90477">
        <ele>58.3</ele>
        <time>2017-04-29T15:28:05Z</time>
      </trkpt>
      <trkpt lat="49.4045" lon="3.90478">
        <ele>57.82</ele>
        <time>2017-04-29T15:28:15Z</time>
      </trkpt>
      <trkpt lat="49.4044" lon="3.90479">
        <ele>58.3</ele>
        <time>2017-04-29T15:28:23Z</time>
      </trkpt>
      <trkpt lat="49.40432" lon="3.90479">
        <ele>58.3</ele>
        <time>2017-04-29T15:28:30Z</time>
      </trkpt>
      <trkpt lat="49.40425" lon="3.90478">
        <ele>58.3</ele>
        <time>2017-04-29T15:28:35Z</time>
      </trkpt>
      <trkpt lat="49.40416" lon="3.90476">
        <ele>57.34</ele>
        <time>2017-04-29T15:28:43Z</time>
      </trkpt>
      <trkpt lat="49.40409" lon="3.9048">
        <ele>57.34</ele>
        <time>2017-04-29T15:28:49Z</time>
      </trkpt>
      <trkpt lat="49.404" lon="3.90479">
        <ele>57.34</ele>
        <time>2017-04-29T15:28:56Z</time>
      </trkpt>
      <trkpt lat="49.40393" lon="3.90481">
        <ele>56.86</ele>
        <time>2017-04-29T15:29:02Z</time>
      </trkpt>
      <trkpt lat="49.40386" lon="3.90481">
        <ele>56.86</ele>
        <time>2017-04-29T15:29:08Z</time>
      </trkpt>
      <trkpt lat="49.40381" lon="3.9048">
        <ele>56.86</ele>
        <time>2017-04-29T15:29:13Z</time>
      </trkpt>
      <trkpt lat="49.4038" lon="3.90478">
        <ele>56.86</ele>
        <time>2017-04-29T15:29:15Z</time>
      </trkpt>
      <trkpt lat="49.40378" lon="3.90472">
        <ele>56.86</ele>
        <time>2017-04-29T15:29:18Z</time>
      </trkpt>
      <trkpt lat="49.40373" lon="3.90462">
        <ele>56.86</ele>
        <time>2017-04-29T15:29:24Z</time>
      </trkpt>
      <trkpt lat="49.40368" lon="3.90451">
        <ele>56.86</ele>
        <time>2017-04-29T15:29:31Z</time>
      </trkpt>
      <trkpt lat="49.40362" lon="3.90437">
        <ele>56.86</ele>
        <time>2017-04-29T15:29:39Z</time>
      </trkpt>
      <trkpt lat="49.40356" lon="3.90424">
        <ele>56.86</ele>
        <time>2017-04-29T15:29:47Z</time>
      </trkpt>
      <trkpt lat="49.40355" lon="3.90423">
        <ele>56.86</ele>
        <time>2017-04-29T15:29:48Z</time>
      </trkpt>
      <trkpt lat="49.40353" lon="3.90415">
        <ele>57.34</ele>
        <time>2017-04-29T15:29:52Z</time>
      </trkpt>
      <trkpt lat="49.40347" lon="3.90398">
        <ele>57.34</ele>
        <time>2017-04-29T15:30:02Z</time>
      </trkpt>
      <trkpt lat="49.40346" lon="3.90394">
        <ele>57.34</ele>
        <time>2017-04-29T15:30:04Z</time>
      </trkpt>
      <trkpt lat="49.40343" lon="3.90382">
        <ele>57.34</ele>
        <time>2017-04-29T15:30:10Z</time>
      </trkpt>
      <trkpt lat="49.40339" lon="3.90363">
        <ele>57.34</ele>
        <time>2017-04-29T15:30:19Z</time>
      </trkpt>
      <trkpt lat="49.40338" lon="3.90352">
        <ele>56.86</ele>
        <time>2017-04-29T15:30:25Z</time>
      </trkpt>
      <trkpt lat="49.40333" lon="3.90339">
        <ele>57.82</ele>
        <time>2017-04-29T15:30:32Z</time>
      </trkpt>
      <trkpt lat="49.40332" lon="3.90337">
        <ele>56.86</ele>
        <time>2017-04-29T15:30:33Z</time>
      </trkpt>
      <trkpt lat="49.40328" lon="3.90324">
        <ele>56.86</ele>
        <time>2017-04-29T15:30:40Z</time>
      </trkpt>
      <trkpt lat="49.40327" lon="3.90322">
        <ele>56.86</ele>
        <time>2017-04-29T15:30:41Z</time>
      </trkpt>
      <trkpt lat="49.40323" lon="3.90308">
        <ele>56.86</ele>
        <time>2017-04-29T15:30:49Z</time>
      </trkpt>
      <trkpt lat="49.40319" lon="3.90294">
        <ele>56.86</ele>
        <time>2017-04-29T15:30:56Z</time>
      </trkpt>
      <trkpt lat="49.40318" lon="3.90292">
        <ele>56.86</ele>
        <time>2017-04-29T15:30:58Z</time>
      </trkpt>
      <trkpt lat="49.40317" lon="3.90284">
        <ele>56.86</ele>
        <time>2017-04-29T15:31:02Z</time>
      </trkpt>
      <trkpt lat="49.40312" lon="3.90266">
        <ele>56.86</ele>
        <time>2017-04-29T15:31:11Z</time>
      </trkpt>
      <trkpt lat="49.4031" lon="3.90257">
        <ele>56.86</ele>
        <time>2017-04-29T15:31:16Z</time>
      </trkpt>
      <trkpt lat="49.40308" lon="3.90241">
        <ele>56.86</ele>
        <time>2017-04-29T15:31:24Z</time>
      </trkpt>
      <trkpt lat="49.40305" lon="3.90234">
        <ele>56.86</ele>
        <time>2017-04-29T15:31:28Z</time>
      </trkpt>
      <trkpt lat="49.40303" lon="3.90226">
        <ele>56.86</ele>
        <time>2017-04-29T15:31:33Z</time>
      </trkpt>
      <trkpt lat="49.40301" lon="3.90218">
        <ele>56.86</ele>
        <time>2017-04-29T15:31:39Z</time>
      </trkpt>
      <trkpt lat="49.40293" lon="3.90215">
        <ele>56.86</ele>
        <time>2017-04-29T15:31:47Z</time>
      </trkpt>
      <trkpt lat="49.40287" lon="3.90216">
        <ele>56.86</ele>
        <time>2017-04-29T15:31:52Z</time>
      </trkpt>
      <trkpt lat="49.40282" lon="3.90216">
        <ele>56.86</ele>
        <time>2017-04-29T15:31:56Z</time>
      </trkpt>
      <trkpt lat="49.4027" lon="3.9022">
        <ele>56.37</ele>
        <time>2017-04-29T15:32:05Z</time>
      </trkpt>
      <trkpt lat="49.4026" lon="3.90225">
        <ele>56.37</ele>
        <time>2017-04-29T15:32:13Z</time>
      </trkpt>
      <trkpt lat="49.40258" lon="3.90224">
        <ele>56.86</ele>
        <time>2017-04-29T15:32:15Z</time>
      </trkpt>
      <trkpt lat="49.40252" lon="3.90214">
        <ele>56.86</ele>
        <time>2017-04-29T15:32:23Z</time>
      </trkpt>
      <trkpt lat="49.40247" lon="3.90201">
        <ele>56.86</ele>
        <time>2017-04-29T15:32:31Z</time>
      </trkpt>
      <trkpt lat="49.40241" lon="3.90184">
        <ele>56.86</ele>
        <time>2017-04-29T15:32:41Z</time>
      </trkpt>
      <trkpt lat="49.40236" lon="3.90171">
        <ele>57.34</ele>
        <time>2017-04-29T15:32:49Z</time>
      </trkpt>
      <trkpt lat="49.40233" lon="3.90162">
        <ele>57.34</ele>
        <time>2017-04-29T15:32:54Z</time>
      </trkpt>
      <trkpt lat="49.40226" lon="3.90148">
        <ele>57.34</ele>
        <time>2017-04-29T15:33:03Z</time>
      </trkpt>
      <trkpt lat="49.4022" lon="3.90131">
        <ele>57.82</ele>
        <time>2017-04-29T15:33:13Z</time>
      </trkpt>
      <trkpt lat="49.40214" lon="3.90116">
        <ele>57.82</ele>
        <time>2017-04-29T15:33:22Z</time>
      </trkpt>
      <trkpt lat="49.40208" lon="3.90098">
        <ele>57.82</ele>
        <time>2017-04-29T15:33:32Z</time>
      </trkpt>
      <trkpt lat="49.40205" lon="3.90095">
        <ele>57.82</ele>
        <time>2017-04-29T15:33:38Z</time>
      </trkpt>
      <trkpt lat="49.40201" lon="3.90082">
        <ele>58.3</ele>
        <time>2017-04-29T15:33:46Z</time>
      </trkpt>
      <trkpt lat="49.40197" lon="3.90068">
        <ele>58.3</ele>
        <time>2017-04-29T15:33:54Z</time>
      </trkpt>
      <trkpt lat="49.40193" lon="3.90052">
        <ele>58.78</ele>
        <time>2017-04-29T15:34:03Z</time>
      </trkpt>
      <trkpt lat="49.40192" lon="3.90038">
        <ele>58.78</ele>
        <time>2017-04-29T15:34:10Z</time>
      </trkpt>
      <trkpt lat="49.4019" lon="3.90028">
        <ele>59.26</ele>
        <time>2017-04-29T15:34:15Z</time>
      </trkpt>
      <trkpt lat="49.40189" lon="3.90015">
        <ele>59.74</ele>
        <time>2017-04-29T15:34:22Z</time>
      </trkpt>
      <trkpt lat="49.40188" lon="3.90012">
        <ele>59.26</ele>
        <time>2017-04-29T15:34:24Z</time>
      </trkpt>
      <trkpt lat="49.40187" lon="3.90002">
        <ele>60.7</ele>
        <time>2017-04-29T15:34:32Z</time>
      </trkpt>
      <trkpt lat="49.40188" lon="3.89999">
        <ele>59.74</ele>
        <time>2017-04-29T15:34:39Z</time>
      </trkpt>
      <trkpt lat="49.40188" lon="3.89998">
        <ele>59.74</ele>
        <time>2017-04-29T15:34:57Z</time>
      </trkpt>
      <trkpt lat="49.40188" lon="3.89999">
        <ele>60.22</ele>
        <time>2017-04-29T15:35:07Z</time>
      </trkpt>
      <trkpt lat="49.40187" lon="3.89998">
        <ele>60.22</ele>
        <time>2017-04-29T15:35:18Z</time>
      </trkpt>
      <trkpt lat="49.40187" lon="3.89998">
        <ele>60.22</ele>
        <time>2017-04-29T15:35:26Z</time>
      </trkpt>
      <trkpt lat="49.40187" lon="3.89998">
        <ele>60.22</ele>
        <time>2017-04-29T15:35:32Z</time>
      </trkpt>
      <trkpt lat="49.40187" lon="3.89998">
        <ele>60.7</ele>
        <time>2017-04-29T15:35:43Z</time>
      </trkpt>
      <trkpt lat="49.40187" lon="3.9">
        <ele>59.74</ele>
        <time>2017-04-29T15:35:49Z</time>
      </trkpt>
      <trkpt lat="49.4019" lon="3.90021">
        <ele>59.26</ele>
        <time>2017-04-29T15:36:02Z</time>
      </trkpt>
      <trkpt lat="49.40191" lon="3.9002">
        <ele>59.26</ele>
        <time>2017-04-29T15:36:14Z</time>
      </trkpt>
      <trkpt lat="49.40191" lon="3.90022">
        <ele>59.26</ele>
        <time>2017-04-29T15:36:27Z</time>
      </trkpt>
      <trkpt lat="49.40193" lon="3.90033">
        <ele>59.26</ele>
        <time>2017-04-29T15:36:38Z</time>
      </trkpt>
      <trkpt lat="49.40197" lon="3.90033">
        <ele>59.26</ele>
        <time>2017-04-29T15:36:45Z</time>
      </trkpt>
      <trkpt lat="49.40206" lon="3.90047">
        <ele>59.74</ele>
        <time>2017-04-29T15:36:58Z</time>
      </trkpt>
      <trkpt lat="49.40202" lon="3.90054">
        <ele>59.26</ele>
        <time>2017-04-29T15:37:03Z</time>
      </trkpt>
      <trkpt lat="49.40196" lon="3.90058">
        <ele>59.26</ele>
        <time>2017-04-29T15:37:15Z</time>
      </trkpt>
      <trkpt lat="49.40195" lon="3.9005">
        <ele>59.26</ele>
        <time>2017-04-29T15:37:37Z</time>
      </trkpt>
      <trkpt lat="49.40196" lon="3.90048">
        <ele>59.26</ele>
        <time>2017-04-29T15:37:51Z</time>
      </trkpt>
      <trkpt lat="49.40196" lon="3.90044">
        <ele>59.26</ele>
        <time>2017-04-29T15:38:06Z</time>
      </trkpt>
      <trkpt lat="49.40196" lon="3.90043">
        <ele>59.26</ele>
        <time>2017-04-29T15:38:18Z</time>
      </trkpt>
      <trkpt lat="49.40198" lon="3.90039">
        <ele>59.26</ele>
        <time>2017-04-29T15:38:30Z</time>
      </trkpt>
      <trkpt lat="49.40196" lon="3.90033">
        <ele>59.74</ele>
        <time>2017-04-29T15:38:43Z</time>
      </trkpt>
      <trkpt lat="49.40196" lon="3.90022">
        <ele>59.26</ele>
        <time>2017-04-29T15:38:54Z</time>
      </trkpt>
      <trkpt lat="49.40197" lon="3.90026">
        <ele>59.26</ele>
        <time>2017-04-29T15:39:04Z</time>
      </trkpt>
      <trkpt lat="49.40198" lon="3.90035">
        <ele>59.74</ele>
        <time>2017-04-29T15:39:15Z</time>
      </trkpt>
      <trkpt lat="49.402" lon="3.90037">
        <ele>59.26</ele>
        <time>2017-04-29T15:39:26Z</time>
      </trkpt>
      <trkpt lat="49.40201" lon="3.90034">
        <ele>59.26</ele>
        <time>2017-04-29T15:39:38Z</time>
      </trkpt>
      <trkpt lat="49.402" lon="3.90027">
        <ele>59.26</ele>
        <time>2017-04-29T15:40:04Z</time>
      </trkpt>
      <trkpt lat="49.40199" lon="3.90025">
        <ele>59.26</ele>
        <time>2017-04-29T15:40:13Z</time>
      </trkpt>
      <trkpt lat="49.40197" lon="3.90031">
        <ele>59.74</ele>
        <time>2017-04-29T15:40:39Z</time>
      </trkpt>
      <trkpt lat="49.40191" lon="3.9001">
        <ele>59.26</ele>
        <time>2017-04-29T15:40:49Z</time>
      </trkpt>
      <trkpt lat="49.40184" lon="3.89988">
        <ele>59.74</ele>
        <time>2017-04-29T15:40:57Z</time>
      </trkpt>
      <trkpt lat="49.40188" lon="3.89952">
        <ele>59.26</ele>
        <time>2017-04-29T15:41:09Z</time>
      </trkpt>
    </trkseg>
  </trk>
</gpx>